<?xml version='1.0' encoding='UTF-8'?><gpx version="1.1" creator="JPX - https://github.com/jenetics/jpx" xmlns="http://www.topografix.com/GPX/1/1"><trk><trkseg><trkpt lat="43.591142337988344" lon="11.345849841810418"><ele>436.0</ele><time>2026-04-12T16:10:39Z</time></trkpt><trkpt lat="43.59118104277567" lon="11.346023675591285"><ele>433.0</ele><time>2026-04-12T16:10:40Z</time></trkpt><trkpt lat="43.59124914468072" lon="11.346178478140137"><ele>430.0</ele><time>2026-04-12T16:10:41Z</time></trkpt><trkpt lat="43.5913606659428" lon="11.34628333497587"><ele>427.0</ele><time>2026-04-12T16:10:42Z</time></trkpt><trkpt lat="43.591497048692304" lon="11.346339826885968"><ele>427.0</ele><time>2026-04-12T16:10:43Z</time></trkpt><trkpt lat="43.59164060147338" lon="11.346351321635778"><ele>427.0</ele><time>2026-04-12T16:10:44Z</time></trkpt><trkpt lat="43.59178090340266" lon="11.34632520116737"><ele>427.0</ele><time>2026-04-12T16:10:45Z</time></trkpt><trkpt lat="43.591919918174604" lon="11.346288264380243"><ele>427.0</ele><time>2026-04-12T16:10:46Z</time></trkpt><trkpt lat="43.59205458499245" lon="11.34627119273488"><ele>425.5</ele><time>2026-04-12T16:10:47Z</time></trkpt><trkpt lat="43.592189399107085" lon="11.346261633107407"><ele>424.0</ele><time>2026-04-12T16:10:48Z</time></trkpt><trkpt lat="43.59231780612713" lon="11.34631405526552"><ele>422.5</ele><time>2026-04-12T16:10:49Z</time></trkpt><trkpt lat="43.592444866237805" lon="11.346375105460874"><ele>421.0</ele><time>2026-04-12T16:10:50Z</time></trkpt><trkpt lat="43.59256843501886" lon="11.346460543921301"><ele>421.75</ele><time>2026-04-12T16:10:51Z</time></trkpt><trkpt lat="43.59268163690641" lon="11.346569189854005"><ele>422.5</ele><time>2026-04-12T16:10:52Z</time></trkpt><trkpt lat="43.592798625494964" lon="11.346684975328559"><ele>423.25</ele><time>2026-04-12T16:10:53Z</time></trkpt><trkpt lat="43.59290954291172" lon="11.346802121885263"><ele>424.0</ele><time>2026-04-12T16:10:54Z</time></trkpt><trkpt lat="43.59302437328337" lon="11.346904759782024"><ele>424.0</ele><time>2026-04-12T16:10:55Z</time></trkpt><trkpt lat="43.593103846893385" lon="11.347045995472882"><ele>424.0</ele><time>2026-04-12T16:10:56Z</time></trkpt><trkpt lat="43.59319112075309" lon="11.347161677596185"><ele>424.0</ele><time>2026-04-12T16:10:57Z</time></trkpt><trkpt lat="43.59320016439812" lon="11.347329925241242"><ele>424.0</ele><time>2026-04-12T16:10:58Z</time></trkpt><trkpt lat="43.59318497447027" lon="11.347490076506132"><ele>427.5</ele><time>2026-04-12T16:10:59Z</time></trkpt><trkpt lat="43.593155037218466" lon="11.347662019027943"><ele>431.0</ele><time>2026-04-12T16:11:00Z</time></trkpt><trkpt lat="43.59313887056752" lon="11.347842372666934"><ele>434.5</ele><time>2026-04-12T16:11:01Z</time></trkpt><trkpt lat="43.59312336113384" lon="11.348020661936983"><ele>438.0</ele><time>2026-04-12T16:11:02Z</time></trkpt><trkpt lat="43.59315487360408" lon="11.348195148566974"><ele>439.5</ele><time>2026-04-12T16:11:03Z</time></trkpt><trkpt lat="43.593237180984275" lon="11.34836924485121"><ele>441.0</ele><time>2026-04-12T16:11:04Z</time></trkpt><trkpt lat="43.59330491532668" lon="11.348528591223975"><ele>442.5</ele><time>2026-04-12T16:11:05Z</time></trkpt><trkpt lat="43.593371689511194" lon="11.348694120843552"><ele>444.0</ele><time>2026-04-12T16:11:06Z</time></trkpt><trkpt lat="43.593434073822486" lon="11.348850211622567"><ele>447.0</ele><time>2026-04-12T16:11:07Z</time></trkpt><trkpt lat="43.593458276380844" lon="11.349014739521909"><ele>450.0</ele><time>2026-04-12T16:11:08Z</time></trkpt><trkpt lat="43.59347744937731" lon="11.349171679124817"><ele>453.0</ele><time>2026-04-12T16:11:09Z</time></trkpt><trkpt lat="43.593411470002096" lon="11.349341730945484"><ele>456.0</ele><time>2026-04-12T16:11:10Z</time></trkpt><trkpt lat="43.59336016079619" lon="11.349513576023908"><ele>456.0</ele><time>2026-04-12T16:11:11Z</time></trkpt><trkpt lat="43.59332693240656" lon="11.349692271896648"><ele>456.0</ele><time>2026-04-12T16:11:12Z</time></trkpt><trkpt lat="43.59334150309676" lon="11.34988701890563"><ele>456.0</ele><time>2026-04-12T16:11:13Z</time></trkpt><trkpt lat="43.59336945869304" lon="11.350079708961553"><ele>456.0</ele><time>2026-04-12T16:11:14Z</time></trkpt><trkpt lat="43.59340574637314" lon="11.350274814931954"><ele>458.25</ele><time>2026-04-12T16:11:15Z</time></trkpt><trkpt lat="43.59347658008729" lon="11.350453018921637"><ele>460.5</ele><time>2026-04-12T16:11:16Z</time></trkpt><trkpt lat="43.59355264408202" lon="11.350621656769961"><ele>462.75</ele><time>2026-04-12T16:11:17Z</time></trkpt><trkpt lat="43.59361584053546" lon="11.350788605022858"><ele>465.0</ele><time>2026-04-12T16:11:18Z</time></trkpt><trkpt lat="43.59364688353501" lon="11.350963353930467"><ele>467.0</ele><time>2026-04-12T16:11:19Z</time></trkpt><trkpt lat="43.59363556447756" lon="11.351149271819764"><ele>469.0</ele><time>2026-04-12T16:11:20Z</time></trkpt><trkpt lat="43.593618584010024" lon="11.351343687884794"><ele>471.0</ele><time>2026-04-12T16:11:21Z</time></trkpt><trkpt lat="43.59357835166347" lon="11.351521961336058"><ele>473.0</ele><time>2026-04-12T16:11:22Z</time></trkpt><trkpt lat="43.59352881006822" lon="11.351699019787524"><ele>473.0</ele><time>2026-04-12T16:11:23Z</time></trkpt><trkpt lat="43.593470171476014" lon="11.351870850056654"><ele>473.0</ele><time>2026-04-12T16:11:24Z</time></trkpt><trkpt lat="43.59340368504159" lon="11.352038935286329"><ele>473.0</ele><time>2026-04-12T16:11:25Z</time></trkpt><trkpt lat="43.59334122958633" lon="11.352209194089863"><ele>473.0</ele><time>2026-04-12T16:11:26Z</time></trkpt><trkpt lat="43.59324320528208" lon="11.352339180360959"><ele>470.75</ele><time>2026-04-12T16:11:27Z</time></trkpt><trkpt lat="43.59315558204646" lon="11.35248090406162"><ele>468.5</ele><time>2026-04-12T16:11:28Z</time></trkpt><trkpt lat="43.59305849617485" lon="11.352621586004535"><ele>466.25</ele><time>2026-04-12T16:11:29Z</time></trkpt><trkpt lat="43.59297854191967" lon="11.35278591417682"><ele>464.0</ele><time>2026-04-12T16:11:30Z</time></trkpt><trkpt lat="43.59294748981427" lon="11.35298132713863"><ele>465.5</ele><time>2026-04-12T16:11:31Z</time></trkpt><trkpt lat="43.592925962682806" lon="11.353170259731458"><ele>467.0</ele><time>2026-04-12T16:11:32Z</time></trkpt><trkpt lat="43.59287844004092" lon="11.353337830251713"><ele>468.5</ele><time>2026-04-12T16:11:33Z</time></trkpt><trkpt lat="43.59279778263131" lon="11.35347500305725"><ele>470.0</ele><time>2026-04-12T16:11:34Z</time></trkpt><trkpt lat="43.592711583592816" lon="11.353615706974558"><ele>470.0</ele><time>2026-04-12T16:11:35Z</time></trkpt><trkpt lat="43.592615093362724" lon="11.353734162505505"><ele>470.0</ele><time>2026-04-12T16:11:36Z</time></trkpt><trkpt lat="43.592530074325914" lon="11.353868500734801"><ele>470.0</ele><time>2026-04-12T16:11:37Z</time></trkpt><trkpt lat="43.59243489568066" lon="11.353992352096586"><ele>470.0</ele><time>2026-04-12T16:11:38Z</time></trkpt><trkpt lat="43.59234968822538" lon="11.354125292493013"><ele>469.0</ele><time>2026-04-12T16:11:39Z</time></trkpt><trkpt lat="43.59225587747965" lon="11.354248057414859"><ele>468.0</ele><time>2026-04-12T16:11:40Z</time></trkpt><trkpt lat="43.59212904317785" lon="11.354299237485577"><ele>467.0</ele><time>2026-04-12T16:11:41Z</time></trkpt><trkpt lat="43.59198758837023" lon="11.354313197916888"><ele>466.0</ele><time>2026-04-12T16:11:42Z</time></trkpt><trkpt lat="43.591851446775685" lon="11.35438976100496"><ele>467.33333333333337</ele><time>2026-04-12T16:11:43Z</time></trkpt><trkpt lat="43.59173430768288" lon="11.354526841384462"><ele>468.66666666666663</ele><time>2026-04-12T16:11:44Z</time></trkpt><trkpt lat="43.59160937548953" lon="11.354657129441707"><ele>470.0</ele><time>2026-04-12T16:11:45Z</time></trkpt><trkpt lat="43.5914715873092" lon="11.354758678016253"><ele>470.0</ele><time>2026-04-12T16:11:46Z</time></trkpt><trkpt lat="43.591322830368604" lon="11.354831853803939"><ele>470.0</ele><time>2026-04-12T16:11:47Z</time></trkpt><trkpt lat="43.591159519439934" lon="11.354899765724255"><ele>470.0</ele><time>2026-04-12T16:11:48Z</time></trkpt><trkpt lat="43.59100886883989" lon="11.354981281165221"><ele>472.0</ele><time>2026-04-12T16:11:49Z</time></trkpt><trkpt lat="43.590887284006136" lon="11.355091085655163"><ele>474.0</ele><time>2026-04-12T16:11:50Z</time></trkpt><trkpt lat="43.59077342397768" lon="11.355204849918609"><ele>476.0</ele><time>2026-04-12T16:11:51Z</time></trkpt><trkpt lat="43.59072527234048" lon="11.355387712706518"><ele>478.0</ele><time>2026-04-12T16:11:52Z</time></trkpt><trkpt lat="43.59072014554341" lon="11.355564838054299"><ele>478.0</ele><time>2026-04-12T16:11:53Z</time></trkpt><trkpt lat="43.59078873883797" lon="11.35571791195822"><ele>478.0</ele><time>2026-04-12T16:11:54Z</time></trkpt><trkpt lat="43.59089359009075" lon="11.355823408570357"><ele>478.0</ele><time>2026-04-12T16:11:55Z</time></trkpt><trkpt lat="43.59104187295146" lon="11.355850562832934"><ele>478.0</ele><time>2026-04-12T16:11:56Z</time></trkpt><trkpt lat="43.59117099739446" lon="11.355836572436592"><ele>477.25</ele><time>2026-04-12T16:11:57Z</time></trkpt><trkpt lat="43.59129504710599" lon="11.355786591669714"><ele>476.5</ele><time>2026-04-12T16:11:58Z</time></trkpt><trkpt lat="43.591412922204675" lon="11.355739649022468"><ele>475.75</ele><time>2026-04-12T16:11:59Z</time></trkpt><trkpt lat="43.59152187228754" lon="11.355767399181039"><ele>475.0</ele><time>2026-04-12T16:12:00Z</time></trkpt><trkpt lat="43.591582162419556" lon="11.355922119646545"><ele>475.0</ele><time>2026-04-12T16:12:01Z</time></trkpt><trkpt lat="43.59163308683777" lon="11.356060091607413"><ele>475.0</ele><time>2026-04-12T16:12:02Z</time></trkpt><trkpt lat="43.59171843232553" lon="11.356197254000422"><ele>475.0</ele><time>2026-04-12T16:12:03Z</time></trkpt><trkpt lat="43.59183280658882" lon="11.356287579886432"><ele>475.0</ele><time>2026-04-12T16:12:04Z</time></trkpt><trkpt lat="43.5919430182032" lon="11.356357309359993"><ele>473.5</ele><time>2026-04-12T16:12:05Z</time></trkpt><trkpt lat="43.59203148903916" lon="11.356415527099262"><ele>472.0</ele><time>2026-04-12T16:12:06Z</time></trkpt><trkpt lat="43.59215264535408" lon="11.35655832875093"><ele>470.5</ele><time>2026-04-12T16:12:07Z</time></trkpt><trkpt lat="43.59219336175058" lon="11.35673806723862"><ele>469.0</ele><time>2026-04-12T16:12:08Z</time></trkpt><trkpt lat="43.592226506114216" lon="11.356917537175844"><ele>469.0</ele><time>2026-04-12T16:12:09Z</time></trkpt><trkpt lat="43.592266663592504" lon="11.357105792243107"><ele>469.0</ele><time>2026-04-12T16:12:10Z</time></trkpt><trkpt lat="43.59228499150615" lon="11.357300255632712"><ele>469.0</ele><time>2026-04-12T16:12:11Z</time></trkpt><trkpt lat="43.59231424392582" lon="11.357508173479347"><ele>469.0</ele><time>2026-04-12T16:12:12Z</time></trkpt><trkpt lat="43.59234167822398" lon="11.357679161263675"><ele>473.0</ele><time>2026-04-12T16:12:13Z</time></trkpt><trkpt lat="43.59236170321156" lon="11.357838288326164"><ele>477.0</ele><time>2026-04-12T16:12:14Z</time></trkpt><trkpt lat="43.59240999419624" lon="11.358033602257034"><ele>481.0</ele><time>2026-04-12T16:12:15Z</time></trkpt><trkpt lat="43.5924617360216" lon="11.358209296816868"><ele>485.0</ele><time>2026-04-12T16:12:16Z</time></trkpt><trkpt lat="43.59253092911946" lon="11.358369474900329"><ele>489.5</ele><time>2026-04-12T16:12:17Z</time></trkpt><trkpt lat="43.59259490831094" lon="11.35852355488119"><ele>494.0</ele><time>2026-04-12T16:12:18Z</time></trkpt><trkpt lat="43.59266955330578" lon="11.358663488450167"><ele>498.5</ele><time>2026-04-12T16:12:19Z</time></trkpt><trkpt lat="43.592719887506476" lon="11.358806649694838"><ele>503.0</ele><time>2026-04-12T16:12:20Z</time></trkpt><trkpt lat="43.592733212736064" lon="11.358951977015096"><ele>504.0</ele><time>2026-04-12T16:12:21Z</time></trkpt><trkpt lat="43.59269761722593" lon="11.359094184728674"><ele>505.0</ele><time>2026-04-12T16:12:22Z</time></trkpt><trkpt lat="43.59258388041511" lon="11.359192081965944"><ele>506.0</ele><time>2026-04-12T16:12:23Z</time></trkpt><trkpt lat="43.592524395605494" lon="11.359339391580352"><ele>507.0</ele><time>2026-04-12T16:12:24Z</time></trkpt><trkpt lat="43.592469071418954" lon="11.359488332786306"><ele>507.0</ele><time>2026-04-12T16:12:25Z</time></trkpt><trkpt lat="43.592443175812186" lon="11.359662509691217"><ele>507.0</ele><time>2026-04-12T16:12:26Z</time></trkpt><trkpt lat="43.592411257628044" lon="11.359841692336978"><ele>507.0</ele><time>2026-04-12T16:12:27Z</time></trkpt><trkpt lat="43.5923864267427" lon="11.36002368364142"><ele>507.0</ele><time>2026-04-12T16:12:28Z</time></trkpt><trkpt lat="43.592363522707714" lon="11.360203842644179"><ele>507.25</ele><time>2026-04-12T16:12:29Z</time></trkpt><trkpt lat="43.59234937114812" lon="11.360377101776532"><ele>507.5</ele><time>2026-04-12T16:12:30Z</time></trkpt><trkpt lat="43.592362835050686" lon="11.360542579388337"><ele>507.75</ele><time>2026-04-12T16:12:31Z</time></trkpt><trkpt lat="43.59242854983145" lon="11.360691434133885"><ele>508.0</ele><time>2026-04-12T16:12:32Z</time></trkpt><trkpt lat="43.59255704305371" lon="11.360763583265486"><ele>511.25</ele><time>2026-04-12T16:12:33Z</time></trkpt><trkpt lat="43.592687065921" lon="11.360806290268178"><ele>514.5</ele><time>2026-04-12T16:12:34Z</time></trkpt><trkpt lat="43.59279348674229" lon="11.360889914910922"><ele>517.75</ele><time>2026-04-12T16:12:35Z</time></trkpt><trkpt lat="43.59285684396451" lon="11.360998679334731"><ele>521.0</ele><time>2026-04-12T16:12:36Z</time></trkpt><trkpt lat="43.59288701994951" lon="11.361171615322164"><ele>523.75</ele><time>2026-04-12T16:12:37Z</time></trkpt><trkpt lat="43.592884728540795" lon="11.361335960400702"><ele>526.5</ele><time>2026-04-12T16:12:38Z</time></trkpt><trkpt lat="43.59287068886453" lon="11.361514622517188"><ele>529.25</ele><time>2026-04-12T16:12:39Z</time></trkpt><trkpt lat="43.59284146253747" lon="11.361694195964052"><ele>532.0</ele><time>2026-04-12T16:12:40Z</time></trkpt><trkpt lat="43.59279029570176" lon="11.361856779864624"><ele>532.0</ele><time>2026-04-12T16:12:41Z</time></trkpt><trkpt lat="43.59272062943415" lon="11.362023057648477"><ele>532.0</ele><time>2026-04-12T16:12:42Z</time></trkpt><trkpt lat="43.59265447582574" lon="11.362183446038044"><ele>532.0</ele><time>2026-04-12T16:12:43Z</time></trkpt><trkpt lat="43.592586508119496" lon="11.36235020211864"><ele>532.0</ele><time>2026-04-12T16:12:44Z</time></trkpt><trkpt lat="43.59252922046328" lon="11.362514524936282"><ele>532.0</ele><time>2026-04-12T16:12:45Z</time></trkpt><trkpt lat="43.5924802232977" lon="11.362687378648856"><ele>532.0</ele><time>2026-04-12T16:12:46Z</time></trkpt><trkpt lat="43.59244349232555" lon="11.36285929284544"><ele>532.0</ele><time>2026-04-12T16:12:47Z</time></trkpt><trkpt lat="43.59243535105217" lon="11.363025106406914"><ele>532.0</ele><time>2026-04-12T16:12:48Z</time></trkpt><trkpt lat="43.59244987568256" lon="11.36317765103641"><ele>532.75</ele><time>2026-04-12T16:12:49Z</time></trkpt><trkpt lat="43.592523926987276" lon="11.363300919440402"><ele>533.5</ele><time>2026-04-12T16:12:50Z</time></trkpt><trkpt lat="43.5926389734905" lon="11.363356182450255"><ele>534.25</ele><time>2026-04-12T16:12:51Z</time></trkpt><trkpt lat="43.59276615882085" lon="11.363358586880578"><ele>535.0</ele><time>2026-04-12T16:12:52Z</time></trkpt><trkpt lat="43.5928982426652" lon="11.363321421747155"><ele>533.0</ele><time>2026-04-12T16:12:53Z</time></trkpt><trkpt lat="43.59302518205274" lon="11.363295687110478"><ele>531.0</ele><time>2026-04-12T16:12:54Z</time></trkpt><trkpt lat="43.59315986219059" lon="11.36327049710133"><ele>529.0</ele><time>2026-04-12T16:12:55Z</time></trkpt><trkpt lat="43.59330626703333" lon="11.363244041141835"><ele>527.0</ele><time>2026-04-12T16:12:56Z</time></trkpt><trkpt lat="43.593452788335114" lon="11.3632155514158"><ele>527.0</ele><time>2026-04-12T16:12:57Z</time></trkpt><trkpt lat="43.593593781147106" lon="11.363220539426107"><ele>527.0</ele><time>2026-04-12T16:12:58Z</time></trkpt><trkpt lat="43.59373704528941" lon="11.36326381469727"><ele>527.0</ele><time>2026-04-12T16:12:59Z</time></trkpt><trkpt lat="43.59387724742525" lon="11.363342027075815"><ele>527.0</ele><time>2026-04-12T16:13:00Z</time></trkpt><trkpt lat="43.594013888170885" lon="11.363457966830744"><ele>527.25</ele><time>2026-04-12T16:13:01Z</time></trkpt><trkpt lat="43.59415436675786" lon="11.363503673626603"><ele>527.5</ele><time>2026-04-12T16:13:02Z</time></trkpt><trkpt lat="43.59429372136087" lon="11.363533935696783"><ele>527.75</ele><time>2026-04-12T16:13:03Z</time></trkpt><trkpt lat="43.59443690793336" lon="11.363501160424162"><ele>528.0</ele><time>2026-04-12T16:13:04Z</time></trkpt><trkpt lat="43.59457843667619" lon="11.363406322864614"><ele>528.0</ele><time>2026-04-12T16:13:05Z</time></trkpt><trkpt lat="43.59470330404441" lon="11.363270991210257"><ele>528.0</ele><time>2026-04-12T16:13:06Z</time></trkpt><trkpt lat="43.594832047379064" lon="11.363124968716606"><ele>528.0</ele><time>2026-04-12T16:13:07Z</time></trkpt><trkpt lat="43.59494583088388" lon="11.362983854565481"><ele>526.3333333333334</ele><time>2026-04-12T16:13:08Z</time></trkpt><trkpt lat="43.59507932807717" lon="11.362915182000755"><ele>524.6666666666667</ele><time>2026-04-12T16:13:09Z</time></trkpt><trkpt lat="43.59522305829421" lon="11.36284010517158"><ele>523.0</ele><time>2026-04-12T16:13:10Z</time></trkpt><trkpt lat="43.59538071026299" lon="11.362740100184633"><ele>523.0</ele><time>2026-04-12T16:13:11Z</time></trkpt><trkpt lat="43.59550776545017" lon="11.362646730752758"><ele>523.0</ele><time>2026-04-12T16:13:12Z</time></trkpt><trkpt lat="43.59563333869944" lon="11.362532624770623"><ele>523.0</ele><time>2026-04-12T16:13:13Z</time></trkpt><trkpt lat="43.595767350873665" lon="11.3624101402471"><ele>523.0</ele><time>2026-04-12T16:13:14Z</time></trkpt><trkpt lat="43.5959003890783" lon="11.36230935753567"><ele>523.0</ele><time>2026-04-12T16:13:15Z</time></trkpt><trkpt lat="43.59604438982801" lon="11.36221905158966"><ele>523.0</ele><time>2026-04-12T16:13:16Z</time></trkpt><trkpt lat="43.59619447594508" lon="11.362190311004824"><ele>523.75</ele><time>2026-04-12T16:13:17Z</time></trkpt><trkpt lat="43.59633833488547" lon="11.362173696851798"><ele>524.5</ele><time>2026-04-12T16:13:18Z</time></trkpt><trkpt lat="43.59647162115185" lon="11.362159319424604"><ele>525.25</ele><time>2026-04-12T16:13:19Z</time></trkpt><trkpt lat="43.59659511118614" lon="11.362224915754709"><ele>526.0</ele><time>2026-04-12T16:13:20Z</time></trkpt><trkpt lat="43.596695390397116" lon="11.362360771757379"><ele>526.0</ele><time>2026-04-12T16:13:21Z</time></trkpt><trkpt lat="43.59673058046786" lon="11.36256208193026"><ele>526.0</ele><time>2026-04-12T16:13:22Z</time></trkpt><trkpt lat="43.59681793793796" lon="11.362729072677741"><ele>526.0</ele><time>2026-04-12T16:13:23Z</time></trkpt><trkpt lat="43.59690344510476" lon="11.36288447580199"><ele>526.0</ele><time>2026-04-12T16:13:24Z</time></trkpt><trkpt lat="43.59703923504381" lon="11.362974194372413"><ele>528.0</ele><time>2026-04-12T16:13:25Z</time></trkpt><trkpt lat="43.59718794341243" lon="11.363033766026486"><ele>530.0</ele><time>2026-04-12T16:13:26Z</time></trkpt><trkpt lat="43.59733517892813" lon="11.363079659533337"><ele>532.0</ele><time>2026-04-12T16:13:27Z</time></trkpt><trkpt lat="43.597486862971216" lon="11.363121563866768"><ele>532.0</ele><time>2026-04-12T16:13:28Z</time></trkpt><trkpt lat="43.597630070302955" lon="11.363154034758136"><ele>532.0</ele><time>2026-04-12T16:13:29Z</time></trkpt><trkpt lat="43.59777217165146" lon="11.36319573801565"><ele>532.0</ele><time>2026-04-12T16:13:30Z</time></trkpt><trkpt lat="43.597898909838214" lon="11.363256566133897"><ele>532.0</ele><time>2026-04-12T16:13:31Z</time></trkpt><trkpt lat="43.59799309948133" lon="11.363374749562054"><ele>532.0</ele><time>2026-04-12T16:13:32Z</time></trkpt><trkpt lat="43.59807186362871" lon="11.363484794634944"><ele>532.0</ele><time>2026-04-12T16:13:33Z</time></trkpt><trkpt lat="43.598141967865985" lon="11.363590457051757"><ele>532.0</ele><time>2026-04-12T16:13:34Z</time></trkpt><trkpt lat="43.59817303584323" lon="11.363716252027027"><ele>532.0</ele><time>2026-04-12T16:13:35Z</time></trkpt><trkpt lat="43.59816715213363" lon="11.363816622867104"><ele>532.0</ele><time>2026-04-12T16:13:36Z</time></trkpt><trkpt lat="43.598075336050385" lon="11.363798408257104"><ele>532.0</ele><time>2026-04-12T16:13:39Z</time></trkpt><trkpt lat="43.597932115571595" lon="11.363759573704515"><ele>532.0</ele><time>2026-04-12T16:13:40.999Z</time></trkpt><trkpt lat="43.597833456358266" lon="11.363730629095462"><ele>532.0</ele><time>2026-04-12T16:13:41.999Z</time></trkpt><trkpt lat="43.59772912019645" lon="11.36370001894785"><ele>532.0</ele><time>2026-04-12T16:13:42.999Z</time></trkpt><trkpt lat="43.597621747105855" lon="11.363674177826818"><ele>532.0</ele><time>2026-04-12T16:13:43.999Z</time></trkpt><trkpt lat="43.597526342882205" lon="11.363675568161256"><ele>532.0</ele><time>2026-04-12T16:13:44.999Z</time></trkpt><trkpt lat="43.59744289784483" lon="11.363699677380648"><ele>532.0</ele><time>2026-04-12T16:13:45.999Z</time></trkpt><trkpt lat="43.597350994241125" lon="11.363761285204015"><ele>532.0</ele><time>2026-04-12T16:13:46.999Z</time></trkpt><trkpt lat="43.59725354712913" lon="11.36384357628329"><ele>532.0</ele><time>2026-04-12T16:13:48Z</time></trkpt><trkpt lat="43.59715553723823" lon="11.363868095793503"><ele>533.1666666666667</ele><time>2026-04-12T16:13:49Z</time></trkpt><trkpt lat="43.59706251715866" lon="11.363899917508718"><ele>534.3333333333334</ele><time>2026-04-12T16:13:50Z</time></trkpt><trkpt lat="43.5969741832893" lon="11.36391729326786"><ele>535.5</ele><time>2026-04-12T16:13:51Z</time></trkpt><trkpt lat="43.596884757073276" lon="11.363917262230373"><ele>536.6666666666666</ele><time>2026-04-12T16:13:52Z</time></trkpt><trkpt lat="43.596801636174405" lon="11.363900696235453"><ele>537.8333333333333</ele><time>2026-04-12T16:13:53Z</time></trkpt><trkpt lat="43.596731546041966" lon="11.363846808767113"><ele>539.0</ele><time>2026-04-12T16:13:54Z</time></trkpt><trkpt lat="43.59665508141735" lon="11.363772588875218"><ele>539.8</ele><time>2026-04-12T16:13:55Z</time></trkpt><trkpt lat="43.59658267553285" lon="11.363700357202788"><ele>540.5999999999999</ele><time>2026-04-12T16:13:56Z</time></trkpt><trkpt lat="43.59649681269108" lon="11.363648179196986"><ele>541.4</ele><time>2026-04-12T16:13:57Z</time></trkpt><trkpt lat="43.59641481052105" lon="11.363567599072697"><ele>542.1999999999999</ele><time>2026-04-12T16:13:58Z</time></trkpt><trkpt lat="43.59631354166098" lon="11.36354722693471"><ele>543.0</ele><time>2026-04-12T16:13:59Z</time></trkpt><trkpt lat="43.5962364409122" lon="11.363529306745205"><ele>543.0</ele><time>2026-04-12T16:14:00Z</time></trkpt><trkpt lat="43.59616992443485" lon="11.363492464880657"><ele>543.0</ele><time>2026-04-12T16:14:01Z</time></trkpt><trkpt lat="43.596095902703354" lon="11.36350230312178"><ele>543.0</ele><time>2026-04-12T16:14:02Z</time></trkpt><trkpt lat="43.596027351742165" lon="11.36358799392802"><ele>543.0</ele><time>2026-04-12T16:14:03Z</time></trkpt><trkpt lat="43.595939902210155" lon="11.363614818808696"><ele>543.0</ele><time>2026-04-12T16:14:04Z</time></trkpt><trkpt lat="43.59586844601906" lon="11.363656587267258"><ele>543.0</ele><time>2026-04-12T16:14:05Z</time></trkpt><trkpt lat="43.59579370862567" lon="11.363728810770796"><ele>544.0</ele><time>2026-04-12T16:14:06Z</time></trkpt><trkpt lat="43.595754482889575" lon="11.363831550589108"><ele>545.0</ele><time>2026-04-12T16:14:07Z</time></trkpt><trkpt lat="43.59572598308043" lon="11.363941972535978"><ele>546.0</ele><time>2026-04-12T16:14:08Z</time></trkpt><trkpt lat="43.59569977830335" lon="11.364072864465742"><ele>547.0</ele><time>2026-04-12T16:14:09Z</time></trkpt><trkpt lat="43.595678925619815" lon="11.364213033271977"><ele>548.0</ele><time>2026-04-12T16:14:10Z</time></trkpt><trkpt lat="43.595670768957525" lon="11.364369501950604"><ele>551.0</ele><time>2026-04-12T16:14:11Z</time></trkpt><trkpt lat="43.595669190305536" lon="11.364518936751878"><ele>554.0</ele><time>2026-04-12T16:14:12Z</time></trkpt><trkpt lat="43.59568691664025" lon="11.364659288468392"><ele>557.0</ele><time>2026-04-12T16:14:13Z</time></trkpt><trkpt lat="43.59571078464387" lon="11.364807020177272"><ele>560.0</ele><time>2026-04-12T16:14:14Z</time></trkpt><trkpt lat="43.59573909334937" lon="11.364968290729397"><ele>563.0</ele><time>2026-04-12T16:14:15Z</time></trkpt><trkpt lat="43.59575642473083" lon="11.36513289713941"><ele>564.8</ele><time>2026-04-12T16:14:16Z</time></trkpt><trkpt lat="43.595753396937326" lon="11.365271643370654"><ele>566.5999999999999</ele><time>2026-04-12T16:14:17Z</time></trkpt><trkpt lat="43.59572528643132" lon="11.36540713152705"><ele>568.4000000000001</ele><time>2026-04-12T16:14:18Z</time></trkpt><trkpt lat="43.59568237538679" lon="11.365526894241988"><ele>570.2</ele><time>2026-04-12T16:14:19Z</time></trkpt><trkpt lat="43.595621166952526" lon="11.365662724515499"><ele>572.0</ele><time>2026-04-12T16:14:20Z</time></trkpt><trkpt lat="43.595543978933755" lon="11.365759571789631"><ele>573.5</ele><time>2026-04-12T16:14:21Z</time></trkpt><trkpt lat="43.59544544219546" lon="11.365824139935189"><ele>575.0</ele><time>2026-04-12T16:14:22Z</time></trkpt><trkpt lat="43.59533675500636" lon="11.36587487791478"><ele>576.5</ele><time>2026-04-12T16:14:23Z</time></trkpt><trkpt lat="43.59522788810395" lon="11.365928859095911"><ele>578.0</ele><time>2026-04-12T16:14:24Z</time></trkpt><trkpt lat="43.59511573819025" lon="11.365985119081348"><ele>578.0</ele><time>2026-04-12T16:14:25Z</time></trkpt><trkpt lat="43.59502326613677" lon="11.36601709194087"><ele>578.0</ele><time>2026-04-12T16:14:26Z</time></trkpt><trkpt lat="43.59492515810598" lon="11.366020037704763"><ele>578.0</ele><time>2026-04-12T16:14:27Z</time></trkpt><trkpt lat="43.59481953750627" lon="11.365990238618696"><ele>578.0</ele><time>2026-04-12T16:14:28Z</time></trkpt><trkpt lat="43.59471555822058" lon="11.365932940259949"><ele>578.0</ele><time>2026-04-12T16:14:29Z</time></trkpt><trkpt lat="43.59461644049589" lon="11.365867369623562"><ele>578.0</ele><time>2026-04-12T16:14:30Z</time></trkpt><trkpt lat="43.59451611434576" lon="11.365817997075538"><ele>578.0</ele><time>2026-04-12T16:14:31Z</time></trkpt><trkpt lat="43.5944399900171" lon="11.365771426890403"><ele>578.0</ele><time>2026-04-12T16:14:32Z</time></trkpt><trkpt lat="43.594370425068085" lon="11.36580449477842"><ele>578.0</ele><time>2026-04-12T16:14:33Z</time></trkpt><trkpt lat="43.594295686116254" lon="11.365853946627944"><ele>578.0</ele><time>2026-04-12T16:14:34Z</time></trkpt><trkpt lat="43.59421382068216" lon="11.365955355419903"><ele>579.8333333333333</ele><time>2026-04-12T16:14:35Z</time></trkpt><trkpt lat="43.59414218763398" lon="11.366043838905211"><ele>581.6666666666666</ele><time>2026-04-12T16:14:36Z</time></trkpt><trkpt lat="43.59406990776793" lon="11.366102609763377"><ele>583.5</ele><time>2026-04-12T16:14:37Z</time></trkpt><trkpt lat="43.59400494236005" lon="11.366066491410388"><ele>585.3333333333334</ele><time>2026-04-12T16:14:38Z</time></trkpt><trkpt lat="43.59393848052362" lon="11.366055120434536"><ele>587.1666666666667</ele><time>2026-04-12T16:14:39Z</time></trkpt><trkpt lat="43.59386324756101" lon="11.366019497068779"><ele>589.0</ele><time>2026-04-12T16:14:41Z</time></trkpt><trkpt lat="43.59380758620638" lon="11.36626321504463"><ele>589.0</ele><time>2026-04-12T16:14:46Z</time></trkpt><trkpt lat="43.593751766056855" lon="11.366358558663865"><ele>589.0</ele><time>2026-04-12T16:14:48Z</time></trkpt><trkpt lat="43.59368835829094" lon="11.36648971823514"><ele>589.0</ele><time>2026-04-12T16:14:50Z</time></trkpt><trkpt lat="43.593640988030224" lon="11.366559255239409"><ele>589.0</ele><time>2026-04-12T16:14:51Z</time></trkpt><trkpt lat="43.593574013813885" lon="11.366657373427433"><ele>589.0</ele><time>2026-04-12T16:14:53Z</time></trkpt><trkpt lat="43.59346772497594" lon="11.366693175237053"><ele>591.6666666666667</ele><time>2026-04-12T16:14:55Z</time></trkpt><trkpt lat="43.593408166330896" lon="11.366632699616321"><ele>594.3333333333334</ele><time>2026-04-12T16:14:56Z</time></trkpt><trkpt lat="43.593367079784315" lon="11.366545491883828"><ele>597.0</ele><time>2026-04-12T16:14:57Z</time></trkpt><trkpt lat="43.593315148804834" lon="11.366438064231827"><ele>599.6666666666666</ele><time>2026-04-12T16:14:58Z</time></trkpt><trkpt lat="43.59326666857305" lon="11.366358344668352"><ele>602.3333333333333</ele><time>2026-04-12T16:14:59Z</time></trkpt><trkpt lat="43.59320130709509" lon="11.366306088554033"><ele>605.0</ele><time>2026-04-12T16:15:00Z</time></trkpt><trkpt lat="43.59313107243424" lon="11.366247082444374"><ele>605.0</ele><time>2026-04-12T16:15:01Z</time></trkpt><trkpt lat="43.59305220178157" lon="11.366186154300761"><ele>605.0</ele><time>2026-04-12T16:15:02Z</time></trkpt><trkpt lat="43.59298965339525" lon="11.366149473609738"><ele>605.0</ele><time>2026-04-12T16:15:03Z</time></trkpt><trkpt lat="43.592913104620614" lon="11.366180129815245"><ele>605.0</ele><time>2026-04-12T16:15:04Z</time></trkpt><trkpt lat="43.59281472769582" lon="11.366246182697726"><ele>605.0</ele><time>2026-04-12T16:15:05Z</time></trkpt><trkpt lat="43.59272072077119" lon="11.36626794820241"><ele>605.0</ele><time>2026-04-12T16:15:06Z</time></trkpt><trkpt lat="43.592638526493474" lon="11.366262231016824"><ele>604.8</ele><time>2026-04-12T16:15:07Z</time></trkpt><trkpt lat="43.59257243109896" lon="11.366286839224164"><ele>604.6</ele><time>2026-04-12T16:15:08Z</time></trkpt><trkpt lat="43.59245183445286" lon="11.366311463178379"><ele>604.4</ele><time>2026-04-12T16:15:10Z</time></trkpt><trkpt lat="43.59232541153716" lon="11.366285364715393"><ele>604.2</ele><time>2026-04-12T16:15:12Z</time></trkpt><trkpt lat="43.592236032841896" lon="11.366282198192353"><ele>604.0</ele><time>2026-04-12T16:15:13Z</time></trkpt><trkpt lat="43.59215775075681" lon="11.366252730907197"><ele>604.0</ele><time>2026-04-12T16:15:16Z</time></trkpt><trkpt lat="43.592091485496915" lon="11.366291159457475"><ele>604.0</ele><time>2026-04-12T16:15:24Z</time></trkpt><trkpt lat="43.59199662355975" lon="11.366357702394689"><ele>604.0</ele><time>2026-04-12T16:15:27Z</time></trkpt><trkpt lat="43.59194536573434" lon="11.366408393774492"><ele>604.0</ele><time>2026-04-12T16:15:28Z</time></trkpt><trkpt lat="43.5918860633219" lon="11.366437675783972"><ele>604.0</ele><time>2026-04-12T16:15:29Z</time></trkpt><trkpt lat="43.591819360056206" lon="11.366488217120722"><ele>604.0</ele><time>2026-04-12T16:15:31Z</time></trkpt><trkpt lat="43.59181132381764" lon="11.366597477606465"><ele>603.6</ele><time>2026-04-12T16:15:33.999Z</time></trkpt><trkpt lat="43.59174386177863" lon="11.366617363166768"><ele>603.2</ele><time>2026-04-12T16:15:36.999Z</time></trkpt><trkpt lat="43.591640165347755" lon="11.366675265183435"><ele>602.8000000000001</ele><time>2026-04-12T16:15:39.999Z</time></trkpt><trkpt lat="43.59157885193034" lon="11.36677905045656"><ele>602.4</ele><time>2026-04-12T16:15:40.999Z</time></trkpt><trkpt lat="43.591535831590214" lon="11.366864234139433"><ele>602.0</ele><time>2026-04-12T16:15:41.999Z</time></trkpt><trkpt lat="43.59143216515549" lon="11.36689687721853"><ele>602.0</ele><time>2026-04-12T16:15:43.999Z</time></trkpt><trkpt lat="43.59134280087053" lon="11.366941311690313"><ele>602.0</ele><time>2026-04-12T16:15:45.999Z</time></trkpt><trkpt lat="43.59125742876966" lon="11.366988644952174"><ele>602.0</ele><time>2026-04-12T16:15:47.999Z</time></trkpt><trkpt lat="43.59113678784833" lon="11.367051952263997"><ele>602.0</ele><time>2026-04-12T16:15:49.999Z</time></trkpt><trkpt lat="43.59104529758702" lon="11.367039695112028"><ele>602.0</ele><time>2026-04-12T16:15:51.999Z</time></trkpt><trkpt lat="43.5910332905613" lon="11.366875637071171"><ele>601.2</ele><time>2026-04-12T16:15:54Z</time></trkpt><trkpt lat="43.591035036335356" lon="11.366773533906054"><ele>600.4000000000001</ele><time>2026-04-12T16:15:55Z</time></trkpt><trkpt lat="43.59105244728819" lon="11.366630822735681"><ele>599.5999999999999</ele><time>2026-04-12T16:15:57Z</time></trkpt><trkpt lat="43.590988730543316" lon="11.366537777886219"><ele>598.8</ele><time>2026-04-12T16:15:59Z</time></trkpt><trkpt lat="43.59087545525452" lon="11.366482238058197"><ele>598.0</ele><time>2026-04-12T16:16:01Z</time></trkpt><trkpt lat="43.59080105282364" lon="11.36637960180318"><ele>598.0</ele><time>2026-04-12T16:16:03Z</time></trkpt><trkpt lat="43.59076053115579" lon="11.366305381595403"><ele>598.0</ele><time>2026-04-12T16:16:04Z</time></trkpt><trkpt lat="43.590665346157095" lon="11.366238524934454"><ele>598.0</ele><time>2026-04-12T16:16:06Z</time></trkpt><trkpt lat="43.59059048003231" lon="11.366249744869899"><ele>598.0</ele><time>2026-04-12T16:16:08Z</time></trkpt><trkpt lat="43.590543730644335" lon="11.366393832257206"><ele>598.0</ele><time>2026-04-12T16:16:10Z</time></trkpt><trkpt lat="43.59052315675831" lon="11.366487964534537"><ele>598.0</ele><time>2026-04-12T16:16:11Z</time></trkpt><trkpt lat="43.59046640989595" lon="11.366581886672392"><ele>598.0</ele><time>2026-04-12T16:16:12Z</time></trkpt><trkpt lat="43.59041223388067" lon="11.36666400298794"><ele>598.0</ele><time>2026-04-12T16:16:13Z</time></trkpt><trkpt lat="43.590362482822755" lon="11.366731606356709"><ele>598.0</ele><time>2026-04-12T16:16:14Z</time></trkpt><trkpt lat="43.590258687313714" lon="11.366823637668352"><ele>598.0</ele><time>2026-04-12T16:16:16Z</time></trkpt><trkpt lat="43.590193372685725" lon="11.366840699596963"><ele>598.0</ele><time>2026-04-12T16:16:17Z</time></trkpt><trkpt lat="43.59010303601877" lon="11.36694415400407"><ele>600.6</ele><time>2026-04-12T16:16:19Z</time></trkpt><trkpt lat="43.58999402357317" lon="11.366976154869219"><ele>603.1999999999999</ele><time>2026-04-12T16:16:21Z</time></trkpt><trkpt lat="43.58991280980956" lon="11.367039524067224"><ele>605.8</ele><time>2026-04-12T16:16:23Z</time></trkpt><trkpt lat="43.58979675859206" lon="11.3670183058104"><ele>608.4</ele><time>2026-04-12T16:16:25Z</time></trkpt><trkpt lat="43.58973075413959" lon="11.366983326339883"><ele>611.0</ele><time>2026-04-12T16:16:26Z</time></trkpt><trkpt lat="43.589671033257375" lon="11.36695149410783"><ele>611.0</ele><time>2026-04-12T16:16:27Z</time></trkpt><trkpt lat="43.58957404032523" lon="11.366853291893655"><ele>611.0</ele><time>2026-04-12T16:16:29Z</time></trkpt><trkpt lat="43.58947573957908" lon="11.36682643608272"><ele>611.0</ele><time>2026-04-12T16:16:31Z</time></trkpt><trkpt lat="43.58941720611027" lon="11.366745085194154"><ele>611.0</ele><time>2026-04-12T16:16:33Z</time></trkpt><trkpt lat="43.58937083704162" lon="11.366625293649312"><ele>611.0</ele><time>2026-04-12T16:16:35Z</time></trkpt><trkpt lat="43.589247411475164" lon="11.366643692713824"><ele>612.1666666666666</ele><time>2026-04-12T16:16:37Z</time></trkpt><trkpt lat="43.58914200785526" lon="11.366639282011882"><ele>613.3333333333333</ele><time>2026-04-12T16:16:39Z</time></trkpt><trkpt lat="43.58907068273832" lon="11.366607507507974"><ele>614.5</ele><time>2026-04-12T16:16:41Z</time></trkpt><trkpt lat="43.589003042245835" lon="11.366580404144765"><ele>615.6666666666666</ele><time>2026-04-12T16:16:42Z</time></trkpt><trkpt lat="43.58892782949936" lon="11.366550978285014"><ele>616.8333333333334</ele><time>2026-04-12T16:16:43Z</time></trkpt><trkpt lat="43.58885140903786" lon="11.366507913323163"><ele>618.0</ele><time>2026-04-12T16:16:44Z</time></trkpt><trkpt lat="43.588778050162446" lon="11.36646234181107"><ele>618.4</ele><time>2026-04-12T16:16:45Z</time></trkpt><trkpt lat="43.58864944184351" lon="11.366498800638194"><ele>618.8</ele><time>2026-04-12T16:16:47Z</time></trkpt><trkpt lat="43.58854307636358" lon="11.366559335665704"><ele>619.2</ele><time>2026-04-12T16:16:48Z</time></trkpt><trkpt lat="43.58845370309749" lon="11.366573332826322"><ele>619.6</ele><time>2026-04-12T16:16:49Z</time></trkpt><trkpt lat="43.58836595765981" lon="11.366551818611478"><ele>620.0</ele><time>2026-04-12T16:16:50Z</time></trkpt><trkpt lat="43.58826041234746" lon="11.366518127694738"><ele>620.0</ele><time>2026-04-12T16:16:51Z</time></trkpt><trkpt lat="43.588151920659584" lon="11.366497937973486"><ele>620.0</ele><time>2026-04-12T16:16:52Z</time></trkpt><trkpt lat="43.58804364310966" lon="11.366478569547306"><ele>620.0</ele><time>2026-04-12T16:16:53Z</time></trkpt><trkpt lat="43.58793892971492" lon="11.366456407587286"><ele>620.0</ele><time>2026-04-12T16:16:54Z</time></trkpt><trkpt lat="43.58782556684406" lon="11.366433535656157"><ele>620.0</ele><time>2026-04-12T16:16:55Z</time></trkpt><trkpt lat="43.587722393124096" lon="11.366421468035108"><ele>620.75</ele><time>2026-04-12T16:16:56Z</time></trkpt><trkpt lat="43.58761163385817" lon="11.366415095587978"><ele>621.5</ele><time>2026-04-12T16:16:57Z</time></trkpt><trkpt lat="43.5874972512254" lon="11.366405575489612"><ele>622.25</ele><time>2026-04-12T16:16:58Z</time></trkpt><trkpt lat="43.587371610016426" lon="11.366391935622334"><ele>623.0</ele><time>2026-04-12T16:16:59Z</time></trkpt><trkpt lat="43.58725059911217" lon="11.366393890791048"><ele>623.0</ele><time>2026-04-12T16:17:00Z</time></trkpt><trkpt lat="43.58712370535098" lon="11.366411425656686"><ele>623.0</ele><time>2026-04-12T16:17:01Z</time></trkpt><trkpt lat="43.586999782112166" lon="11.366418040420703"><ele>623.0</ele><time>2026-04-12T16:17:02Z</time></trkpt><trkpt lat="43.586887312705976" lon="11.36642826246131"><ele>623.0</ele><time>2026-04-12T16:17:03Z</time></trkpt><trkpt lat="43.58677516705074" lon="11.366393996926421"><ele>623.8</ele><time>2026-04-12T16:17:04Z</time></trkpt><trkpt lat="43.586671161983794" lon="11.366388914344304"><ele>624.5999999999999</ele><time>2026-04-12T16:17:05Z</time></trkpt><trkpt lat="43.58656096100496" lon="11.366381032332825"><ele>625.4000000000001</ele><time>2026-04-12T16:17:06Z</time></trkpt><trkpt lat="43.58644672695771" lon="11.36636953526991"><ele>626.2</ele><time>2026-04-12T16:17:07Z</time></trkpt><trkpt lat="43.586332079649914" lon="11.366357734780925"><ele>627.0</ele><time>2026-04-12T16:17:08Z</time></trkpt><trkpt lat="43.586224950059176" lon="11.36634670807327"><ele>627.0</ele><time>2026-04-12T16:17:09Z</time></trkpt><trkpt lat="43.58610842979828" lon="11.366335757968674"><ele>627.0</ele><time>2026-04-12T16:17:10Z</time></trkpt><trkpt lat="43.58599535180386" lon="11.366325394019675"><ele>627.0</ele><time>2026-04-12T16:17:11Z</time></trkpt><trkpt lat="43.58589669716197" lon="11.366316350477073"><ele>627.0</ele><time>2026-04-12T16:17:12Z</time></trkpt><trkpt lat="43.5858064927591" lon="11.36630808156363"><ele>627.0</ele><time>2026-04-12T16:17:13Z</time></trkpt><trkpt lat="43.58572940487444" lon="11.366301015001529"><ele>627.0</ele><time>2026-04-12T16:17:14Z</time></trkpt><trkpt lat="43.5856504837369" lon="11.366293780396974"><ele>627.0</ele><time>2026-04-12T16:17:15Z</time></trkpt><trkpt lat="43.58554076542369" lon="11.366283722654085"><ele>627.0</ele><time>2026-04-12T16:17:17Z</time></trkpt><trkpt lat="43.58547430131835" lon="11.366277629978573"><ele>627.0</ele><time>2026-04-12T16:17:19Z</time></trkpt><trkpt lat="43.58540224391266" lon="11.366281858487453"><ele>627.0</ele><time>2026-04-12T16:18:08.001Z</time></trkpt><trkpt lat="43.585380711994596" lon="11.366462485428203"><ele>627.0</ele><time>2026-04-12T16:18:09.001Z</time></trkpt><trkpt lat="43.58537353954578" lon="11.366593189457658"><ele>627.0</ele><time>2026-04-12T16:18:10.001Z</time></trkpt><trkpt lat="43.585367094826026" lon="11.366726352115348"><ele>627.0</ele><time>2026-04-12T16:18:11.001Z</time></trkpt><trkpt lat="43.58535163082719" lon="11.366887180837134"><ele>627.0</ele><time>2026-04-12T16:18:12.001Z</time></trkpt><trkpt lat="43.58533978520525" lon="11.36704155363918"><ele>627.0</ele><time>2026-04-12T16:18:13.001Z</time></trkpt><trkpt lat="43.58530852733657" lon="11.367198066094433"><ele>628.25</ele><time>2026-04-12T16:18:14.001Z</time></trkpt><trkpt lat="43.585302993155516" lon="11.367364469402558"><ele>629.5</ele><time>2026-04-12T16:18:15Z</time></trkpt><trkpt lat="43.58531542278716" lon="11.36752987857543"><ele>630.75</ele><time>2026-04-12T16:18:16Z</time></trkpt><trkpt lat="43.585356964004085" lon="11.367682730240835"><ele>632.0</ele><time>2026-04-12T16:18:17Z</time></trkpt><trkpt lat="43.585374284756824" lon="11.367824752422214"><ele>632.0</ele><time>2026-04-12T16:18:18Z</time></trkpt><trkpt lat="43.585385273446335" lon="11.367952830034953"><ele>632.0</ele><time>2026-04-12T16:18:19Z</time></trkpt><trkpt lat="43.585352989016144" lon="11.368063947718856"><ele>632.0</ele><time>2026-04-12T16:18:20Z</time></trkpt><trkpt lat="43.58530613553394" lon="11.368151257800347"><ele>632.0</ele><time>2026-04-12T16:18:21Z</time></trkpt><trkpt lat="43.58522165357678" lon="11.36819824263626"><ele>632.0</ele><time>2026-04-12T16:18:22Z</time></trkpt><trkpt lat="43.585124091309105" lon="11.368286496072571"><ele>635.75</ele><time>2026-04-12T16:18:23Z</time></trkpt><trkpt lat="43.58501928183911" lon="11.36838329676328"><ele>639.5</ele><time>2026-04-12T16:18:24Z</time></trkpt><trkpt lat="43.58491286627955" lon="11.368483476278932"><ele>643.25</ele><time>2026-04-12T16:18:25Z</time></trkpt><trkpt lat="43.5848039022822" lon="11.368586054810358"><ele>647.0</ele><time>2026-04-12T16:18:26Z</time></trkpt><trkpt lat="43.58469310401453" lon="11.368690360370499"><ele>647.0</ele><time>2026-04-12T16:18:27Z</time></trkpt><trkpt lat="43.584581069382395" lon="11.368793599408603"><ele>647.0</ele><time>2026-04-12T16:18:28Z</time></trkpt><trkpt lat="43.58446246223567" lon="11.368897804425442"><ele>647.0</ele><time>2026-04-12T16:18:29Z</time></trkpt><trkpt lat="43.584336226353344" lon="11.369009810712036"><ele>647.0</ele><time>2026-04-12T16:18:30Z</time></trkpt><trkpt lat="43.58421802534362" lon="11.369131296999713"><ele>650.0</ele><time>2026-04-12T16:18:31Z</time></trkpt><trkpt lat="43.584100665951" lon="11.369272464024174"><ele>653.0</ele><time>2026-04-12T16:18:32Z</time></trkpt><trkpt lat="43.583990465053844" lon="11.369399220077991"><ele>656.0</ele><time>2026-04-12T16:18:33Z</time></trkpt><trkpt lat="43.58387838869784" lon="11.369527027239778"><ele>659.0</ele><time>2026-04-12T16:18:34Z</time></trkpt><trkpt lat="43.58376560698013" lon="11.369658095485491"><ele>660.3333333333333</ele><time>2026-04-12T16:18:35Z</time></trkpt><trkpt lat="43.583653322328686" lon="11.369790054533018"><ele>661.6666666666666</ele><time>2026-04-12T16:18:36Z</time></trkpt><trkpt lat="43.58353298400511" lon="11.369931478423894"><ele>663.0</ele><time>2026-04-12T16:18:37Z</time></trkpt><trkpt lat="43.583413064945255" lon="11.370066796204576"><ele>663.0</ele><time>2026-04-12T16:18:38Z</time></trkpt><trkpt lat="43.58330506204616" lon="11.370184502431435"><ele>663.0</ele><time>2026-04-12T16:18:39Z</time></trkpt><trkpt lat="43.58319578834398" lon="11.370303712376469"><ele>663.0</ele><time>2026-04-12T16:18:40Z</time></trkpt><trkpt lat="43.58308872499561" lon="11.370422840637126"><ele>663.0</ele><time>2026-04-12T16:18:41Z</time></trkpt><trkpt lat="43.58300731691361" lon="11.370513422194055"><ele>662.5</ele><time>2026-04-12T16:18:42Z</time></trkpt><trkpt lat="43.58291986481996" lon="11.370602051174036"><ele>662.0</ele><time>2026-04-12T16:18:43Z</time></trkpt><trkpt lat="43.58282132395005" lon="11.370679592838686"><ele>661.5</ele><time>2026-04-12T16:18:44Z</time></trkpt><trkpt lat="43.582717118786476" lon="11.370757115635325"><ele>661.0</ele><time>2026-04-12T16:18:45Z</time></trkpt><trkpt lat="43.58260835362174" lon="11.370823979324147"><ele>663.25</ele><time>2026-04-12T16:18:46Z</time></trkpt><trkpt lat="43.582493299025586" lon="11.370878322758003"><ele>665.5</ele><time>2026-04-12T16:18:47Z</time></trkpt><trkpt lat="43.58237344337072" lon="11.37092640993438"><ele>667.75</ele><time>2026-04-12T16:18:48Z</time></trkpt><trkpt lat="43.582248782574865" lon="11.370975090417723"><ele>670.0</ele><time>2026-04-12T16:18:49Z</time></trkpt><trkpt lat="43.582121305415576" lon="11.371018914691417"><ele>672.25</ele><time>2026-04-12T16:18:50Z</time></trkpt><trkpt lat="43.58199691966085" lon="11.37105993969737"><ele>674.5</ele><time>2026-04-12T16:18:51Z</time></trkpt><trkpt lat="43.581874654879925" lon="11.37109927537645"><ele>676.75</ele><time>2026-04-12T16:18:52Z</time></trkpt><trkpt lat="43.581753717565796" lon="11.37113282472306"><ele>679.0</ele><time>2026-04-12T16:18:53Z</time></trkpt><trkpt lat="43.58162701180277" lon="11.3711561605728"><ele>679.0</ele><time>2026-04-12T16:18:54Z</time></trkpt><trkpt lat="43.581498492143155" lon="11.371176349745467"><ele>679.0</ele><time>2026-04-12T16:18:55Z</time></trkpt><trkpt lat="43.581371924540626" lon="11.371195199104285"><ele>679.0</ele><time>2026-04-12T16:18:56Z</time></trkpt><trkpt lat="43.58123903507265" lon="11.37121102394036"><ele>679.0</ele><time>2026-04-12T16:18:57Z</time></trkpt><trkpt lat="43.58111043740131" lon="11.371224220986232"><ele>681.5</ele><time>2026-04-12T16:18:58Z</time></trkpt><trkpt lat="43.580987073343444" lon="11.371240551013035"><ele>684.0</ele><time>2026-04-12T16:18:59Z</time></trkpt><trkpt lat="43.58086917097375" lon="11.37120247197587"><ele>686.5</ele><time>2026-04-12T16:19:00Z</time></trkpt><trkpt lat="43.58075863226004" lon="11.371142092270265"><ele>689.0</ele><time>2026-04-12T16:19:01Z</time></trkpt><trkpt lat="43.580642811488495" lon="11.37106136085404"><ele>689.0</ele><time>2026-04-12T16:19:02Z</time></trkpt><trkpt lat="43.58051979805079" lon="11.370992437020814"><ele>689.0</ele><time>2026-04-12T16:19:03Z</time></trkpt><trkpt lat="43.58043394523457" lon="11.370924336781567"><ele>689.0</ele><time>2026-04-12T16:19:04Z</time></trkpt><trkpt lat="43.58035558705568" lon="11.37088908058432"><ele>689.0</ele><time>2026-04-12T16:19:05Z</time></trkpt><trkpt lat="43.580292286624946" lon="11.370859485749401"><ele>689.0</ele><time>2026-04-12T16:19:06Z</time></trkpt><trkpt lat="43.58020814077675" lon="11.370852212780282"><ele>691.5</ele><time>2026-04-12T16:19:08Z</time></trkpt><trkpt lat="43.58005025649636" lon="11.371261504684355"><ele>694.0</ele><time>2026-04-12T16:19:10Z</time></trkpt><trkpt lat="43.57996094366155" lon="11.371383999835182"><ele>697.75</ele><time>2026-04-12T16:19:11Z</time></trkpt><trkpt lat="43.57985891065474" lon="11.371456739886368"><ele>701.5</ele><time>2026-04-12T16:19:12Z</time></trkpt><trkpt lat="43.57973844237022" lon="11.37146819895676"><ele>705.25</ele><time>2026-04-12T16:19:13Z</time></trkpt><trkpt lat="43.57961618528613" lon="11.371463362815165"><ele>709.0</ele><time>2026-04-12T16:19:14Z</time></trkpt><trkpt lat="43.57950231236566" lon="11.371459529072352"><ele>709.0</ele><time>2026-04-12T16:19:15Z</time></trkpt><trkpt lat="43.579399879485074" lon="11.371508028479575"><ele>709.0</ele><time>2026-04-12T16:19:16Z</time></trkpt><trkpt lat="43.57930032378736" lon="11.371591557810918"><ele>709.0</ele><time>2026-04-12T16:19:17Z</time></trkpt><trkpt lat="43.57921279660021" lon="11.371706354893542"><ele>709.0</ele><time>2026-04-12T16:19:18Z</time></trkpt><trkpt lat="43.57913437402807" lon="11.371843494804288"><ele>709.0</ele><time>2026-04-12T16:19:19Z</time></trkpt><trkpt lat="43.579042539014324" lon="11.371965979031762"><ele>709.0</ele><time>2026-04-12T16:19:20Z</time></trkpt><trkpt lat="43.57895499997136" lon="11.37204483507514"><ele>709.0</ele><time>2026-04-12T16:19:21Z</time></trkpt><trkpt lat="43.57884713436511" lon="11.372100795881455"><ele>709.0</ele><time>2026-04-12T16:19:22Z</time></trkpt><trkpt lat="43.578730965648965" lon="11.372174206757458"><ele>712.25</ele><time>2026-04-12T16:19:23Z</time></trkpt><trkpt lat="43.57861716039612" lon="11.372265634522217"><ele>715.5</ele><time>2026-04-12T16:19:24Z</time></trkpt><trkpt lat="43.57851691301762" lon="11.372355098914"><ele>718.75</ele><time>2026-04-12T16:19:25Z</time></trkpt><trkpt lat="43.57840827982605" lon="11.37244764857151"><ele>722.0</ele><time>2026-04-12T16:19:26Z</time></trkpt><trkpt lat="43.57829652710504" lon="11.372556574798354"><ele>722.0</ele><time>2026-04-12T16:19:27Z</time></trkpt><trkpt lat="43.578202300525355" lon="11.372672240103853"><ele>722.0</ele><time>2026-04-12T16:19:28Z</time></trkpt><trkpt lat="43.578122017026324" lon="11.37280441171874"><ele>722.0</ele><time>2026-04-12T16:19:29Z</time></trkpt><trkpt lat="43.578054937744355" lon="11.372933307900508"><ele>722.0</ele><time>2026-04-12T16:19:30Z</time></trkpt><trkpt lat="43.57800519460832" lon="11.373073872973618"><ele>722.2</ele><time>2026-04-12T16:19:31Z</time></trkpt><trkpt lat="43.57794972653812" lon="11.37317622696686"><ele>722.4000000000001</ele><time>2026-04-12T16:19:32Z</time></trkpt><trkpt lat="43.57789382765414" lon="11.373274239489785"><ele>722.5999999999999</ele><time>2026-04-12T16:19:33Z</time></trkpt><trkpt lat="43.577832053659264" lon="11.373361313874842"><ele>722.8</ele><time>2026-04-12T16:19:34Z</time></trkpt><trkpt lat="43.577746562291566" lon="11.37342122381002"><ele>723.0</ele><time>2026-04-12T16:19:35Z</time></trkpt><trkpt lat="43.57763722840076" lon="11.373424167310574"><ele>723.5</ele><time>2026-04-12T16:19:36Z</time></trkpt><trkpt lat="43.577511716859746" lon="11.373422771608373"><ele>724.0</ele><time>2026-04-12T16:19:37Z</time></trkpt><trkpt lat="43.57737347479833" lon="11.373424174311037"><ele>724.5</ele><time>2026-04-12T16:19:38Z</time></trkpt><trkpt lat="43.57726191159086" lon="11.373431686786795"><ele>725.0</ele><time>2026-04-12T16:19:39Z</time></trkpt><trkpt lat="43.57714590375843" lon="11.373462541818595"><ele>725.0</ele><time>2026-04-12T16:19:40Z</time></trkpt><trkpt lat="43.57705189808451" lon="11.373542184946766"><ele>725.0</ele><time>2026-04-12T16:19:41Z</time></trkpt><trkpt lat="43.57695513671464" lon="11.373601003215068"><ele>725.0</ele><time>2026-04-12T16:19:42Z</time></trkpt><trkpt lat="43.576863295141635" lon="11.373612767817043"><ele>725.0</ele><time>2026-04-12T16:19:43Z</time></trkpt><trkpt lat="43.57676696664732" lon="11.373606682530397"><ele>725.0</ele><time>2026-04-12T16:19:44Z</time></trkpt><trkpt lat="43.57666762404581" lon="11.373591834408046"><ele>725.75</ele><time>2026-04-12T16:19:45Z</time></trkpt><trkpt lat="43.57655738890403" lon="11.373564934729286"><ele>726.5</ele><time>2026-04-12T16:19:46Z</time></trkpt><trkpt lat="43.57644413850414" lon="11.373532559891252"><ele>727.25</ele><time>2026-04-12T16:19:47Z</time></trkpt><trkpt lat="43.57632315575523" lon="11.37352474877811"><ele>728.0</ele><time>2026-04-12T16:19:48Z</time></trkpt><trkpt lat="43.57621658235317" lon="11.373505056670421"><ele>726.75</ele><time>2026-04-12T16:19:49Z</time></trkpt><trkpt lat="43.57611041460807" lon="11.373484454054962"><ele>725.5</ele><time>2026-04-12T16:19:50Z</time></trkpt><trkpt lat="43.575997770193766" lon="11.373506954597264"><ele>724.25</ele><time>2026-04-12T16:19:51Z</time></trkpt><trkpt lat="43.57588971196773" lon="11.373565418575014"><ele>723.0</ele><time>2026-04-12T16:19:52Z</time></trkpt><trkpt lat="43.57577586806387" lon="11.373594692075116"><ele>723.0</ele><time>2026-04-12T16:19:53Z</time></trkpt><trkpt lat="43.57567229008083" lon="11.373667908517337"><ele>723.0</ele><time>2026-04-12T16:19:54Z</time></trkpt><trkpt lat="43.5755781136818" lon="11.373775807032898"><ele>723.0</ele><time>2026-04-12T16:19:55Z</time></trkpt><trkpt lat="43.575486572362344" lon="11.373884450554325"><ele>723.0</ele><time>2026-04-12T16:19:56Z</time></trkpt><trkpt lat="43.575388914591144" lon="11.37400854860561"><ele>723.5</ele><time>2026-04-12T16:19:57Z</time></trkpt><trkpt lat="43.57529827015716" lon="11.374131761680975"><ele>724.0</ele><time>2026-04-12T16:19:58Z</time></trkpt><trkpt lat="43.575208872521664" lon="11.374259838334483"><ele>724.5</ele><time>2026-04-12T16:19:59Z</time></trkpt><trkpt lat="43.57511650718383" lon="11.374387383747344"><ele>725.0</ele><time>2026-04-12T16:20:00Z</time></trkpt><trkpt lat="43.57502624361715" lon="11.374511468086434"><ele>725.0</ele><time>2026-04-12T16:20:01Z</time></trkpt><trkpt lat="43.57493495606309" lon="11.374638317995899"><ele>725.0</ele><time>2026-04-12T16:20:02Z</time></trkpt><trkpt lat="43.5748467723605" lon="11.374764738080499"><ele>725.0</ele><time>2026-04-12T16:20:02.999Z</time></trkpt><trkpt lat="43.574763026676784" lon="11.374887084857955"><ele>725.0</ele><time>2026-04-12T16:20:03.999Z</time></trkpt><trkpt lat="43.57468235369645" lon="11.375011983689134"><ele>727.0</ele><time>2026-04-12T16:20:05Z</time></trkpt><trkpt lat="43.574596158425955" lon="11.375137194283418"><ele>729.0</ele><time>2026-04-12T16:20:06Z</time></trkpt><trkpt lat="43.57450710142306" lon="11.37525359471868"><ele>731.0</ele><time>2026-04-12T16:20:07Z</time></trkpt><trkpt lat="43.57441146199786" lon="11.375341084640393"><ele>733.0</ele><time>2026-04-12T16:20:08Z</time></trkpt><trkpt lat="43.57430427098751" lon="11.375422323337634"><ele>733.0</ele><time>2026-04-12T16:20:09Z</time></trkpt><trkpt lat="43.57417846706223" lon="11.375499250099043"><ele>733.0</ele><time>2026-04-12T16:20:10Z</time></trkpt><trkpt lat="43.574050705215996" lon="11.375576102683748"><ele>733.0</ele><time>2026-04-12T16:20:11Z</time></trkpt><trkpt lat="43.57392484754536" lon="11.375647520946655"><ele>733.0</ele><time>2026-04-12T16:20:12Z</time></trkpt><trkpt lat="43.573792594312636" lon="11.375721214586621"><ele>735.0</ele><time>2026-04-12T16:20:13Z</time></trkpt><trkpt lat="43.57366411797399" lon="11.375790780440468"><ele>737.0</ele><time>2026-04-12T16:20:14Z</time></trkpt><trkpt lat="43.57353388586411" lon="11.37585751266516"><ele>739.0</ele><time>2026-04-12T16:20:15Z</time></trkpt><trkpt lat="43.57341467452016" lon="11.375942371206424"><ele>741.0</ele><time>2026-04-12T16:20:16Z</time></trkpt><trkpt lat="43.57330480632013" lon="11.37603944585444"><ele>741.0</ele><time>2026-04-12T16:20:17Z</time></trkpt><trkpt lat="43.57318557306793" lon="11.376122914469136"><ele>741.0</ele><time>2026-04-12T16:20:18Z</time></trkpt><trkpt lat="43.57306152855909" lon="11.376174507464945"><ele>741.0</ele><time>2026-04-12T16:20:19Z</time></trkpt><trkpt lat="43.572928304933576" lon="11.376191180895745"><ele>741.0</ele><time>2026-04-12T16:20:20Z</time></trkpt><trkpt lat="43.57280722916957" lon="11.376219626839571"><ele>741.5</ele><time>2026-04-12T16:20:21Z</time></trkpt><trkpt lat="43.57267225462454" lon="11.376265679591423"><ele>742.0</ele><time>2026-04-12T16:20:22Z</time></trkpt><trkpt lat="43.57255090939914" lon="11.376324748225358"><ele>742.5</ele><time>2026-04-12T16:20:23Z</time></trkpt><trkpt lat="43.57242411332375" lon="11.376387145276864"><ele>743.0</ele><time>2026-04-12T16:20:24Z</time></trkpt><trkpt lat="43.57229747527583" lon="11.376440496127602"><ele>744.25</ele><time>2026-04-12T16:20:25Z</time></trkpt><trkpt lat="43.57217100508583" lon="11.376479775576628"><ele>745.5</ele><time>2026-04-12T16:20:26Z</time></trkpt><trkpt lat="43.57204516391213" lon="11.376525956263222"><ele>746.75</ele><time>2026-04-12T16:20:27Z</time></trkpt><trkpt lat="43.57193003833924" lon="11.376583150644247"><ele>748.0</ele><time>2026-04-12T16:20:28Z</time></trkpt><trkpt lat="43.571802527653894" lon="11.376653127359784"><ele>748.75</ele><time>2026-04-12T16:20:29Z</time></trkpt><trkpt lat="43.5716815800594" lon="11.376749296709491"><ele>749.5</ele><time>2026-04-12T16:20:30Z</time></trkpt><trkpt lat="43.571559157471306" lon="11.37681352844668"><ele>750.25</ele><time>2026-04-12T16:20:31Z</time></trkpt><trkpt lat="43.57142877940206" lon="11.376840622968889"><ele>751.0</ele><time>2026-04-12T16:20:32Z</time></trkpt><trkpt lat="43.571298678861226" lon="11.37686223910067"><ele>750.5</ele><time>2026-04-12T16:20:33Z</time></trkpt><trkpt lat="43.57116750806747" lon="11.376878646824629"><ele>750.0</ele><time>2026-04-12T16:20:34Z</time></trkpt><trkpt lat="43.571048646286606" lon="11.376898479976429"><ele>749.5</ele><time>2026-04-12T16:20:35Z</time></trkpt><trkpt lat="43.57094279636996" lon="11.37692005310178"><ele>749.0</ele><time>2026-04-12T16:20:36Z</time></trkpt><trkpt lat="43.57083269859709" lon="11.376975092663512"><ele>749.0</ele><time>2026-04-12T16:20:37Z</time></trkpt><trkpt lat="43.57070993362029" lon="11.377035193746421"><ele>749.0</ele><time>2026-04-12T16:20:38Z</time></trkpt><trkpt lat="43.570575155963" lon="11.377090512947321"><ele>749.0</ele><time>2026-04-12T16:20:39Z</time></trkpt><trkpt lat="43.570462065652" lon="11.377166127540352"><ele>749.0</ele><time>2026-04-12T16:20:40Z</time></trkpt><trkpt lat="43.57034676596489" lon="11.377242196139202"><ele>748.2</ele><time>2026-04-12T16:20:41Z</time></trkpt><trkpt lat="43.570234956967646" lon="11.377319217468385"><ele>747.4000000000001</ele><time>2026-04-12T16:20:42Z</time></trkpt><trkpt lat="43.57012929302389" lon="11.37739158255335"><ele>746.6</ele><time>2026-04-12T16:20:43Z</time></trkpt><trkpt lat="43.57003291645154" lon="11.377455810826524"><ele>745.8</ele><time>2026-04-12T16:20:44Z</time></trkpt><trkpt lat="43.569943382080794" lon="11.377509000848121"><ele>745.0</ele><time>2026-04-12T16:20:45Z</time></trkpt><trkpt lat="43.56985596949574" lon="11.377543369311129"><ele>745.0</ele><time>2026-04-12T16:20:46Z</time></trkpt><trkpt lat="43.56977413060837" lon="11.377600646095447"><ele>745.0</ele><time>2026-04-12T16:20:47Z</time></trkpt><trkpt lat="43.5697064043479" lon="11.377675856167563"><ele>745.0</ele><time>2026-04-12T16:20:48Z</time></trkpt><trkpt lat="43.56963825837287" lon="11.377723933113254"><ele>745.0</ele><time>2026-04-12T16:20:49Z</time></trkpt><trkpt lat="43.569575829815925" lon="11.37776966049577"><ele>745.0</ele><time>2026-04-12T16:20:50Z</time></trkpt><trkpt lat="43.56952538844771" lon="11.377823283662973"><ele>745.0</ele><time>2026-04-12T16:20:51Z</time></trkpt><trkpt lat="43.569462473284716" lon="11.377851193761405"><ele>745.8</ele><time>2026-04-12T16:20:52Z</time></trkpt><trkpt lat="43.56937975893879" lon="11.377916819960443"><ele>746.6</ele><time>2026-04-12T16:20:54Z</time></trkpt><trkpt lat="43.56933349098562" lon="11.377839541929852"><ele>747.4000000000001</ele><time>2026-04-12T16:20:57Z</time></trkpt><trkpt lat="43.569400171919426" lon="11.377844149462547"><ele>748.2</ele><time>2026-04-12T16:21:16Z</time></trkpt><trkpt lat="43.569242093283286" lon="11.377735955414993"><ele>749.0</ele><time>2026-04-12T16:21:17Z</time></trkpt><trkpt lat="43.56931657412265" lon="11.377462409832999"><ele>749.0</ele><time>2026-04-12T16:21:19Z</time></trkpt><trkpt lat="43.56924145014639" lon="11.377339364894228"><ele>749.0</ele><time>2026-04-12T16:21:21Z</time></trkpt><trkpt lat="43.569188559613316" lon="11.377285634231786"><ele>749.0</ele><time>2026-04-12T16:21:22Z</time></trkpt><trkpt lat="43.569137927180996" lon="11.37715205873311"><ele>749.0</ele><time>2026-04-12T16:21:24Z</time></trkpt><trkpt lat="43.56913965221005" lon="11.377044544293549"><ele>749.0</ele><time>2026-04-12T16:21:25Z</time></trkpt><trkpt lat="43.56915864409082" lon="11.376955800153594"><ele>749.0</ele><time>2026-04-12T16:21:26Z</time></trkpt><trkpt lat="43.56917247449352" lon="11.376862115375973"><ele>748.0</ele><time>2026-04-12T16:21:27Z</time></trkpt><trkpt lat="43.56918787039019" lon="11.376689768311762"><ele>747.0</ele><time>2026-04-12T16:21:29Z</time></trkpt><trkpt lat="43.56919951790157" lon="11.376586762858807"><ele>746.0</ele><time>2026-04-12T16:21:30Z</time></trkpt><trkpt lat="43.5692141655985" lon="11.37647975122313"><ele>745.0</ele><time>2026-04-12T16:21:31Z</time></trkpt><trkpt lat="43.56923729393477" lon="11.376382734194552"><ele>744.0</ele><time>2026-04-12T16:21:32Z</time></trkpt><trkpt lat="43.56924282485535" lon="11.376249957916034"><ele>742.8000000000001</ele><time>2026-04-12T16:21:34Z</time></trkpt><trkpt lat="43.56927652849699" lon="11.376176064273656"><ele>741.6</ele><time>2026-04-12T16:21:44.999Z</time></trkpt><trkpt lat="43.569244745436784" lon="11.37607823466517"><ele>740.4</ele><time>2026-04-12T16:21:54.999Z</time></trkpt><trkpt lat="43.56921023131458" lon="11.375967838109483"><ele>739.2</ele><time>2026-04-12T16:21:58.999Z</time></trkpt><trkpt lat="43.569183937562784" lon="11.375828992029891"><ele>738.0</ele><time>2026-04-12T16:22:00.999Z</time></trkpt><trkpt lat="43.569108113982566" lon="11.375673844312233"><ele>738.0</ele><time>2026-04-12T16:22:02.999Z</time></trkpt><trkpt lat="43.56907023975084" lon="11.375584887138025"><ele>738.0</ele><time>2026-04-12T16:22:03.999Z</time></trkpt><trkpt lat="43.569062106560466" lon="11.375493791411158"><ele>738.0</ele><time>2026-04-12T16:22:04.999Z</time></trkpt><trkpt lat="43.56908271761532" lon="11.375407266264338"><ele>738.0</ele><time>2026-04-12T16:22:05.999Z</time></trkpt><trkpt lat="43.56911507790883" lon="11.37533246107598"><ele>738.0</ele><time>2026-04-12T16:22:06.999Z</time></trkpt><trkpt lat="43.56914860787198" lon="11.375210978385065"><ele>738.0</ele><time>2026-04-12T16:22:08.999Z</time></trkpt><trkpt lat="43.5691158022774" lon="11.37512007986842"><ele>738.0</ele><time>2026-04-12T16:22:11Z</time></trkpt><trkpt lat="43.56902899350288" lon="11.375052167808434"><ele>738.3333333333334</ele><time>2026-04-12T16:22:13Z</time></trkpt><trkpt lat="43.568931219097855" lon="11.375001080317071"><ele>738.6666666666666</ele><time>2026-04-12T16:22:15Z</time></trkpt><trkpt lat="43.568854915800564" lon="11.374970423633068"><ele>739.0</ele><time>2026-04-12T16:22:18Z</time></trkpt><trkpt lat="43.56878304661136" lon="11.37492276794183"><ele>739.3333333333333</ele><time>2026-04-12T16:22:20Z</time></trkpt><trkpt lat="43.568720080765935" lon="11.37487581716041"><ele>739.6666666666666</ele><time>2026-04-12T16:22:22Z</time></trkpt><trkpt lat="43.56865076893002" lon="11.374820988519797"><ele>740.0</ele><time>2026-04-12T16:22:24Z</time></trkpt><trkpt lat="43.56858485322208" lon="11.374825906757765"><ele>740.0</ele><time>2026-04-12T16:22:26Z</time></trkpt><trkpt lat="43.56851585483999" lon="11.374811382133558"><ele>740.0</ele><time>2026-04-12T16:22:29Z</time></trkpt><trkpt lat="43.568449639198704" lon="11.37475739517527"><ele>740.0</ele><time>2026-04-12T16:22:32Z</time></trkpt><trkpt lat="43.56839223222043" lon="11.374699964707636"><ele>740.0</ele><time>2026-04-12T16:22:34Z</time></trkpt><trkpt lat="43.568435674844004" lon="11.37458988368863"><ele>740.0</ele><time>2026-04-12T16:22:36Z</time></trkpt><trkpt lat="43.56852631354572" lon="11.374495187171002"><ele>740.0</ele><time>2026-04-12T16:22:38Z</time></trkpt><trkpt lat="43.56860816035428" lon="11.374378343076016"><ele>738.3333333333333</ele><time>2026-04-12T16:22:40Z</time></trkpt><trkpt lat="43.56864449364393" lon="11.374239928086087"><ele>736.6666666666666</ele><time>2026-04-12T16:22:42Z</time></trkpt><trkpt lat="43.56864542156257" lon="11.374112064011971"><ele>735.0</ele><time>2026-04-12T16:22:44Z</time></trkpt><trkpt lat="43.56863394762102" lon="11.374025471895454"><ele>733.3333333333334</ele><time>2026-04-12T16:22:46Z</time></trkpt><trkpt lat="43.56857582396725" lon="11.373885516044783"><ele>731.6666666666667</ele><time>2026-04-12T16:22:48Z</time></trkpt><trkpt lat="43.56852889414152" lon="11.373818634829309"><ele>730.0</ele><time>2026-04-12T16:22:49Z</time></trkpt><trkpt lat="43.56846298732055" lon="11.373754204002784"><ele>729.6666666666667</ele><time>2026-04-12T16:22:50Z</time></trkpt><trkpt lat="43.568401716242825" lon="11.373675322893662"><ele>729.3333333333334</ele><time>2026-04-12T16:22:52Z</time></trkpt><trkpt lat="43.568319458830075" lon="11.373570357072339"><ele>729.0</ele><time>2026-04-12T16:22:55Z</time></trkpt><trkpt lat="43.56826308638294" lon="11.373514609732057"><ele>728.6666666666666</ele><time>2026-04-12T16:22:57Z</time></trkpt><trkpt lat="43.56828728184959" lon="11.37342766077644"><ele>728.3333333333333</ele><time>2026-04-12T16:22:59Z</time></trkpt><trkpt lat="43.56832796780239" lon="11.373298549679024"><ele>728.0</ele><time>2026-04-12T16:23:01Z</time></trkpt><trkpt lat="43.5683783704221" lon="11.373217930601161"><ele>728.0</ele><time>2026-04-12T16:23:02Z</time></trkpt><trkpt lat="43.568431846176466" lon="11.373136660077137"><ele>728.0</ele><time>2026-04-12T16:23:03Z</time></trkpt><trkpt lat="43.568480310442865" lon="11.3729961806228"><ele>728.0</ele><time>2026-04-12T16:23:05Z</time></trkpt><trkpt lat="43.56849289477398" lon="11.372906410986923"><ele>728.0</ele><time>2026-04-12T16:23:06Z</time></trkpt><trkpt lat="43.568518663242465" lon="11.372826687082991"><ele>728.0</ele><time>2026-04-12T16:23:07Z</time></trkpt><trkpt lat="43.56859599863158" lon="11.372679496141961"><ele>727.2</ele><time>2026-04-12T16:23:09Z</time></trkpt><trkpt lat="43.56863482919907" lon="11.372595575611415"><ele>726.4</ele><time>2026-04-12T16:23:10Z</time></trkpt><trkpt lat="43.56867532671156" lon="11.372512985380254"><ele>725.6</ele><time>2026-04-12T16:23:11Z</time></trkpt><trkpt lat="43.56876258186042" lon="11.372393162034303"><ele>724.8000000000001</ele><time>2026-04-12T16:23:13Z</time></trkpt><trkpt lat="43.56883617455825" lon="11.372246211117476"><ele>724.0</ele><time>2026-04-12T16:23:15Z</time></trkpt><trkpt lat="43.56889868163543" lon="11.372143963899699"><ele>724.0</ele><time>2026-04-12T16:23:17Z</time></trkpt><trkpt lat="43.56894480322252" lon="11.372019872902015"><ele>724.0</ele><time>2026-04-12T16:23:19Z</time></trkpt><trkpt lat="43.56898816035664" lon="11.37193476964202"><ele>724.0</ele><time>2026-04-12T16:23:20Z</time></trkpt><trkpt lat="43.56908516444992" lon="11.371858429373493"><ele>724.0</ele><time>2026-04-12T16:23:22Z</time></trkpt><trkpt lat="43.56918009964896" lon="11.371823747394687"><ele>724.0</ele><time>2026-04-12T16:23:24Z</time></trkpt><trkpt lat="43.569294798416706" lon="11.371809295537778"><ele>724.0</ele><time>2026-04-12T16:23:26Z</time></trkpt><trkpt lat="43.56940579866327" lon="11.371820530213016"><ele>724.0</ele><time>2026-04-12T16:23:28Z</time></trkpt><trkpt lat="43.56952835749921" lon="11.371818465025731"><ele>724.0</ele><time>2026-04-12T16:23:30Z</time></trkpt><trkpt lat="43.56959348788204" lon="11.371778833889547"><ele>724.0</ele><time>2026-04-12T16:23:31Z</time></trkpt><trkpt lat="43.56966336284495" lon="11.371736663492687"><ele>724.0</ele><time>2026-04-12T16:23:32Z</time></trkpt><trkpt lat="43.56972470933501" lon="11.371709361165312"><ele>724.0</ele><time>2026-04-12T16:23:33Z</time></trkpt><trkpt lat="43.569792682057816" lon="11.371635691193195"><ele>721.4000000000001</ele><time>2026-04-12T16:23:35Z</time></trkpt><trkpt lat="43.569860082095666" lon="11.371569849823251"><ele>718.8</ele><time>2026-04-12T16:23:37Z</time></trkpt><trkpt lat="43.569907412300545" lon="11.371479313718968"><ele>716.2</ele><time>2026-04-12T16:23:39Z</time></trkpt><trkpt lat="43.56998787031492" lon="11.371312627649276"><ele>713.5999999999999</ele><time>2026-04-12T16:23:41Z</time></trkpt><trkpt lat="43.57004631179317" lon="11.371239239413178"><ele>711.0</ele><time>2026-04-12T16:23:41.999Z</time></trkpt><trkpt lat="43.57013259659545" lon="11.371146672236156"><ele>711.0</ele><time>2026-04-12T16:23:43.999Z</time></trkpt><trkpt lat="43.57016560880091" lon="11.371027761831833"><ele>711.0</ele><time>2026-04-12T16:23:45.999Z</time></trkpt><trkpt lat="43.570154085807275" lon="11.370912504503966"><ele>711.0</ele><time>2026-04-12T16:23:47.999Z</time></trkpt><trkpt lat="43.57010426069591" lon="11.370808208444156"><ele>711.0</ele><time>2026-04-12T16:23:49.999Z</time></trkpt><trkpt lat="43.57009432609452" lon="11.370696623701239"><ele>711.0</ele><time>2026-04-12T16:23:51.999Z</time></trkpt><trkpt lat="43.570086093130314" lon="11.370586595718384"><ele>711.0</ele><time>2026-04-12T16:23:53.999Z</time></trkpt><trkpt lat="43.570081472508996" lon="11.370445410214082"><ele>707.0</ele><time>2026-04-12T16:23:55.999Z</time></trkpt><trkpt lat="43.570036078387865" lon="11.370316993349544"><ele>703.0</ele><time>2026-04-12T16:23:57.999Z</time></trkpt><trkpt lat="43.569964302619105" lon="11.370223412049732"><ele>699.0</ele><time>2026-04-12T16:23:59.999Z</time></trkpt><trkpt lat="43.56990640517576" lon="11.370095566467292"><ele>695.0</ele><time>2026-04-12T16:24:01.999Z</time></trkpt><trkpt lat="43.56982628704052" lon="11.370044509436708"><ele>691.0</ele><time>2026-04-12T16:24:04.999Z</time></trkpt><trkpt lat="43.56976144092866" lon="11.369925455688234"><ele>691.0</ele><time>2026-04-12T16:24:07.999Z</time></trkpt><trkpt lat="43.56966973539414" lon="11.369846073382918"><ele>691.0</ele><time>2026-04-12T16:24:09.999Z</time></trkpt><trkpt lat="43.56959095135137" lon="11.369770776805638"><ele>691.0</ele><time>2026-04-12T16:24:11.999Z</time></trkpt><trkpt lat="43.56953776348677" lon="11.369722470909513"><ele>691.0</ele><time>2026-04-12T16:24:13.999Z</time></trkpt><trkpt lat="43.56945508183173" lon="11.369662521126468"><ele>691.0</ele><time>2026-04-12T16:24:15.999Z</time></trkpt><trkpt lat="43.56938937880224" lon="11.369598099298743"><ele>691.0</ele><time>2026-04-12T16:24:18Z</time></trkpt><trkpt lat="43.56934309923175" lon="11.369529869026977"><ele>689.5</ele><time>2026-04-12T16:24:21Z</time></trkpt><trkpt lat="43.56928024353739" lon="11.369488649446946"><ele>688.0</ele><time>2026-04-12T16:24:23Z</time></trkpt><trkpt lat="43.569207067550174" lon="11.36944174772612"><ele>686.5</ele><time>2026-04-12T16:24:25Z</time></trkpt><trkpt lat="43.569121992060445" lon="11.369387290852323"><ele>685.0</ele><time>2026-04-12T16:24:27Z</time></trkpt><trkpt lat="43.5690254955772" lon="11.3693193184451"><ele>683.5</ele><time>2026-04-12T16:24:29Z</time></trkpt><trkpt lat="43.56895983774749" lon="11.369275581338703"><ele>682.0</ele><time>2026-04-12T16:24:31Z</time></trkpt><trkpt lat="43.56887687224157" lon="11.369274554246761"><ele>682.0</ele><time>2026-04-12T16:24:33Z</time></trkpt><trkpt lat="43.568802989437025" lon="11.36927380491293"><ele>682.0</ele><time>2026-04-12T16:24:35Z</time></trkpt><trkpt lat="43.56879544987201" lon="11.369131264691449"><ele>682.0</ele><time>2026-04-12T16:24:38Z</time></trkpt><trkpt lat="43.56882531647304" lon="11.368977300367833"><ele>682.0</ele><time>2026-04-12T16:24:40Z</time></trkpt><trkpt lat="43.568835902316316" lon="11.36881888447013"><ele>682.0</ele><time>2026-04-12T16:24:42Z</time></trkpt><trkpt lat="43.56885162202024" lon="11.368668999693085"><ele>685.0</ele><time>2026-04-12T16:24:44Z</time></trkpt><trkpt lat="43.56881963319906" lon="11.368530925441581"><ele>688.0</ele><time>2026-04-12T16:24:46Z</time></trkpt><trkpt lat="43.56876763558122" lon="11.368418085021029"><ele>691.0</ele><time>2026-04-12T16:24:48Z</time></trkpt><trkpt lat="43.568720397526974" lon="11.368268524876141"><ele>694.0</ele><time>2026-04-12T16:24:50Z</time></trkpt><trkpt lat="43.568683402960815" lon="11.36819626459978"><ele>697.0</ele><time>2026-04-12T16:24:51Z</time></trkpt><trkpt lat="43.568635097980334" lon="11.368103511859923"><ele>692.8333333333334</ele><time>2026-04-12T16:24:52Z</time></trkpt><trkpt lat="43.56857031630864" lon="11.368008457998684"><ele>688.6666666666667</ele><time>2026-04-12T16:24:53Z</time></trkpt><trkpt lat="43.56853461292924" lon="11.367890503832374"><ele>684.5</ele><time>2026-04-12T16:24:55Z</time></trkpt><trkpt lat="43.56849661808921" lon="11.36780997607943"><ele>680.3333333333334</ele><time>2026-04-12T16:24:57Z</time></trkpt><trkpt lat="43.56847355302121" lon="11.36770300983426"><ele>676.1666666666666</ele><time>2026-04-12T16:24:59Z</time></trkpt><trkpt lat="43.56845024430781" lon="11.367602355579335"><ele>672.0</ele><time>2026-04-12T16:25:01Z</time></trkpt><trkpt lat="43.5683875478937" lon="11.367501522267705"><ele>672.0</ele><time>2026-04-12T16:25:03Z</time></trkpt><trkpt lat="43.56833466795958" lon="11.367359526649405"><ele>672.0</ele><time>2026-04-12T16:25:05Z</time></trkpt><trkpt lat="43.56828496941466" lon="11.36726542361508"><ele>672.0</ele><time>2026-04-12T16:25:07Z</time></trkpt><trkpt lat="43.568238875425735" lon="11.36719495403776"><ele>672.0</ele><time>2026-04-12T16:25:09Z</time></trkpt><trkpt lat="43.568159710706865" lon="11.367085734436655"><ele>672.0</ele><time>2026-04-12T16:25:11Z</time></trkpt><trkpt lat="43.56809793415731" lon="11.366944016123036"><ele>666.25</ele><time>2026-04-12T16:25:13Z</time></trkpt><trkpt lat="43.568038129378785" lon="11.366807588740913"><ele>660.5</ele><time>2026-04-12T16:25:15Z</time></trkpt><trkpt lat="43.5679761223448" lon="11.36670976584399"><ele>654.75</ele><time>2026-04-12T16:25:17Z</time></trkpt><trkpt lat="43.567923048389396" lon="11.366593082290093"><ele>649.0</ele><time>2026-04-12T16:25:19Z</time></trkpt><trkpt lat="43.56788100483216" lon="11.366397325338758"><ele>651.4000000000001</ele><time>2026-04-12T16:25:21Z</time></trkpt><trkpt lat="43.56784201802587" lon="11.366303600209614"><ele>653.8</ele><time>2026-04-12T16:25:22Z</time></trkpt><trkpt lat="43.56782457701693" lon="11.36618056052198"><ele>656.2</ele><time>2026-04-12T16:25:24Z</time></trkpt><trkpt lat="43.567792380927465" lon="11.366018421284648"><ele>658.5999999999999</ele><time>2026-04-12T16:25:26Z</time></trkpt><trkpt lat="43.56775757069522" lon="11.365830065280518"><ele>661.0</ele><time>2026-04-12T16:25:28Z</time></trkpt><trkpt lat="43.567724346101436" lon="11.365730452598942"><ele>661.0</ele><time>2026-04-12T16:25:29Z</time></trkpt><trkpt lat="43.56770550947355" lon="11.36562469136959"><ele>661.0</ele><time>2026-04-12T16:25:31Z</time></trkpt><trkpt lat="43.56765830435914" lon="11.365558955298454"><ele>661.0</ele><time>2026-04-12T16:25:33Z</time></trkpt><trkpt lat="43.56761079128151" lon="11.365499503765045"><ele>661.0</ele><time>2026-04-12T16:25:36Z</time></trkpt><trkpt lat="43.56760027226737" lon="11.365365374097173"><ele>661.0</ele><time>2026-04-12T16:25:39Z</time></trkpt><trkpt lat="43.56755117685523" lon="11.365268563393855"><ele>661.0</ele><time>2026-04-12T16:25:40.999Z</time></trkpt><trkpt lat="43.567511572848666" lon="11.365174417038025"><ele>658.4285714285714</ele><time>2026-04-12T16:26:02.999Z</time></trkpt><trkpt lat="43.567461850481344" lon="11.365112866069406"><ele>655.8571428571429</ele><time>2026-04-12T16:28:15.999Z</time></trkpt><trkpt lat="43.56739543439118" lon="11.365083218303372"><ele>653.2857142857142</ele><time>2026-04-12T16:28:17.999Z</time></trkpt><trkpt lat="43.56731472618772" lon="11.36505050707516"><ele>650.7142857142858</ele><time>2026-04-12T16:28:20.999Z</time></trkpt><trkpt lat="43.567242154844166" lon="11.365029954628268"><ele>648.1428571428572</ele><time>2026-04-12T16:28:23.999Z</time></trkpt><trkpt lat="43.56716220120779" lon="11.365037718730752"><ele>645.5714285714286</ele><time>2026-04-12T16:28:26.999Z</time></trkpt><trkpt lat="43.56709415668187" lon="11.365061431860218"><ele>643.0</ele><time>2026-04-12T16:28:30Z</time></trkpt><trkpt lat="43.56703228978047" lon="11.36509410044493"><ele>642.0</ele><time>2026-04-12T16:28:33Z</time></trkpt><trkpt lat="43.56696100499685" lon="11.36512909644812"><ele>641.0</ele><time>2026-04-12T16:28:36Z</time></trkpt><trkpt lat="43.56686689894134" lon="11.365155859416811"><ele>640.0</ele><time>2026-04-12T16:28:40Z</time></trkpt><trkpt lat="43.56679810324869" lon="11.365179945408439"><ele>639.0</ele><time>2026-04-12T16:28:42Z</time></trkpt><trkpt lat="43.56671605454542" lon="11.365174945081993"><ele>638.0</ele><time>2026-04-12T16:28:44Z</time></trkpt><trkpt lat="43.56664461227522" lon="11.365185000905692"><ele>637.0</ele><time>2026-04-12T16:28:46Z</time></trkpt><trkpt lat="43.566578434835954" lon="11.365209149238051"><ele>637.0</ele><time>2026-04-12T16:28:49Z</time></trkpt><trkpt lat="43.56649772118611" lon="11.365233361073944"><ele>637.0</ele><time>2026-04-12T16:28:51Z</time></trkpt><trkpt lat="43.56643456856282" lon="11.365252931609948"><ele>637.0</ele><time>2026-04-12T16:28:54Z</time></trkpt><trkpt lat="43.56636757027632" lon="11.365293764451994"><ele>637.0</ele><time>2026-04-12T16:28:57Z</time></trkpt><trkpt lat="43.566302742054056" lon="11.365307230013823"><ele>637.0</ele><time>2026-04-12T16:29:00Z</time></trkpt><trkpt lat="43.566234013314656" lon="11.36524392420241"><ele>637.0</ele><time>2026-04-12T16:29:03Z</time></trkpt><trkpt lat="43.566193617492964" lon="11.365154544589652"><ele>637.0</ele><time>2026-04-12T16:29:05Z</time></trkpt><trkpt lat="43.56616111707014" lon="11.365039386352528"><ele>638.0</ele><time>2026-04-12T16:29:07Z</time></trkpt><trkpt lat="43.5661272974475" lon="11.364905777921125"><ele>639.0</ele><time>2026-04-12T16:29:10Z</time></trkpt><trkpt lat="43.566123720779395" lon="11.364744401946435"><ele>640.0</ele><time>2026-04-12T16:29:12Z</time></trkpt><trkpt lat="43.566113876120035" lon="11.364633756920197"><ele>641.0</ele><time>2026-04-12T16:29:14Z</time></trkpt><trkpt lat="43.566098156601754" lon="11.364522030380602"><ele>642.0</ele><time>2026-04-12T16:29:17Z</time></trkpt><trkpt lat="43.56609708210178" lon="11.364426390941503"><ele>642.0</ele><time>2026-04-12T16:29:19Z</time></trkpt><trkpt lat="43.56608346812043" lon="11.364294331807656"><ele>642.0</ele><time>2026-04-12T16:29:21Z</time></trkpt><trkpt lat="43.566040030836646" lon="11.364195471722011"><ele>642.0</ele><time>2026-04-12T16:29:24Z</time></trkpt><trkpt lat="43.56601513989841" lon="11.364109316531643"><ele>642.0</ele><time>2026-04-12T16:29:29Z</time></trkpt><trkpt lat="43.565976899441665" lon="11.364014724211653"><ele>642.0</ele><time>2026-04-12T16:29:31Z</time></trkpt><trkpt lat="43.565939256738616" lon="11.363891076162776"><ele>642.0</ele><time>2026-04-12T16:29:33Z</time></trkpt><trkpt lat="43.5658913655027" lon="11.363793073360755"><ele>639.6666666666666</ele><time>2026-04-12T16:29:36Z</time></trkpt><trkpt lat="43.5658465782478" lon="11.363717931487455"><ele>637.3333333333334</ele><time>2026-04-12T16:29:37Z</time></trkpt><trkpt lat="43.56580074313435" lon="11.36364502882773"><ele>635.0</ele><time>2026-04-12T16:29:38Z</time></trkpt><trkpt lat="43.56572122207867" lon="11.363546031016602"><ele>632.6666666666667</ele><time>2026-04-12T16:29:40Z</time></trkpt><trkpt lat="43.5656536183634" lon="11.36353065404301"><ele>630.3333333333334</ele><time>2026-04-12T16:29:42Z</time></trkpt><trkpt lat="43.56557326822078" lon="11.36350051715745"><ele>628.0</ele><time>2026-04-12T16:29:44Z</time></trkpt><trkpt lat="43.56550440827127" lon="11.363468213391434"><ele>628.0</ele><time>2026-04-12T16:29:46Z</time></trkpt><trkpt lat="43.565430147974446" lon="11.363428788742775"><ele>628.0</ele><time>2026-04-12T16:29:48Z</time></trkpt><trkpt lat="43.565363931613085" lon="11.363396529269766"><ele>628.0</ele><time>2026-04-12T16:29:51Z</time></trkpt><trkpt lat="43.56529275906268" lon="11.363389744262829"><ele>628.0</ele><time>2026-04-12T16:29:53Z</time></trkpt><trkpt lat="43.56521648814376" lon="11.36335644108321"><ele>628.0</ele><time>2026-04-12T16:29:55.999Z</time></trkpt><trkpt lat="43.565136710019594" lon="11.363300187196518"><ele>628.0</ele><time>2026-04-12T16:29:58.999Z</time></trkpt><trkpt lat="43.56508261889032" lon="11.363232459565353"><ele>629.1666666666667</ele><time>2026-04-12T16:30:00.999Z</time></trkpt><trkpt lat="43.565022793613196" lon="11.363198115313786"><ele>630.3333333333334</ele><time>2026-04-12T16:30:03.999Z</time></trkpt><trkpt lat="43.56495619914631" lon="11.363152553511428"><ele>631.5</ele><time>2026-04-12T16:30:13.999Z</time></trkpt><trkpt lat="43.564854750301045" lon="11.363163338319769"><ele>632.6666666666666</ele><time>2026-04-12T16:30:37Z</time></trkpt><trkpt lat="43.56478390626956" lon="11.363170929013691"><ele>633.8333333333333</ele><time>2026-04-12T16:31:24Z</time></trkpt><trkpt lat="43.564712876272814" lon="11.363201703867682"><ele>635.0</ele><time>2026-04-12T16:31:26Z</time></trkpt><trkpt lat="43.564647376878284" lon="11.363235026590852"><ele>635.0</ele><time>2026-04-12T16:31:29Z</time></trkpt><trkpt lat="43.56460036906551" lon="11.363299624258467"><ele>635.0</ele><time>2026-04-12T16:31:31Z</time></trkpt><trkpt lat="43.56451463005874" lon="11.363330595221186"><ele>635.0</ele><time>2026-04-12T16:31:33Z</time></trkpt><trkpt lat="43.564424173644106" lon="11.363386185213349"><ele>635.0</ele><time>2026-04-12T16:31:35Z</time></trkpt><trkpt lat="43.5643664607757" lon="11.363422847882767"><ele>635.0</ele><time>2026-04-12T16:31:37Z</time></trkpt><trkpt lat="43.564279607230475" lon="11.363481982086734"><ele>635.0</ele><time>2026-04-12T16:31:40Z</time></trkpt><trkpt lat="43.564213382507255" lon="11.363543161295388"><ele>633.4285714285713</ele><time>2026-04-12T16:31:42Z</time></trkpt><trkpt lat="43.56415238302501" lon="11.363603247923967"><ele>631.8571428571429</ele><time>2026-04-12T16:31:43.999Z</time></trkpt><trkpt lat="43.56409211449843" lon="11.363633594078157"><ele>630.2857142857142</ele><time>2026-04-12T16:31:46.999Z</time></trkpt><trkpt lat="43.564032973598216" lon="11.36369586837312"><ele>628.7142857142857</ele><time>2026-04-12T16:31:48.999Z</time></trkpt><trkpt lat="43.563967228357754" lon="11.363721951217371"><ele>627.1428571428571</ele><time>2026-04-12T16:31:50.999Z</time></trkpt><trkpt lat="43.56390408550532" lon="11.363792732304137"><ele>625.5714285714286</ele><time>2026-04-12T16:31:53.999Z</time></trkpt><trkpt lat="43.56383928985798" lon="11.363850842740147"><ele>624.0</ele><time>2026-04-12T16:31:55.999Z</time></trkpt><trkpt lat="43.563779058896955" lon="11.363904156822109"><ele>625.8333333333334</ele><time>2026-04-12T16:31:57.999Z</time></trkpt><trkpt lat="43.563704061387085" lon="11.363943807038424"><ele>627.6666666666666</ele><time>2026-04-12T16:31:59.999Z</time></trkpt><trkpt lat="43.56364144063683" lon="11.363964557222413"><ele>629.5</ele><time>2026-04-12T16:32:01.999Z</time></trkpt><trkpt lat="43.56357443103086" lon="11.363986753420352"><ele>631.3333333333333</ele><time>2026-04-12T16:32:03.999Z</time></trkpt><trkpt lat="43.563476913265035" lon="11.364016621075166"><ele>633.1666666666666</ele><time>2026-04-12T16:32:05.999Z</time></trkpt><trkpt lat="43.563396542295266" lon="11.364025043976103"><ele>635.0</ele><time>2026-04-12T16:32:07.999Z</time></trkpt><trkpt lat="43.56331699521178" lon="11.364054157049802"><ele>635.0</ele><time>2026-04-12T16:32:09.999Z</time></trkpt><trkpt lat="43.56323256966914" lon="11.364102874041103"><ele>635.0</ele><time>2026-04-12T16:32:11.999Z</time></trkpt><trkpt lat="43.56315136466913" lon="11.364152139524252"><ele>635.0</ele><time>2026-04-12T16:32:14.999Z</time></trkpt><trkpt lat="43.56307949094989" lon="11.364224136144562"><ele>635.0</ele><time>2026-04-12T16:32:17.999Z</time></trkpt><trkpt lat="43.56303032466371" lon="11.364280973744815"><ele>635.0</ele><time>2026-04-12T16:32:19.999Z</time></trkpt><trkpt lat="43.562977078072905" lon="11.364351480033642"><ele>635.0</ele><time>2026-04-12T16:32:21.999Z</time></trkpt><trkpt lat="43.562908074925225" lon="11.3643775761652"><ele>633.4</ele><time>2026-04-12T16:32:24.999Z</time></trkpt><trkpt lat="43.56283113205719" lon="11.364318954573738"><ele>631.8</ele><time>2026-04-12T16:32:27.999Z</time></trkpt><trkpt lat="43.56276331937371" lon="11.364233492050461"><ele>630.2</ele><time>2026-04-12T16:32:32.999Z</time></trkpt><trkpt lat="43.562734469167694" lon="11.364130859121081"><ele>628.6</ele><time>2026-04-12T16:32:34.999Z</time></trkpt><trkpt lat="43.56272454330112" lon="11.36400186398722"><ele>627.0</ele><time>2026-04-12T16:32:37.999Z</time></trkpt><trkpt lat="43.56269999556797" lon="11.363836391810077"><ele>627.0</ele><time>2026-04-12T16:32:39.999Z</time></trkpt><trkpt lat="43.56270069277756" lon="11.363722421985317"><ele>627.0</ele><time>2026-04-12T16:32:41Z</time></trkpt><trkpt lat="43.56270244930366" lon="11.36360322150901"><ele>627.0</ele><time>2026-04-12T16:32:42Z</time></trkpt><trkpt lat="43.56269154168898" lon="11.363446015368144"><ele>627.0</ele><time>2026-04-12T16:32:44Z</time></trkpt><trkpt lat="43.562664288004335" lon="11.363280275195429"><ele>627.0</ele><time>2026-04-12T16:32:46Z</time></trkpt><trkpt lat="43.56264504608926" lon="11.363159222293417"><ele>627.0</ele><time>2026-04-12T16:32:48Z</time></trkpt><trkpt lat="43.562631976014856" lon="11.363043830402667"><ele>627.0</ele><time>2026-04-12T16:32:50Z</time></trkpt><trkpt lat="43.562585231854605" lon="11.362894239864122"><ele>627.0</ele><time>2026-04-12T16:32:52Z</time></trkpt><trkpt lat="43.56252183398276" lon="11.362781709708116"><ele>627.0</ele><time>2026-04-12T16:32:54Z</time></trkpt><trkpt lat="43.562436400836845" lon="11.362696725377337"><ele>627.0</ele><time>2026-04-12T16:32:56Z</time></trkpt><trkpt lat="43.56237238127092" lon="11.36263387269259"><ele>625.0</ele><time>2026-04-12T16:32:58Z</time></trkpt><trkpt lat="43.562345176858294" lon="11.362536634744929"><ele>623.0</ele><time>2026-04-12T16:33:00Z</time></trkpt><trkpt lat="43.56239921951742" lon="11.362374633359373"><ele>621.0</ele><time>2026-04-12T16:33:02Z</time></trkpt><trkpt lat="43.562395357013855" lon="11.362238669630523"><ele>619.0</ele><time>2026-04-12T16:33:04Z</time></trkpt><trkpt lat="43.562370684574375" lon="11.362094694987096"><ele>617.0</ele><time>2026-04-12T16:33:06Z</time></trkpt><trkpt lat="43.56237706314124" lon="11.361914909227501"><ele>616.8000000000001</ele><time>2026-04-12T16:33:08Z</time></trkpt><trkpt lat="43.56237124232061" lon="11.36176033940398"><ele>616.6</ele><time>2026-04-12T16:33:10Z</time></trkpt><trkpt lat="43.56236805608716" lon="11.361668746249073"><ele>616.4000000000001</ele><time>2026-04-12T16:33:11Z</time></trkpt><trkpt lat="43.562396425292036" lon="11.361535932822683"><ele>616.2</ele><time>2026-04-12T16:33:13Z</time></trkpt><trkpt lat="43.562410412990474" lon="11.361410177345588"><ele>616.0</ele><time>2026-04-12T16:33:15Z</time></trkpt><trkpt lat="43.562362236089164" lon="11.361285056485393"><ele>615.5</ele><time>2026-04-12T16:33:17Z</time></trkpt><trkpt lat="43.562284470484734" lon="11.361133783436056"><ele>615.0</ele><time>2026-04-12T16:33:19Z</time></trkpt><trkpt lat="43.56222085695447" lon="11.361055215095337"><ele>614.5</ele><time>2026-04-12T16:33:20Z</time></trkpt><trkpt lat="43.56215792980917" lon="11.360979071238154"><ele>614.0</ele><time>2026-04-12T16:33:21Z</time></trkpt><trkpt lat="43.562115344819176" lon="11.360903464714397"><ele>613.5</ele><time>2026-04-12T16:33:22Z</time></trkpt><trkpt lat="43.56207166256877" lon="11.360820110104136"><ele>613.0</ele><time>2026-04-12T16:33:23Z</time></trkpt><trkpt lat="43.562010292772676" lon="11.360723990044768"><ele>614.0</ele><time>2026-04-12T16:33:24Z</time></trkpt><trkpt lat="43.56193331666938" lon="11.360659707317442"><ele>615.0</ele><time>2026-04-12T16:33:25Z</time></trkpt><trkpt lat="43.56185195628392" lon="11.360597512268606"><ele>616.0</ele><time>2026-04-12T16:33:26Z</time></trkpt><trkpt lat="43.5617582144549" lon="11.360543140605502"><ele>617.0</ele><time>2026-04-12T16:33:27Z</time></trkpt><trkpt lat="43.56164325415385" lon="11.360489118403649"><ele>618.0</ele><time>2026-04-12T16:33:28Z</time></trkpt><trkpt lat="43.561555503882666" lon="11.36043800373263"><ele>618.0</ele><time>2026-04-12T16:33:29Z</time></trkpt><trkpt lat="43.56148455158684" lon="11.360400799512101"><ele>618.0</ele><time>2026-04-12T16:33:30Z</time></trkpt><trkpt lat="43.56139770886895" lon="11.360355222138853"><ele>618.0</ele><time>2026-04-12T16:33:31Z</time></trkpt><trkpt lat="43.56134805055219" lon="11.360274877853929"><ele>618.0</ele><time>2026-04-12T16:33:32Z</time></trkpt><trkpt lat="43.561306049745134" lon="11.360148283649446"><ele>618.0</ele><time>2026-04-12T16:33:33Z</time></trkpt><trkpt lat="43.5612737999131" lon="11.360029454011396"><ele>618.0</ele><time>2026-04-12T16:33:34Z</time></trkpt><trkpt lat="43.561223583247966" lon="11.359937592703316"><ele>619.3333333333334</ele><time>2026-04-12T16:33:35Z</time></trkpt><trkpt lat="43.56115822090615" lon="11.359885450935867"><ele>620.6666666666666</ele><time>2026-04-12T16:33:36Z</time></trkpt><trkpt lat="43.56107504741483" lon="11.35984235199218"><ele>622.0</ele><time>2026-04-12T16:33:37Z</time></trkpt><trkpt lat="43.56099598628963" lon="11.359801298559614"><ele>623.3333333333333</ele><time>2026-04-12T16:33:38Z</time></trkpt><trkpt lat="43.56092765049291" lon="11.359782892937327"><ele>624.6666666666666</ele><time>2026-04-12T16:33:39Z</time></trkpt><trkpt lat="43.56085487089694" lon="11.359788174055424"><ele>626.0</ele><time>2026-04-12T16:33:40Z</time></trkpt><trkpt lat="43.56077649108542" lon="11.359815197541787"><ele>626.0</ele><time>2026-04-12T16:33:41Z</time></trkpt><trkpt lat="43.56070977568801" lon="11.35982961241162"><ele>626.0</ele><time>2026-04-12T16:33:42Z</time></trkpt><trkpt lat="43.560604701399406" lon="11.35985415142305"><ele>626.0</ele><time>2026-04-12T16:33:44Z</time></trkpt><trkpt lat="43.56053243654566" lon="11.359907143965092"><ele>626.0</ele><time>2026-04-12T16:33:45.999Z</time></trkpt><trkpt lat="43.56043865895875" lon="11.359964170577168"><ele>626.0</ele><time>2026-04-12T16:33:47.999Z</time></trkpt><trkpt lat="43.56036167696991" lon="11.360073669279576"><ele>625.0</ele><time>2026-04-12T16:33:49.999Z</time></trkpt><trkpt lat="43.56032530909486" lon="11.360149526100349"><ele>624.0</ele><time>2026-04-12T16:33:50.999Z</time></trkpt><trkpt lat="43.56025579849446" lon="11.3602284380871"><ele>623.0</ele><time>2026-04-12T16:33:51.999Z</time></trkpt><trkpt lat="43.56021757917093" lon="11.360306069712365"><ele>622.0</ele><time>2026-04-12T16:33:52.999Z</time></trkpt><trkpt lat="43.56017292203964" lon="11.36038535886436"><ele>621.0</ele><time>2026-04-12T16:33:53.999Z</time></trkpt><trkpt lat="43.56013825662135" lon="11.360465842165695"><ele>620.0</ele><time>2026-04-12T16:33:54.999Z</time></trkpt><trkpt lat="43.56007739114355" lon="11.360588364434234"><ele>620.0</ele><time>2026-04-12T16:33:56.999Z</time></trkpt><trkpt lat="43.560052778994795" lon="11.360681556843621"><ele>620.0</ele><time>2026-04-12T16:33:57.999Z</time></trkpt><trkpt lat="43.56001620562756" lon="11.36076483234497"><ele>620.0</ele><time>2026-04-12T16:33:58.999Z</time></trkpt><trkpt lat="43.559962688402365" lon="11.360825771088995"><ele>620.0</ele><time>2026-04-12T16:33:59.999Z</time></trkpt><trkpt lat="43.55988642464999" lon="11.36093134759247"><ele>620.0</ele><time>2026-04-12T16:34:01.999Z</time></trkpt><trkpt lat="43.5598015553474" lon="11.361014832190998"><ele>620.0</ele><time>2026-04-12T16:34:03.999Z</time></trkpt><trkpt lat="43.559709203654975" lon="11.361010722608953"><ele>620.0</ele><time>2026-04-12T16:34:05.999Z</time></trkpt><trkpt lat="43.559610444693675" lon="11.361027843933057"><ele>620.0</ele><time>2026-04-12T16:34:07.999Z</time></trkpt><trkpt lat="43.55955103243621" lon="11.361070021469402"><ele>620.0</ele><time>2026-04-12T16:34:08.999Z</time></trkpt><trkpt lat="43.559486238764414" lon="11.361101808808325"><ele>620.0</ele><time>2026-04-12T16:34:09.999Z</time></trkpt><trkpt lat="43.5593803573109" lon="11.361150909565255"><ele>620.0</ele><time>2026-04-12T16:34:11.999Z</time></trkpt><trkpt lat="43.55931019875702" lon="11.361281417342653"><ele>618.5</ele><time>2026-04-12T16:34:13.999Z</time></trkpt><trkpt lat="43.55924083601073" lon="11.361356243851862"><ele>617.0</ele><time>2026-04-12T16:34:14.999Z</time></trkpt><trkpt lat="43.5591607229243" lon="11.361420067678088"><ele>615.5</ele><time>2026-04-12T16:34:15.999Z</time></trkpt><trkpt lat="43.559085696246356" lon="11.361468657209212"><ele>614.0</ele><time>2026-04-12T16:34:16.999Z</time></trkpt><trkpt lat="43.55901663893208" lon="11.36149886695791"><ele>612.5</ele><time>2026-04-12T16:34:17.999Z</time></trkpt><trkpt lat="43.5589509639082" lon="11.361528345927253"><ele>611.0</ele><time>2026-04-12T16:34:18.999Z</time></trkpt><trkpt lat="43.558855301634345" lon="11.361549681920446"><ele>611.0</ele><time>2026-04-12T16:34:20.999Z</time></trkpt><trkpt lat="43.5587959243044" lon="11.3614734069766"><ele>611.0</ele><time>2026-04-12T16:34:21.999Z</time></trkpt><trkpt lat="43.55869230949962" lon="11.361491240289107"><ele>611.0</ele><time>2026-04-12T16:34:23.999Z</time></trkpt><trkpt lat="43.558579029327426" lon="11.361523148581753"><ele>611.0</ele><time>2026-04-12T16:34:25.999Z</time></trkpt><trkpt lat="43.55849151230593" lon="11.36151889687886"><ele>611.0</ele><time>2026-04-12T16:34:27.999Z</time></trkpt><trkpt lat="43.55839201858445" lon="11.361507584780886"><ele>608.0</ele><time>2026-04-12T16:34:29.999Z</time></trkpt><trkpt lat="43.55829962143426" lon="11.36144737497044"><ele>605.0</ele><time>2026-04-12T16:34:31.999Z</time></trkpt><trkpt lat="43.55823555454833" lon="11.361389459918827"><ele>602.0</ele><time>2026-04-12T16:34:32.999Z</time></trkpt><trkpt lat="43.55813698546443" lon="11.361346983576624"><ele>599.0</ele><time>2026-04-12T16:34:34.999Z</time></trkpt><trkpt lat="43.55807290298138" lon="11.361324248134705"><ele>596.0</ele><time>2026-04-12T16:34:36.999Z</time></trkpt><trkpt lat="43.557975863090775" lon="11.361393600963403"><ele>596.0</ele><time>2026-04-12T16:34:38.999Z</time></trkpt><trkpt lat="43.557881465928546" lon="11.361491170234775"><ele>596.0</ele><time>2026-04-12T16:34:40.999Z</time></trkpt><trkpt lat="43.55780726377624" lon="11.361480969852037"><ele>596.0</ele><time>2026-04-12T16:34:42.999Z</time></trkpt><trkpt lat="43.55776985286742" lon="11.361407824030987"><ele>596.0</ele><time>2026-04-12T16:34:44.999Z</time></trkpt><trkpt lat="43.55773196159078" lon="11.36126660292727"><ele>596.0</ele><time>2026-04-12T16:34:47Z</time></trkpt><trkpt lat="43.55780792315982" lon="11.36113586713803"><ele>593.3333333333333</ele><time>2026-04-12T16:34:48Z</time></trkpt><trkpt lat="43.55779869663439" lon="11.360990554462836"><ele>590.6666666666666</ele><time>2026-04-12T16:34:50Z</time></trkpt><trkpt lat="43.55776517598835" lon="11.36090417940393"><ele>588.0</ele><time>2026-04-12T16:34:51Z</time></trkpt><trkpt lat="43.557716262699834" lon="11.360810245769523"><ele>585.3333333333334</ele><time>2026-04-12T16:34:52Z</time></trkpt><trkpt lat="43.55766857475068" lon="11.360723265144035"><ele>582.6666666666667</ele><time>2026-04-12T16:34:53Z</time></trkpt><trkpt lat="43.557622405470894" lon="11.360654966409884"><ele>580.0</ele><time>2026-04-12T16:34:54Z</time></trkpt><trkpt lat="43.557579724736385" lon="11.360589846503483"><ele>577.0</ele><time>2026-04-12T16:34:55Z</time></trkpt><trkpt lat="43.55753417612186" lon="11.360457106087917"><ele>574.0</ele><time>2026-04-12T16:34:57Z</time></trkpt><trkpt lat="43.55753409006671" lon="11.360293961850905"><ele>571.0</ele><time>2026-04-12T16:34:59Z</time></trkpt><trkpt lat="43.55748807524085" lon="11.360137756287187"><ele>568.0</ele><time>2026-04-12T16:35:01Z</time></trkpt><trkpt lat="43.55739628785598" lon="11.360043980159016"><ele>568.0</ele><time>2026-04-12T16:35:03Z</time></trkpt><trkpt lat="43.5573202188882" lon="11.359994483913525"><ele>568.0</ele><time>2026-04-12T16:35:05Z</time></trkpt><trkpt lat="43.55724240767006" lon="11.36008527839053"><ele>568.0</ele><time>2026-04-12T16:35:20Z</time></trkpt><trkpt lat="43.557198620021865" lon="11.360218913159834"><ele>568.0</ele><time>2026-04-12T16:35:22Z</time></trkpt><trkpt lat="43.55712967363575" lon="11.36026982816772"><ele>568.0</ele><time>2026-04-12T16:35:23Z</time></trkpt><trkpt lat="43.557050960785844" lon="11.360299486370392"><ele>568.4</ele><time>2026-04-12T16:35:24Z</time></trkpt><trkpt lat="43.55695257947323" lon="11.360353328884296"><ele>568.8</ele><time>2026-04-12T16:35:25Z</time></trkpt><trkpt lat="43.55686187486014" lon="11.360400341781219"><ele>569.2</ele><time>2026-04-12T16:35:26Z</time></trkpt><trkpt lat="43.55680093516928" lon="11.360438311862408"><ele>569.6</ele><time>2026-04-12T16:35:27Z</time></trkpt><trkpt lat="43.55670654345003" lon="11.360525272470761"><ele>570.0</ele><time>2026-04-12T16:35:29Z</time></trkpt><trkpt lat="43.55664290623509" lon="11.360616256160608"><ele>570.0</ele><time>2026-04-12T16:35:31Z</time></trkpt><trkpt lat="43.55667595215328" lon="11.360747318236943"><ele>570.0</ele><time>2026-04-12T16:35:32Z</time></trkpt><trkpt lat="43.5566578665245" lon="11.360846729390397"><ele>570.0</ele><time>2026-04-12T16:35:33Z</time></trkpt><trkpt lat="43.55664309066694" lon="11.360938925696603"><ele>570.0</ele><time>2026-04-12T16:35:34Z</time></trkpt><trkpt lat="43.55663611167755" lon="11.361052963420091"><ele>570.0</ele><time>2026-04-12T16:35:35Z</time></trkpt><trkpt lat="43.55658641647464" lon="11.36115131229157"><ele>570.0</ele><time>2026-04-12T16:35:36Z</time></trkpt><trkpt lat="43.55654654609586" lon="11.361252799796073"><ele>570.0</ele><time>2026-04-12T16:35:37Z</time></trkpt><trkpt lat="43.55649901781086" lon="11.361355688485958"><ele>570.0</ele><time>2026-04-12T16:35:38Z</time></trkpt><trkpt lat="43.55644611552157" lon="11.361452325804782"><ele>570.0</ele><time>2026-04-12T16:35:39Z</time></trkpt><trkpt lat="43.55638890749112" lon="11.361524450126002"><ele>570.0</ele><time>2026-04-12T16:35:39.999Z</time></trkpt><trkpt lat="43.55632729911014" lon="11.361614021804794"><ele>570.0</ele><time>2026-04-12T16:35:40.999Z</time></trkpt><trkpt lat="43.5562565905875" lon="11.361685988309834"><ele>570.0</ele><time>2026-04-12T16:35:41.999Z</time></trkpt><trkpt lat="43.556183272822466" lon="11.361738714755603"><ele>569.4</ele><time>2026-04-12T16:35:42.999Z</time></trkpt><trkpt lat="43.556112307546876" lon="11.36180231430499"><ele>568.8</ele><time>2026-04-12T16:35:43.999Z</time></trkpt><trkpt lat="43.556029906620104" lon="11.361865684401252"><ele>568.2</ele><time>2026-04-12T16:35:44.999Z</time></trkpt><trkpt lat="43.55594415217458" lon="11.361917336690226"><ele>567.6</ele><time>2026-04-12T16:35:45.999Z</time></trkpt><trkpt lat="43.5558527343039" lon="11.361964200007169"><ele>567.0</ele><time>2026-04-12T16:35:46.999Z</time></trkpt><trkpt lat="43.55576218775942" lon="11.362009930562108"><ele>567.0</ele><time>2026-04-12T16:35:47.999Z</time></trkpt><trkpt lat="43.55567613221384" lon="11.36206285910229"><ele>567.0</ele><time>2026-04-12T16:35:48.999Z</time></trkpt><trkpt lat="43.5555906265751" lon="11.362102137391917"><ele>567.0</ele><time>2026-04-12T16:35:49.999Z</time></trkpt><trkpt lat="43.55551047795805" lon="11.362143951962977"><ele>567.0</ele><time>2026-04-12T16:35:50.999Z</time></trkpt><trkpt lat="43.55544263645625" lon="11.36221852221865"><ele>567.0</ele><time>2026-04-12T16:35:51.999Z</time></trkpt><trkpt lat="43.555367863180514" lon="11.36229199945494"><ele>567.0</ele><time>2026-04-12T16:35:52.999Z</time></trkpt><trkpt lat="43.555288598425186" lon="11.362356792712735"><ele>571.0</ele><time>2026-04-12T16:35:53.999Z</time></trkpt><trkpt lat="43.55521550655679" lon="11.362423101367863"><ele>575.0</ele><time>2026-04-12T16:35:54.999Z</time></trkpt><trkpt lat="43.5551482307431" lon="11.362503433385509"><ele>579.0</ele><time>2026-04-12T16:35:55.999Z</time></trkpt><trkpt lat="43.555078648733954" lon="11.362593195834188"><ele>583.0</ele><time>2026-04-12T16:35:56.999Z</time></trkpt><trkpt lat="43.555007224238175" lon="11.362685667122742"><ele>587.0</ele><time>2026-04-12T16:35:57.999Z</time></trkpt><trkpt lat="43.55493068997374" lon="11.36274795906306"><ele>587.0</ele><time>2026-04-12T16:35:58.999Z</time></trkpt><trkpt lat="43.554862011393475" lon="11.362822553028126"><ele>587.0</ele><time>2026-04-12T16:35:59.999Z</time></trkpt><trkpt lat="43.554793699202754" lon="11.362897949685381"><ele>587.0</ele><time>2026-04-12T16:36:00.999Z</time></trkpt><trkpt lat="43.55473776867801" lon="11.362984931835655"><ele>587.0</ele><time>2026-04-12T16:36:01.999Z</time></trkpt><trkpt lat="43.55467808685494" lon="11.363049114699114"><ele>587.0</ele><time>2026-04-12T16:36:02.999Z</time></trkpt><trkpt lat="43.554617802394276" lon="11.363108054365808"><ele>587.0</ele><time>2026-04-12T16:36:03.999Z</time></trkpt><trkpt lat="43.55459829415593" lon="11.363233504068907"><ele>589.6666666666666</ele><time>2026-04-12T16:36:04.999Z</time></trkpt><trkpt lat="43.5545855079894" lon="11.363357942348506"><ele>592.3333333333333</ele><time>2026-04-12T16:36:05.999Z</time></trkpt><trkpt lat="43.55457218299134" lon="11.363478743137025"><ele>595.0</ele><time>2026-04-12T16:36:06.999Z</time></trkpt><trkpt lat="43.554553163442066" lon="11.363597765096745"><ele>597.6666666666666</ele><time>2026-04-12T16:36:07.999Z</time></trkpt><trkpt lat="43.554533559910894" lon="11.363713132022472"><ele>600.3333333333334</ele><time>2026-04-12T16:36:08.999Z</time></trkpt><trkpt lat="43.5545146011671" lon="11.363823139363808"><ele>603.0</ele><time>2026-04-12T16:36:09.999Z</time></trkpt><trkpt lat="43.554495660482345" lon="11.363931116238886"><ele>605.5</ele><time>2026-04-12T16:36:10.999Z</time></trkpt><trkpt lat="43.55445487025194" lon="11.364033863604561"><ele>608.0</ele><time>2026-04-12T16:36:11.999Z</time></trkpt><trkpt lat="43.55443808509925" lon="11.364145516453894"><ele>610.5</ele><time>2026-04-12T16:36:12.999Z</time></trkpt><trkpt lat="43.55439253631036" lon="11.364243049329179"><ele>613.0</ele><time>2026-04-12T16:36:13.999Z</time></trkpt><trkpt lat="43.554351247581984" lon="11.364341168462087"><ele>615.5</ele><time>2026-04-12T16:36:14.999Z</time></trkpt><trkpt lat="43.55429621460498" lon="11.364410689506576"><ele>618.0</ele><time>2026-04-12T16:36:15.999Z</time></trkpt><trkpt lat="43.55424333408015" lon="11.364474746772412"><ele>618.0000000000001</ele><time>2026-04-12T16:36:16.999Z</time></trkpt><trkpt lat="43.5541738414032" lon="11.364526548913485"><ele>618.0</ele><time>2026-04-12T16:36:17.999Z</time></trkpt><trkpt lat="43.5541031021752" lon="11.36458608207251"><ele>618.0</ele><time>2026-04-12T16:36:18.999Z</time></trkpt><trkpt lat="43.554044790172235" lon="11.364640330541233"><ele>618.0</ele><time>2026-04-12T16:36:19.999Z</time></trkpt><trkpt lat="43.553985339891675" lon="11.364689505539214"><ele>618.0</ele><time>2026-04-12T16:36:20.999Z</time></trkpt><trkpt lat="43.55392738769051" lon="11.364734443016697"><ele>618.0000000000001</ele><time>2026-04-12T16:36:21.999Z</time></trkpt><trkpt lat="43.55388314761827" lon="11.364808970736759"><ele>618.0</ele><time>2026-04-12T16:36:22.999Z</time></trkpt><trkpt lat="43.553839603598476" lon="11.364972888328179"><ele>619.7142857142858</ele><time>2026-04-12T16:36:24.999Z</time></trkpt><trkpt lat="43.553848044373105" lon="11.365079366459781"><ele>621.4285714285714</ele><time>2026-04-12T16:36:25.999Z</time></trkpt><trkpt lat="43.55384064858051" lon="11.365174557035909"><ele>623.1428571428571</ele><time>2026-04-12T16:36:26.999Z</time></trkpt><trkpt lat="43.553852841411754" lon="11.365275181540294"><ele>624.8571428571429</ele><time>2026-04-12T16:36:27.999Z</time></trkpt><trkpt lat="43.55384488225092" lon="11.365371688925611"><ele>626.5714285714286</ele><time>2026-04-12T16:36:28.999Z</time></trkpt><trkpt lat="43.55383851387519" lon="11.365468954594965"><ele>628.2857142857143</ele><time>2026-04-12T16:36:29.999Z</time></trkpt><trkpt lat="43.55381657916596" lon="11.365570900995845"><ele>630.0</ele><time>2026-04-12T16:36:30.999Z</time></trkpt><trkpt lat="43.55379668179863" lon="11.36565993397506"><ele>631.4</ele><time>2026-04-12T16:36:31.999Z</time></trkpt><trkpt lat="43.55373999512273" lon="11.365741790444797"><ele>632.8</ele><time>2026-04-12T16:36:33.999Z</time></trkpt><trkpt lat="43.553672654647485" lon="11.36571530131891"><ele>634.2</ele><time>2026-04-12T16:36:35.999Z</time></trkpt><trkpt lat="43.553554428634214" lon="11.365735270221087"><ele>635.6</ele><time>2026-04-12T16:36:37.999Z</time></trkpt><trkpt lat="43.55348943431748" lon="11.365671546463767"><ele>637.0</ele><time>2026-04-12T16:36:38.999Z</time></trkpt><trkpt lat="43.55337876117076" lon="11.365661107099053"><ele>637.0</ele><time>2026-04-12T16:36:40.999Z</time></trkpt><trkpt lat="43.55328787269356" lon="11.36562063526526"><ele>637.0</ele><time>2026-04-12T16:36:42.999Z</time></trkpt><trkpt lat="43.55322109705995" lon="11.365636326753416"><ele>637.0</ele><time>2026-04-12T16:36:43.999Z</time></trkpt><trkpt lat="43.55315749939905" lon="11.365612656647826"><ele>637.0</ele><time>2026-04-12T16:36:44.999Z</time></trkpt><trkpt lat="43.553016981743845" lon="11.365624861106028"><ele>637.0</ele><time>2026-04-12T16:36:46.999Z</time></trkpt><trkpt lat="43.552934800761705" lon="11.365634961762638"><ele>635.1666666666667</ele><time>2026-04-12T16:36:47.999Z</time></trkpt><trkpt lat="43.55283857404518" lon="11.365629287407106"><ele>633.3333333333334</ele><time>2026-04-12T16:36:48.999Z</time></trkpt><trkpt lat="43.55274295707706" lon="11.365654138285986"><ele>631.5</ele><time>2026-04-12T16:36:49.999Z</time></trkpt><trkpt lat="43.5526524323005" lon="11.365716043543689"><ele>629.6666666666666</ele><time>2026-04-12T16:36:51Z</time></trkpt><trkpt lat="43.5525896268571" lon="11.365743882908014"><ele>627.8333333333333</ele><time>2026-04-12T16:36:52Z</time></trkpt><trkpt lat="43.55253908744489" lon="11.365809933738165"><ele>626.0</ele><time>2026-04-12T16:36:53Z</time></trkpt><trkpt lat="43.552495235022235" lon="11.365873130050666"><ele>626.0</ele><time>2026-04-12T16:36:54Z</time></trkpt><trkpt lat="43.55244852124621" lon="11.36593812128096"><ele>626.0</ele><time>2026-04-12T16:36:55Z</time></trkpt><trkpt lat="43.55239727289306" lon="11.366004570716905"><ele>626.0</ele><time>2026-04-12T16:36:56Z</time></trkpt><trkpt lat="43.552356389668944" lon="11.366090328964455"><ele>626.0</ele><time>2026-04-12T16:36:57Z</time></trkpt><trkpt lat="43.5522925540651" lon="11.366143624081651"><ele>626.0</ele><time>2026-04-12T16:36:58Z</time></trkpt><trkpt lat="43.55222500821156" lon="11.366181717009562"><ele>626.0</ele><time>2026-04-12T16:36:59Z</time></trkpt><trkpt lat="43.552102898946316" lon="11.366221498045716"><ele>626.0</ele><time>2026-04-12T16:37:01Z</time></trkpt><trkpt lat="43.55199258539789" lon="11.366237459106548"><ele>626.0</ele><time>2026-04-12T16:37:03Z</time></trkpt><trkpt lat="43.551888645375385" lon="11.36624261928624"><ele>626.0</ele><time>2026-04-12T16:37:05Z</time></trkpt><trkpt lat="43.55181783375044" lon="11.366246134777047"><ele>626.0</ele><time>2026-04-12T16:37:07Z</time></trkpt><trkpt lat="43.55170609464043" lon="11.366518799797507"><ele>626.0</ele><time>2026-04-12T16:37:19Z</time></trkpt><trkpt lat="43.55163827075276" lon="11.366619124987762"><ele>626.0</ele><time>2026-04-12T16:37:21Z</time></trkpt><trkpt lat="43.55158470785842" lon="11.366703231801997"><ele>626.0</ele><time>2026-04-12T16:37:23Z</time></trkpt><trkpt lat="43.55154128303223" lon="11.36676891230527"><ele>626.0</ele><time>2026-04-12T16:37:25Z</time></trkpt><trkpt lat="43.55148981475458" lon="11.36685321242967"><ele>626.0</ele><time>2026-04-12T16:37:27Z</time></trkpt><trkpt lat="43.55143924875215" lon="11.366958355195566"><ele>626.0</ele><time>2026-04-12T16:37:29Z</time></trkpt><trkpt lat="43.55140380340767" lon="11.367043661083454"><ele>626.0</ele><time>2026-04-12T16:37:31Z</time></trkpt><trkpt lat="43.55134497809673" lon="11.367087067463917"><ele>626.0</ele><time>2026-04-12T16:37:33Z</time></trkpt><trkpt lat="43.551322151543395" lon="11.367220636191695"><ele>626.0</ele><time>2026-04-12T16:37:35Z</time></trkpt><trkpt lat="43.55124830075795" lon="11.367340015570718"><ele>626.0</ele><time>2026-04-12T16:37:36.999Z</time></trkpt><trkpt lat="43.55120869138377" lon="11.367409287475493"><ele>626.0</ele><time>2026-04-12T16:37:37.999Z</time></trkpt><trkpt lat="43.55113460141585" lon="11.36751681014496"><ele>625.4</ele><time>2026-04-12T16:37:39.999Z</time></trkpt><trkpt lat="43.55105208782509" lon="11.367602686625464"><ele>624.8</ele><time>2026-04-12T16:37:41.999Z</time></trkpt><trkpt lat="43.550980195130826" lon="11.367681954118927"><ele>624.1999999999999</ele><time>2026-04-12T16:37:43.999Z</time></trkpt><trkpt lat="43.55087927139167" lon="11.367757888152573"><ele>623.6</ele><time>2026-04-12T16:37:45.999Z</time></trkpt><trkpt lat="43.550799268583106" lon="11.36782798120571"><ele>623.0</ele><time>2026-04-12T16:37:47.999Z</time></trkpt><trkpt lat="43.550715758885175" lon="11.367874245244256"><ele>623.0</ele><time>2026-04-12T16:37:49.999Z</time></trkpt><trkpt lat="43.55062861934652" lon="11.367874063032327"><ele>623.0</ele><time>2026-04-12T16:37:52.999Z</time></trkpt><trkpt lat="43.550559464725794" lon="11.367900766969743"><ele>623.0</ele><time>2026-04-12T16:37:54.999Z</time></trkpt><trkpt lat="43.550504502390915" lon="11.367971711040198"><ele>623.0</ele><time>2026-04-12T16:38:13.999Z</time></trkpt><trkpt lat="43.55045099569942" lon="11.368039184808868"><ele>623.0</ele><time>2026-04-12T16:38:16.999Z</time></trkpt><trkpt lat="43.55041986779902" lon="11.368115108375168"><ele>623.0</ele><time>2026-04-12T16:38:19.999Z</time></trkpt><trkpt lat="43.550416800844836" lon="11.368207079901712"><ele>623.0</ele><time>2026-04-12T16:38:24.999Z</time></trkpt><trkpt lat="43.55037257867854" lon="11.36832293226983"><ele>626.3333333333333</ele><time>2026-04-12T16:38:27.999Z</time></trkpt><trkpt lat="43.55035305950234" lon="11.368416319595461"><ele>629.6666666666666</ele><time>2026-04-12T16:38:29.999Z</time></trkpt><trkpt lat="43.55032564929494" lon="11.368548552289635"><ele>633.0</ele><time>2026-04-12T16:38:31.999Z</time></trkpt><trkpt lat="43.55028400020617" lon="11.368625165843335"><ele>636.3333333333334</ele><time>2026-04-12T16:38:33.999Z</time></trkpt><trkpt lat="43.550245449070786" lon="11.368706506345696"><ele>639.6666666666667</ele><time>2026-04-12T16:38:35.999Z</time></trkpt><trkpt lat="43.550202930593954" lon="11.36877604055188"><ele>643.0</ele><time>2026-04-12T16:38:36.999Z</time></trkpt><trkpt lat="43.55014064455046" lon="11.368858617343005"><ele>643.0</ele><time>2026-04-12T16:38:38.999Z</time></trkpt><trkpt lat="43.55004442111183" lon="11.368917503314819"><ele>643.0</ele><time>2026-04-12T16:38:41.999Z</time></trkpt><trkpt lat="43.54998991595469" lon="11.368963624053611"><ele>643.0</ele><time>2026-04-12T16:38:43.999Z</time></trkpt><trkpt lat="43.54987075416541" lon="11.368956261593516"><ele>643.0</ele><time>2026-04-12T16:38:45.999Z</time></trkpt><trkpt lat="43.54980768940666" lon="11.368934422040338"><ele>643.0</ele><time>2026-04-12T16:38:46.999Z</time></trkpt><trkpt lat="43.54972303371155" lon="11.368851629317502"><ele>643.0</ele><time>2026-04-12T16:38:48.999Z</time></trkpt><trkpt lat="43.54964071656043" lon="11.36879930774509"><ele>643.0</ele><time>2026-04-12T16:38:50.999Z</time></trkpt><trkpt lat="43.54954325585048" lon="11.368730833462433"><ele>643.0</ele><time>2026-04-12T16:38:52.999Z</time></trkpt><trkpt lat="43.54943554810891" lon="11.368627686482094"><ele>643.0</ele><time>2026-04-12T16:38:54.999Z</time></trkpt><trkpt lat="43.54936997502165" lon="11.368503546896012"><ele>643.0</ele><time>2026-04-12T16:38:57Z</time></trkpt><trkpt lat="43.54933219911838" lon="11.36842034440129"><ele>645.1666666666667</ele><time>2026-04-12T16:38:59Z</time></trkpt><trkpt lat="43.54924170548191" lon="11.36841342014654"><ele>647.3333333333334</ele><time>2026-04-12T16:39:03Z</time></trkpt><trkpt lat="43.54915292393355" lon="11.368369704312466"><ele>649.5</ele><time>2026-04-12T16:39:05Z</time></trkpt><trkpt lat="43.549069551058935" lon="11.368344382375568"><ele>651.6666666666666</ele><time>2026-04-12T16:39:07Z</time></trkpt><trkpt lat="43.54899036101393" lon="11.368354989417623"><ele>653.8333333333333</ele><time>2026-04-12T16:39:09Z</time></trkpt><trkpt lat="43.5489203384573" lon="11.368362056615725"><ele>656.0</ele><time>2026-04-12T16:39:11Z</time></trkpt><trkpt lat="43.54881832359516" lon="11.368379905989753"><ele>657.4</ele><time>2026-04-12T16:39:23Z</time></trkpt><trkpt lat="43.548696631485974" lon="11.368404574325314"><ele>658.8</ele><time>2026-04-12T16:39:25Z</time></trkpt><trkpt lat="43.54858983033518" lon="11.368433823528907"><ele>660.1999999999999</ele><time>2026-04-12T16:39:27Z</time></trkpt><trkpt lat="43.54852567800257" lon="11.368459994818139"><ele>661.5999999999999</ele><time>2026-04-12T16:39:28Z</time></trkpt><trkpt lat="43.54843316879662" lon="11.368498701928601"><ele>663.0</ele><time>2026-04-12T16:39:30Z</time></trkpt><trkpt lat="43.54837293521624" lon="11.368527113169867"><ele>663.0</ele><time>2026-04-12T16:39:32Z</time></trkpt><trkpt lat="43.54831189026517" lon="11.368562463850617"><ele>663.0</ele><time>2026-04-12T16:39:33.999Z</time></trkpt><trkpt lat="43.54822682018395" lon="11.368641789757838"><ele>663.0</ele><time>2026-04-12T16:39:35.999Z</time></trkpt><trkpt lat="43.548157642263725" lon="11.368607828746308"><ele>663.0</ele><time>2026-04-12T16:39:50.999Z</time></trkpt><trkpt lat="43.54810383282937" lon="11.368557494410734"><ele>663.0</ele><time>2026-04-12T16:40:42.999Z</time></trkpt><trkpt lat="43.54809427365507" lon="11.368668986178177"><ele>663.0</ele><time>2026-04-12T16:40:57.999Z</time></trkpt><trkpt lat="43.54807492243462" lon="11.368795965479956"><ele>663.0</ele><time>2026-04-12T16:40:59.999Z</time></trkpt><trkpt lat="43.54808221891641" lon="11.368901126454796"><ele>663.0</ele><time>2026-04-12T16:41:02Z</time></trkpt><trkpt lat="43.54811488270234" lon="11.3689845427294"><ele>663.0</ele><time>2026-04-12T16:41:05Z</time></trkpt><trkpt lat="43.54804914800613" lon="11.368954717045007"><ele>663.0</ele><time>2026-04-12T16:41:14Z</time></trkpt><trkpt lat="43.548049043470705" lon="11.368856223985174"><ele>663.0</ele><time>2026-04-12T16:41:28Z</time></trkpt><trkpt lat="43.54812261518243" lon="11.368942512942517"><ele>663.0</ele><time>2026-04-12T16:41:31Z</time></trkpt><trkpt lat="43.54816970784499" lon="11.36907683546743"><ele>666.2</ele><time>2026-04-12T16:41:32.999Z</time></trkpt><trkpt lat="43.54826574706148" lon="11.369204760174384"><ele>669.4</ele><time>2026-04-12T16:41:34.999Z</time></trkpt><trkpt lat="43.54832148674362" lon="11.369288538518086"><ele>672.6</ele><time>2026-04-12T16:41:35.999Z</time></trkpt><trkpt lat="43.54836830924947" lon="11.36939116053431"><ele>675.8000000000001</ele><time>2026-04-12T16:41:36.999Z</time></trkpt><trkpt lat="43.54842883423641" lon="11.36950030781076"><ele>679.0</ele><time>2026-04-12T16:41:38.999Z</time></trkpt><trkpt lat="43.54846625787473" lon="11.369581306149007"><ele>681.8333333333334</ele><time>2026-04-12T16:41:39.999Z</time></trkpt><trkpt lat="43.54848934189842" lon="11.36969721199024"><ele>684.6666666666667</ele><time>2026-04-12T16:41:40.999Z</time></trkpt><trkpt lat="43.54850561776166" lon="11.369816439242294"><ele>687.5</ele><time>2026-04-12T16:41:41.999Z</time></trkpt><trkpt lat="43.54851810827945" lon="11.369909257607137"><ele>690.3333333333334</ele><time>2026-04-12T16:41:42.999Z</time></trkpt><trkpt lat="43.54851834423273" lon="11.37006934980287"><ele>693.1666666666666</ele><time>2026-04-12T16:41:44.999Z</time></trkpt><trkpt lat="43.54852589861794" lon="11.370172039151806"><ele>696.0</ele><time>2026-04-12T16:41:45.999Z</time></trkpt><trkpt lat="43.54852577852754" lon="11.370267969498828"><ele>696.0</ele><time>2026-04-12T16:41:46.999Z</time></trkpt><trkpt lat="43.548573058011705" lon="11.370427112070947"><ele>696.0</ele><time>2026-04-12T16:41:48.999Z</time></trkpt><trkpt lat="43.54858507117581" lon="11.370576938933615"><ele>696.0</ele><time>2026-04-12T16:41:50.999Z</time></trkpt><trkpt lat="43.54857191199852" lon="11.370754928009399"><ele>696.0</ele><time>2026-04-12T16:41:52.999Z</time></trkpt><trkpt lat="43.548557289230004" lon="11.37085106256466"><ele>696.0</ele><time>2026-04-12T16:41:53.999Z</time></trkpt><trkpt lat="43.54852753916921" lon="11.370985192522722"><ele>699.0</ele><time>2026-04-12T16:41:55.999Z</time></trkpt><trkpt lat="43.54849525572097" lon="11.371106561346231"><ele>702.0</ele><time>2026-04-12T16:41:57.999Z</time></trkpt><trkpt lat="43.54848138129534" lon="11.371275672683824"><ele>705.0</ele><time>2026-04-12T16:41:59.999Z</time></trkpt><trkpt lat="43.54845889099188" lon="11.371455459571475"><ele>708.0</ele><time>2026-04-12T16:42:01.999Z</time></trkpt><trkpt lat="43.54844852122873" lon="11.371570800234984"><ele>711.0</ele><time>2026-04-12T16:42:02.999Z</time></trkpt><trkpt lat="43.548439373043024" lon="11.371684274464336"><ele>713.0</ele><time>2026-04-12T16:42:03.999Z</time></trkpt><trkpt lat="43.54843219200513" lon="11.371776817071094"><ele>715.0</ele><time>2026-04-12T16:42:04.999Z</time></trkpt><trkpt lat="43.548427365036126" lon="11.371880597472986"><ele>717.0</ele><time>2026-04-12T16:42:05.999Z</time></trkpt><trkpt lat="43.54841278141925" lon="11.37197351552013"><ele>719.0</ele><time>2026-04-12T16:42:06.999Z</time></trkpt><trkpt lat="43.548402097037716" lon="11.372093052725358"><ele>721.0</ele><time>2026-04-12T16:42:07.999Z</time></trkpt><trkpt lat="43.54839012506215" lon="11.372198569624077"><ele>723.0</ele><time>2026-04-12T16:42:08.999Z</time></trkpt><trkpt lat="43.548376481117" lon="11.37229144161393"><ele>725.0</ele><time>2026-04-12T16:42:09.999Z</time></trkpt><trkpt lat="43.54836639350255" lon="11.37238776505638"><ele>727.1666666666666</ele><time>2026-04-12T16:42:10.999Z</time></trkpt><trkpt lat="43.54835668905933" lon="11.372476859375505"><ele>729.3333333333333</ele><time>2026-04-12T16:42:11.999Z</time></trkpt><trkpt lat="43.54832383905242" lon="11.372662599375591"><ele>731.5</ele><time>2026-04-12T16:42:13.999Z</time></trkpt><trkpt lat="43.54830578432189" lon="11.37275932175764"><ele>733.6666666666666</ele><time>2026-04-12T16:42:14.999Z</time></trkpt><trkpt lat="43.54828850212582" lon="11.372870197141472"><ele>735.8333333333334</ele><time>2026-04-12T16:42:15.999Z</time></trkpt><trkpt lat="43.5482597121535" lon="11.37295405226053"><ele>738.0</ele><time>2026-04-12T16:42:16.999Z</time></trkpt><trkpt lat="43.54819925779361" lon="11.373101533677561"><ele>740.5999999999999</ele><time>2026-04-12T16:42:18.999Z</time></trkpt><trkpt lat="43.54814281201653" lon="11.373223313104743"><ele>743.1999999999999</ele><time>2026-04-12T16:42:20.999Z</time></trkpt><trkpt lat="43.548120238414285" lon="11.373305291368043"><ele>745.8</ele><time>2026-04-12T16:42:21.999Z</time></trkpt><trkpt lat="43.54809785757439" lon="11.3734393620829"><ele>748.4</ele><time>2026-04-12T16:42:23.999Z</time></trkpt><trkpt lat="43.548094427507266" lon="11.373571783895134"><ele>751.0</ele><time>2026-04-12T16:42:25.999Z</time></trkpt><trkpt lat="43.54812239249682" lon="11.373727040077286"><ele>751.0</ele><time>2026-04-12T16:42:27.999Z</time></trkpt><trkpt lat="43.54815312515702" lon="11.37383467240143"><ele>751.0</ele><time>2026-04-12T16:42:29.999Z</time></trkpt><trkpt lat="43.54817427797309" lon="11.373960978802927"><ele>751.0</ele><time>2026-04-12T16:42:31.999Z</time></trkpt><trkpt lat="43.548196800477854" lon="11.37408753775943"><ele>751.0</ele><time>2026-04-12T16:42:33.999Z</time></trkpt><trkpt lat="43.54822232984189" lon="11.374242825882144"><ele>751.0</ele><time>2026-04-12T16:42:35.999Z</time></trkpt><trkpt lat="43.54823155962166" lon="11.374334064410393"><ele>754.5999999999999</ele><time>2026-04-12T16:42:36.999Z</time></trkpt><trkpt lat="43.54828158236096" lon="11.374478082661048"><ele>758.2</ele><time>2026-04-12T16:42:38.999Z</time></trkpt><trkpt lat="43.54831006016242" lon="11.374617958016676"><ele>761.8</ele><time>2026-04-12T16:42:41.999Z</time></trkpt><trkpt lat="43.548344240830076" lon="11.37472062688781"><ele>765.4000000000001</ele><time>2026-04-12T16:42:43.999Z</time></trkpt><trkpt lat="43.54838906813567" lon="11.374848130164688"><ele>769.0</ele><time>2026-04-12T16:42:46.999Z</time></trkpt><trkpt lat="43.54841754191353" lon="11.374947310506787"><ele>771.1666666666666</ele><time>2026-04-12T16:42:48.999Z</time></trkpt><trkpt lat="43.548470965679115" lon="11.375055881718971"><ele>773.3333333333333</ele><time>2026-04-12T16:42:50.999Z</time></trkpt><trkpt lat="43.54846986885128" lon="11.375176886110019"><ele>775.5</ele><time>2026-04-12T16:42:53.999Z</time></trkpt><trkpt lat="43.548514491720944" lon="11.375304647225711"><ele>777.6666666666667</ele><time>2026-04-12T16:42:55.999Z</time></trkpt><trkpt lat="43.54856852335" lon="11.375395968616917"><ele>779.8333333333334</ele><time>2026-04-12T16:42:57.999Z</time></trkpt><trkpt lat="43.548581287941" lon="11.375501684090633"><ele>782.0</ele><time>2026-04-12T16:42:59.999Z</time></trkpt><trkpt lat="43.548614197236574" lon="11.375609748949671"><ele>784.6666666666667</ele><time>2026-04-12T16:43:02.999Z</time></trkpt><trkpt lat="43.54867084358197" lon="11.375712949007388"><ele>787.3333333333334</ele><time>2026-04-12T16:43:04.999Z</time></trkpt><trkpt lat="43.54868799593881" lon="11.375830545860683"><ele>790.0</ele><time>2026-04-12T16:43:06.999Z</time></trkpt><trkpt lat="43.5487044196278" lon="11.375932153569181"><ele>792.6666666666667</ele><time>2026-04-12T16:43:09Z</time></trkpt><trkpt lat="43.548709498697846" lon="11.3760370572686"><ele>795.3333333333334</ele><time>2026-04-12T16:43:11Z</time></trkpt><trkpt lat="43.54871016095429" lon="11.37613012200235"><ele>798.0</ele><time>2026-04-12T16:43:13Z</time></trkpt><trkpt lat="43.54868817149986" lon="11.376232907336606"><ele>800.8</ele><time>2026-04-12T16:43:15Z</time></trkpt><trkpt lat="43.54871782975152" lon="11.376355226517337"><ele>803.5999999999999</ele><time>2026-04-12T16:43:27Z</time></trkpt><trkpt lat="43.54874939795312" lon="11.37648035067675"><ele>806.4000000000001</ele><time>2026-04-12T16:43:30Z</time></trkpt><trkpt lat="43.5487950678151" lon="11.376574838325649"><ele>809.2</ele><time>2026-04-12T16:43:32Z</time></trkpt><trkpt lat="43.54884592824338" lon="11.37665592624378"><ele>812.0</ele><time>2026-04-12T16:43:34Z</time></trkpt><trkpt lat="43.54892810350759" lon="11.376763541180557"><ele>812.0</ele><time>2026-04-12T16:43:36Z</time></trkpt><trkpt lat="43.54899478690676" lon="11.376911704777964"><ele>812.0</ele><time>2026-04-12T16:43:37.999Z</time></trkpt><trkpt lat="43.54899449035283" lon="11.377040185516012"><ele>812.0</ele><time>2026-04-12T16:43:39.999Z</time></trkpt><trkpt lat="43.54893522945299" lon="11.377143955991007"><ele>812.0</ele><time>2026-04-12T16:43:41.999Z</time></trkpt><trkpt lat="43.5488710305666" lon="11.377243984767883"><ele>812.0</ele><time>2026-04-12T16:43:43.999Z</time></trkpt><trkpt lat="43.54882410428685" lon="11.377316992461811"><ele>814.0</ele><time>2026-04-12T16:43:44.999Z</time></trkpt><trkpt lat="43.5487648415533" lon="11.377441103678558"><ele>816.0</ele><time>2026-04-12T16:43:46.999Z</time></trkpt><trkpt lat="43.54874490917163" lon="11.377598850241746"><ele>818.0</ele><time>2026-04-12T16:43:48.999Z</time></trkpt><trkpt lat="43.54871617805282" lon="11.377682560919967"><ele>820.0</ele><time>2026-04-12T16:43:49.999Z</time></trkpt><trkpt lat="43.54866723765614" lon="11.377771369455152"><ele>822.0</ele><time>2026-04-12T16:43:50.999Z</time></trkpt><trkpt lat="43.548611269654195" lon="11.377865725815123"><ele>822.8</ele><time>2026-04-12T16:43:51.999Z</time></trkpt><trkpt lat="43.54854578131144" lon="11.377965668333758"><ele>823.6</ele><time>2026-04-12T16:43:52.999Z</time></trkpt><trkpt lat="43.54849585548388" lon="11.378044687575803"><ele>824.4</ele><time>2026-04-12T16:43:53.999Z</time></trkpt><trkpt lat="43.548415451157176" lon="11.378185162686174"><ele>825.1999999999999</ele><time>2026-04-12T16:43:55.999Z</time></trkpt><trkpt lat="43.54833255611135" lon="11.378302064876111"><ele>826.0</ele><time>2026-04-12T16:43:57.999Z</time></trkpt><trkpt lat="43.54829531032402" lon="11.378378608312149"><ele>827.5714285714286</ele><time>2026-04-12T16:43:58.999Z</time></trkpt><trkpt lat="43.54826449148969" lon="11.378457587474662"><ele>829.1428571428571</ele><time>2026-04-12T16:43:59.999Z</time></trkpt><trkpt lat="43.548228413111104" lon="11.378532300721215"><ele>830.7142857142858</ele><time>2026-04-12T16:44:00.999Z</time></trkpt><trkpt lat="43.54818631728029" lon="11.378625363363042"><ele>832.2857142857142</ele><time>2026-04-12T16:44:01.999Z</time></trkpt><trkpt lat="43.54815694658412" lon="11.378707044423196"><ele>833.8571428571429</ele><time>2026-04-12T16:44:02.999Z</time></trkpt><trkpt lat="43.54811376936903" lon="11.378799476275661"><ele>835.4285714285714</ele><time>2026-04-12T16:44:03.999Z</time></trkpt><trkpt lat="43.54807656690148" lon="11.378883632849126"><ele>837.0</ele><time>2026-04-12T16:44:04.999Z</time></trkpt><trkpt lat="43.548022833424476" lon="11.378965171960902"><ele>837.6666666666666</ele><time>2026-04-12T16:44:05.999Z</time></trkpt><trkpt lat="43.547967363053885" lon="11.379063854293152"><ele>838.3333333333333</ele><time>2026-04-12T16:44:06.999Z</time></trkpt><trkpt lat="43.54792490767749" lon="11.379150750999804"><ele>839.0</ele><time>2026-04-12T16:44:07.999Z</time></trkpt><trkpt lat="43.547883764803125" lon="11.379250135141335"><ele>839.6666666666666</ele><time>2026-04-12T16:44:08.999Z</time></trkpt><trkpt lat="43.54784577230864" lon="11.379350090641552"><ele>840.3333333333333</ele><time>2026-04-12T16:44:09.999Z</time></trkpt><trkpt lat="43.547808674575144" lon="11.37942772188185"><ele>841.0</ele><time>2026-04-12T16:44:10.999Z</time></trkpt><trkpt lat="43.54776415542173" lon="11.379525513153473"><ele>841.8333333333333</ele><time>2026-04-12T16:44:11.999Z</time></trkpt><trkpt lat="43.54772565710115" lon="11.379609930847193"><ele>842.6666666666666</ele><time>2026-04-12T16:44:12.999Z</time></trkpt><trkpt lat="43.54767805786509" lon="11.379721512545155"><ele>843.5</ele><time>2026-04-12T16:44:13.999Z</time></trkpt><trkpt lat="43.547637577341376" lon="11.379800931962896"><ele>844.3333333333333</ele><time>2026-04-12T16:44:14.999Z</time></trkpt><trkpt lat="43.54759742751044" lon="11.379891246975316"><ele>845.1666666666666</ele><time>2026-04-12T16:44:15.999Z</time></trkpt><trkpt lat="43.54756795286477" lon="11.379991225134766"><ele>846.0</ele><time>2026-04-12T16:44:16.999Z</time></trkpt><trkpt lat="43.54754300519214" lon="11.38010321571151"><ele>847.1999999999999</ele><time>2026-04-12T16:44:17.999Z</time></trkpt><trkpt lat="43.54750625313558" lon="11.380220838036857"><ele>848.4</ele><time>2026-04-12T16:44:18.999Z</time></trkpt><trkpt lat="43.547451142509345" lon="11.380352915256692"><ele>849.6</ele><time>2026-04-12T16:44:19.999Z</time></trkpt><trkpt lat="43.5473967307264" lon="11.380472577953217"><ele>850.8</ele><time>2026-04-12T16:44:20.999Z</time></trkpt><trkpt lat="43.54736419574196" lon="11.380578791903918"><ele>852.0</ele><time>2026-04-12T16:44:21.999Z</time></trkpt><trkpt lat="43.547339556874014" lon="11.380684550718268"><ele>852.0</ele><time>2026-04-12T16:44:22.999Z</time></trkpt><trkpt lat="43.54730854423747" lon="11.380793945929739"><ele>852.0</ele><time>2026-04-12T16:44:23.999Z</time></trkpt><trkpt lat="43.547286457068815" lon="11.380894717692671"><ele>852.0</ele><time>2026-04-12T16:44:24.999Z</time></trkpt><trkpt lat="43.54726301050197" lon="11.380986417900468"><ele>852.0</ele><time>2026-04-12T16:44:25.999Z</time></trkpt><trkpt lat="43.54726196270757" lon="11.381113712130515"><ele>852.0</ele><time>2026-04-12T16:44:27.999Z</time></trkpt><trkpt lat="43.547224076503625" lon="11.381256080163581"><ele>852.0</ele><time>2026-04-12T16:44:29.999Z</time></trkpt><trkpt lat="43.54718548738434" lon="11.381341122226521"><ele>851.8333333333334</ele><time>2026-04-12T16:44:30.999Z</time></trkpt><trkpt lat="43.54714987469561" lon="11.381422176825343"><ele>851.6666666666667</ele><time>2026-04-12T16:44:31.999Z</time></trkpt><trkpt lat="43.54710074822075" lon="11.381483751688446"><ele>851.5</ele><time>2026-04-12T16:44:33.999Z</time></trkpt><trkpt lat="43.547027789569555" lon="11.381420557875728"><ele>851.3333333333334</ele><time>2026-04-12T16:44:35.999Z</time></trkpt><trkpt lat="43.546961212375564" lon="11.381336517523424"><ele>851.1666666666667</ele><time>2026-04-12T16:44:37.999Z</time></trkpt><trkpt lat="43.54687008641056" lon="11.381274876843333"><ele>851.0</ele><time>2026-04-12T16:44:39.999Z</time></trkpt><trkpt lat="43.5468150747277" lon="11.381223812137534"><ele>851.0</ele><time>2026-04-12T16:44:40.999Z</time></trkpt><trkpt lat="43.546704305413364" lon="11.381189983365337"><ele>851.0</ele><time>2026-04-12T16:44:42.999Z</time></trkpt><trkpt lat="43.54659250289777" lon="11.381124557875255"><ele>851.0</ele><time>2026-04-12T16:44:44.999Z</time></trkpt><trkpt lat="43.54652383127172" lon="11.381099410721486"><ele>851.0</ele><time>2026-04-12T16:44:45.999Z</time></trkpt><trkpt lat="43.54638929824913" lon="11.381054572159233"><ele>851.0</ele><time>2026-04-12T16:44:47.999Z</time></trkpt><trkpt lat="43.54630954342168" lon="11.381029014182106"><ele>851.0000000000001</ele><time>2026-04-12T16:44:48.999Z</time></trkpt><trkpt lat="43.54621940800765" lon="11.381002342530806"><ele>851.0</ele><time>2026-04-12T16:44:49.999Z</time></trkpt><trkpt lat="43.54614480401503" lon="11.380937790384268"><ele>851.0</ele><time>2026-04-12T16:44:50.999Z</time></trkpt><trkpt lat="43.54611009062201" lon="11.380834826481806"><ele>851.0</ele><time>2026-04-12T16:44:52.999Z</time></trkpt><trkpt lat="43.54606144879042" lon="11.380753688259341"><ele>851.0000000000001</ele><time>2026-04-12T16:44:54.999Z</time></trkpt><trkpt lat="43.54601131792282" lon="11.380689649651204"><ele>851.0</ele><time>2026-04-12T16:44:55.999Z</time></trkpt><trkpt lat="43.54594437228408" lon="11.380624822396458"><ele>850.8333333333334</ele><time>2026-04-12T16:44:56.999Z</time></trkpt><trkpt lat="43.5458654790833" lon="11.380547005758782"><ele>850.6666666666667</ele><time>2026-04-12T16:44:57.999Z</time></trkpt><trkpt lat="43.545816296409505" lon="11.380467768419766"><ele>850.5</ele><time>2026-04-12T16:44:58.999Z</time></trkpt><trkpt lat="43.54576958621521" lon="11.380390168306011"><ele>850.3333333333333</ele><time>2026-04-12T16:44:59.999Z</time></trkpt><trkpt lat="43.54572736363528" lon="11.380323500776731"><ele>850.1666666666666</ele><time>2026-04-12T16:45:00.999Z</time></trkpt><trkpt lat="43.5456764594648" lon="11.380257877452463"><ele>850.0</ele><time>2026-04-12T16:45:01.999Z</time></trkpt><trkpt lat="43.54561366568399" lon="11.380145635484448"><ele>847.9999999999999</ele><time>2026-04-12T16:45:03.999Z</time></trkpt><trkpt lat="43.54555095086989" lon="11.380062583772167"><ele>846.0</ele><time>2026-04-12T16:45:05.999Z</time></trkpt><trkpt lat="43.54548577181485" lon="11.380008861508708"><ele>844.0</ele><time>2026-04-12T16:45:06.999Z</time></trkpt><trkpt lat="43.54537571181371" lon="11.37996942425071"><ele>842.0</ele><time>2026-04-12T16:45:08.999Z</time></trkpt><trkpt lat="43.54531443035722" lon="11.379993079531845"><ele>839.9999999999999</ele><time>2026-04-12T16:45:09.999Z</time></trkpt><trkpt lat="43.545221549163244" lon="11.379984770157986"><ele>838.0</ele><time>2026-04-12T16:45:11.999Z</time></trkpt><trkpt lat="43.54513306424109" lon="11.37985665758487"><ele>837.9999999999999</ele><time>2026-04-12T16:45:14Z</time></trkpt><trkpt lat="43.54508009657203" lon="11.379738888303505"><ele>838.0</ele><time>2026-04-12T16:45:15Z</time></trkpt><trkpt lat="43.54503916294384" lon="11.379633871955791"><ele>838.0</ele><time>2026-04-12T16:45:16Z</time></trkpt><trkpt lat="43.544991081013855" lon="11.37953111466821"><ele>838.0</ele><time>2026-04-12T16:45:17Z</time></trkpt><trkpt lat="43.54494125567646" lon="11.379442713120635"><ele>837.9999999999999</ele><time>2026-04-12T16:45:18Z</time></trkpt><trkpt lat="43.54488898720449" lon="11.37937121193405"><ele>838.0</ele><time>2026-04-12T16:45:19Z</time></trkpt><trkpt lat="43.544841445391356" lon="11.3793061492198"><ele>837.3333333333333</ele><time>2026-04-12T16:45:20Z</time></trkpt><trkpt lat="43.54479646082655" lon="11.379208519632249"><ele>836.6666666666666</ele><time>2026-04-12T16:45:21Z</time></trkpt><trkpt lat="43.54475377463055" lon="11.379095078571053"><ele>836.0</ele><time>2026-04-12T16:45:22Z</time></trkpt><trkpt lat="43.544704605263135" lon="11.378991463250701"><ele>835.3333333333333</ele><time>2026-04-12T16:45:23Z</time></trkpt><trkpt lat="43.54465100560254" lon="11.378924319410036"><ele>834.6666666666666</ele><time>2026-04-12T16:45:24Z</time></trkpt><trkpt lat="43.54457616119461" lon="11.378855279472768"><ele>834.0</ele><time>2026-04-12T16:45:26Z</time></trkpt><trkpt lat="43.54454398511987" lon="11.378734859829207"><ele>836.8000000000001</ele><time>2026-04-12T16:46:09.999Z</time></trkpt><trkpt lat="43.544511459325975" lon="11.378586615135465"><ele>839.6</ele><time>2026-04-12T16:46:11.999Z</time></trkpt><trkpt lat="43.54448295054948" lon="11.378487310677693"><ele>842.4</ele><time>2026-04-12T16:46:12.999Z</time></trkpt><trkpt lat="43.54446493613859" lon="11.378401048265589"><ele>845.2</ele><time>2026-04-12T16:46:13.999Z</time></trkpt><trkpt lat="43.544453446389625" lon="11.378263758946396"><ele>848.0</ele><time>2026-04-12T16:46:15.999Z</time></trkpt><trkpt lat="43.54442495511674" lon="11.378130297895078"><ele>847.2</ele><time>2026-04-12T16:46:17.999Z</time></trkpt><trkpt lat="43.54439454788826" lon="11.377992393419287"><ele>846.4</ele><time>2026-04-12T16:46:19.999Z</time></trkpt><trkpt lat="43.544357868115995" lon="11.377843464854358"><ele>845.6</ele><time>2026-04-12T16:46:21.999Z</time></trkpt><trkpt lat="43.544305295851174" lon="11.377700025397072"><ele>844.8000000000001</ele><time>2026-04-12T16:46:23.999Z</time></trkpt><trkpt lat="43.54427538901633" lon="11.37761617096354"><ele>844.0</ele><time>2026-04-12T16:46:24.999Z</time></trkpt><trkpt lat="43.544244714433404" lon="11.377539641426567"><ele>844.0</ele><time>2026-04-12T16:46:25.999Z</time></trkpt><trkpt lat="43.54417112137634" lon="11.377414653417391"><ele>844.0</ele><time>2026-04-12T16:46:27.999Z</time></trkpt><trkpt lat="43.54410169458423" lon="11.377297283233993"><ele>844.0</ele><time>2026-04-12T16:46:29.999Z</time></trkpt><trkpt lat="43.544056650777925" lon="11.37720392865701"><ele>844.0</ele><time>2026-04-12T16:46:30.999Z</time></trkpt><trkpt lat="43.544005284888" lon="11.37709402797261"><ele>844.0</ele><time>2026-04-12T16:46:31.999Z</time></trkpt><trkpt lat="43.54396201559676" lon="11.377015035159197"><ele>844.1666666666666</ele><time>2026-04-12T16:46:32.999Z</time></trkpt><trkpt lat="43.54388088078498" lon="11.376897469702124"><ele>844.3333333333333</ele><time>2026-04-12T16:46:34.999Z</time></trkpt><trkpt lat="43.54381984494559" lon="11.376830574432056"><ele>844.5</ele><time>2026-04-12T16:46:35.999Z</time></trkpt><trkpt lat="43.54374795986069" lon="11.37676446046003"><ele>844.6666666666667</ele><time>2026-04-12T16:46:36.999Z</time></trkpt><trkpt lat="43.54366891566173" lon="11.376710025399738"><ele>844.8333333333334</ele><time>2026-04-12T16:46:37.999Z</time></trkpt><trkpt lat="43.54360148418091" lon="11.376664385010624"><ele>845.0</ele><time>2026-04-12T16:46:38.999Z</time></trkpt><trkpt lat="43.54352993378959" lon="11.376616012122426"><ele>845.0000000000001</ele><time>2026-04-12T16:46:39.999Z</time></trkpt><trkpt lat="43.54345621533921" lon="11.376572476071688"><ele>845.0</ele><time>2026-04-12T16:46:40.999Z</time></trkpt><trkpt lat="43.54337890791452" lon="11.376526515655446"><ele>845.0</ele><time>2026-04-12T16:46:41.999Z</time></trkpt><trkpt lat="43.5433072872194" lon="11.37645904841779"><ele>845.0</ele><time>2026-04-12T16:46:42.999Z</time></trkpt><trkpt lat="43.54324304004895" lon="11.376366387482522"><ele>845.0000000000001</ele><time>2026-04-12T16:46:43.999Z</time></trkpt><trkpt lat="43.5431826450069" lon="11.376279410255"><ele>845.0</ele><time>2026-04-12T16:46:44.999Z</time></trkpt><trkpt lat="43.54308462991004" lon="11.376204012341779"><ele>843.2</ele><time>2026-04-12T16:46:46.999Z</time></trkpt><trkpt lat="43.5429800158266" lon="11.376169352144263"><ele>841.4</ele><time>2026-04-12T16:46:48.999Z</time></trkpt><trkpt lat="43.54292303190162" lon="11.37610751295386"><ele>839.5999999999999</ele><time>2026-04-12T16:46:49.999Z</time></trkpt><trkpt lat="43.54287842399876" lon="11.376034391657182"><ele>837.8</ele><time>2026-04-12T16:46:50.999Z</time></trkpt><trkpt lat="43.54279950076845" lon="11.375973687923251"><ele>836.0</ele><time>2026-04-12T16:46:51.999Z</time></trkpt><trkpt lat="43.54268319237142" lon="11.375916086439513"><ele>836.0</ele><time>2026-04-12T16:46:52.999Z</time></trkpt><trkpt lat="43.54259435945077" lon="11.375867276446204"><ele>836.0</ele><time>2026-04-12T16:46:53.999Z</time></trkpt><trkpt lat="43.54253034541307" lon="11.375816628840937"><ele>836.0</ele><time>2026-04-12T16:46:54.999Z</time></trkpt><trkpt lat="43.542463294440765" lon="11.375779153506098"><ele>836.0</ele><time>2026-04-12T16:46:55.999Z</time></trkpt><trkpt lat="43.54240587754069" lon="11.375606729990414"><ele>836.0</ele><time>2026-04-12T16:46:57.999Z</time></trkpt><trkpt lat="43.54239108664304" lon="11.375489167902227"><ele>836.0000000000001</ele><time>2026-04-12T16:46:58.999Z</time></trkpt><trkpt lat="43.54236806667375" lon="11.375371876144353"><ele>836.0</ele><time>2026-04-12T16:46:59.999Z</time></trkpt><trkpt lat="43.542329681711735" lon="11.375296687119098"><ele>836.0</ele><time>2026-04-12T16:47:00.999Z</time></trkpt><trkpt lat="43.542288194741275" lon="11.37522558957087"><ele>836.0</ele><time>2026-04-12T16:47:01.999Z</time></trkpt><trkpt lat="43.54225616943675" lon="11.37504503290565"><ele>836.0000000000001</ele><time>2026-04-12T16:47:03.999Z</time></trkpt><trkpt lat="43.542260614690875" lon="11.374917906692039"><ele>836.0</ele><time>2026-04-12T16:47:04.999Z</time></trkpt><trkpt lat="43.54225423511367" lon="11.374792360617178"><ele>836.0000000000001</ele><time>2026-04-12T16:47:05.999Z</time></trkpt><trkpt lat="43.54226933539289" lon="11.374692457167136"><ele>836.0</ele><time>2026-04-12T16:47:06.999Z</time></trkpt><trkpt lat="43.542250217008934" lon="11.374520472604516"><ele>836.0</ele><time>2026-04-12T16:47:08.999Z</time></trkpt><trkpt lat="43.542251269587666" lon="11.374416196964962"><ele>836.0</ele><time>2026-04-12T16:47:09.999Z</time></trkpt><trkpt lat="43.54225728467086" lon="11.374318462604327"><ele>836.0000000000001</ele><time>2026-04-12T16:47:10.999Z</time></trkpt><trkpt lat="43.54226236229702" lon="11.374207504934216"><ele>836.0</ele><time>2026-04-12T16:47:11.999Z</time></trkpt><trkpt lat="43.542257812960074" lon="11.374119511911653"><ele>836.0000000000001</ele><time>2026-04-12T16:47:12.999Z</time></trkpt><trkpt lat="43.54225167886725" lon="11.374032673131552"><ele>836.0</ele><time>2026-04-12T16:47:13.999Z</time></trkpt><trkpt lat="43.5422567868422" lon="11.37394005511297"><ele>836.0</ele><time>2026-04-12T16:47:14.999Z</time></trkpt><trkpt lat="43.542275256384194" lon="11.373844453855574"><ele>836.0</ele><time>2026-04-12T16:47:15.999Z</time></trkpt><trkpt lat="43.542291195177604" lon="11.373756040454037"><ele>836.0000000000001</ele><time>2026-04-12T16:47:16.999Z</time></trkpt><trkpt lat="43.542301998003836" lon="11.373667307597147"><ele>836.0</ele><time>2026-04-12T16:47:17.999Z</time></trkpt><trkpt lat="43.54234988763922" lon="11.373507053256192"><ele>835.8</ele><time>2026-04-12T16:47:20Z</time></trkpt><trkpt lat="43.54234458959591" lon="11.373363501803178"><ele>835.5999999999999</ele><time>2026-04-12T16:47:22Z</time></trkpt><trkpt lat="43.542292509800546" lon="11.37327996167799"><ele>835.4</ele><time>2026-04-12T16:47:24Z</time></trkpt><trkpt lat="43.542159847909375" lon="11.37324253975086"><ele>835.2</ele><time>2026-04-12T16:47:26Z</time></trkpt><trkpt lat="43.54209006490799" lon="11.3732062370074"><ele>835.0</ele><time>2026-04-12T16:47:27Z</time></trkpt><trkpt lat="43.5419931748698" lon="11.373156778766994"><ele>835.0</ele><time>2026-04-12T16:47:29Z</time></trkpt><trkpt lat="43.5418920712816" lon="11.373079152035055"><ele>835.0</ele><time>2026-04-12T16:47:31Z</time></trkpt><trkpt lat="43.54177846192274" lon="11.373019526957036"><ele>835.0</ele><time>2026-04-12T16:47:33Z</time></trkpt><trkpt lat="43.54171942397102" lon="11.372986478085545"><ele>835.0</ele><time>2026-04-12T16:47:34Z</time></trkpt><trkpt lat="43.54162282394032" lon="11.372916358825789"><ele>835.0</ele><time>2026-04-12T16:47:36Z</time></trkpt><trkpt lat="43.54152032883981" lon="11.372850557125505"><ele>832.6</ele><time>2026-04-12T16:47:38Z</time></trkpt><trkpt lat="43.54147639295273" lon="11.372701407391196"><ele>830.2</ele><time>2026-04-12T16:47:39.999Z</time></trkpt><trkpt lat="43.54141028190183" lon="11.37256963694514"><ele>827.8</ele><time>2026-04-12T16:47:41.999Z</time></trkpt><trkpt lat="43.541335124819426" lon="11.372526986606944"><ele>825.4</ele><time>2026-04-12T16:47:42.999Z</time></trkpt><trkpt lat="43.54126780545647" lon="11.372505469974708"><ele>823.0</ele><time>2026-04-12T16:47:43.999Z</time></trkpt><trkpt lat="43.54119828556667" lon="11.37246717314798"><ele>821.3333333333333</ele><time>2026-04-12T16:47:44.999Z</time></trkpt><trkpt lat="43.54113272725737" lon="11.372398119593145"><ele>819.6666666666666</ele><time>2026-04-12T16:47:45.999Z</time></trkpt><trkpt lat="43.54105352466494" lon="11.372326776535735"><ele>818.0</ele><time>2026-04-12T16:47:46.999Z</time></trkpt><trkpt lat="43.54097599634354" lon="11.372256270413441"><ele>816.3333333333333</ele><time>2026-04-12T16:47:47.999Z</time></trkpt><trkpt lat="43.54091142345371" lon="11.372208252149312"><ele>814.6666666666666</ele><time>2026-04-12T16:47:48.999Z</time></trkpt><trkpt lat="43.54083643957359" lon="11.37216454840835"><ele>813.0</ele><time>2026-04-12T16:47:49.999Z</time></trkpt><trkpt lat="43.54074180555706" lon="11.372151790528706"><ele>811.8333333333334</ele><time>2026-04-12T16:47:50.999Z</time></trkpt><trkpt lat="43.54066774179115" lon="11.372131441807964"><ele>810.6666666666667</ele><time>2026-04-12T16:47:51.999Z</time></trkpt><trkpt lat="43.54061074140947" lon="11.372077496105916"><ele>809.5</ele><time>2026-04-12T16:47:52.999Z</time></trkpt><trkpt lat="43.54056093873456" lon="11.37200434151666"><ele>808.3333333333334</ele><time>2026-04-12T16:47:53.999Z</time></trkpt><trkpt lat="43.54049159523512" lon="11.371945215663999"><ele>807.1666666666667</ele><time>2026-04-12T16:47:54.999Z</time></trkpt><trkpt lat="43.540424403836774" lon="11.371891303386498"><ele>806.0</ele><time>2026-04-12T16:47:55.999Z</time></trkpt><trkpt lat="43.540343732282864" lon="11.371852152378418"><ele>805.6666666666667</ele><time>2026-04-12T16:47:56.999Z</time></trkpt><trkpt lat="43.54027066956947" lon="11.371806084697766"><ele>805.3333333333334</ele><time>2026-04-12T16:47:57.999Z</time></trkpt><trkpt lat="43.540197238547066" lon="11.37176912028358"><ele>805.0</ele><time>2026-04-12T16:47:58.999Z</time></trkpt><trkpt lat="43.54012189921887" lon="11.37172886947635"><ele>804.6666666666667</ele><time>2026-04-12T16:47:59.999Z</time></trkpt><trkpt lat="43.5400421230614" lon="11.371703753064802"><ele>804.3333333333334</ele><time>2026-04-12T16:48:00.999Z</time></trkpt><trkpt lat="43.53997916371563" lon="11.371677238837336"><ele>804.0</ele><time>2026-04-12T16:48:01.999Z</time></trkpt><trkpt lat="43.53986945404979" lon="11.371602778391942"><ele>804.0</ele><time>2026-04-12T16:48:03.999Z</time></trkpt><trkpt lat="43.53976434907811" lon="11.37160261957965"><ele>804.0</ele><time>2026-04-12T16:48:05.999Z</time></trkpt><trkpt lat="43.53963808113522" lon="11.371643392100331"><ele>804.0</ele><time>2026-04-12T16:48:07.999Z</time></trkpt><trkpt lat="43.53955497349968" lon="11.37160255633155"><ele>804.0</ele><time>2026-04-12T16:48:08.999Z</time></trkpt><trkpt lat="43.53947401993081" lon="11.371508135251258"><ele>804.0</ele><time>2026-04-12T16:48:09.999Z</time></trkpt><trkpt lat="43.5394008847544" lon="11.371453732972704"><ele>802.1666666666666</ele><time>2026-04-12T16:48:10.999Z</time></trkpt><trkpt lat="43.539320587210156" lon="11.371408267846059"><ele>800.3333333333333</ele><time>2026-04-12T16:48:11.999Z</time></trkpt><trkpt lat="43.53925358511026" lon="11.371357676020853"><ele>798.5</ele><time>2026-04-12T16:48:12.999Z</time></trkpt><trkpt lat="43.53918768446491" lon="11.371293773180925"><ele>796.6666666666666</ele><time>2026-04-12T16:48:13.999Z</time></trkpt><trkpt lat="43.53912298346162" lon="11.371219322010079"><ele>794.8333333333333</ele><time>2026-04-12T16:48:14.999Z</time></trkpt><trkpt lat="43.53905946377687" lon="11.371132075904807"><ele>793.0</ele><time>2026-04-12T16:48:15.999Z</time></trkpt><trkpt lat="43.539012503649566" lon="11.371034176119364"><ele>792.9999999999999</ele><time>2026-04-12T16:48:16.999Z</time></trkpt><trkpt lat="43.53897378450433" lon="11.370954678269007"><ele>793.0</ele><time>2026-04-12T16:48:17.999Z</time></trkpt><trkpt lat="43.538910303863915" lon="11.370843532973772"><ele>793.0</ele><time>2026-04-12T16:48:18.999Z</time></trkpt><trkpt lat="43.53886920440411" lon="11.370765669192552"><ele>793.0</ele><time>2026-04-12T16:48:19.999Z</time></trkpt><trkpt lat="43.53885476184233" lon="11.370675913862149"><ele>792.9999999999999</ele><time>2026-04-12T16:48:20.999Z</time></trkpt><trkpt lat="43.53886174044758" lon="11.37057523054792"><ele>793.0</ele><time>2026-04-12T16:48:21.999Z</time></trkpt><trkpt lat="43.538890786479165" lon="11.370484475810546"><ele>791.8</ele><time>2026-04-12T16:48:22.999Z</time></trkpt><trkpt lat="43.53891580580209" lon="11.370395298088512"><ele>790.5999999999999</ele><time>2026-04-12T16:48:23.999Z</time></trkpt><trkpt lat="43.53889003531269" lon="11.370230557492949"><ele>789.4000000000001</ele><time>2026-04-12T16:48:25.999Z</time></trkpt><trkpt lat="43.538834222189905" lon="11.370103932858381"><ele>788.2</ele><time>2026-04-12T16:48:26.999Z</time></trkpt><trkpt lat="43.53878298114168" lon="11.369987216482215"><ele>787.0</ele><time>2026-04-12T16:48:27.999Z</time></trkpt><trkpt lat="43.53873924643852" lon="11.369905383877462"><ele>786.2</ele><time>2026-04-12T16:48:28.999Z</time></trkpt><trkpt lat="43.538666137836294" lon="11.369752658322906"><ele>785.4000000000001</ele><time>2026-04-12T16:48:30.999Z</time></trkpt><trkpt lat="43.5386079201715" lon="11.369674197024588"><ele>784.5999999999999</ele><time>2026-04-12T16:48:31.999Z</time></trkpt><trkpt lat="43.538536810646825" lon="11.369633646487692"><ele>783.8</ele><time>2026-04-12T16:48:32.999Z</time></trkpt><trkpt lat="43.538461494292925" lon="11.36958833570202"><ele>783.0</ele><time>2026-04-12T16:48:33.999Z</time></trkpt><trkpt lat="43.53840266053372" lon="11.369513156782563"><ele>783.0</ele><time>2026-04-12T16:48:34.999Z</time></trkpt><trkpt lat="43.538344843136585" lon="11.369403095540468"><ele>783.0</ele><time>2026-04-12T16:48:35.999Z</time></trkpt><trkpt lat="43.538275901788516" lon="11.36925594132363"><ele>783.0</ele><time>2026-04-12T16:48:36.999Z</time></trkpt><trkpt lat="43.53821241707995" lon="11.369105155341252"><ele>783.0</ele><time>2026-04-12T16:48:37.999Z</time></trkpt><trkpt lat="43.538180082338" lon="11.368988576789993"><ele>783.0</ele><time>2026-04-12T16:48:38.999Z</time></trkpt><trkpt lat="43.53811745591766" lon="11.368920073812188"><ele>781.4</ele><time>2026-04-12T16:48:39.999Z</time></trkpt><trkpt lat="43.53805937068102" lon="11.368844832606753"><ele>779.8</ele><time>2026-04-12T16:48:40.999Z</time></trkpt><trkpt lat="43.53803509368443" lon="11.3687449676585"><ele>778.2</ele><time>2026-04-12T16:48:41.999Z</time></trkpt><trkpt lat="43.537999132243876" lon="11.368635349419831"><ele>776.6</ele><time>2026-04-12T16:48:42.999Z</time></trkpt><trkpt lat="43.53794579860953" lon="11.36850546492018"><ele>775.0</ele><time>2026-04-12T16:48:43.999Z</time></trkpt><trkpt lat="43.53787213226549" lon="11.368391752673446"><ele>775.0</ele><time>2026-04-12T16:48:44.999Z</time></trkpt><trkpt lat="43.53777353025184" lon="11.368270805345759"><ele>775.0</ele><time>2026-04-12T16:48:45.999Z</time></trkpt><trkpt lat="43.53769275618328" lon="11.368167409908251"><ele>775.0</ele><time>2026-04-12T16:48:46.999Z</time></trkpt><trkpt lat="43.53763740140348" lon="11.368078004183085"><ele>775.0</ele><time>2026-04-12T16:48:47.999Z</time></trkpt><trkpt lat="43.53757771776803" lon="11.36801069145087"><ele>775.0</ele><time>2026-04-12T16:48:48.999Z</time></trkpt><trkpt lat="43.53751638858731" lon="11.367944282201282"><ele>774.3333333333333</ele><time>2026-04-12T16:48:49.999Z</time></trkpt><trkpt lat="43.5374598924319" lon="11.367868944063428"><ele>773.6666666666666</ele><time>2026-04-12T16:48:50.999Z</time></trkpt><trkpt lat="43.537421345398904" lon="11.367782234098929"><ele>773.0</ele><time>2026-04-12T16:48:51.999Z</time></trkpt><trkpt lat="43.537371899600465" lon="11.36771168439293"><ele>772.3333333333333</ele><time>2026-04-12T16:48:52.999Z</time></trkpt><trkpt lat="43.53729316519942" lon="11.36758082709424"><ele>771.6666666666666</ele><time>2026-04-12T16:48:54.999Z</time></trkpt><trkpt lat="43.53723833958555" lon="11.36752821602905"><ele>771.0</ele><time>2026-04-12T16:48:55.999Z</time></trkpt><trkpt lat="43.53717760748174" lon="11.3674860115682"><ele>771.0</ele><time>2026-04-12T16:48:56.999Z</time></trkpt><trkpt lat="43.537093515780136" lon="11.367356456215393"><ele>771.0</ele><time>2026-04-12T16:48:58.999Z</time></trkpt><trkpt lat="43.537023163780226" lon="11.367270970637371"><ele>771.0</ele><time>2026-04-12T16:49:00.999Z</time></trkpt><trkpt lat="43.53692207747764" lon="11.367184277562899"><ele>771.0</ele><time>2026-04-12T16:49:02.999Z</time></trkpt><trkpt lat="43.53679843581635" lon="11.367158544742171"><ele>768.6666666666666</ele><time>2026-04-12T16:49:04.999Z</time></trkpt><trkpt lat="43.53672288136915" lon="11.36716497108013"><ele>766.3333333333334</ele><time>2026-04-12T16:49:05.999Z</time></trkpt><trkpt lat="43.53664322185835" lon="11.367189261592278"><ele>764.0</ele><time>2026-04-12T16:49:06.999Z</time></trkpt><trkpt lat="43.53656355428533" lon="11.367194072342704"><ele>761.6666666666667</ele><time>2026-04-12T16:49:07.999Z</time></trkpt><trkpt lat="43.53646267648302" lon="11.367176632073564"><ele>759.3333333333334</ele><time>2026-04-12T16:49:08.999Z</time></trkpt><trkpt lat="43.53639125315204" lon="11.36715865064125"><ele>757.0</ele><time>2026-04-12T16:49:09.999Z</time></trkpt><trkpt lat="43.536317168092516" lon="11.367178334970095"><ele>757.0</ele><time>2026-04-12T16:49:10.999Z</time></trkpt><trkpt lat="43.53622994967445" lon="11.367188295167496"><ele>757.0</ele><time>2026-04-12T16:49:11.999Z</time></trkpt><trkpt lat="43.53613986123163" lon="11.367166998337387"><ele>757.0</ele><time>2026-04-12T16:49:12.999Z</time></trkpt><trkpt lat="43.536058619759125" lon="11.36716113178649"><ele>757.0</ele><time>2026-04-12T16:49:13.999Z</time></trkpt><trkpt lat="43.53594041857328" lon="11.36711465568477"><ele>757.0</ele><time>2026-04-12T16:49:15.999Z</time></trkpt><trkpt lat="43.535873595752356" lon="11.367116750913159"><ele>755.0</ele><time>2026-04-12T16:49:16.999Z</time></trkpt><trkpt lat="43.53577398483029" lon="11.367098437005346"><ele>753.0</ele><time>2026-04-12T16:49:17.999Z</time></trkpt><trkpt lat="43.53569632024632" lon="11.367055065675052"><ele>751.0</ele><time>2026-04-12T16:49:18.999Z</time></trkpt><trkpt lat="43.53562077231426" lon="11.367043508259439"><ele>749.0</ele><time>2026-04-12T16:49:19.999Z</time></trkpt><trkpt lat="43.535528968097104" lon="11.367008820253238"><ele>747.0</ele><time>2026-04-12T16:49:20.998Z</time></trkpt><trkpt lat="43.535440855720644" lon="11.366959569483877"><ele>745.2</ele><time>2026-04-12T16:49:21.998Z</time></trkpt><trkpt lat="43.535357375970854" lon="11.366924504603228"><ele>743.4000000000001</ele><time>2026-04-12T16:49:22.998Z</time></trkpt><trkpt lat="43.53526164356744" lon="11.366890396967534"><ele>741.5999999999999</ele><time>2026-04-12T16:49:23.998Z</time></trkpt><trkpt lat="43.53516362978153" lon="11.366840086203329"><ele>739.8</ele><time>2026-04-12T16:49:25Z</time></trkpt><trkpt lat="43.535061462766905" lon="11.366768839618697"><ele>738.0</ele><time>2026-04-12T16:49:26Z</time></trkpt><trkpt lat="43.53498000096039" lon="11.366713189296657"><ele>738.0</ele><time>2026-04-12T16:49:27Z</time></trkpt><trkpt lat="43.53489647148989" lon="11.366659296277726"><ele>738.0</ele><time>2026-04-12T16:49:28Z</time></trkpt><trkpt lat="43.53479639196894" lon="11.366608748916574"><ele>738.0</ele><time>2026-04-12T16:49:29Z</time></trkpt><trkpt lat="43.53470949123927" lon="11.36657188295607"><ele>738.0</ele><time>2026-04-12T16:49:30Z</time></trkpt><trkpt lat="43.534628367804125" lon="11.366544834161822"><ele>738.0</ele><time>2026-04-12T16:49:31Z</time></trkpt><trkpt lat="43.53455365034031" lon="11.366499190329753"><ele>736.4</ele><time>2026-04-12T16:49:32Z</time></trkpt><trkpt lat="43.53446636554365" lon="11.36645086670354"><ele>734.8</ele><time>2026-04-12T16:49:33Z</time></trkpt><trkpt lat="43.534384289220135" lon="11.366380399684363"><ele>733.2</ele><time>2026-04-12T16:49:34Z</time></trkpt><trkpt lat="43.53430804759421" lon="11.36632165181482"><ele>731.6</ele><time>2026-04-12T16:49:35Z</time></trkpt><trkpt lat="43.53421507420782" lon="11.366280162295585"><ele>730.0</ele><time>2026-04-12T16:49:36.001Z</time></trkpt><trkpt lat="43.534130109340595" lon="11.366249667032738"><ele>730.0</ele><time>2026-04-12T16:49:37.001Z</time></trkpt><trkpt lat="43.53404115448864" lon="11.366197624126762"><ele>730.0</ele><time>2026-04-12T16:49:38.001Z</time></trkpt><trkpt lat="43.53396386063226" lon="11.366146335370852"><ele>730.0</ele><time>2026-04-12T16:49:39.001Z</time></trkpt><trkpt lat="43.53388628018405" lon="11.36608688892354"><ele>730.0</ele><time>2026-04-12T16:49:40.001Z</time></trkpt><trkpt lat="43.533814450312754" lon="11.366012986730874"><ele>730.0</ele><time>2026-04-12T16:49:41.001Z</time></trkpt><trkpt lat="43.5337232199506" lon="11.365933167330057"><ele>727.8333333333334</ele><time>2026-04-12T16:49:42.001Z</time></trkpt><trkpt lat="43.53363385703203" lon="11.365867216874317"><ele>725.6666666666667</ele><time>2026-04-12T16:49:43.001Z</time></trkpt><trkpt lat="43.53355930770237" lon="11.365805736485912"><ele>723.5</ele><time>2026-04-12T16:49:44.001Z</time></trkpt><trkpt lat="43.53349616343986" lon="11.365758221246674"><ele>721.3333333333334</ele><time>2026-04-12T16:49:45.001Z</time></trkpt><trkpt lat="43.53343527399239" lon="11.36570423412304"><ele>719.1666666666666</ele><time>2026-04-12T16:49:46Z</time></trkpt><trkpt lat="43.533360723733146" lon="11.36564260169338"><ele>717.0</ele><time>2026-04-12T16:49:47Z</time></trkpt><trkpt lat="43.5332911580561" lon="11.36559938993834"><ele>717.0</ele><time>2026-04-12T16:49:48Z</time></trkpt><trkpt lat="43.53321826084197" lon="11.365555834940363"><ele>717.0</ele><time>2026-04-12T16:49:49Z</time></trkpt><trkpt lat="43.533154324293044" lon="11.365520050995503"><ele>717.0</ele><time>2026-04-12T16:49:50Z</time></trkpt><trkpt lat="43.533100352325235" lon="11.365458695216848"><ele>717.0</ele><time>2026-04-12T16:49:51Z</time></trkpt><trkpt lat="43.53304028082168" lon="11.365396276913152"><ele>717.0</ele><time>2026-04-12T16:49:52Z</time></trkpt><trkpt lat="43.532989482455314" lon="11.365336761726297"><ele>717.0</ele><time>2026-04-12T16:49:53Z</time></trkpt><trkpt lat="43.532927447081214" lon="11.365255012338885"><ele>717.0</ele><time>2026-04-12T16:49:54Z</time></trkpt><trkpt lat="43.53287700150672" lon="11.365196913118835"><ele>714.8</ele><time>2026-04-12T16:49:55Z</time></trkpt><trkpt lat="43.532825004722184" lon="11.36513635636747"><ele>712.6</ele><time>2026-04-12T16:49:56Z</time></trkpt><trkpt lat="43.53277249997878" lon="11.365074338402074"><ele>710.4</ele><time>2026-04-12T16:49:57Z</time></trkpt><trkpt lat="43.532681360393525" lon="11.364960547042243"><ele>708.1999999999999</ele><time>2026-04-12T16:49:59Z</time></trkpt><trkpt lat="43.53260360709201" lon="11.364830595536928"><ele>706.0</ele><time>2026-04-12T16:50:01Z</time></trkpt><trkpt lat="43.53250804576745" lon="11.364722848796898"><ele>705.0</ele><time>2026-04-12T16:50:03Z</time></trkpt><trkpt lat="43.53241066864378" lon="11.36460561514838"><ele>704.0</ele><time>2026-04-12T16:50:05Z</time></trkpt><trkpt lat="43.53233929035866" lon="11.364524475982877"><ele>703.0</ele><time>2026-04-12T16:50:06Z</time></trkpt><trkpt lat="43.5322623924734" lon="11.36444919577827"><ele>702.0</ele><time>2026-04-12T16:50:07Z</time></trkpt><trkpt lat="43.532209547834114" lon="11.364379714875223"><ele>701.0</ele><time>2026-04-12T16:50:08Z</time></trkpt><trkpt lat="43.53216328008546" lon="11.364292413809292"><ele>701.0</ele><time>2026-04-12T16:50:09Z</time></trkpt><trkpt lat="43.53214534547661" lon="11.364195667830364"><ele>701.0</ele><time>2026-04-12T16:50:10Z</time></trkpt><trkpt lat="43.5321383147163" lon="11.364071826832284"><ele>701.0</ele><time>2026-04-12T16:50:11Z</time></trkpt><trkpt lat="43.53213958710165" lon="11.363979509589791"><ele>701.0</ele><time>2026-04-12T16:50:12Z</time></trkpt><trkpt lat="43.53210865797461" lon="11.363897503300404"><ele>701.0</ele><time>2026-04-12T16:50:13Z</time></trkpt><trkpt lat="43.532066872875795" lon="11.363827629667727"><ele>701.0</ele><time>2026-04-12T16:50:14Z</time></trkpt><trkpt lat="43.5319754997403" lon="11.363699050940218"><ele>699.1428571428572</ele><time>2026-04-12T16:50:16Z</time></trkpt><trkpt lat="43.53193679640426" lon="11.363626551342406"><ele>697.2857142857142</ele><time>2026-04-12T16:50:17Z</time></trkpt><trkpt lat="43.531894336314735" lon="11.363552486261144"><ele>695.4285714285714</ele><time>2026-04-12T16:50:18Z</time></trkpt><trkpt lat="43.53185178835775" lon="11.363484349828052"><ele>693.5714285714287</ele><time>2026-04-12T16:50:19Z</time></trkpt><trkpt lat="43.53180004879907" lon="11.363415184139773"><ele>691.7142857142858</ele><time>2026-04-12T16:50:20Z</time></trkpt><trkpt lat="43.53175310856597" lon="11.363351553393903"><ele>689.8571428571429</ele><time>2026-04-12T16:50:21Z</time></trkpt><trkpt lat="43.531691245172986" lon="11.363246945288203"><ele>688.0</ele><time>2026-04-12T16:50:23Z</time></trkpt><trkpt lat="43.53166700976602" lon="11.363114667428677"><ele>688.0</ele><time>2026-04-12T16:50:25Z</time></trkpt><trkpt lat="43.531746796255604" lon="11.363046682690673"><ele>688.0</ele><time>2026-04-12T16:50:27Z</time></trkpt><trkpt lat="43.531844639523996" lon="11.363029704898638"><ele>688.0</ele><time>2026-04-12T16:50:29Z</time></trkpt><trkpt lat="43.53194307246345" lon="11.363002392622343"><ele>688.0</ele><time>2026-04-12T16:50:31Z</time></trkpt><trkpt lat="43.53204842759508" lon="11.362949469398902"><ele>688.0</ele><time>2026-04-12T16:50:33Z</time></trkpt><trkpt lat="43.53212040497405" lon="11.362866200502742"><ele>685.3333333333334</ele><time>2026-04-12T16:50:35Z</time></trkpt><trkpt lat="43.53217706939917" lon="11.362791891373108"><ele>682.6666666666667</ele><time>2026-04-12T16:50:37Z</time></trkpt><trkpt lat="43.53220691311824" lon="11.362709509652056"><ele>680.0</ele><time>2026-04-12T16:50:39Z</time></trkpt><trkpt lat="43.532160593249834" lon="11.362638092314583"><ele>677.3333333333334</ele><time>2026-04-12T16:50:42Z</time></trkpt><trkpt lat="43.53208314178726" lon="11.362620405965238"><ele>674.6666666666666</ele><time>2026-04-12T16:50:44Z</time></trkpt><trkpt lat="43.53197549354155" lon="11.362565576994362"><ele>672.0</ele><time>2026-04-12T16:50:46Z</time></trkpt><trkpt lat="43.53189293178982" lon="11.362499523253813"><ele>672.0</ele><time>2026-04-12T16:50:48Z</time></trkpt><trkpt lat="43.53181854212258" lon="11.36242579171724"><ele>672.0</ele><time>2026-04-12T16:50:50Z</time></trkpt><trkpt lat="43.53173420055639" lon="11.362306018085226"><ele>672.0</ele><time>2026-04-12T16:50:52Z</time></trkpt><trkpt lat="43.53168435284232" lon="11.362222035113614"><ele>672.0</ele><time>2026-04-12T16:50:54Z</time></trkpt><trkpt lat="43.5316071914183" lon="11.362136067333502"><ele>672.0</ele><time>2026-04-12T16:50:56Z</time></trkpt><trkpt lat="43.531513954639344" lon="11.36203041087883"><ele>669.2</ele><time>2026-04-12T16:50:58Z</time></trkpt><trkpt lat="43.53142932484786" lon="11.361946618210094"><ele>666.4000000000001</ele><time>2026-04-12T16:51:00Z</time></trkpt><trkpt lat="43.53135609892372" lon="11.361858354880258"><ele>663.5999999999999</ele><time>2026-04-12T16:51:02Z</time></trkpt><trkpt lat="43.53129413816337" lon="11.361793573853863"><ele>660.8</ele><time>2026-04-12T16:51:04Z</time></trkpt><trkpt lat="43.531220011127814" lon="11.361714073955318"><ele>658.0</ele><time>2026-04-12T16:51:06Z</time></trkpt><trkpt lat="43.53116720163068" lon="11.361613324807818"><ele>658.0</ele><time>2026-04-12T16:51:08Z</time></trkpt><trkpt lat="43.53115037325151" lon="11.361511778149387"><ele>658.0</ele><time>2026-04-12T16:51:10Z</time></trkpt><trkpt lat="43.53113995780009" lon="11.361419003153987"><ele>658.0</ele><time>2026-04-12T16:51:12Z</time></trkpt><trkpt lat="43.53112484283668" lon="11.361297191245828"><ele>658.0</ele><time>2026-04-12T16:51:14Z</time></trkpt><trkpt lat="43.53110260430002" lon="11.361215800868283"><ele>658.0</ele><time>2026-04-12T16:51:15Z</time></trkpt><trkpt lat="43.53104238936278" lon="11.36109271257644"><ele>658.0</ele><time>2026-04-12T16:51:17Z</time></trkpt><trkpt lat="43.53100798896439" lon="11.361009170616926"><ele>655.0</ele><time>2026-04-12T16:51:18Z</time></trkpt><trkpt lat="43.53094938770865" lon="11.360941714969757"><ele>652.0</ele><time>2026-04-12T16:51:20Z</time></trkpt><trkpt lat="43.53091006617229" lon="11.360860887534209"><ele>649.0</ele><time>2026-04-12T16:51:22Z</time></trkpt><trkpt lat="43.53091717815182" lon="11.360708970970103"><ele>646.0</ele><time>2026-04-12T16:51:24Z</time></trkpt><trkpt lat="43.53089878165387" lon="11.360601912349692"><ele>643.0</ele><time>2026-04-12T16:51:26Z</time></trkpt><trkpt lat="43.53096570058337" lon="11.360528275280059"><ele>640.0</ele><time>2026-04-12T16:51:28Z</time></trkpt><trkpt lat="43.531062714496485" lon="11.360542484434777"><ele>640.0</ele><time>2026-04-12T16:51:30.001Z</time></trkpt><trkpt lat="43.53117250850812" lon="11.360561360003214"><ele>640.0</ele><time>2026-04-12T16:51:32.001Z</time></trkpt><trkpt lat="43.531239258741756" lon="11.360542759358873"><ele>640.0</ele><time>2026-04-12T16:51:33.001Z</time></trkpt><trkpt lat="43.53128767538416" lon="11.360428475532464"><ele>640.0</ele><time>2026-04-12T16:51:35.001Z</time></trkpt><trkpt lat="43.53136389308092" lon="11.36036407975926"><ele>640.0</ele><time>2026-04-12T16:51:37Z</time></trkpt><trkpt lat="43.53143223644901" lon="11.36033322248824"><ele>640.0</ele><time>2026-04-12T16:51:38Z</time></trkpt><trkpt lat="43.53152751454582" lon="11.360304817740023"><ele>636.5</ele><time>2026-04-12T16:51:40Z</time></trkpt><trkpt lat="43.531610038009" lon="11.360318882369647"><ele>633.0</ele><time>2026-04-12T16:52:04Z</time></trkpt><trkpt lat="43.53171396604371" lon="11.360310849332361"><ele>629.5</ele><time>2026-04-12T16:52:06Z</time></trkpt><trkpt lat="43.531817741449544" lon="11.360230794654028"><ele>626.0</ele><time>2026-04-12T16:52:08Z</time></trkpt><trkpt lat="43.531881921265054" lon="11.360201501810456"><ele>622.5</ele><time>2026-04-12T16:52:09Z</time></trkpt><trkpt lat="43.5319444388289" lon="11.360182959742977"><ele>619.0</ele><time>2026-04-12T16:52:10Z</time></trkpt><trkpt lat="43.53205880126025" lon="11.360147976281871"><ele>618.0</ele><time>2026-04-12T16:52:12Z</time></trkpt><trkpt lat="43.5321708115746" lon="11.360112310244071"><ele>617.0</ele><time>2026-04-12T16:52:14Z</time></trkpt><trkpt lat="43.532228212135706" lon="11.360067486936504"><ele>616.0</ele><time>2026-04-12T16:52:15Z</time></trkpt><trkpt lat="43.532301391547" lon="11.360010353388494"><ele>615.0</ele><time>2026-04-12T16:52:16Z</time></trkpt><trkpt lat="43.532379608381795" lon="11.359960916604091"><ele>614.0</ele><time>2026-04-12T16:52:17Z</time></trkpt><trkpt lat="43.53244454778474" lon="11.359931408504833"><ele>613.0</ele><time>2026-04-12T16:52:18Z</time></trkpt><trkpt lat="43.53256239318043" lon="11.359948034756776"><ele>613.0</ele><time>2026-04-12T16:52:20Z</time></trkpt><trkpt lat="43.532625472691095" lon="11.35997858844884"><ele>613.0</ele><time>2026-04-12T16:52:21Z</time></trkpt><trkpt lat="43.53268856747721" lon="11.360011883263354"><ele>613.0</ele><time>2026-04-12T16:52:22Z</time></trkpt><trkpt lat="43.53274671913612" lon="11.36004815238998"><ele>613.0</ele><time>2026-04-12T16:52:23Z</time></trkpt><trkpt lat="43.53286924520654" lon="11.360082496280123"><ele>613.0</ele><time>2026-04-12T16:52:25Z</time></trkpt><trkpt lat="43.532963884957056" lon="11.36002437710723"><ele>613.0</ele><time>2026-04-12T16:52:27Z</time></trkpt><trkpt lat="43.533016008015274" lon="11.359916135932606"><ele>612.3333333333334</ele><time>2026-04-12T16:52:29Z</time></trkpt><trkpt lat="43.53307041658333" lon="11.35981316758533"><ele>611.6666666666667</ele><time>2026-04-12T16:52:31Z</time></trkpt><trkpt lat="43.53313050386544" lon="11.359699427479715"><ele>611.0</ele><time>2026-04-12T16:52:33Z</time></trkpt><trkpt lat="43.533168595736804" lon="11.35959691866153"><ele>610.3333333333334</ele><time>2026-04-12T16:52:35Z</time></trkpt><trkpt lat="43.53320097748732" lon="11.359512261415922"><ele>609.6666666666666</ele><time>2026-04-12T16:52:37Z</time></trkpt><trkpt lat="43.53327494813251" lon="11.359445977348763"><ele>609.0</ele><time>2026-04-12T16:52:39Z</time></trkpt><trkpt lat="43.5333521094138" lon="11.359448317923336"><ele>608.2</ele><time>2026-04-12T16:52:40Z</time></trkpt><trkpt lat="43.53345067574674" lon="11.359459509399354"><ele>607.4</ele><time>2026-04-12T16:52:41Z</time></trkpt><trkpt lat="43.533558246310655" lon="11.359494336063495"><ele>606.6</ele><time>2026-04-12T16:52:42Z</time></trkpt><trkpt lat="43.53366751802393" lon="11.359488467034689"><ele>605.8</ele><time>2026-04-12T16:52:43Z</time></trkpt><trkpt lat="43.53377830213015" lon="11.359515560587798"><ele>605.0</ele><time>2026-04-12T16:52:44Z</time></trkpt><trkpt lat="43.53388128274536" lon="11.359551101186483"><ele>604.2</ele><time>2026-04-12T16:52:45Z</time></trkpt><trkpt lat="43.53398021869152" lon="11.35950104263447"><ele>603.4</ele><time>2026-04-12T16:52:46Z</time></trkpt><trkpt lat="43.534082658293364" lon="11.35946443180155"><ele>602.6</ele><time>2026-04-12T16:52:47Z</time></trkpt><trkpt lat="43.53417877857552" lon="11.359433973073072"><ele>601.8</ele><time>2026-04-12T16:52:48Z</time></trkpt><trkpt lat="43.53427169609963" lon="11.35940201568841"><ele>601.0</ele><time>2026-04-12T16:52:49Z</time></trkpt><trkpt lat="43.53435499495996" lon="11.359390656036346"><ele>601.0</ele><time>2026-04-12T16:52:50Z</time></trkpt><trkpt lat="43.53444697227914" lon="11.359394193407487"><ele>601.0</ele><time>2026-04-12T16:52:51Z</time></trkpt><trkpt lat="43.534533925430814" lon="11.359397090324096"><ele>601.0</ele><time>2026-04-12T16:52:52Z</time></trkpt><trkpt lat="43.534634736672864" lon="11.359404589241706"><ele>601.0</ele><time>2026-04-12T16:52:53Z</time></trkpt><trkpt lat="43.53471867138365" lon="11.359419672516038"><ele>601.0</ele><time>2026-04-12T16:52:54Z</time></trkpt><trkpt lat="43.53480311273001" lon="11.359440775413606"><ele>599.0</ele><time>2026-04-12T16:52:55Z</time></trkpt><trkpt lat="43.53489091175685" lon="11.359463717735776"><ele>597.0</ele><time>2026-04-12T16:52:56Z</time></trkpt><trkpt lat="43.53496413769207" lon="11.359471915016439"><ele>595.0</ele><time>2026-04-12T16:52:57Z</time></trkpt><trkpt lat="43.53503350308637" lon="11.359484684422748"><ele>593.0</ele><time>2026-04-12T16:52:58Z</time></trkpt><trkpt lat="43.53509010239907" lon="11.359445291856824"><ele>591.0</ele><time>2026-04-12T16:52:59Z</time></trkpt><trkpt lat="43.535086111162265" lon="11.359220089144396"><ele>591.0</ele><time>2026-04-12T16:53:01Z</time></trkpt><trkpt lat="43.53507638620992" lon="11.359091026138781"><ele>591.0</ele><time>2026-04-12T16:53:02Z</time></trkpt><trkpt lat="43.53508416509407" lon="11.358999127125028"><ele>591.0</ele><time>2026-04-12T16:53:03Z</time></trkpt><trkpt lat="43.53510410581651" lon="11.358906489073759"><ele>591.0</ele><time>2026-04-12T16:53:04Z</time></trkpt><trkpt lat="43.53513100113505" lon="11.358810803562008"><ele>591.0</ele><time>2026-04-12T16:53:05Z</time></trkpt><trkpt lat="43.53518434384057" lon="11.358724723410973"><ele>591.0</ele><time>2026-04-12T16:53:06Z</time></trkpt><trkpt lat="43.53525283689384" lon="11.358638661234096"><ele>590.4</ele><time>2026-04-12T16:53:07Z</time></trkpt><trkpt lat="43.53533713381184" lon="11.358592623662343"><ele>589.8</ele><time>2026-04-12T16:53:08Z</time></trkpt><trkpt lat="43.53544037299344" lon="11.358550498249405"><ele>589.1999999999999</ele><time>2026-04-12T16:53:09Z</time></trkpt><trkpt lat="43.53554262705563" lon="11.358518277625281"><ele>588.6</ele><time>2026-04-12T16:53:10Z</time></trkpt><trkpt lat="43.53564099216752" lon="11.358497085978644"><ele>588.0</ele><time>2026-04-12T16:53:11Z</time></trkpt><trkpt lat="43.53571878836513" lon="11.358491332369512"><ele>588.0</ele><time>2026-04-12T16:53:12Z</time></trkpt><trkpt lat="43.5357903947558" lon="11.358506001096288"><ele>588.0</ele><time>2026-04-12T16:53:13Z</time></trkpt><trkpt lat="43.535886344302114" lon="11.358556630378304"><ele>588.0</ele><time>2026-04-12T16:53:14Z</time></trkpt><trkpt lat="43.53597050308488" lon="11.35863603622281"><ele>588.0</ele><time>2026-04-12T16:53:15Z</time></trkpt><trkpt lat="43.53605176212333" lon="11.358678776923762"><ele>588.0</ele><time>2026-04-12T16:53:16Z</time></trkpt><trkpt lat="43.53613508725303" lon="11.35871865533579"><ele>588.0</ele><time>2026-04-12T16:53:17Z</time></trkpt><trkpt lat="43.53621771726483" lon="11.358754972571129"><ele>588.0</ele><time>2026-04-12T16:53:18Z</time></trkpt><trkpt lat="43.53630637517501" lon="11.358786204952578"><ele>588.0</ele><time>2026-04-12T16:53:19Z</time></trkpt><trkpt lat="43.53639635840341" lon="11.358814498997447"><ele>588.0</ele><time>2026-04-12T16:53:20Z</time></trkpt><trkpt lat="43.536482575453654" lon="11.358823706926204"><ele>588.0</ele><time>2026-04-12T16:53:21Z</time></trkpt><trkpt lat="43.53656962457196" lon="11.358859699846942"><ele>588.0</ele><time>2026-04-12T16:53:22Z</time></trkpt><trkpt lat="43.53666261077868" lon="11.358888503262953"><ele>589.6666666666666</ele><time>2026-04-12T16:53:23Z</time></trkpt><trkpt lat="43.53674933239668" lon="11.358906811550437"><ele>591.3333333333334</ele><time>2026-04-12T16:53:24Z</time></trkpt><trkpt lat="43.53682910410336" lon="11.358905582721228"><ele>593.0</ele><time>2026-04-12T16:53:25Z</time></trkpt><trkpt lat="43.53690352636271" lon="11.358903810392922"><ele>594.6666666666667</ele><time>2026-04-12T16:53:26Z</time></trkpt><trkpt lat="43.53698072422104" lon="11.358929240303526"><ele>596.3333333333334</ele><time>2026-04-12T16:53:27Z</time></trkpt><trkpt lat="43.537052792834" lon="11.358933633933498"><ele>598.0</ele><time>2026-04-12T16:53:28Z</time></trkpt><trkpt lat="43.53712585691926" lon="11.358939993538366"><ele>598.0</ele><time>2026-04-12T16:53:29Z</time></trkpt><trkpt lat="43.537213275847314" lon="11.358935148990733"><ele>598.0</ele><time>2026-04-12T16:53:30Z</time></trkpt><trkpt lat="43.537293038745936" lon="11.358941066937428"><ele>598.0</ele><time>2026-04-12T16:53:31Z</time></trkpt><trkpt lat="43.53735908770979" lon="11.358950530310752"><ele>598.0</ele><time>2026-04-12T16:53:32Z</time></trkpt><trkpt lat="43.53743278269107" lon="11.358956349051237"><ele>598.0</ele><time>2026-04-12T16:53:33Z</time></trkpt><trkpt lat="43.537504930017384" lon="11.358968352585078"><ele>598.0</ele><time>2026-04-12T16:53:33.999Z</time></trkpt><trkpt lat="43.53757996448115" lon="11.358955439300106"><ele>598.0</ele><time>2026-04-12T16:53:35.001Z</time></trkpt><trkpt lat="43.53765517660762" lon="11.358963332362645"><ele>598.0</ele><time>2026-04-12T16:53:36.001Z</time></trkpt><trkpt lat="43.537810419962426" lon="11.358918801186705"><ele>598.0</ele><time>2026-04-12T16:53:38.001Z</time></trkpt><trkpt lat="43.53789082835731" lon="11.35887233153013"><ele>598.0</ele><time>2026-04-12T16:53:39.001Z</time></trkpt><trkpt lat="43.537964462830956" lon="11.35885745376105"><ele>598.0</ele><time>2026-04-12T16:53:40.001Z</time></trkpt><trkpt lat="43.5380364313371" lon="11.358821515758956"><ele>594.8333333333334</ele><time>2026-04-12T16:53:41.001Z</time></trkpt><trkpt lat="43.53810686677651" lon="11.358793534654744"><ele>591.6666666666667</ele><time>2026-04-12T16:53:42.001Z</time></trkpt><trkpt lat="43.53817773057534" lon="11.358764547243037"><ele>588.5</ele><time>2026-04-12T16:53:43.001Z</time></trkpt><trkpt lat="43.53826151971114" lon="11.358736437447137"><ele>585.3333333333334</ele><time>2026-04-12T16:53:44.001Z</time></trkpt><trkpt lat="43.538342361210155" lon="11.358712217506326"><ele>582.1666666666666</ele><time>2026-04-12T16:53:45.001Z</time></trkpt><trkpt lat="43.53841717849684" lon="11.358677661702211"><ele>579.0</ele><time>2026-04-12T16:53:46.001Z</time></trkpt><trkpt lat="43.538486705603184" lon="11.35863475016544"><ele>579.0</ele><time>2026-04-12T16:53:47.001Z</time></trkpt><trkpt lat="43.53855909005068" lon="11.358583555514441"><ele>579.0</ele><time>2026-04-12T16:53:48.001Z</time></trkpt><trkpt lat="43.53863055119586" lon="11.358532837660718"><ele>579.0</ele><time>2026-04-12T16:53:49.001Z</time></trkpt><trkpt lat="43.53869983946632" lon="11.358491719651184"><ele>579.0</ele><time>2026-04-12T16:53:50.001Z</time></trkpt><trkpt lat="43.538783466896994" lon="11.35837848162878"><ele>579.0</ele><time>2026-04-12T16:53:52.001Z</time></trkpt><trkpt lat="43.53883617399746" lon="11.358317520522899"><ele>579.0</ele><time>2026-04-12T16:53:54Z</time></trkpt><trkpt lat="43.53887565254723" lon="11.358247482174468"><ele>580.2</ele><time>2026-04-12T16:53:56Z</time></trkpt><trkpt lat="43.538967128459674" lon="11.358235205626794"><ele>581.4</ele><time>2026-04-12T16:53:58Z</time></trkpt><trkpt lat="43.53906277915987" lon="11.358175199945407"><ele>582.6</ele><time>2026-04-12T16:54:00Z</time></trkpt><trkpt lat="43.53915619506237" lon="11.358129155466345"><ele>583.8</ele><time>2026-04-12T16:54:02Z</time></trkpt><trkpt lat="43.53923621633432" lon="11.358019913091685"><ele>585.0</ele><time>2026-04-12T16:54:04Z</time></trkpt><trkpt lat="43.53933768396363" lon="11.357934649049755"><ele>580.0</ele><time>2026-04-12T16:54:06Z</time></trkpt><trkpt lat="43.539444426715" lon="11.357855022349353"><ele>575.0</ele><time>2026-04-12T16:54:08Z</time></trkpt><trkpt lat="43.539538951531426" lon="11.357748597151351"><ele>570.0</ele><time>2026-04-12T16:54:10Z</time></trkpt><trkpt lat="43.53962538291718" lon="11.357656785506407"><ele>565.0</ele><time>2026-04-12T16:54:12Z</time></trkpt><trkpt lat="43.539734757365856" lon="11.357593997226768"><ele>564.8333333333334</ele><time>2026-04-12T16:54:14Z</time></trkpt><trkpt lat="43.53984947440361" lon="11.357549422628038"><ele>564.6666666666667</ele><time>2026-04-12T16:54:16Z</time></trkpt><trkpt lat="43.5399616122004" lon="11.357521563425575"><ele>564.5</ele><time>2026-04-12T16:54:18Z</time></trkpt><trkpt lat="43.54002476882379" lon="11.357534273542164"><ele>564.3333333333334</ele><time>2026-04-12T16:54:19Z</time></trkpt><trkpt lat="43.540093140712436" lon="11.357520897788753"><ele>564.1666666666666</ele><time>2026-04-12T16:54:20Z</time></trkpt><trkpt lat="43.54017014556722" lon="11.357501598859756"><ele>564.0</ele><time>2026-04-12T16:54:21Z</time></trkpt><trkpt lat="43.54023681722505" lon="11.357483225160923"><ele>564.0</ele><time>2026-04-12T16:54:22Z</time></trkpt><trkpt lat="43.54030435051854" lon="11.35746289446205"><ele>564.0</ele><time>2026-04-12T16:54:23Z</time></trkpt><trkpt lat="43.540366654749505" lon="11.357444137948917"><ele>564.0</ele><time>2026-04-12T16:54:24Z</time></trkpt><trkpt lat="43.54042899722959" lon="11.357425369933146"><ele>564.0</ele><time>2026-04-12T16:54:25Z</time></trkpt><trkpt lat="43.54048990215387" lon="11.357386187305547"><ele>564.0</ele><time>2026-04-12T16:54:26Z</time></trkpt><trkpt lat="43.54055883493038" lon="11.357378898799455"><ele>564.0</ele><time>2026-04-12T16:54:27Z</time></trkpt><trkpt lat="43.540626860349754" lon="11.357369379380009"><ele>564.0</ele><time>2026-04-12T16:54:28Z</time></trkpt><trkpt lat="43.540765896749626" lon="11.357352521701662"><ele>563.6666666666666</ele><time>2026-04-12T16:54:30Z</time></trkpt><trkpt lat="43.5408465002852" lon="11.357370502683178"><ele>563.3333333333334</ele><time>2026-04-12T16:54:31Z</time></trkpt><trkpt lat="43.540915410028624" lon="11.357362430426887"><ele>563.0</ele><time>2026-04-12T16:54:32Z</time></trkpt><trkpt lat="43.54097504823283" lon="11.357327773084194"><ele>562.6666666666667</ele><time>2026-04-12T16:54:33Z</time></trkpt><trkpt lat="43.541085109548355" lon="11.357269578184521"><ele>562.3333333333334</ele><time>2026-04-12T16:54:35Z</time></trkpt><trkpt lat="43.54118679882342" lon="11.357216898157596"><ele>562.0</ele><time>2026-04-12T16:54:37Z</time></trkpt><trkpt lat="43.54124690077817" lon="11.357181326388128"><ele>558.8000000000001</ele><time>2026-04-12T16:54:39Z</time></trkpt><trkpt lat="43.54108320066779" lon="11.357003242866272"><ele>555.6</ele><time>2026-04-12T16:54:47Z</time></trkpt><trkpt lat="43.54102451607066" lon="11.356949819140093"><ele>552.4000000000001</ele><time>2026-04-12T16:54:48Z</time></trkpt><trkpt lat="43.54096878277918" lon="11.356886590838373"><ele>549.2</ele><time>2026-04-12T16:54:49Z</time></trkpt><trkpt lat="43.54091786334415" lon="11.356835209901622"><ele>546.0</ele><time>2026-04-12T16:54:50Z</time></trkpt><trkpt lat="43.54081779029119" lon="11.356749646168335"><ele>546.0</ele><time>2026-04-12T16:54:52Z</time></trkpt><trkpt lat="43.54069804004411" lon="11.356683385738755"><ele>546.0</ele><time>2026-04-12T16:54:54Z</time></trkpt><trkpt lat="43.54062940975019" lon="11.356649155099735"><ele>546.0</ele><time>2026-04-12T16:54:55Z</time></trkpt><trkpt lat="43.54056734712416" lon="11.356611478683176"><ele>546.0</ele><time>2026-04-12T16:54:56Z</time></trkpt><trkpt lat="43.54048932991665" lon="11.356548851720701"><ele>546.0</ele><time>2026-04-12T16:54:57Z</time></trkpt><trkpt lat="43.54040265982537" lon="11.356469966407337"><ele>546.3333333333334</ele><time>2026-04-12T16:54:58Z</time></trkpt><trkpt lat="43.540330335691095" lon="11.35637066500917"><ele>546.6666666666666</ele><time>2026-04-12T16:54:59Z</time></trkpt><trkpt lat="43.54028464267318" lon="11.356281271731255"><ele>547.0</ele><time>2026-04-12T16:55:00Z</time></trkpt><trkpt lat="43.54023665179625" lon="11.356181979183548"><ele>547.3333333333333</ele><time>2026-04-12T16:55:01Z</time></trkpt><trkpt lat="43.54017770828052" lon="11.356102229362953"><ele>547.6666666666666</ele><time>2026-04-12T16:55:02Z</time></trkpt><trkpt lat="43.54011833020042" lon="11.356054448539213"><ele>548.0</ele><time>2026-04-12T16:55:03Z</time></trkpt><trkpt lat="43.5400519969546" lon="11.356039945335565"><ele>545.8333333333333</ele><time>2026-04-12T16:55:04Z</time></trkpt><trkpt lat="43.539985018883016" lon="11.356043057488707"><ele>543.6666666666666</ele><time>2026-04-12T16:55:05Z</time></trkpt><trkpt lat="43.53990417166213" lon="11.356059941900732"><ele>541.5</ele><time>2026-04-12T16:55:06Z</time></trkpt><trkpt lat="43.53982275324942" lon="11.356091036006585"><ele>539.3333333333334</ele><time>2026-04-12T16:55:07Z</time></trkpt><trkpt lat="43.539731671712204" lon="11.356117306339685"><ele>537.1666666666667</ele><time>2026-04-12T16:55:08Z</time></trkpt><trkpt lat="43.53963454188878" lon="11.356146870308681"><ele>535.0</ele><time>2026-04-12T16:55:09Z</time></trkpt><trkpt lat="43.539534086002334" lon="11.35617338506894"><ele>534.0</ele><time>2026-04-12T16:55:10Z</time></trkpt><trkpt lat="43.5394254298975" lon="11.356202325166434"><ele>533.0</ele><time>2026-04-12T16:55:11Z</time></trkpt><trkpt lat="43.53929628053075" lon="11.356251578443112"><ele>532.0</ele><time>2026-04-12T16:55:12Z</time></trkpt><trkpt lat="43.53915033583906" lon="11.356320020598114"><ele>531.0</ele><time>2026-04-12T16:55:13Z</time></trkpt><trkpt lat="43.539022756201895" lon="11.356366585191719"><ele>531.1666666666666</ele><time>2026-04-12T16:55:14Z</time></trkpt><trkpt lat="43.53892764365587" lon="11.356399347832387"><ele>531.3333333333334</ele><time>2026-04-12T16:55:15Z</time></trkpt><trkpt lat="43.53884813435001" lon="11.356426794083223"><ele>531.5</ele><time>2026-04-12T16:55:16Z</time></trkpt><trkpt lat="43.53875688683485" lon="11.356451358545849"><ele>531.6666666666667</ele><time>2026-04-12T16:55:18Z</time></trkpt><trkpt lat="43.53869524016327" lon="11.356351071395611"><ele>531.8333333333334</ele><time>2026-04-12T16:55:20Z</time></trkpt><trkpt lat="43.538676281915386" lon="11.356258448171651"><ele>532.0</ele><time>2026-04-12T16:55:21Z</time></trkpt><trkpt lat="43.53864986917095" lon="11.356171278809041"><ele>532.0</ele><time>2026-04-12T16:55:22Z</time></trkpt><trkpt lat="43.53860888628283" lon="11.356070242929322"><ele>532.0</ele><time>2026-04-12T16:55:23Z</time></trkpt><trkpt lat="43.53853631032305" lon="11.355963774880594"><ele>532.0</ele><time>2026-04-12T16:55:24Z</time></trkpt><trkpt lat="43.53845852876631" lon="11.355858561516055"><ele>532.0</ele><time>2026-04-12T16:55:25Z</time></trkpt><trkpt lat="43.53839625090595" lon="11.355760267782255"><ele>532.0</ele><time>2026-04-12T16:55:26Z</time></trkpt><trkpt lat="43.53832775279195" lon="11.355654797652686"><ele>532.0</ele><time>2026-04-12T16:55:27.999Z</time></trkpt><trkpt lat="43.538293718784324" lon="11.355573036604037"><ele>532.0</ele><time>2026-04-12T16:55:29.999Z</time></trkpt><trkpt lat="43.538231755839945" lon="11.355544396374057"><ele>532.0</ele><time>2026-04-12T16:55:33.999Z</time></trkpt><trkpt lat="43.538214559387995" lon="11.35564056956573"><ele>532.0</ele><time>2026-04-12T16:56:23Z</time></trkpt><trkpt lat="43.53816689013376" lon="11.355714379385327"><ele>532.0</ele><time>2026-04-12T16:57:01Z</time></trkpt><trkpt lat="43.53809894039412" lon="11.355688923878951"><ele>532.0</ele><time>2026-04-12T16:57:03Z</time></trkpt><trkpt lat="43.53802430438172" lon="11.355689586964354"><ele>532.0</ele><time>2026-04-12T16:57:05Z</time></trkpt><trkpt lat="43.5379662251724" lon="11.355737725125524"><ele>532.0</ele><time>2026-04-12T16:57:08Z</time></trkpt><trkpt lat="43.53788578531739" lon="11.355753404513717"><ele>532.0</ele><time>2026-04-12T16:57:10Z</time></trkpt><trkpt lat="43.53781513103615" lon="11.355802852129186"><ele>532.0</ele><time>2026-04-12T16:57:12Z</time></trkpt><trkpt lat="43.537723121362404" lon="11.355798300426345"><ele>532.0</ele><time>2026-04-12T16:57:14Z</time></trkpt><trkpt lat="43.537625725445736" lon="11.355744733982228"><ele>532.0</ele><time>2026-04-12T16:57:16Z</time></trkpt><trkpt lat="43.537616667039934" lon="11.355640944332919"><ele>532.0</ele><time>2026-04-12T16:57:19Z</time></trkpt><trkpt lat="43.53767476700692" lon="11.355558784134107"><ele>531.4</ele><time>2026-04-12T16:57:20.999Z</time></trkpt><trkpt lat="43.53774882680095" lon="11.355532766610123"><ele>530.8000000000001</ele><time>2026-04-12T16:57:21.999Z</time></trkpt><trkpt lat="43.53784385761724" lon="11.355492939018152"><ele>530.2</ele><time>2026-04-12T16:57:22.999Z</time></trkpt><trkpt lat="43.537908062808725" lon="11.35544212449013"><ele>529.6</ele><time>2026-04-12T16:57:23.999Z</time></trkpt><trkpt lat="43.53799126167588" lon="11.355279682315874"><ele>529.0</ele><time>2026-04-12T16:57:25.999Z</time></trkpt><trkpt lat="43.538058065221215" lon="11.355158640187854"><ele>529.0</ele><time>2026-04-12T16:57:26.999Z</time></trkpt><trkpt lat="43.53811062198449" lon="11.355058770655678"><ele>529.0</ele><time>2026-04-12T16:57:27.999Z</time></trkpt><trkpt lat="43.538178442365535" lon="11.354959780799431"><ele>529.0</ele><time>2026-04-12T16:57:28.999Z</time></trkpt><trkpt lat="43.53824250902734" lon="11.354849442685579"><ele>529.0</ele><time>2026-04-12T16:57:29.999Z</time></trkpt><trkpt lat="43.53830186069473" lon="11.354732973935608"><ele>529.0</ele><time>2026-04-12T16:57:30.999Z</time></trkpt><trkpt lat="43.538349102990715" lon="11.35464009178495"><ele>530.0</ele><time>2026-04-12T16:57:31.999Z</time></trkpt><trkpt lat="43.538397051744376" lon="11.354547828519577"><ele>531.0</ele><time>2026-04-12T16:57:32.999Z</time></trkpt><trkpt lat="43.53843829155813" lon="11.354455708007208"><ele>532.0</ele><time>2026-04-12T16:57:33.999Z</time></trkpt><trkpt lat="43.5384791242497" lon="11.354383289757312"><ele>533.0</ele><time>2026-04-12T16:57:34.999Z</time></trkpt><trkpt lat="43.53852510700914" lon="11.354256281062597"><ele>534.0</ele><time>2026-04-12T16:57:36.999Z</time></trkpt><trkpt lat="43.53857615567442" lon="11.354157120386757"><ele>535.0</ele><time>2026-04-12T16:57:38.999Z</time></trkpt><trkpt lat="43.53861233402134" lon="11.354057512236794"><ele>535.0</ele><time>2026-04-12T16:57:39.999Z</time></trkpt><trkpt lat="43.53861551552359" lon="11.35391130988708"><ele>535.0</ele><time>2026-04-12T16:57:41.999Z</time></trkpt><trkpt lat="43.538585590391854" lon="11.353757056156963"><ele>535.0</ele><time>2026-04-12T16:57:42.999Z</time></trkpt><trkpt lat="43.538574184030665" lon="11.353544081798058"><ele>535.0</ele><time>2026-04-12T16:57:43.999Z</time></trkpt><trkpt lat="43.538585176866945" lon="11.353405360237769"><ele>534.8333333333334</ele><time>2026-04-12T16:57:44.999Z</time></trkpt><trkpt lat="43.53850788321036" lon="11.35334584720659"><ele>534.6666666666667</ele><time>2026-04-12T16:57:45.999Z</time></trkpt><trkpt lat="43.53848318143898" lon="11.353251248894518"><ele>534.5</ele><time>2026-04-12T16:57:47Z</time></trkpt><trkpt lat="43.53845073775402" lon="11.353174375579057"><ele>534.3333333333334</ele><time>2026-04-12T16:57:48Z</time></trkpt><trkpt lat="43.538377868744796" lon="11.353058592245842"><ele>534.1666666666666</ele><time>2026-04-12T16:57:50Z</time></trkpt><trkpt lat="43.53831826997604" lon="11.352977854359802"><ele>534.0</ele><time>2026-04-12T16:57:52Z</time></trkpt><trkpt lat="43.53831276340976" lon="11.352824669972604"><ele>533.6666666666666</ele><time>2026-04-12T16:57:54Z</time></trkpt><trkpt lat="43.538285612193135" lon="11.352701061965426"><ele>533.3333333333334</ele><time>2026-04-12T16:57:55Z</time></trkpt><trkpt lat="43.53825990555143" lon="11.35259665640541"><ele>533.0</ele><time>2026-04-12T16:57:56Z</time></trkpt><trkpt lat="43.53823455467824" lon="11.352506157837471"><ele>532.6666666666667</ele><time>2026-04-12T16:57:57Z</time></trkpt><trkpt lat="43.538205057757985" lon="11.352418073567952"><ele>532.3333333333334</ele><time>2026-04-12T16:57:58Z</time></trkpt><trkpt lat="43.538180235446575" lon="11.352318965645862"><ele>532.0</ele><time>2026-04-12T16:57:59Z</time></trkpt><trkpt lat="43.53813428533642" lon="11.352206158801845"><ele>534.0</ele><time>2026-04-12T16:58:01Z</time></trkpt><trkpt lat="43.53814986717993" lon="11.352073083020027"><ele>536.0</ele><time>2026-04-12T16:58:04Z</time></trkpt><trkpt lat="43.53821378630285" lon="11.351988901354115"><ele>538.0</ele><time>2026-04-12T16:58:06Z</time></trkpt><trkpt lat="43.53831655286344" lon="11.351990303375615"><ele>540.0</ele><time>2026-04-12T16:58:07Z</time></trkpt><trkpt lat="43.53837747527528" lon="11.351928237813095"><ele>542.0</ele><time>2026-04-12T16:58:08Z</time></trkpt><trkpt lat="43.53843977482751" lon="11.351835135636419"><ele>542.0</ele><time>2026-04-12T16:58:09Z</time></trkpt><trkpt lat="43.53850610721621" lon="11.351684140392196"><ele>542.0</ele><time>2026-04-12T16:58:10Z</time></trkpt><trkpt lat="43.53855484627266" lon="11.351571588518054"><ele>542.0</ele><time>2026-04-12T16:58:11Z</time></trkpt><trkpt lat="43.53858582431946" lon="11.35145531705382"><ele>542.0</ele><time>2026-04-12T16:58:12Z</time></trkpt><trkpt lat="43.53857847571311" lon="11.35131263558402"><ele>542.0</ele><time>2026-04-12T16:58:14Z</time></trkpt><trkpt lat="43.53855981219778" lon="11.351223766105507"><ele>543.4</ele><time>2026-04-12T16:58:15Z</time></trkpt><trkpt lat="43.53864566116324" lon="11.351080529546989"><ele>544.8000000000001</ele><time>2026-04-12T16:58:17Z</time></trkpt><trkpt lat="43.53862686512338" lon="11.35093263594613"><ele>546.2</ele><time>2026-04-12T16:58:19Z</time></trkpt><trkpt lat="43.53858241644451" lon="11.350858057880602"><ele>547.6</ele><time>2026-04-12T16:58:20Z</time></trkpt><trkpt lat="43.53854543238971" lon="11.350763717551272"><ele>549.0</ele><time>2026-04-12T16:58:21Z</time></trkpt><trkpt lat="43.538492008600336" lon="11.35066631501748"><ele>549.0</ele><time>2026-04-12T16:58:22Z</time></trkpt><trkpt lat="43.53842558684625" lon="11.350578367208472"><ele>549.0</ele><time>2026-04-12T16:58:23Z</time></trkpt><trkpt lat="43.53835395803841" lon="11.350510373767293"><ele>549.0</ele><time>2026-04-12T16:58:24Z</time></trkpt><trkpt lat="43.53830441720248" lon="11.35045294882445"><ele>549.0</ele><time>2026-04-12T16:58:25Z</time></trkpt><trkpt lat="43.53827138499381" lon="11.350375609969042"><ele>549.0</ele><time>2026-04-12T16:58:26Z</time></trkpt><trkpt lat="43.538232725502816" lon="11.350282344387981"><ele>549.0</ele><time>2026-04-12T16:58:27Z</time></trkpt><trkpt lat="43.538202629054695" lon="11.350195918499285"><ele>548.1666666666666</ele><time>2026-04-12T16:58:28Z</time></trkpt><trkpt lat="43.53816996358093" lon="11.350106833505421"><ele>547.3333333333334</ele><time>2026-04-12T16:58:29Z</time></trkpt><trkpt lat="43.538119714712316" lon="11.350034194066692"><ele>546.5</ele><time>2026-04-12T16:58:30Z</time></trkpt><trkpt lat="43.53807266612169" lon="11.349970551071474"><ele>545.6666666666667</ele><time>2026-04-12T16:58:31Z</time></trkpt><trkpt lat="43.53801959989929" lon="11.349836076781559"><ele>544.8333333333334</ele><time>2026-04-12T16:58:34Z</time></trkpt><trkpt lat="43.53806427032839" lon="11.349719682913898"><ele>544.0</ele><time>2026-04-12T16:58:36Z</time></trkpt><trkpt lat="43.53810042339279" lon="11.34962849176997"><ele>546.5</ele><time>2026-04-12T16:58:37Z</time></trkpt><trkpt lat="43.53810907420167" lon="11.349529389577512"><ele>549.0</ele><time>2026-04-12T16:58:39Z</time></trkpt><trkpt lat="43.53808921947282" lon="11.349442963762865"><ele>551.5</ele><time>2026-04-12T16:59:27.999Z</time></trkpt><trkpt lat="43.538120510665024" lon="11.349304989492715"><ele>554.0</ele><time>2026-04-12T16:59:29.999Z</time></trkpt><trkpt lat="43.53832666148482" lon="11.3491263958826"><ele>554.0</ele><time>2026-04-12T16:59:34.999Z</time></trkpt><trkpt lat="43.538367852377455" lon="11.349018453731592"><ele>554.0</ele><time>2026-04-12T16:59:35.999Z</time></trkpt><trkpt lat="43.538422512012595" lon="11.348924287062967"><ele>554.0</ele><time>2026-04-12T16:59:36.999Z</time></trkpt><trkpt lat="43.538463464813184" lon="11.348828830372561"><ele>554.0</ele><time>2026-04-12T16:59:37.999Z</time></trkpt><trkpt lat="43.5384997014897" lon="11.348744986263334"><ele>554.0</ele><time>2026-04-12T16:59:38.999Z</time></trkpt><trkpt lat="43.538525764131435" lon="11.348664668047403"><ele>554.0</ele><time>2026-04-12T16:59:39.999Z</time></trkpt><trkpt lat="43.5385179920672" lon="11.348486357734501"><ele>554.8333333333333</ele><time>2026-04-12T16:59:41.999Z</time></trkpt><trkpt lat="43.538511695101924" lon="11.348368599730605"><ele>555.6666666666666</ele><time>2026-04-12T16:59:42.999Z</time></trkpt><trkpt lat="43.53849596396296" lon="11.348241605832785"><ele>556.5</ele><time>2026-04-12T16:59:43.999Z</time></trkpt><trkpt lat="43.538452046434244" lon="11.34813240158748"><ele>557.3333333333334</ele><time>2026-04-12T16:59:44.999Z</time></trkpt><trkpt lat="43.53839654786967" lon="11.34804614763259"><ele>558.1666666666667</ele><time>2026-04-12T16:59:45.999Z</time></trkpt><trkpt lat="43.53834306282547" lon="11.347970497064763"><ele>559.0</ele><time>2026-04-12T16:59:46.999Z</time></trkpt><trkpt lat="43.538273016137815" lon="11.347811125159206"><ele>559.0</ele><time>2026-04-12T16:59:48.999Z</time></trkpt><trkpt lat="43.538224485788305" lon="11.347727181408114"><ele>559.0</ele><time>2026-04-12T16:59:49.999Z</time></trkpt><trkpt lat="43.53818522550617" lon="11.347652462691142"><ele>559.0</ele><time>2026-04-12T16:59:50.999Z</time></trkpt><trkpt lat="43.53812532614508" lon="11.347567477406606"><ele>559.0</ele><time>2026-04-12T16:59:51.999Z</time></trkpt><trkpt lat="43.53805369912238" lon="11.347513458901865"><ele>559.0</ele><time>2026-04-12T16:59:53Z</time></trkpt><trkpt lat="43.537975579545936" lon="11.3474702891404"><ele>559.0</ele><time>2026-04-12T16:59:54Z</time></trkpt><trkpt lat="43.53790233084615" lon="11.347398577110958"><ele>559.8333333333334</ele><time>2026-04-12T16:59:55Z</time></trkpt><trkpt lat="43.537856592356604" lon="11.347322156960976"><ele>560.6666666666667</ele><time>2026-04-12T16:59:56Z</time></trkpt><trkpt lat="43.53783002759298" lon="11.347239055609176"><ele>561.5</ele><time>2026-04-12T16:59:57Z</time></trkpt><trkpt lat="43.5378498452606" lon="11.347125199060612"><ele>562.3333333333334</ele><time>2026-04-12T16:59:59Z</time></trkpt><trkpt lat="43.53794024327263" lon="11.347084826285087"><ele>563.1666666666666</ele><time>2026-04-12T17:00:01Z</time></trkpt><trkpt lat="43.538008896057754" lon="11.347023989159178"><ele>564.0</ele><time>2026-04-12T17:00:02Z</time></trkpt><trkpt lat="43.53808264858812" lon="11.346922371714353"><ele>564.0</ele><time>2026-04-12T17:00:03Z</time></trkpt><trkpt lat="43.538150218737535" lon="11.346837907109528"><ele>564.0</ele><time>2026-04-12T17:00:04Z</time></trkpt><trkpt lat="43.538192856846294" lon="11.346756469419681"><ele>564.0</ele><time>2026-04-12T17:00:05Z</time></trkpt><trkpt lat="43.53822106093882" lon="11.346661157936758"><ele>564.0</ele><time>2026-04-12T17:00:06Z</time></trkpt><trkpt lat="43.53822312477485" lon="11.346553701866121"><ele>564.0</ele><time>2026-04-12T17:00:07Z</time></trkpt><trkpt lat="43.53820516866741" lon="11.346461233083039"><ele>564.0</ele><time>2026-04-12T17:00:08Z</time></trkpt><trkpt lat="43.5382308810427" lon="11.346313095717404"><ele>567.2</ele><time>2026-04-12T17:00:10Z</time></trkpt><trkpt lat="43.538298357225386" lon="11.346236914840983"><ele>570.4</ele><time>2026-04-12T17:00:11Z</time></trkpt><trkpt lat="43.5383629687654" lon="11.346151753379152"><ele>573.6</ele><time>2026-04-12T17:00:12Z</time></trkpt><trkpt lat="43.53843653174877" lon="11.346054845925487"><ele>576.8</ele><time>2026-04-12T17:00:13Z</time></trkpt><trkpt lat="43.53847295358694" lon="11.345971252773937"><ele>580.0</ele><time>2026-04-12T17:00:14Z</time></trkpt><trkpt lat="43.5384798930518" lon="11.34579210542638"><ele>580.0</ele><time>2026-04-12T17:00:16Z</time></trkpt><trkpt lat="43.53847249711215" lon="11.345695685323042"><ele>580.0</ele><time>2026-04-12T17:00:17Z</time></trkpt><trkpt lat="43.53846897386088" lon="11.345603706455734"><ele>580.0</ele><time>2026-04-12T17:00:18Z</time></trkpt><trkpt lat="43.53853678842205" lon="11.345505865819845"><ele>580.0</ele><time>2026-04-12T17:00:20Z</time></trkpt><trkpt lat="43.538612157727655" lon="11.345486250674028"><ele>580.0</ele><time>2026-04-12T17:00:21Z</time></trkpt><trkpt lat="43.53868225098881" lon="11.34548056199766"><ele>580.0</ele><time>2026-04-12T17:00:22Z</time></trkpt><trkpt lat="43.53875275732671" lon="11.345498459055879"><ele>578.6666666666667</ele><time>2026-04-12T17:00:23Z</time></trkpt><trkpt lat="43.53881784804065" lon="11.34554530195037"><ele>577.3333333333334</ele><time>2026-04-12T17:00:24Z</time></trkpt><trkpt lat="43.53891535417207" lon="11.345565917397511"><ele>576.0</ele><time>2026-04-12T17:00:26Z</time></trkpt><trkpt lat="43.53898121833805" lon="11.345518732342446"><ele>574.6666666666666</ele><time>2026-04-12T17:00:27Z</time></trkpt><trkpt lat="43.539051906504795" lon="11.345450624566892"><ele>573.3333333333333</ele><time>2026-04-12T17:00:28Z</time></trkpt><trkpt lat="43.53911737889813" lon="11.34538567436074"><ele>572.0</ele><time>2026-04-12T17:00:29Z</time></trkpt><trkpt lat="43.53915307245269" lon="11.34525424905657"><ele>572.0</ele><time>2026-04-12T17:00:31Z</time></trkpt><trkpt lat="43.53911965067924" lon="11.345175210438407"><ele>572.0</ele><time>2026-04-12T17:00:32Z</time></trkpt><trkpt lat="43.53909378214904" lon="11.345080236300307"><ele>572.0</ele><time>2026-04-12T17:00:33Z</time></trkpt><trkpt lat="43.53908989013158" lon="11.344924913607759"><ele>572.0</ele><time>2026-04-12T17:00:35Z</time></trkpt><trkpt lat="43.53912696659391" lon="11.344837607932686"><ele>572.0</ele><time>2026-04-12T17:00:38Z</time></trkpt><trkpt lat="43.53916920487701" lon="11.344721892477713"><ele>572.0</ele><time>2026-04-12T17:00:40Z</time></trkpt><trkpt lat="43.53924350092176" lon="11.344574765184502"><ele>571.3333333333333</ele><time>2026-04-12T17:00:42Z</time></trkpt><trkpt lat="43.53930997296429" lon="11.344508756518856"><ele>570.6666666666666</ele><time>2026-04-12T17:00:43Z</time></trkpt><trkpt lat="43.53938778456579" lon="11.344449915543278"><ele>570.0</ele><time>2026-04-12T17:00:44Z</time></trkpt><trkpt lat="43.53945988338822" lon="11.344381632170988"><ele>569.3333333333334</ele><time>2026-04-12T17:00:45Z</time></trkpt><trkpt lat="43.53950540449682" lon="11.344298670335183"><ele>568.6666666666667</ele><time>2026-04-12T17:00:46Z</time></trkpt><trkpt lat="43.53955027517679" lon="11.344185293333254"><ele>568.0</ele><time>2026-04-12T17:00:47Z</time></trkpt><trkpt lat="43.53959552391729" lon="11.344070344137235"><ele>568.0</ele><time>2026-04-12T17:00:48Z</time></trkpt><trkpt lat="43.53963797451277" lon="11.343971060394203"><ele>568.0</ele><time>2026-04-12T17:00:49Z</time></trkpt><trkpt lat="43.539689864126345" lon="11.343901872319682"><ele>568.0</ele><time>2026-04-12T17:00:50Z</time></trkpt><trkpt lat="43.53977066980595" lon="11.34386236386501"><ele>568.0</ele><time>2026-04-12T17:00:51Z</time></trkpt><trkpt lat="43.539853885118234" lon="11.34381228889694"><ele>568.0</ele><time>2026-04-12T17:00:52Z</time></trkpt><trkpt lat="43.539903137500914" lon="11.34372272715487"><ele>568.0</ele><time>2026-04-12T17:00:53Z</time></trkpt><trkpt lat="43.53997971961343" lon="11.343628147107454"><ele>572.1666666666667</ele><time>2026-04-12T17:00:54Z</time></trkpt><trkpt lat="43.54002889179113" lon="11.34354040301848"><ele>576.3333333333334</ele><time>2026-04-12T17:00:55Z</time></trkpt><trkpt lat="43.54007652541818" lon="11.3434423966703"><ele>580.5</ele><time>2026-04-12T17:00:56Z</time></trkpt><trkpt lat="43.54011459501352" lon="11.343366368585437"><ele>584.6666666666666</ele><time>2026-04-12T17:00:57Z</time></trkpt><trkpt lat="43.540149166501934" lon="11.343263042304603"><ele>588.8333333333333</ele><time>2026-04-12T17:00:58Z</time></trkpt><trkpt lat="43.540209686637766" lon="11.343138865137709"><ele>593.0</ele><time>2026-04-12T17:00:59Z</time></trkpt><trkpt lat="43.54029595654222" lon="11.343037244795624"><ele>593.8333333333333</ele><time>2026-04-12T17:01:00Z</time></trkpt><trkpt lat="43.5403807680056" lon="11.342921990840429"><ele>594.6666666666666</ele><time>2026-04-12T17:01:01Z</time></trkpt><trkpt lat="43.540450610235" lon="11.342838030483197"><ele>595.5</ele><time>2026-04-12T17:01:02Z</time></trkpt><trkpt lat="43.54050620961766" lon="11.342764839216034"><ele>596.3333333333334</ele><time>2026-04-12T17:01:03Z</time></trkpt><trkpt lat="43.540551551204274" lon="11.342693316527384"><ele>597.1666666666667</ele><time>2026-04-12T17:01:04Z</time></trkpt><trkpt lat="43.540584469222765" lon="11.34260228434522"><ele>598.0</ele><time>2026-04-12T17:01:05Z</time></trkpt><trkpt lat="43.540625503705655" lon="11.342527595660956"><ele>595.8</ele><time>2026-04-12T17:01:06Z</time></trkpt><trkpt lat="43.54067049234311" lon="11.342459984305957"><ele>593.5999999999999</ele><time>2026-04-12T17:01:07Z</time></trkpt><trkpt lat="43.54068393450944" lon="11.342314296540927"><ele>591.4000000000001</ele><time>2026-04-12T17:01:09Z</time></trkpt><trkpt lat="43.5406788746301" lon="11.342172629815497"><ele>589.2</ele><time>2026-04-12T17:01:11Z</time></trkpt><trkpt lat="43.54064947142758" lon="11.342028740305999"><ele>587.0</ele><time>2026-04-12T17:01:13Z</time></trkpt><trkpt lat="43.54059252138647" lon="11.341870321656472"><ele>586.2</ele><time>2026-04-12T17:01:15Z</time></trkpt><trkpt lat="43.54055824128089" lon="11.341789750718162"><ele>585.4000000000001</ele><time>2026-04-12T17:01:16Z</time></trkpt><trkpt lat="43.540525942400556" lon="11.341709415175881"><ele>584.5999999999999</ele><time>2026-04-12T17:01:17Z</time></trkpt><trkpt lat="43.54047179396502" lon="11.341565969173239"><ele>583.8</ele><time>2026-04-12T17:01:18.999Z</time></trkpt><trkpt lat="43.54045461657802" lon="11.341416926006262"><ele>583.0</ele><time>2026-04-12T17:01:20.999Z</time></trkpt><trkpt lat="43.54047361432681" lon="11.341271954167953"><ele>581.5</ele><time>2026-04-12T17:01:22.999Z</time></trkpt><trkpt lat="43.54047701972467" lon="11.341140490503534"><ele>580.0</ele><time>2026-04-12T17:01:24.999Z</time></trkpt><trkpt lat="43.54045255793373" lon="11.341027671714423"><ele>578.5</ele><time>2026-04-12T17:01:26.999Z</time></trkpt><trkpt lat="43.54047414486701" lon="11.340931468836732"><ele>577.0</ele><time>2026-04-12T17:01:27.999Z</time></trkpt><trkpt lat="43.54041046448547" lon="11.340851037128923"><ele>575.5</ele><time>2026-04-12T17:01:30.999Z</time></trkpt><trkpt lat="43.540327672400906" lon="11.340805406744645"><ele>574.0</ele><time>2026-04-12T17:01:32.999Z</time></trkpt><trkpt lat="43.5402874113706" lon="11.34073676121235"><ele>574.0</ele><time>2026-04-12T17:01:33.999Z</time></trkpt><trkpt lat="43.54024089103805" lon="11.340648699377631"><ele>574.0</ele><time>2026-04-12T17:01:35.999Z</time></trkpt><trkpt lat="43.54015727324758" lon="11.340533652741108"><ele>574.0</ele><time>2026-04-12T17:01:37.999Z</time></trkpt><trkpt lat="43.54006134136007" lon="11.34044275926286"><ele>574.0</ele><time>2026-04-12T17:01:39.999Z</time></trkpt><trkpt lat="43.53999986458561" lon="11.340402702279707"><ele>574.0</ele><time>2026-04-12T17:01:40.999Z</time></trkpt><trkpt lat="43.5399506075829" lon="11.340337671695373"><ele>572.1666666666667</ele><time>2026-04-12T17:01:41.999Z</time></trkpt><trkpt lat="43.53988290248486" lon="11.340301279832572"><ele>570.3333333333334</ele><time>2026-04-12T17:01:42.999Z</time></trkpt><trkpt lat="43.53981211277483" lon="11.340233773623154"><ele>568.5</ele><time>2026-04-12T17:01:43.999Z</time></trkpt><trkpt lat="43.539747645401086" lon="11.340177407971725"><ele>566.6666666666666</ele><time>2026-04-12T17:01:44.999Z</time></trkpt><trkpt lat="43.53968690400432" lon="11.340125417503954"><ele>564.8333333333333</ele><time>2026-04-12T17:01:45.999Z</time></trkpt><trkpt lat="43.539618861427805" lon="11.340094140000277"><ele>563.0</ele><time>2026-04-12T17:01:46.999Z</time></trkpt><trkpt lat="43.53954816092921" lon="11.340110623776331"><ele>563.0</ele><time>2026-04-12T17:01:47.999Z</time></trkpt><trkpt lat="43.539480660974824" lon="11.340103931627022"><ele>563.0</ele><time>2026-04-12T17:01:48.999Z</time></trkpt><trkpt lat="43.539409865096225" lon="11.34009691272632"><ele>563.0</ele><time>2026-04-12T17:01:49.999Z</time></trkpt><trkpt lat="43.539357516557956" lon="11.340032144147768"><ele>563.0</ele><time>2026-04-12T17:01:50.999Z</time></trkpt><trkpt lat="43.539286267386906" lon="11.339980806839328"><ele>563.0</ele><time>2026-04-12T17:01:51.999Z</time></trkpt><trkpt lat="43.53921010028666" lon="11.339927026663768"><ele>563.0</ele><time>2026-04-12T17:01:52.999Z</time></trkpt><trkpt lat="43.53914078903657" lon="11.339861545896671"><ele>563.0</ele><time>2026-04-12T17:01:53.999Z</time></trkpt><trkpt lat="43.53906759027555" lon="11.339772260330594"><ele>563.0</ele><time>2026-04-12T17:01:54.999Z</time></trkpt><trkpt lat="43.53900634188248" lon="11.339659390333006"><ele>563.0</ele><time>2026-04-12T17:01:55.999Z</time></trkpt><trkpt lat="43.538961936234685" lon="11.339545110750832"><ele>563.0</ele><time>2026-04-12T17:01:56.999Z</time></trkpt><trkpt lat="43.53895806018529" lon="11.3394225409589"><ele>563.0</ele><time>2026-04-12T17:01:57.999Z</time></trkpt><trkpt lat="43.53895049666557" lon="11.33932372708694"><ele>560.8333333333333</ele><time>2026-04-12T17:01:59Z</time></trkpt><trkpt lat="43.5389412814196" lon="11.339203504451541"><ele>558.6666666666666</ele><time>2026-04-12T17:02:00Z</time></trkpt><trkpt lat="43.53893393476381" lon="11.339098265212007"><ele>556.5</ele><time>2026-04-12T17:02:01Z</time></trkpt><trkpt lat="43.53892752821513" lon="11.338971811917952"><ele>554.3333333333334</ele><time>2026-04-12T17:02:02Z</time></trkpt><trkpt lat="43.538916624427934" lon="11.33884026626874"><ele>552.1666666666667</ele><time>2026-04-12T17:02:03Z</time></trkpt><trkpt lat="43.53891802553905" lon="11.338718897888022"><ele>550.0</ele><time>2026-04-12T17:02:04Z</time></trkpt><trkpt lat="43.5389471575938" lon="11.338630001305384"><ele>548.0</ele><time>2026-04-12T17:02:05Z</time></trkpt><trkpt lat="43.53896441882614" lon="11.338526412003896"><ele>546.0</ele><time>2026-04-12T17:02:06Z</time></trkpt><trkpt lat="43.53897838668627" lon="11.338429165547506"><ele>544.0</ele><time>2026-04-12T17:02:07Z</time></trkpt><trkpt lat="43.53898075034814" lon="11.338332063994724"><ele>542.0</ele><time>2026-04-12T17:02:08Z</time></trkpt><trkpt lat="43.53898468940516" lon="11.33823966906231"><ele>540.0</ele><time>2026-04-12T17:02:09Z</time></trkpt><trkpt lat="43.53896523876128" lon="11.33814208126613"><ele>538.0</ele><time>2026-04-12T17:02:10Z</time></trkpt><trkpt lat="43.53892801876475" lon="11.33805925198093"><ele>536.0</ele><time>2026-04-12T17:02:11Z</time></trkpt><trkpt lat="43.538881272557" lon="11.337976666408311"><ele>537.1666666666666</ele><time>2026-04-12T17:02:12Z</time></trkpt><trkpt lat="43.53883089576249" lon="11.337882686352991"><ele>538.3333333333333</ele><time>2026-04-12T17:02:13Z</time></trkpt><trkpt lat="43.53874963118782" lon="11.337843070035383"><ele>539.5</ele><time>2026-04-12T17:02:14Z</time></trkpt><trkpt lat="43.53866664700991" lon="11.337790267983644"><ele>540.6666666666666</ele><time>2026-04-12T17:02:15Z</time></trkpt><trkpt lat="43.53858812600592" lon="11.33773830447767"><ele>541.8333333333334</ele><time>2026-04-12T17:02:16Z</time></trkpt><trkpt lat="43.53852154538351" lon="11.337678451043496"><ele>543.0</ele><time>2026-04-12T17:02:17Z</time></trkpt><trkpt lat="43.5384827847858" lon="11.337578067181116"><ele>543.0</ele><time>2026-04-12T17:02:18Z</time></trkpt><trkpt lat="43.53848239388499" lon="11.337477184382179"><ele>543.0</ele><time>2026-04-12T17:02:19Z</time></trkpt><trkpt lat="43.538489650704754" lon="11.337287826563854"><ele>543.0</ele><time>2026-04-12T17:02:21Z</time></trkpt><trkpt lat="43.53848103123248" lon="11.33719908760764"><ele>543.0</ele><time>2026-04-12T17:02:22Z</time></trkpt><trkpt lat="43.53843473184681" lon="11.337123129926809"><ele>543.0</ele><time>2026-04-12T17:02:23Z</time></trkpt><trkpt lat="43.5383840136918" lon="11.337026692406326"><ele>543.0</ele><time>2026-04-12T17:02:24Z</time></trkpt><trkpt lat="43.53835199962241" lon="11.336916978138158"><ele>541.5714285714286</ele><time>2026-04-12T17:02:25Z</time></trkpt><trkpt lat="43.53830607032644" lon="11.336841698387545"><ele>540.1428571428571</ele><time>2026-04-12T17:02:26Z</time></trkpt><trkpt lat="43.53826980928989" lon="11.3367510711567"><ele>538.7142857142857</ele><time>2026-04-12T17:02:27Z</time></trkpt><trkpt lat="43.538227823725954" lon="11.336673256669327"><ele>537.2857142857142</ele><time>2026-04-12T17:02:28Z</time></trkpt><trkpt lat="43.53816914754148" lon="11.33662413899605"><ele>535.8571428571428</ele><time>2026-04-12T17:02:29Z</time></trkpt><trkpt lat="43.538116592240826" lon="11.336571232671783"><ele>534.4285714285714</ele><time>2026-04-12T17:02:30Z</time></trkpt><trkpt lat="43.53804995940475" lon="11.336519820242206"><ele>533.0</ele><time>2026-04-12T17:02:31Z</time></trkpt><trkpt lat="43.5379791248016" lon="11.33646071175519"><ele>533.0</ele><time>2026-04-12T17:02:32Z</time></trkpt><trkpt lat="43.53791871819566" lon="11.336407402041251"><ele>533.0</ele><time>2026-04-12T17:02:33Z</time></trkpt><trkpt lat="43.53786089299273" lon="11.336367570011012"><ele>533.0</ele><time>2026-04-12T17:02:34Z</time></trkpt><trkpt lat="43.537780175596005" lon="11.336243056366053"><ele>533.0</ele><time>2026-04-12T17:02:36Z</time></trkpt><trkpt lat="43.53771529673627" lon="11.336131221500697"><ele>533.0</ele><time>2026-04-12T17:02:38Z</time></trkpt><trkpt lat="43.53767274918139" lon="11.336013091641648"><ele>531.6666666666666</ele><time>2026-04-12T17:02:40Z</time></trkpt><trkpt lat="43.53761911319725" lon="11.335925515331366"><ele>530.3333333333333</ele><time>2026-04-12T17:02:42Z</time></trkpt><trkpt lat="43.53756995948191" lon="11.33587017060624"><ele>529.0</ele><time>2026-04-12T17:02:44Z</time></trkpt><trkpt lat="43.53747666516609" lon="11.335808990852708"><ele>527.6666666666666</ele><time>2026-04-12T17:03:01Z</time></trkpt><trkpt lat="43.537394157168485" lon="11.33567852073969"><ele>526.3333333333334</ele><time>2026-04-12T17:03:03Z</time></trkpt><trkpt lat="43.53739563447377" lon="11.335582547543707"><ele>525.0</ele><time>2026-04-12T17:03:04Z</time></trkpt><trkpt lat="43.53739944149341" lon="11.335426528247922"><ele>523.5</ele><time>2026-04-12T17:03:06Z</time></trkpt><trkpt lat="43.53738545965254" lon="11.33531841436818"><ele>522.0</ele><time>2026-04-12T17:03:07Z</time></trkpt><trkpt lat="43.537397912176836" lon="11.335209525930061"><ele>520.5</ele><time>2026-04-12T17:03:08Z</time></trkpt><trkpt lat="43.53739401746781" lon="11.335109893539858"><ele>519.0</ele><time>2026-04-12T17:03:09Z</time></trkpt><trkpt lat="43.5373866233002" lon="11.335004979950668"><ele>517.5</ele><time>2026-04-12T17:03:10Z</time></trkpt><trkpt lat="43.53736131736822" lon="11.334823467336596"><ele>516.0</ele><time>2026-04-12T17:03:12Z</time></trkpt><trkpt lat="43.53733738094519" lon="11.33474196165847"><ele>514.8</ele><time>2026-04-12T17:03:13Z</time></trkpt><trkpt lat="43.537335597174106" lon="11.334642339994286"><ele>513.6</ele><time>2026-04-12T17:03:14Z</time></trkpt><trkpt lat="43.537375263434875" lon="11.33450951916257"><ele>512.4</ele><time>2026-04-12T17:03:15Z</time></trkpt><trkpt lat="43.53739797338226" lon="11.334333554590412"><ele>511.2</ele><time>2026-04-12T17:03:16Z</time></trkpt><trkpt lat="43.5374088914267" lon="11.334150489579496"><ele>510.0</ele><time>2026-04-12T17:03:17Z</time></trkpt><trkpt lat="43.537432377139226" lon="11.333990543188202"><ele>509.6</ele><time>2026-04-12T17:03:18Z</time></trkpt><trkpt lat="43.53742578361707" lon="11.333858871221324"><ele>509.2</ele><time>2026-04-12T17:03:19Z</time></trkpt><trkpt lat="43.53741380660545" lon="11.3337255578823"><ele>508.79999999999995</ele><time>2026-04-12T17:03:20Z</time></trkpt><trkpt lat="43.53741193326407" lon="11.333585122976052"><ele>508.4</ele><time>2026-04-12T17:03:20.999Z</time></trkpt><trkpt lat="43.5373845695321" lon="11.333444872526268"><ele>508.0</ele><time>2026-04-12T17:03:21.999Z</time></trkpt><trkpt lat="43.5373982554495" lon="11.333289318684265"><ele>508.0</ele><time>2026-04-12T17:03:22.999Z</time></trkpt><trkpt lat="43.53743035977321" lon="11.333114684886171"><ele>508.0</ele><time>2026-04-12T17:03:23.999Z</time></trkpt><trkpt lat="43.537476032213846" lon="11.332937471573443"><ele>508.0</ele><time>2026-04-12T17:03:24.999Z</time></trkpt><trkpt lat="43.537522096516206" lon="11.33276546558702"><ele>508.0</ele><time>2026-04-12T17:03:25.999Z</time></trkpt><trkpt lat="43.53757818212565" lon="11.33259273708373"><ele>508.25</ele><time>2026-04-12T17:03:26.999Z</time></trkpt><trkpt lat="43.537633230160786" lon="11.332439117757463"><ele>508.5</ele><time>2026-04-12T17:03:27.999Z</time></trkpt><trkpt lat="43.537692229230764" lon="11.332299650356362"><ele>508.75</ele><time>2026-04-12T17:03:28.999Z</time></trkpt><trkpt lat="43.537771070402" lon="11.332164926514288"><ele>509.0</ele><time>2026-04-12T17:03:29.999Z</time></trkpt><trkpt lat="43.53786131767433" lon="11.33202891684359"><ele>510.0</ele><time>2026-04-12T17:03:30.999Z</time></trkpt><trkpt lat="43.53794566673743" lon="11.331900391215823"><ele>511.0</ele><time>2026-04-12T17:03:31.999Z</time></trkpt><trkpt lat="43.538010168640554" lon="11.33178259819576"><ele>512.0</ele><time>2026-04-12T17:03:32.999Z</time></trkpt><trkpt lat="43.53805779682434" lon="11.33166068212824"><ele>513.0</ele><time>2026-04-12T17:03:33.999Z</time></trkpt><trkpt lat="43.53809044992664" lon="11.331525394343087"><ele>514.0</ele><time>2026-04-12T17:03:34.999Z</time></trkpt><trkpt lat="43.53813803049305" lon="11.33139992788193"><ele>514.8</ele><time>2026-04-12T17:03:35.999Z</time></trkpt><trkpt lat="43.53815559527717" lon="11.33125543093002"><ele>515.5999999999999</ele><time>2026-04-12T17:03:36.999Z</time></trkpt><trkpt lat="43.538143017876614" lon="11.33111433131993"><ele>516.4</ele><time>2026-04-12T17:03:37.999Z</time></trkpt><trkpt lat="43.53813500376759" lon="11.330981060516194"><ele>517.1999999999999</ele><time>2026-04-12T17:03:38.999Z</time></trkpt><trkpt lat="43.53812391775026" lon="11.330868526664853"><ele>518.0</ele><time>2026-04-12T17:03:39.999Z</time></trkpt><trkpt lat="43.53811985298376" lon="11.330772977984532"><ele>518.0</ele><time>2026-04-12T17:03:40.999Z</time></trkpt><trkpt lat="43.53811412628073" lon="11.330668198409237"><ele>518.0</ele><time>2026-04-12T17:03:42.999Z</time></trkpt><trkpt lat="43.53809951377298" lon="11.330840087033048"><ele>518.0</ele><time>2026-04-12T17:03:49.999Z</time></trkpt><trkpt lat="43.53811192813079" lon="11.330954864662733"><ele>518.0</ele><time>2026-04-12T17:03:50.999Z</time></trkpt><trkpt lat="43.53812044043542" lon="11.33111261160701"><ele>518.0</ele><time>2026-04-12T17:03:51.999Z</time></trkpt><trkpt lat="43.53812591463519" lon="11.33127748576327"><ele>517.1999999999999</ele><time>2026-04-12T17:03:52.999Z</time></trkpt><trkpt lat="43.538115028023334" lon="11.331411628324663"><ele>516.4</ele><time>2026-04-12T17:03:53.999Z</time></trkpt><trkpt lat="43.53808026565158" lon="11.331500501262305"><ele>515.5999999999999</ele><time>2026-04-12T17:03:54.999Z</time></trkpt><trkpt lat="43.53819517296741" lon="11.331611306575962"><ele>514.8</ele><time>2026-04-12T17:03:58.999Z</time></trkpt><trkpt lat="43.53825347014508" lon="11.331524167189917"><ele>514.0</ele><time>2026-04-12T17:04:00.999Z</time></trkpt><trkpt lat="43.53829506205428" lon="11.331451214531219"><ele>514.8</ele><time>2026-04-12T17:04:02.999Z</time></trkpt><trkpt lat="43.538364610788896" lon="11.331387678647424"><ele>515.5999999999999</ele><time>2026-04-12T17:04:05Z</time></trkpt><trkpt lat="43.53841659903885" lon="11.331285810499555"><ele>516.4</ele><time>2026-04-12T17:04:08Z</time></trkpt><trkpt lat="43.53842129726019" lon="11.331180952751692"><ele>517.1999999999999</ele><time>2026-04-12T17:04:10Z</time></trkpt><trkpt lat="43.53846761459297" lon="11.33105277402066"><ele>518.0</ele><time>2026-04-12T17:04:12Z</time></trkpt><trkpt lat="43.538534005520205" lon="11.330921388493906"><ele>518.0</ele><time>2026-04-12T17:04:14Z</time></trkpt><trkpt lat="43.53855071193935" lon="11.330790318737385"><ele>518.0</ele><time>2026-04-12T17:04:16Z</time></trkpt><trkpt lat="43.53856172527774" lon="11.330661719456755"><ele>518.0</ele><time>2026-04-12T17:04:18Z</time></trkpt><trkpt lat="43.538616312076655" lon="11.330613588544377"><ele>518.0</ele><time>2026-04-12T17:04:20Z</time></trkpt><trkpt lat="43.53855937426395" lon="11.330687162958213"><ele>518.0</ele><time>2026-04-12T17:04:27Z</time></trkpt><trkpt lat="43.53854600627504" lon="11.330842616993836"><ele>518.0</ele><time>2026-04-12T17:04:29Z</time></trkpt><trkpt lat="43.53853252882847" lon="11.330945710124183"><ele>518.0</ele><time>2026-04-12T17:04:30Z</time></trkpt><trkpt lat="43.53850280215192" lon="11.331032274183734"><ele>518.0</ele><time>2026-04-12T17:04:31Z</time></trkpt><trkpt lat="43.53842850983088" lon="11.331161499474899"><ele>518.0</ele><time>2026-04-12T17:04:33Z</time></trkpt><trkpt lat="43.53838560939113" lon="11.331291317965098"><ele>518.0</ele><time>2026-04-12T17:04:35Z</time></trkpt><trkpt lat="43.53832218280568" lon="11.331368833856628"><ele>518.0</ele><time>2026-04-12T17:04:38Z</time></trkpt><trkpt lat="43.53830352071615" lon="11.331465582236168"><ele>517.3333333333333</ele><time>2026-04-12T17:06:05.999Z</time></trkpt><trkpt lat="43.538253770018024" lon="11.331574142725186"><ele>516.6666666666666</ele><time>2026-04-12T17:06:07.999Z</time></trkpt><trkpt lat="43.53819546106109" lon="11.331651537777123"><ele>516.0</ele><time>2026-04-12T17:06:11Z</time></trkpt><trkpt lat="43.53814611516165" lon="11.331710501210793"><ele>515.3333333333334</ele><time>2026-04-12T17:06:15Z</time></trkpt><trkpt lat="43.53812331511081" lon="11.331616086444463"><ele>514.6666666666667</ele><time>2026-04-12T17:06:18Z</time></trkpt><trkpt lat="43.53817963015317" lon="11.33156853759159"><ele>514.0</ele><time>2026-04-12T17:06:20Z</time></trkpt><trkpt lat="43.538249578627635" lon="11.331488589469274"><ele>514.0</ele><time>2026-04-12T17:06:23Z</time></trkpt><trkpt lat="43.538316902856444" lon="11.33139150311514"><ele>514.0</ele><time>2026-04-12T17:06:25Z</time></trkpt><trkpt lat="43.53838065958773" lon="11.33132275597089"><ele>514.0</ele><time>2026-04-12T17:06:27Z</time></trkpt><trkpt lat="43.538422754336516" lon="11.331221953320346"><ele>514.0</ele><time>2026-04-12T17:06:30Z</time></trkpt><trkpt lat="43.53833748879908" lon="11.331167264462373"><ele>514.0</ele><time>2026-04-12T17:06:32Z</time></trkpt><trkpt lat="43.53833401372629" lon="11.331273970276193"><ele>514.0</ele><time>2026-04-12T17:06:34Z</time></trkpt><trkpt lat="43.53834730101798" lon="11.331379045248333"><ele>514.0</ele><time>2026-04-12T17:06:37Z</time></trkpt><trkpt lat="43.53829384925611" lon="11.331478761153212"><ele>514.0</ele><time>2026-04-12T17:07:06Z</time></trkpt><trkpt lat="43.53821391534048" lon="11.331500007624667"><ele>514.0</ele><time>2026-04-12T17:07:08Z</time></trkpt><trkpt lat="43.53815820762116" lon="11.331542587263586"><ele>514.0</ele><time>2026-04-12T17:07:10Z</time></trkpt><trkpt lat="43.538223307151036" lon="11.331595243854066"><ele>514.0</ele><time>2026-04-12T17:07:13Z</time></trkpt><trkpt lat="43.53826117478394" lon="11.331513347044558"><ele>514.0</ele><time>2026-04-12T17:07:15Z</time></trkpt><trkpt lat="43.53830992550562" lon="11.331373531566497"><ele>514.0</ele><time>2026-04-12T17:07:17Z</time></trkpt><trkpt lat="43.53839818661072" lon="11.331269993516793"><ele>514.0</ele><time>2026-04-12T17:07:19Z</time></trkpt><trkpt lat="43.5384112391929" lon="11.33116165878281"><ele>514.0</ele><time>2026-04-12T17:07:21Z</time></trkpt><trkpt lat="43.53833175850054" lon="11.331199329255213"><ele>514.0</ele><time>2026-04-12T17:07:23Z</time></trkpt><trkpt lat="43.5383010470734" lon="11.331324765397554"><ele>514.0</ele><time>2026-04-12T17:07:25Z</time></trkpt><trkpt lat="43.5382697695171" lon="11.331406304526997"><ele>514.0</ele><time>2026-04-12T17:07:27Z</time></trkpt><trkpt lat="43.53828085896863" lon="11.331503924595632"><ele>514.0</ele><time>2026-04-12T17:07:29.999Z</time></trkpt><trkpt lat="43.538228005938024" lon="11.33161021052589"><ele>514.0</ele><time>2026-04-12T17:07:31.999Z</time></trkpt><trkpt lat="43.538168950773446" lon="11.331644304387336"><ele>514.0</ele><time>2026-04-12T17:07:32.999Z</time></trkpt><trkpt lat="43.538099132298775" lon="11.33159263513823"><ele>514.0</ele><time>2026-04-12T17:07:34.999Z</time></trkpt><trkpt lat="43.538126776884454" lon="11.33142176668472"><ele>514.0</ele><time>2026-04-12T17:07:36.999Z</time></trkpt><trkpt lat="43.53814312180249" lon="11.331301439138658"><ele>514.8</ele><time>2026-04-12T17:07:37.999Z</time></trkpt><trkpt lat="43.538145088987335" lon="11.331175749643743"><ele>515.5999999999999</ele><time>2026-04-12T17:07:38.999Z</time></trkpt><trkpt lat="43.53813249039485" lon="11.331032881749929"><ele>516.4</ele><time>2026-04-12T17:07:39.999Z</time></trkpt><trkpt lat="43.538120143191314" lon="11.330883189420753"><ele>517.1999999999999</ele><time>2026-04-12T17:07:40.999Z</time></trkpt><trkpt lat="43.53810852884615" lon="11.330709957374829"><ele>518.0</ele><time>2026-04-12T17:07:41.999Z</time></trkpt><trkpt lat="43.53809417887158" lon="11.330530386024794"><ele>519.75</ele><time>2026-04-12T17:07:42.999Z</time></trkpt><trkpt lat="43.53807936974259" lon="11.33035203125725"><ele>521.5</ele><time>2026-04-12T17:07:43.999Z</time></trkpt><trkpt lat="43.53806633800687" lon="11.330184400310435"><ele>523.25</ele><time>2026-04-12T17:07:44.999Z</time></trkpt><trkpt lat="43.5380527697048" lon="11.33002279050845"><ele>525.0</ele><time>2026-04-12T17:07:45.999Z</time></trkpt><trkpt lat="43.538032467997446" lon="11.329851987423618"><ele>525.75</ele><time>2026-04-12T17:07:46.999Z</time></trkpt><trkpt lat="43.538010224245944" lon="11.32968788706142"><ele>526.5</ele><time>2026-04-12T17:07:47.999Z</time></trkpt><trkpt lat="43.53799400485533" lon="11.329526549788259"><ele>527.25</ele><time>2026-04-12T17:07:48.999Z</time></trkpt><trkpt lat="43.537988326837755" lon="11.329356089945394"><ele>528.0</ele><time>2026-04-12T17:07:49.999Z</time></trkpt><trkpt lat="43.53798965814298" lon="11.329186400073045"><ele>528.0</ele><time>2026-04-12T17:07:50.999Z</time></trkpt><trkpt lat="43.537997829839064" lon="11.329010449658233"><ele>528.0</ele><time>2026-04-12T17:07:51.999Z</time></trkpt><trkpt lat="43.53801339231327" lon="11.328853743287727"><ele>528.0</ele><time>2026-04-12T17:07:52.999Z</time></trkpt><trkpt lat="43.53803640745244" lon="11.328700613622773"><ele>528.0</ele><time>2026-04-12T17:07:53.999Z</time></trkpt><trkpt lat="43.53806964133184" lon="11.328559540427177"><ele>526.8</ele><time>2026-04-12T17:07:54.999Z</time></trkpt><trkpt lat="43.538119099170586" lon="11.328437204493083"><ele>525.5999999999999</ele><time>2026-04-12T17:07:55.999Z</time></trkpt><trkpt lat="43.53818949974634" lon="11.328327539835058"><ele>524.4000000000001</ele><time>2026-04-12T17:07:56.999Z</time></trkpt><trkpt lat="43.53826490758722" lon="11.328222889781076"><ele>523.2</ele><time>2026-04-12T17:07:57.999Z</time></trkpt><trkpt lat="43.53833066479985" lon="11.328119768324378"><ele>522.0</ele><time>2026-04-12T17:07:58.999Z</time></trkpt><trkpt lat="43.5383994063063" lon="11.328006843802946"><ele>522.6</ele><time>2026-04-12T17:07:59.999Z</time></trkpt><trkpt lat="43.53847190614844" lon="11.327890961802385"><ele>523.2</ele><time>2026-04-12T17:08:00.999Z</time></trkpt><trkpt lat="43.53854323315504" lon="11.327775650745338"><ele>523.8</ele><time>2026-04-12T17:08:01.999Z</time></trkpt><trkpt lat="43.538611012655366" lon="11.327651334903642"><ele>524.4</ele><time>2026-04-12T17:08:02.999Z</time></trkpt><trkpt lat="43.538682723054336" lon="11.327531942520471"><ele>525.0</ele><time>2026-04-12T17:08:03.999Z</time></trkpt><trkpt lat="43.538720158646086" lon="11.327381468141656"><ele>525.0</ele><time>2026-04-12T17:08:04.999Z</time></trkpt><trkpt lat="43.538773793479216" lon="11.327254535059314"><ele>525.0</ele><time>2026-04-12T17:08:05.999Z</time></trkpt><trkpt lat="43.538788270227464" lon="11.327105915322202"><ele>525.0</ele><time>2026-04-12T17:08:06.999Z</time></trkpt><trkpt lat="43.53880555401319" lon="11.32696355702926"><ele>525.0</ele><time>2026-04-12T17:08:07.999Z</time></trkpt><trkpt lat="43.538799607405544" lon="11.326818938323719"><ele>525.0</ele><time>2026-04-12T17:08:08.999Z</time></trkpt><trkpt lat="43.538775434526045" lon="11.326681059519133"><ele>524.0</ele><time>2026-04-12T17:08:09.999Z</time></trkpt><trkpt lat="43.53874231330569" lon="11.32656054157842"><ele>523.0</ele><time>2026-04-12T17:08:10.999Z</time></trkpt><trkpt lat="43.538710168600126" lon="11.326430036836836"><ele>522.0</ele><time>2026-04-12T17:08:11.999Z</time></trkpt><trkpt lat="43.53868185788787" lon="11.32628840470679"><ele>521.0</ele><time>2026-04-12T17:08:12.999Z</time></trkpt><trkpt lat="43.53866290521607" lon="11.326138871182664"><ele>520.0</ele><time>2026-04-12T17:08:13.999Z</time></trkpt><trkpt lat="43.538653810640724" lon="11.325988339677782"><ele>517.25</ele><time>2026-04-12T17:08:14.999Z</time></trkpt><trkpt lat="43.538657486097286" lon="11.325839977462563"><ele>514.5</ele><time>2026-04-12T17:08:15.999Z</time></trkpt><trkpt lat="43.538681280111796" lon="11.325692359648286"><ele>511.75</ele><time>2026-04-12T17:08:17Z</time></trkpt><trkpt lat="43.53872145711456" lon="11.325539095119188"><ele>509.0</ele><time>2026-04-12T17:08:18Z</time></trkpt><trkpt lat="43.538767643739696" lon="11.325387965062712"><ele>509.0</ele><time>2026-04-12T17:08:19Z</time></trkpt><trkpt lat="43.53881956884464" lon="11.325235850054822"><ele>509.0</ele><time>2026-04-12T17:08:20Z</time></trkpt><trkpt lat="43.53887055663324" lon="11.325081222889349"><ele>509.0</ele><time>2026-04-12T17:08:21Z</time></trkpt><trkpt lat="43.53892818264239" lon="11.324913911514928"><ele>509.0</ele><time>2026-04-12T17:08:22Z</time></trkpt><trkpt lat="43.53901068988177" lon="11.324725881407147"><ele>507.66666666666663</ele><time>2026-04-12T17:08:23Z</time></trkpt><trkpt lat="43.539060147026305" lon="11.32451201753238"><ele>506.33333333333337</ele><time>2026-04-12T17:08:24Z</time></trkpt><trkpt lat="43.53912923944404" lon="11.324296523647025"><ele>505.0</ele><time>2026-04-12T17:08:25Z</time></trkpt><trkpt lat="43.53923912883392" lon="11.324117859476418"><ele>505.0</ele><time>2026-04-12T17:08:26Z</time></trkpt><trkpt lat="43.53932806441738" lon="11.323944044888064"><ele>505.0</ele><time>2026-04-12T17:08:27Z</time></trkpt><trkpt lat="43.539398058761165" lon="11.323788496584699"><ele>505.0</ele><time>2026-04-12T17:08:28Z</time></trkpt><trkpt lat="43.539464627253146" lon="11.32363833056186"><ele>505.0</ele><time>2026-04-12T17:08:29Z</time></trkpt><trkpt lat="43.53952585439746" lon="11.323511521199574"><ele>504.2</ele><time>2026-04-12T17:08:30Z</time></trkpt><trkpt lat="43.53958576891275" lon="11.323389256148504"><ele>503.4</ele><time>2026-04-12T17:08:31Z</time></trkpt><trkpt lat="43.53964127252457" lon="11.323271906737991"><ele>502.6</ele><time>2026-04-12T17:08:32Z</time></trkpt><trkpt lat="43.539697244768426" lon="11.323157617446881"><ele>501.8</ele><time>2026-04-12T17:08:33Z</time></trkpt><trkpt lat="43.53976636404007" lon="11.32306001524341"><ele>501.0</ele><time>2026-04-12T17:08:34Z</time></trkpt><trkpt lat="43.539841309489645" lon="11.322967435251833"><ele>503.6</ele><time>2026-04-12T17:08:35Z</time></trkpt><trkpt lat="43.53991413410797" lon="11.32288213132819"><ele>506.20000000000005</ele><time>2026-04-12T17:08:36Z</time></trkpt><trkpt lat="43.539992126316214" lon="11.322786602445682"><ele>508.79999999999995</ele><time>2026-04-12T17:08:37Z</time></trkpt><trkpt lat="43.540078471456304" lon="11.322725613031684"><ele>511.4</ele><time>2026-04-12T17:08:38Z</time></trkpt><trkpt lat="43.540139991564125" lon="11.322646829143974"><ele>514.0</ele><time>2026-04-12T17:08:39Z</time></trkpt><trkpt lat="43.540192330672774" lon="11.322534870359243"><ele>514.0</ele><time>2026-04-12T17:08:40Z</time></trkpt><trkpt lat="43.54022545751961" lon="11.322411125712865"><ele>514.0</ele><time>2026-04-12T17:08:41Z</time></trkpt><trkpt lat="43.54025150875303" lon="11.322280743032945"><ele>514.0</ele><time>2026-04-12T17:08:42Z</time></trkpt><trkpt lat="43.540280388750936" lon="11.322145228798224"><ele>514.0</ele><time>2026-04-12T17:08:43Z</time></trkpt><trkpt lat="43.540323471095675" lon="11.32200572721793"><ele>514.0</ele><time>2026-04-12T17:08:44Z</time></trkpt><trkpt lat="43.54037731693165" lon="11.32187127270766"><ele>511.75</ele><time>2026-04-12T17:08:45Z</time></trkpt><trkpt lat="43.540444314749315" lon="11.32174620612039"><ele>509.5</ele><time>2026-04-12T17:08:46Z</time></trkpt><trkpt lat="43.54051967452207" lon="11.321611666681548"><ele>507.25</ele><time>2026-04-12T17:08:47Z</time></trkpt><trkpt lat="43.540593689923675" lon="11.321458052614688"><ele>505.0</ele><time>2026-04-12T17:08:48Z</time></trkpt><trkpt lat="43.54066205119284" lon="11.321293507031005"><ele>505.0</ele><time>2026-04-12T17:08:49Z</time></trkpt><trkpt lat="43.540725729760084" lon="11.321140232539575"><ele>505.0</ele><time>2026-04-12T17:08:50Z</time></trkpt><trkpt lat="43.54078609871512" lon="11.32099335526753"><ele>505.0</ele><time>2026-04-12T17:08:51Z</time></trkpt><trkpt lat="43.540839700830446" lon="11.32084229240483"><ele>505.0</ele><time>2026-04-12T17:08:52Z</time></trkpt><trkpt lat="43.54089580143629" lon="11.320696011388296"><ele>503.75</ele><time>2026-04-12T17:08:53Z</time></trkpt><trkpt lat="43.54096064980146" lon="11.320561647903617"><ele>502.5</ele><time>2026-04-12T17:08:54Z</time></trkpt><trkpt lat="43.54104409704238" lon="11.320448641627964"><ele>501.25</ele><time>2026-04-12T17:08:55Z</time></trkpt><trkpt lat="43.54112934047662" lon="11.320348439004258"><ele>500.0</ele><time>2026-04-12T17:08:56Z</time></trkpt><trkpt lat="43.54121647731594" lon="11.320248437996508"><ele>499.0</ele><time>2026-04-12T17:08:57Z</time></trkpt><trkpt lat="43.5412943179551" lon="11.320132602153192"><ele>498.0</ele><time>2026-04-12T17:08:58Z</time></trkpt><trkpt lat="43.54139519675859" lon="11.32005643947965"><ele>497.0</ele><time>2026-04-12T17:08:59Z</time></trkpt><trkpt lat="43.54147008911166" lon="11.319957478359077"><ele>496.0</ele><time>2026-04-12T17:09:00Z</time></trkpt><trkpt lat="43.541554937626685" lon="11.319878274354762"><ele>495.0</ele><time>2026-04-12T17:09:01Z</time></trkpt><trkpt lat="43.541636006643095" lon="11.319791723415703"><ele>494.6</ele><time>2026-04-12T17:09:02Z</time></trkpt><trkpt lat="43.54171746060983" lon="11.319711792214838"><ele>494.2</ele><time>2026-04-12T17:09:03Z</time></trkpt><trkpt lat="43.54180804783779" lon="11.31964400255929"><ele>493.79999999999995</ele><time>2026-04-12T17:09:04Z</time></trkpt><trkpt lat="43.54189420304341" lon="11.319553683326538"><ele>493.4</ele><time>2026-04-12T17:09:05Z</time></trkpt><trkpt lat="43.54198530279182" lon="11.319456652603359"><ele>493.0</ele><time>2026-04-12T17:09:06Z</time></trkpt><trkpt lat="43.54207955643733" lon="11.319358375456902"><ele>492.25</ele><time>2026-04-12T17:09:07Z</time></trkpt><trkpt lat="43.54217771630269" lon="11.3192560471969"><ele>491.5</ele><time>2026-04-12T17:09:08Z</time></trkpt><trkpt lat="43.542283296052524" lon="11.3191459839582"><ele>490.75</ele><time>2026-04-12T17:09:09Z</time></trkpt><trkpt lat="43.54238698287592" lon="11.319037894023596"><ele>490.0</ele><time>2026-04-12T17:09:10Z</time></trkpt><trkpt lat="43.542490003483564" lon="11.318929768751175"><ele>489.5</ele><time>2026-04-12T17:09:11Z</time></trkpt><trkpt lat="43.54258902891815" lon="11.318822657572051"><ele>489.0</ele><time>2026-04-12T17:09:12Z</time></trkpt><trkpt lat="43.54268630134423" lon="11.318717864876355"><ele>488.5</ele><time>2026-04-12T17:09:13Z</time></trkpt><trkpt lat="43.54278815026451" lon="11.318610309546179"><ele>488.0</ele><time>2026-04-12T17:09:14Z</time></trkpt><trkpt lat="43.54288474221243" lon="11.318509061429301"><ele>488.0</ele><time>2026-04-12T17:09:15Z</time></trkpt><trkpt lat="43.5429749822813" lon="11.31841043308904"><ele>487.99999999999994</ele><time>2026-04-12T17:09:16Z</time></trkpt><trkpt lat="43.54305561844826" lon="11.3183061710224"><ele>487.99999999999994</ele><time>2026-04-12T17:09:17Z</time></trkpt><trkpt lat="43.54310937583907" lon="11.318180910118713"><ele>488.0</ele><time>2026-04-12T17:09:18Z</time></trkpt><trkpt lat="43.543171901811405" lon="11.31807597267475"><ele>488.0</ele><time>2026-04-12T17:09:19Z</time></trkpt><trkpt lat="43.54321769586899" lon="11.31798803164903"><ele>488.4</ele><time>2026-04-12T17:09:20Z</time></trkpt><trkpt lat="43.543259486602125" lon="11.317846076836714"><ele>488.79999999999995</ele><time>2026-04-12T17:09:22Z</time></trkpt><trkpt lat="43.54315052294658" lon="11.317768507655671"><ele>489.2</ele><time>2026-04-12T17:09:23Z</time></trkpt><trkpt lat="43.54311341400053" lon="11.317668918358915"><ele>489.6</ele><time>2026-04-12T17:09:24Z</time></trkpt><trkpt lat="43.54301635226376" lon="11.317651536949139"><ele>490.0</ele><time>2026-04-12T17:09:25Z</time></trkpt><trkpt lat="43.54291035894804" lon="11.317638460501522"><ele>488.0</ele><time>2026-04-12T17:09:26Z</time></trkpt><trkpt lat="43.54281369267409" lon="11.317644774070352"><ele>486.0</ele><time>2026-04-12T17:09:27Z</time></trkpt><trkpt lat="43.5427262419494" lon="11.317624526925627"><ele>484.0</ele><time>2026-04-12T17:09:28Z</time></trkpt><trkpt lat="43.54264459126622" lon="11.317794269228422"><ele>482.0</ele><time>2026-04-12T17:09:29Z</time></trkpt><trkpt lat="43.54256830728798" lon="11.317892878362109"><ele>480.0</ele><time>2026-04-12T17:09:29.999Z</time></trkpt><trkpt lat="43.54249228291314" lon="11.317971581957728"><ele>480.0</ele><time>2026-04-12T17:09:30.999Z</time></trkpt><trkpt lat="43.542418962739184" lon="11.318032799420182"><ele>480.0</ele><time>2026-04-12T17:09:31.999Z</time></trkpt><trkpt lat="43.54234138035039" lon="11.318093156584945"><ele>480.0</ele><time>2026-04-12T17:09:32.999Z</time></trkpt><trkpt lat="43.542261021621194" lon="11.318122972482517"><ele>480.0</ele><time>2026-04-12T17:09:33.999Z</time></trkpt><trkpt lat="43.542180791441375" lon="11.318122472212616"><ele>480.0</ele><time>2026-04-12T17:09:34.999Z</time></trkpt><trkpt lat="43.542100383270515" lon="11.318112565227564"><ele>480.0</ele><time>2026-04-12T17:09:35.999Z</time></trkpt><trkpt lat="43.54202032066166" lon="11.318079543669608"><ele>478.5</ele><time>2026-04-12T17:09:36.999Z</time></trkpt><trkpt lat="43.54191128179256" lon="11.317984630098728"><ele>477.0</ele><time>2026-04-12T17:09:37.999Z</time></trkpt><trkpt lat="43.5417833801363" lon="11.3179157878463"><ele>475.5</ele><time>2026-04-12T17:09:38.999Z</time></trkpt><trkpt lat="43.54166717333804" lon="11.317808558515742"><ele>474.0</ele><time>2026-04-12T17:09:39.999Z</time></trkpt><trkpt lat="43.54155450331045" lon="11.317735783541343"><ele>474.0</ele><time>2026-04-12T17:09:40.999Z</time></trkpt><trkpt lat="43.54144199242528" lon="11.317685183721892"><ele>474.0</ele><time>2026-04-12T17:09:41.999Z</time></trkpt><trkpt lat="43.541328358528474" lon="11.317658207871528"><ele>474.0</ele><time>2026-04-12T17:09:42.999Z</time></trkpt><trkpt lat="43.54121444358733" lon="11.31764902917175"><ele>474.0</ele><time>2026-04-12T17:09:43.999Z</time></trkpt><trkpt lat="43.541098428677415" lon="11.317645598060487"><ele>473.0</ele><time>2026-04-12T17:09:44.999Z</time></trkpt><trkpt lat="43.54098587417228" lon="11.317641924532255"><ele>472.0</ele><time>2026-04-12T17:09:45.999Z</time></trkpt><trkpt lat="43.54088338348473" lon="11.317635529914067"><ele>471.0</ele><time>2026-04-12T17:09:46.999Z</time></trkpt><trkpt lat="43.540783757678696" lon="11.31763020573727"><ele>470.0</ele><time>2026-04-12T17:09:47.999Z</time></trkpt><trkpt lat="43.54068119034929" lon="11.317618788919273"><ele>469.0</ele><time>2026-04-12T17:09:48.999Z</time></trkpt><trkpt lat="43.5405849330585" lon="11.317608868620045"><ele>469.00000000000006</ele><time>2026-04-12T17:09:49.999Z</time></trkpt><trkpt lat="43.540493826762805" lon="11.317602699778059"><ele>469.0</ele><time>2026-04-12T17:09:50.999Z</time></trkpt><trkpt lat="43.540410982102614" lon="11.317581014559947"><ele>469.0</ele><time>2026-04-12T17:09:51.999Z</time></trkpt><trkpt lat="43.54034369627125" lon="11.317536893056623"><ele>469.0</ele><time>2026-04-12T17:09:52.999Z</time></trkpt><trkpt lat="43.54029322302003" lon="11.317457040299436"><ele>469.00000000000006</ele><time>2026-04-12T17:09:53.999Z</time></trkpt><trkpt lat="43.54022871254923" lon="11.317398291117154"><ele>469.0</ele><time>2026-04-12T17:09:54.999Z</time></trkpt><trkpt lat="43.54017159537333" lon="11.317271690992568"><ele>467.2</ele><time>2026-04-12T17:09:56.999Z</time></trkpt><trkpt lat="43.54018200799403" lon="11.317168212522567"><ele>465.4</ele><time>2026-04-12T17:10:00.999Z</time></trkpt><trkpt lat="43.54010594546476" lon="11.317226584498028"><ele>463.6</ele><time>2026-04-12T17:10:01.999Z</time></trkpt><trkpt lat="43.54001078833412" lon="11.31728375741521"><ele>461.8</ele><time>2026-04-12T17:10:02.999Z</time></trkpt><trkpt lat="43.539906196594366" lon="11.317329083834366"><ele>460.0</ele><time>2026-04-12T17:10:03.999Z</time></trkpt><trkpt lat="43.539807503928756" lon="11.317348203648336"><ele>460.0</ele><time>2026-04-12T17:10:04.999Z</time></trkpt><trkpt lat="43.53971699531609" lon="11.317317573016707"><ele>460.0</ele><time>2026-04-12T17:10:05.999Z</time></trkpt><trkpt lat="43.539634229775714" lon="11.317270694784083"><ele>460.0</ele><time>2026-04-12T17:10:06.999Z</time></trkpt><trkpt lat="43.539561637094586" lon="11.317225323985733"><ele>460.0</ele><time>2026-04-12T17:10:07.999Z</time></trkpt><trkpt lat="43.53949758267284" lon="11.31716977635799"><ele>460.0</ele><time>2026-04-12T17:10:08.999Z</time></trkpt><trkpt lat="43.53943350607121" lon="11.31699931215468"><ele>457.2</ele><time>2026-04-12T17:10:10.999Z</time></trkpt><trkpt lat="43.539479331836205" lon="11.316883135592168"><ele>454.4</ele><time>2026-04-12T17:10:11.999Z</time></trkpt><trkpt lat="43.53959427354544" lon="11.316860029880983"><ele>451.6</ele><time>2026-04-12T17:10:12.999Z</time></trkpt><trkpt lat="43.53968668123874" lon="11.316811128657195"><ele>448.8</ele><time>2026-04-12T17:10:13.999Z</time></trkpt><trkpt lat="43.53979620269726" lon="11.316778198919692"><ele>446.0</ele><time>2026-04-12T17:10:14.999Z</time></trkpt><trkpt lat="43.53990547773474" lon="11.31674448423286"><ele>446.0</ele><time>2026-04-12T17:10:15.999Z</time></trkpt><trkpt lat="43.54000991695135" lon="11.31670956450669"><ele>446.0</ele><time>2026-04-12T17:10:16.999Z</time></trkpt><trkpt lat="43.540110162998054" lon="11.316649405646626"><ele>446.0</ele><time>2026-04-12T17:10:17.999Z</time></trkpt><trkpt lat="43.540196710283574" lon="11.316560278674132"><ele>446.0</ele><time>2026-04-12T17:10:18.999Z</time></trkpt><trkpt lat="43.54026714598557" lon="11.31645694052231"><ele>446.0</ele><time>2026-04-12T17:10:19.999Z</time></trkpt><trkpt lat="43.54032484555225" lon="11.316347266899735"><ele>444.4</ele><time>2026-04-12T17:10:20.999Z</time></trkpt><trkpt lat="43.54037959739025" lon="11.316237092621009"><ele>442.8</ele><time>2026-04-12T17:10:22Z</time></trkpt><trkpt lat="43.540440927356876" lon="11.316124565121493"><ele>441.19999999999993</ele><time>2026-04-12T17:10:23Z</time></trkpt><trkpt lat="43.54051592822528" lon="11.316020622086034"><ele>439.59999999999997</ele><time>2026-04-12T17:10:24Z</time></trkpt><trkpt lat="43.540603547700385" lon="11.315930763088453"><ele>438.0</ele><time>2026-04-12T17:10:25Z</time></trkpt><trkpt lat="43.5406882653893" lon="11.315855303012865"><ele>438.0</ele><time>2026-04-12T17:10:26Z</time></trkpt><trkpt lat="43.54077794662371" lon="11.31578976019528"><ele>437.99999999999994</ele><time>2026-04-12T17:10:27Z</time></trkpt><trkpt lat="43.540872929779376" lon="11.315741985913697"><ele>437.99999999999994</ele><time>2026-04-12T17:10:28Z</time></trkpt><trkpt lat="43.540979264922825" lon="11.315697077638593"><ele>438.0</ele><time>2026-04-12T17:10:29Z</time></trkpt><trkpt lat="43.54109527854505" lon="11.315681529359361"><ele>438.0</ele><time>2026-04-12T17:10:30Z</time></trkpt><trkpt lat="43.54120560411052" lon="11.315677611101487"><ele>438.25</ele><time>2026-04-12T17:10:31Z</time></trkpt><trkpt lat="43.54131626251362" lon="11.315721691514673"><ele>438.5</ele><time>2026-04-12T17:10:32Z</time></trkpt><trkpt lat="43.54142824786877" lon="11.315754562812447"><ele>438.75</ele><time>2026-04-12T17:10:33Z</time></trkpt><trkpt lat="43.54154771057753" lon="11.315780384419767"><ele>439.0</ele><time>2026-04-12T17:10:34Z</time></trkpt><trkpt lat="43.54166753277761" lon="11.315815488741116"><ele>439.0</ele><time>2026-04-12T17:10:35Z</time></trkpt><trkpt lat="43.5417858311889" lon="11.315814598912572"><ele>439.0</ele><time>2026-04-12T17:10:36Z</time></trkpt><trkpt lat="43.54190715153997" lon="11.315781488910147"><ele>439.0</ele><time>2026-04-12T17:10:37Z</time></trkpt><trkpt lat="43.54203337786173" lon="11.31573511662976"><ele>439.0</ele><time>2026-04-12T17:10:38Z</time></trkpt><trkpt lat="43.54216368518812" lon="11.315677630994085"><ele>438.0</ele><time>2026-04-12T17:10:39Z</time></trkpt><trkpt lat="43.54228534630596" lon="11.315619546795277"><ele>437.0</ele><time>2026-04-12T17:10:40Z</time></trkpt><trkpt lat="43.54240942127172" lon="11.315558959088296"><ele>436.0</ele><time>2026-04-12T17:10:41Z</time></trkpt><trkpt lat="43.542530728134864" lon="11.315509871520977"><ele>435.0</ele><time>2026-04-12T17:10:42Z</time></trkpt><trkpt lat="43.542658517126284" lon="11.315450798080573"><ele>435.0</ele><time>2026-04-12T17:10:43Z</time></trkpt><trkpt lat="43.542782246868654" lon="11.315390215167684"><ele>435.0</ele><time>2026-04-12T17:10:44Z</time></trkpt><trkpt lat="43.542901385830255" lon="11.315335021805664"><ele>435.0</ele><time>2026-04-12T17:10:45Z</time></trkpt><trkpt lat="43.54301662595299" lon="11.31528630262431"><ele>435.0</ele><time>2026-04-12T17:10:46Z</time></trkpt><trkpt lat="43.543129741174766" lon="11.31524692817124"><ele>438.5</ele><time>2026-04-12T17:10:47Z</time></trkpt><trkpt lat="43.54323167236872" lon="11.315169577509037"><ele>442.0</ele><time>2026-04-12T17:10:48Z</time></trkpt><trkpt lat="43.54333612018794" lon="11.315099868680887"><ele>445.5</ele><time>2026-04-12T17:10:49Z</time></trkpt><trkpt lat="43.54343944917998" lon="11.31501761532301"><ele>449.0</ele><time>2026-04-12T17:10:50Z</time></trkpt><trkpt lat="43.543535643984825" lon="11.314926096474068"><ele>449.0</ele><time>2026-04-12T17:10:51Z</time></trkpt><trkpt lat="43.54362968843698" lon="11.314836217416081"><ele>449.0</ele><time>2026-04-12T17:10:52Z</time></trkpt><trkpt lat="43.543717922363534" lon="11.31474854619442"><ele>449.0</ele><time>2026-04-12T17:10:53Z</time></trkpt><trkpt lat="43.543803777062706" lon="11.31465857526323"><ele>449.0</ele><time>2026-04-12T17:10:54Z</time></trkpt><trkpt lat="43.54388162737932" lon="11.31455349253638"><ele>449.0</ele><time>2026-04-12T17:10:55Z</time></trkpt><trkpt lat="43.543934626096316" lon="11.314422353440746"><ele>449.79999999999995</ele><time>2026-04-12T17:10:56Z</time></trkpt><trkpt lat="43.5439706013839" lon="11.31428162955728"><ele>450.59999999999997</ele><time>2026-04-12T17:10:57Z</time></trkpt><trkpt lat="43.543992768067206" lon="11.314143198801371"><ele>451.4</ele><time>2026-04-12T17:10:58Z</time></trkpt><trkpt lat="43.54399362092068" lon="11.313995566791975"><ele>452.2</ele><time>2026-04-12T17:10:59Z</time></trkpt><trkpt lat="43.543958775380474" lon="11.313848580056813"><ele>453.0</ele><time>2026-04-12T17:11:00Z</time></trkpt><trkpt lat="43.543916415297254" lon="11.313716602844806"><ele>453.0</ele><time>2026-04-12T17:11:01Z</time></trkpt><trkpt lat="43.54387396321915" lon="11.313582863100812"><ele>452.99999999999994</ele><time>2026-04-12T17:11:02Z</time></trkpt><trkpt lat="43.5438524660158" lon="11.313439876030296"><ele>452.99999999999994</ele><time>2026-04-12T17:11:03Z</time></trkpt><trkpt lat="43.543809473526714" lon="11.313312294342454"><ele>453.0</ele><time>2026-04-12T17:11:04Z</time></trkpt><trkpt lat="43.54378036934812" lon="11.313184351741114"><ele>453.0</ele><time>2026-04-12T17:11:05Z</time></trkpt><trkpt lat="43.54378613866979" lon="11.31305929536538"><ele>452.0</ele><time>2026-04-12T17:11:06Z</time></trkpt><trkpt lat="43.54383942083875" lon="11.312940417388562"><ele>450.99999999999994</ele><time>2026-04-12T17:11:07Z</time></trkpt><trkpt lat="43.543929903120684" lon="11.312855158961376"><ele>449.99999999999994</ele><time>2026-04-12T17:11:08Z</time></trkpt><trkpt lat="43.54402039513149" lon="11.312766717923651"><ele>449.0</ele><time>2026-04-12T17:11:09Z</time></trkpt><trkpt lat="43.54410557300047" lon="11.312668027453926"><ele>448.0</ele><time>2026-04-12T17:11:10Z</time></trkpt><trkpt lat="43.54419035412633" lon="11.312585554742595"><ele>448.0</ele><time>2026-04-12T17:11:11Z</time></trkpt><trkpt lat="43.54428066643162" lon="11.312499457394289"><ele>447.99999999999994</ele><time>2026-04-12T17:11:12Z</time></trkpt><trkpt lat="43.54436812050379" lon="11.312407830392868"><ele>447.99999999999994</ele><time>2026-04-12T17:11:13Z</time></trkpt><trkpt lat="43.54445697933187" lon="11.312324758996004"><ele>448.0</ele><time>2026-04-12T17:11:14Z</time></trkpt><trkpt lat="43.54454265411608" lon="11.312233900748987"><ele>448.0</ele><time>2026-04-12T17:11:15Z</time></trkpt><trkpt lat="43.544626704685534" lon="11.312141754416563"><ele>448.4</ele><time>2026-04-12T17:11:16Z</time></trkpt><trkpt lat="43.544721820223714" lon="11.312071841561819"><ele>448.79999999999995</ele><time>2026-04-12T17:11:17Z</time></trkpt><trkpt lat="43.54479783970681" lon="11.311973258555403"><ele>449.2</ele><time>2026-04-12T17:11:18Z</time></trkpt><trkpt lat="43.544882211571895" lon="11.311887170144868"><ele>449.6</ele><time>2026-04-12T17:11:19Z</time></trkpt><trkpt lat="43.54495628198338" lon="11.31180058296546"><ele>450.0</ele><time>2026-04-12T17:11:20Z</time></trkpt><trkpt lat="43.5450192061717" lon="11.311701382607845"><ele>450.0</ele><time>2026-04-12T17:11:21Z</time></trkpt><trkpt lat="43.54507169574213" lon="11.311588471495625"><ele>450.0</ele><time>2026-04-12T17:11:22Z</time></trkpt><trkpt lat="43.54511001453037" lon="11.311455445596133"><ele>450.0</ele><time>2026-04-12T17:11:23Z</time></trkpt><trkpt lat="43.54514331380592" lon="11.311326786624031"><ele>450.0</ele><time>2026-04-12T17:11:24Z</time></trkpt><trkpt lat="43.5451686701818" lon="11.311197050303027"><ele>450.0</ele><time>2026-04-12T17:11:25Z</time></trkpt><trkpt lat="43.54518818277767" lon="11.31106473194863"><ele>449.6666666666667</ele><time>2026-04-12T17:11:26Z</time></trkpt><trkpt lat="43.54521136029097" lon="11.310934717132728"><ele>449.33333333333337</ele><time>2026-04-12T17:11:27Z</time></trkpt><trkpt lat="43.5452351162504" lon="11.310810343090894"><ele>449.0</ele><time>2026-04-12T17:11:28Z</time></trkpt><trkpt lat="43.545254638659536" lon="11.31068470322062"><ele>448.6666666666667</ele><time>2026-04-12T17:11:29Z</time></trkpt><trkpt lat="43.54527277642698" lon="11.310578947759874"><ele>448.33333333333337</ele><time>2026-04-12T17:11:29.999Z</time></trkpt><trkpt lat="43.54530087334209" lon="11.310489824271249"><ele>448.0</ele><time>2026-04-12T17:11:30.999Z</time></trkpt><trkpt lat="43.5453997953295" lon="11.310403907511926"><ele>449.2</ele><time>2026-04-12T17:11:32.999Z</time></trkpt><trkpt lat="43.54541103562869" lon="11.310215019249632"><ele>450.4</ele><time>2026-04-12T17:11:34.999Z</time></trkpt><trkpt lat="43.54539897316839" lon="11.310093367768895"><ele>451.59999999999997</ele><time>2026-04-12T17:11:35.999Z</time></trkpt><trkpt lat="43.54541035178308" lon="11.309965583925608"><ele>452.79999999999995</ele><time>2026-04-12T17:11:36.999Z</time></trkpt><trkpt lat="43.54540543553901" lon="11.309831002449503"><ele>454.0</ele><time>2026-04-12T17:11:37.999Z</time></trkpt><trkpt lat="43.5454288343247" lon="11.309710634072907"><ele>454.0</ele><time>2026-04-12T17:11:38.999Z</time></trkpt><trkpt lat="43.54545347165859" lon="11.309598823673825"><ele>454.0</ele><time>2026-04-12T17:11:39.999Z</time></trkpt><trkpt lat="43.54550875740838" lon="11.309503203324097"><ele>454.0</ele><time>2026-04-12T17:11:40.999Z</time></trkpt><trkpt lat="43.54554987394993" lon="11.309384708420154"><ele>454.0</ele><time>2026-04-12T17:11:41.999Z</time></trkpt><trkpt lat="43.545605984629645" lon="11.309282968167052"><ele>454.0</ele><time>2026-04-12T17:11:42.999Z</time></trkpt><trkpt lat="43.545657569089" lon="11.309168014319154"><ele>454.0</ele><time>2026-04-12T17:11:43.999Z</time></trkpt><trkpt lat="43.5457106121317" lon="11.309055875213174"><ele>454.0</ele><time>2026-04-12T17:11:44.999Z</time></trkpt><trkpt lat="43.545765378667326" lon="11.308945167222758"><ele>454.0</ele><time>2026-04-12T17:11:45.999Z</time></trkpt><trkpt lat="43.54581824564318" lon="11.308839585842824"><ele>454.0</ele><time>2026-04-12T17:11:46.999Z</time></trkpt><trkpt lat="43.54586556673321" lon="11.308729050049713"><ele>454.0</ele><time>2026-04-12T17:11:47.999Z</time></trkpt><trkpt lat="43.54591464357027" lon="11.308630613360906"><ele>452.6</ele><time>2026-04-12T17:11:48.999Z</time></trkpt><trkpt lat="43.54597218253415" lon="11.308533813886793"><ele>451.2</ele><time>2026-04-12T17:11:49.999Z</time></trkpt><trkpt lat="43.54604004146619" lon="11.308459332326764"><ele>449.80000000000007</ele><time>2026-04-12T17:11:50.999Z</time></trkpt><trkpt lat="43.546115478040605" lon="11.308371631741421"><ele>448.40000000000003</ele><time>2026-04-12T17:11:51.999Z</time></trkpt><trkpt lat="43.54618414720359" lon="11.30827490569308"><ele>447.0</ele><time>2026-04-12T17:11:52.999Z</time></trkpt><trkpt lat="43.5462481534338" lon="11.308167261474013"><ele>448.8</ele><time>2026-04-12T17:11:53.999Z</time></trkpt><trkpt lat="43.54631258253289" lon="11.308055120702292"><ele>450.6</ele><time>2026-04-12T17:11:54.999Z</time></trkpt><trkpt lat="43.54638227309464" lon="11.307947123157959"><ele>452.40000000000003</ele><time>2026-04-12T17:11:55.999Z</time></trkpt><trkpt lat="43.54646421015743" lon="11.30785747612393"><ele>454.20000000000005</ele><time>2026-04-12T17:11:56.999Z</time></trkpt><trkpt lat="43.546550050325216" lon="11.307776171946822"><ele>456.0</ele><time>2026-04-12T17:11:57.999Z</time></trkpt><trkpt lat="43.54662330104759" lon="11.30766811213061"><ele>456.0</ele><time>2026-04-12T17:11:58.999Z</time></trkpt><trkpt lat="43.54666626147753" lon="11.307530943800662"><ele>456.0</ele><time>2026-04-12T17:11:59.999Z</time></trkpt><trkpt lat="43.54669963929101" lon="11.3073828303762"><ele>456.0</ele><time>2026-04-12T17:12:00.999Z</time></trkpt><trkpt lat="43.546732580539924" lon="11.307239047719913"><ele>456.0</ele><time>2026-04-12T17:12:01.999Z</time></trkpt><trkpt lat="43.54676823887581" lon="11.307100462045943"><ele>456.0</ele><time>2026-04-12T17:12:02.999Z</time></trkpt><trkpt lat="43.54680841521961" lon="11.30697746342185"><ele>455.4</ele><time>2026-04-12T17:12:03.999Z</time></trkpt><trkpt lat="43.546858495398105" lon="11.306865718526247"><ele>454.8</ele><time>2026-04-12T17:12:04.999Z</time></trkpt><trkpt lat="43.54692574569427" lon="11.306792774504032"><ele>454.19999999999993</ele><time>2026-04-12T17:12:05.999Z</time></trkpt><trkpt lat="43.54701118152298" lon="11.306742532151935"><ele>453.59999999999997</ele><time>2026-04-12T17:12:06.999Z</time></trkpt><trkpt lat="43.54710003307468" lon="11.306691447909552"><ele>453.0</ele><time>2026-04-12T17:12:07.999Z</time></trkpt><trkpt lat="43.54718111636255" lon="11.306637122775898"><ele>454.4</ele><time>2026-04-12T17:12:08.999Z</time></trkpt><trkpt lat="43.547263794344026" lon="11.306578170077533"><ele>455.79999999999995</ele><time>2026-04-12T17:12:09.999Z</time></trkpt><trkpt lat="43.5473440343467" lon="11.30652303477726"><ele>457.2</ele><time>2026-04-12T17:12:10.999Z</time></trkpt><trkpt lat="43.547429490349735" lon="11.306479962504214"><ele>458.6</ele><time>2026-04-12T17:12:11.999Z</time></trkpt><trkpt lat="43.547507557828716" lon="11.306442630340072"><ele>460.0</ele><time>2026-04-12T17:12:12.999Z</time></trkpt><trkpt lat="43.547610380250035" lon="11.306404403601164"><ele>460.00000000000006</ele><time>2026-04-12T17:12:13.999Z</time></trkpt><trkpt lat="43.54770298149053" lon="11.306389753092771"><ele>460.0</ele><time>2026-04-12T17:12:14.999Z</time></trkpt><trkpt lat="43.54779485853692" lon="11.306388218442178"><ele>460.0</ele><time>2026-04-12T17:12:15.999Z</time></trkpt><trkpt lat="43.547877163819464" lon="11.306427821056209"><ele>460.0</ele><time>2026-04-12T17:12:16.999Z</time></trkpt><trkpt lat="43.547943377321495" lon="11.306478042640025"><ele>460.00000000000006</ele><time>2026-04-12T17:12:17.999Z</time></trkpt><trkpt lat="43.54801847806956" lon="11.306530687705411"><ele>460.0</ele><time>2026-04-12T17:12:18.999Z</time></trkpt><trkpt lat="43.54809581880248" lon="11.306566649745998"><ele>461.83333333333337</ele><time>2026-04-12T17:12:19.999Z</time></trkpt><trkpt lat="43.54816901142536" lon="11.30660788386732"><ele>463.6666666666667</ele><time>2026-04-12T17:12:20.999Z</time></trkpt><trkpt lat="43.54824324943179" lon="11.306645650818925"><ele>465.5</ele><time>2026-04-12T17:12:21.999Z</time></trkpt><trkpt lat="43.54833128923566" lon="11.306623068492023"><ele>467.33333333333337</ele><time>2026-04-12T17:12:22.999Z</time></trkpt><trkpt lat="43.54839859526933" lon="11.306532310474186"><ele>469.1666666666667</ele><time>2026-04-12T17:12:23.999Z</time></trkpt><trkpt lat="43.54847280523315" lon="11.306466698062964"><ele>471.0</ele><time>2026-04-12T17:12:24.999Z</time></trkpt><trkpt lat="43.548539562330255" lon="11.306385965264012"><ele>471.0</ele><time>2026-04-12T17:12:25.999Z</time></trkpt><trkpt lat="43.54860652844615" lon="11.306303794232836"><ele>471.0</ele><time>2026-04-12T17:12:27Z</time></trkpt><trkpt lat="43.54868088510395" lon="11.306208345610269"><ele>471.0</ele><time>2026-04-12T17:12:28Z</time></trkpt><trkpt lat="43.548774617634194" lon="11.30608850640973"><ele>471.0</ele><time>2026-04-12T17:12:29Z</time></trkpt><trkpt lat="43.54886988279273" lon="11.30596059930273"><ele>470.8</ele><time>2026-04-12T17:12:30Z</time></trkpt><trkpt lat="43.548951373795056" lon="11.30584896536626"><ele>470.6</ele><time>2026-04-12T17:12:31Z</time></trkpt><trkpt lat="43.549022317526" lon="11.30575276615464"><ele>470.4</ele><time>2026-04-12T17:12:32Z</time></trkpt><trkpt lat="43.54909118930556" lon="11.305656531792083"><ele>470.2</ele><time>2026-04-12T17:12:33Z</time></trkpt><trkpt lat="43.54916890590192" lon="11.305545991762981"><ele>470.0</ele><time>2026-04-12T17:12:34Z</time></trkpt><trkpt lat="43.54923682050171" lon="11.305424612414132"><ele>471.6</ele><time>2026-04-12T17:12:35Z</time></trkpt><trkpt lat="43.54931491578967" lon="11.305323978983116"><ele>473.2</ele><time>2026-04-12T17:12:36Z</time></trkpt><trkpt lat="43.54939270011924" lon="11.30522037475553"><ele>474.79999999999995</ele><time>2026-04-12T17:12:37Z</time></trkpt><trkpt lat="43.54947603189361" lon="11.305121603695193"><ele>476.4</ele><time>2026-04-12T17:12:38Z</time></trkpt><trkpt lat="43.54956844153918" lon="11.305033786860472"><ele>478.0</ele><time>2026-04-12T17:12:39Z</time></trkpt><trkpt lat="43.549648302881266" lon="11.304913097388132"><ele>478.0</ele><time>2026-04-12T17:12:40Z</time></trkpt><trkpt lat="43.549738825807346" lon="11.304804289353546"><ele>478.0</ele><time>2026-04-12T17:12:41Z</time></trkpt><trkpt lat="43.549842160527376" lon="11.304717461858514"><ele>478.0</ele><time>2026-04-12T17:12:42Z</time></trkpt><trkpt lat="43.549931192284944" lon="11.304596632041884"><ele>478.0</ele><time>2026-04-12T17:12:43Z</time></trkpt><trkpt lat="43.55003187522016" lon="11.304506600374058"><ele>480.25</ele><time>2026-04-12T17:12:44Z</time></trkpt><trkpt lat="43.55013432884555" lon="11.304412478048533"><ele>482.5</ele><time>2026-04-12T17:12:45Z</time></trkpt><trkpt lat="43.55023915302956" lon="11.304311885628065"><ele>484.75</ele><time>2026-04-12T17:12:46Z</time></trkpt><trkpt lat="43.55033304683468" lon="11.304205418189174"><ele>487.0</ele><time>2026-04-12T17:12:47Z</time></trkpt><trkpt lat="43.550425045588334" lon="11.304103248650346"><ele>487.0</ele><time>2026-04-12T17:12:48Z</time></trkpt><trkpt lat="43.55051149969654" lon="11.304001735189887"><ele>487.0</ele><time>2026-04-12T17:12:49Z</time></trkpt><trkpt lat="43.550598378816225" lon="11.303895433950924"><ele>487.0</ele><time>2026-04-12T17:12:50Z</time></trkpt><trkpt lat="43.55067999506002" lon="11.30378610884795"><ele>487.0</ele><time>2026-04-12T17:12:51Z</time></trkpt><trkpt lat="43.55076246616283" lon="11.303683951772694"><ele>489.0</ele><time>2026-04-12T17:12:52Z</time></trkpt><trkpt lat="43.55084208424163" lon="11.303578188452244"><ele>491.00000000000006</ele><time>2026-04-12T17:12:53Z</time></trkpt><trkpt lat="43.55092364859799" lon="11.303482190143026"><ele>493.00000000000006</ele><time>2026-04-12T17:12:54Z</time></trkpt><trkpt lat="43.551006020211666" lon="11.30339777016535"><ele>495.0</ele><time>2026-04-12T17:12:55Z</time></trkpt><trkpt lat="43.55109203849148" lon="11.303313647576894"><ele>497.0</ele><time>2026-04-12T17:12:56Z</time></trkpt><trkpt lat="43.55117663702997" lon="11.303233741618373"><ele>497.8</ele><time>2026-04-12T17:12:57Z</time></trkpt><trkpt lat="43.55126525310524" lon="11.303163826708596"><ele>498.6</ele><time>2026-04-12T17:12:58Z</time></trkpt><trkpt lat="43.55135220552526" lon="11.303090236687892"><ele>499.40000000000003</ele><time>2026-04-12T17:12:59Z</time></trkpt><trkpt lat="43.55143429311864" lon="11.303023560650491"><ele>500.20000000000005</ele><time>2026-04-12T17:13:00Z</time></trkpt><trkpt lat="43.55150934223182" lon="11.302958262476803"><ele>501.0</ele><time>2026-04-12T17:13:01Z</time></trkpt><trkpt lat="43.55159155936406" lon="11.302874879113928"><ele>501.0</ele><time>2026-04-12T17:13:02Z</time></trkpt><trkpt lat="43.55166798734049" lon="11.302771550684806"><ele>501.0</ele><time>2026-04-12T17:13:03Z</time></trkpt><trkpt lat="43.551731706740505" lon="11.30266183642339"><ele>501.0</ele><time>2026-04-12T17:13:04Z</time></trkpt><trkpt lat="43.55180145384946" lon="11.30254265964799"><ele>501.0</ele><time>2026-04-12T17:13:05Z</time></trkpt><trkpt lat="43.55186626131371" lon="11.302407648180345"><ele>501.0</ele><time>2026-04-12T17:13:06Z</time></trkpt><trkpt lat="43.55192330981096" lon="11.302247213108584"><ele>499.66666666666663</ele><time>2026-04-12T17:13:07Z</time></trkpt><trkpt lat="43.55198923893891" lon="11.302083125679747"><ele>498.3333333333333</ele><time>2026-04-12T17:13:08Z</time></trkpt><trkpt lat="43.55206285171894" lon="11.30189241273918"><ele>497.0</ele><time>2026-04-12T17:13:09Z</time></trkpt><trkpt lat="43.552134871854705" lon="11.30169835201431"><ele>497.0</ele><time>2026-04-12T17:13:10Z</time></trkpt><trkpt lat="43.552171962682" lon="11.301506848643305"><ele>497.0</ele><time>2026-04-12T17:13:11Z</time></trkpt><trkpt lat="43.55222090229396" lon="11.301333105347348"><ele>497.0</ele><time>2026-04-12T17:13:12Z</time></trkpt><trkpt lat="43.55226515941549" lon="11.3011786918373"><ele>497.0</ele><time>2026-04-12T17:13:13Z</time></trkpt><trkpt lat="43.55231480977516" lon="11.30103706095906"><ele>497.8</ele><time>2026-04-12T17:13:14Z</time></trkpt><trkpt lat="43.55237009798525" lon="11.300901651505596"><ele>498.6</ele><time>2026-04-12T17:13:15Z</time></trkpt><trkpt lat="43.552423793381216" lon="11.300781926832887"><ele>499.40000000000003</ele><time>2026-04-12T17:13:16Z</time></trkpt><trkpt lat="43.55247148512064" lon="11.300661375371524"><ele>500.20000000000005</ele><time>2026-04-12T17:13:17Z</time></trkpt><trkpt lat="43.55252381377802" lon="11.30054494737523"><ele>501.0</ele><time>2026-04-12T17:13:18Z</time></trkpt><trkpt lat="43.55257105268323" lon="11.300426438659326"><ele>501.0</ele><time>2026-04-12T17:13:19Z</time></trkpt><trkpt lat="43.55261667080354" lon="11.300315708389368"><ele>501.0</ele><time>2026-04-12T17:13:20Z</time></trkpt><trkpt lat="43.552670621514196" lon="11.300206718300908"><ele>501.0</ele><time>2026-04-12T17:13:21Z</time></trkpt><trkpt lat="43.552727351253296" lon="11.30010635855112"><ele>501.0</ele><time>2026-04-12T17:13:22Z</time></trkpt><trkpt lat="43.552774763512254" lon="11.299996281332131"><ele>501.0</ele><time>2026-04-12T17:13:23Z</time></trkpt><trkpt lat="43.55282259158357" lon="11.299881494185875"><ele>501.0</ele><time>2026-04-12T17:13:24Z</time></trkpt><trkpt lat="43.55286724330603" lon="11.29976845520585"><ele>501.0</ele><time>2026-04-12T17:13:25Z</time></trkpt><trkpt lat="43.55291062474059" lon="11.29965583662006"><ele>501.0</ele><time>2026-04-12T17:13:26Z</time></trkpt><trkpt lat="43.5529517051727" lon="11.299534964618212"><ele>501.0</ele><time>2026-04-12T17:13:27Z</time></trkpt><trkpt lat="43.552992498371836" lon="11.299412657185167"><ele>501.0</ele><time>2026-04-12T17:13:28Z</time></trkpt><trkpt lat="43.55303853587994" lon="11.299294304243878"><ele>500.0</ele><time>2026-04-12T17:13:28.999Z</time></trkpt><trkpt lat="43.55309398342053" lon="11.299175428066285"><ele>499.0</ele><time>2026-04-12T17:13:29.999Z</time></trkpt><trkpt lat="43.55316011600142" lon="11.299065653182598"><ele>498.0</ele><time>2026-04-12T17:13:30.999Z</time></trkpt><trkpt lat="43.55324049029121" lon="11.298969375351334"><ele>497.0</ele><time>2026-04-12T17:13:31.999Z</time></trkpt><trkpt lat="43.55334307378044" lon="11.298927493024845"><ele>496.0</ele><time>2026-04-12T17:13:32.999Z</time></trkpt><trkpt lat="43.55344460152613" lon="11.298888908952879"><ele>493.5</ele><time>2026-04-12T17:13:33.999Z</time></trkpt><trkpt lat="43.5535520679131" lon="11.298845509876337"><ele>491.0</ele><time>2026-04-12T17:13:34.999Z</time></trkpt><trkpt lat="43.55366358182299" lon="11.298844783979698"><ele>488.5</ele><time>2026-04-12T17:13:35.999Z</time></trkpt><trkpt lat="43.55378158122376" lon="11.298843245917364"><ele>486.0</ele><time>2026-04-12T17:13:36.999Z</time></trkpt><trkpt lat="43.5538999125651" lon="11.298851460337975"><ele>485.0</ele><time>2026-04-12T17:13:37.999Z</time></trkpt><trkpt lat="43.554030425206356" lon="11.298857213617087"><ele>484.0</ele><time>2026-04-12T17:13:38.999Z</time></trkpt><trkpt lat="43.554167586666374" lon="11.298824728338586"><ele>483.0</ele><time>2026-04-12T17:13:39.999Z</time></trkpt><trkpt lat="43.554296786925825" lon="11.298741704975047"><ele>482.0</ele><time>2026-04-12T17:13:40.999Z</time></trkpt><trkpt lat="43.554408400823924" lon="11.29862930340886"><ele>482.0</ele><time>2026-04-12T17:13:41.999Z</time></trkpt><trkpt lat="43.554502423805175" lon="11.298501625886196"><ele>482.0</ele><time>2026-04-12T17:13:42.999Z</time></trkpt><trkpt lat="43.5545987151841" lon="11.29835651854656"><ele>482.0</ele><time>2026-04-12T17:13:43.999Z</time></trkpt><trkpt lat="43.55471194116366" lon="11.298264785411554"><ele>482.0</ele><time>2026-04-12T17:13:44.999Z</time></trkpt><trkpt lat="43.554828572770354" lon="11.298172138335113"><ele>482.0</ele><time>2026-04-12T17:13:45.999Z</time></trkpt><trkpt lat="43.55495052175874" lon="11.298088223213174"><ele>482.0</ele><time>2026-04-12T17:13:46.999Z</time></trkpt><trkpt lat="43.55507478499384" lon="11.297999489725486"><ele>482.0</ele><time>2026-04-12T17:13:47.999Z</time></trkpt><trkpt lat="43.55520468815986" lon="11.29793750512249"><ele>482.0</ele><time>2026-04-12T17:13:48.999Z</time></trkpt><trkpt lat="43.5553464123477" lon="11.297913443176698"><ele>483.25</ele><time>2026-04-12T17:13:49.999Z</time></trkpt><trkpt lat="43.55549365806951" lon="11.29786901304436"><ele>484.5</ele><time>2026-04-12T17:13:50.999Z</time></trkpt><trkpt lat="43.5556375810213" lon="11.297826917553826"><ele>485.75</ele><time>2026-04-12T17:13:51.999Z</time></trkpt><trkpt lat="43.55577374943513" lon="11.29778709014206"><ele>487.0</ele><time>2026-04-12T17:13:52.999Z</time></trkpt><trkpt lat="43.55589672907695" lon="11.297750171026777"><ele>487.0</ele><time>2026-04-12T17:13:53.999Z</time></trkpt><trkpt lat="43.55601845940849" lon="11.297698926516397"><ele>487.0</ele><time>2026-04-12T17:13:54.999Z</time></trkpt><trkpt lat="43.556141267515684" lon="11.297675392654288"><ele>487.0</ele><time>2026-04-12T17:13:55.999Z</time></trkpt><trkpt lat="43.55626731648849" lon="11.297650604496914"><ele>487.0</ele><time>2026-04-12T17:13:56.999Z</time></trkpt><trkpt lat="43.55639434175016" lon="11.297628682621562"><ele>489.0</ele><time>2026-04-12T17:13:57.999Z</time></trkpt><trkpt lat="43.55652319736949" lon="11.297631303124016"><ele>491.0</ele><time>2026-04-12T17:13:58.999Z</time></trkpt><trkpt lat="43.55675981981663" lon="11.297537182647474"><ele>493.0</ele><time>2026-04-12T17:14:00.999Z</time></trkpt><trkpt lat="43.5568736738626" lon="11.297498459269116"><ele>493.0</ele><time>2026-04-12T17:14:01.999Z</time></trkpt><trkpt lat="43.55698518149338" lon="11.297459286068758"><ele>493.0</ele><time>2026-04-12T17:14:02.999Z</time></trkpt><trkpt lat="43.557100294839955" lon="11.297427659592353"><ele>493.0</ele><time>2026-04-12T17:14:03.999Z</time></trkpt><trkpt lat="43.55721928808322" lon="11.297408299886815"><ele>493.0</ele><time>2026-04-12T17:14:04.999Z</time></trkpt><trkpt lat="43.557334205008246" lon="11.297406781347226"><ele>494.2</ele><time>2026-04-12T17:14:05.999Z</time></trkpt><trkpt lat="43.55744679861496" lon="11.297422038915425"><ele>495.4</ele><time>2026-04-12T17:14:06.999Z</time></trkpt><trkpt lat="43.55755877422879" lon="11.29745101201731"><ele>496.59999999999997</ele><time>2026-04-12T17:14:07.999Z</time></trkpt><trkpt lat="43.55766524348298" lon="11.297460679853165"><ele>497.79999999999995</ele><time>2026-04-12T17:14:08.999Z</time></trkpt><trkpt lat="43.557772087989555" lon="11.297431344137227"><ele>499.0</ele><time>2026-04-12T17:14:09.999Z</time></trkpt><trkpt lat="43.55786736877593" lon="11.297363687717183"><ele>499.6</ele><time>2026-04-12T17:14:10.999Z</time></trkpt><trkpt lat="43.55795981774175" lon="11.297286206495341"><ele>500.2</ele><time>2026-04-12T17:14:11.999Z</time></trkpt><trkpt lat="43.558057243914895" lon="11.297215130228157"><ele>500.80000000000007</ele><time>2026-04-12T17:14:12.999Z</time></trkpt><trkpt lat="43.558156685236135" lon="11.297154849221782"><ele>501.40000000000003</ele><time>2026-04-12T17:14:13.999Z</time></trkpt><trkpt lat="43.55826124845508" lon="11.297098446622469"><ele>502.0</ele><time>2026-04-12T17:14:14.999Z</time></trkpt><trkpt lat="43.558360115094835" lon="11.297050348813377"><ele>502.0</ele><time>2026-04-12T17:14:15.999Z</time></trkpt><trkpt lat="43.55846805871233" lon="11.297010386015025"><ele>502.00000000000006</ele><time>2026-04-12T17:14:16.999Z</time></trkpt><trkpt lat="43.55857814375249" lon="11.296989273008759"><ele>502.00000000000006</ele><time>2026-04-12T17:14:17.999Z</time></trkpt><trkpt lat="43.55868573392842" lon="11.296978142151714"><ele>502.0</ele><time>2026-04-12T17:14:18.999Z</time></trkpt><trkpt lat="43.558797197880125" lon="11.296958029106985"><ele>502.0</ele><time>2026-04-12T17:14:19.999Z</time></trkpt><trkpt lat="43.558909944840735" lon="11.296915943813598"><ele>502.0</ele><time>2026-04-12T17:14:20.999Z</time></trkpt><trkpt lat="43.559021279377085" lon="11.296867109331435"><ele>502.0</ele><time>2026-04-12T17:14:21.999Z</time></trkpt><trkpt lat="43.55913106245804" lon="11.296814860445323"><ele>502.0</ele><time>2026-04-12T17:14:22.999Z</time></trkpt><trkpt lat="43.559249230006685" lon="11.296765551266983"><ele>502.0</ele><time>2026-04-12T17:14:23.999Z</time></trkpt><trkpt lat="43.55937092818592" lon="11.29673260473628"><ele>502.0</ele><time>2026-04-12T17:14:24.999Z</time></trkpt><trkpt lat="43.559493514959954" lon="11.296716886947772"><ele>502.0</ele><time>2026-04-12T17:14:25.999Z</time></trkpt><trkpt lat="43.55961304814308" lon="11.296706844909833"><ele>502.0</ele><time>2026-04-12T17:14:26.999Z</time></trkpt><trkpt lat="43.559735277751244" lon="11.296709473966539"><ele>502.0</ele><time>2026-04-12T17:14:27.999Z</time></trkpt><trkpt lat="43.559853172598274" lon="11.296715002667241"><ele>501.8</ele><time>2026-04-12T17:14:28.999Z</time></trkpt><trkpt lat="43.55996024356949" lon="11.296718582915846"><ele>501.6</ele><time>2026-04-12T17:14:29.999Z</time></trkpt><trkpt lat="43.560061481796" lon="11.296708161896925"><ele>501.40000000000003</ele><time>2026-04-12T17:14:30.999Z</time></trkpt><trkpt lat="43.56016462445325" lon="11.296681378250579"><ele>501.20000000000005</ele><time>2026-04-12T17:14:31.999Z</time></trkpt><trkpt lat="43.56027046488967" lon="11.296640206606298"><ele>501.0</ele><time>2026-04-12T17:14:33Z</time></trkpt><trkpt lat="43.56036547938728" lon="11.296584258315645"><ele>500.6</ele><time>2026-04-12T17:14:34Z</time></trkpt><trkpt lat="43.5604589680023" lon="11.29652589497701"><ele>500.20000000000005</ele><time>2026-04-12T17:14:35Z</time></trkpt><trkpt lat="43.56055614352335" lon="11.296474718570593"><ele>499.79999999999995</ele><time>2026-04-12T17:14:36Z</time></trkpt><trkpt lat="43.56064689374743" lon="11.296428364024257"><ele>499.4</ele><time>2026-04-12T17:14:37Z</time></trkpt><trkpt lat="43.5607306517152" lon="11.296380110209654"><ele>499.0</ele><time>2026-04-12T17:14:38Z</time></trkpt><trkpt lat="43.56079289011595" lon="11.296344790067664"><ele>499.0</ele><time>2026-04-12T17:14:39Z</time></trkpt><trkpt lat="43.560702262898644" lon="11.296325131566315"><ele>499.0</ele><time>2026-04-12T17:14:44Z</time></trkpt><trkpt lat="43.56061878562369" lon="11.296389359729403"><ele>499.0</ele><time>2026-04-12T17:14:45Z</time></trkpt><trkpt lat="43.56052292529375" lon="11.296460622642174"><ele>499.0</ele><time>2026-04-12T17:14:46Z</time></trkpt><trkpt lat="43.560421705033306" lon="11.296513702789383"><ele>499.0</ele><time>2026-04-12T17:14:47Z</time></trkpt><trkpt lat="43.560356691837164" lon="11.29655415052298"><ele>499.33333333333337</ele><time>2026-04-12T17:14:48Z</time></trkpt><trkpt lat="43.56026486742442" lon="11.296614945674444"><ele>499.6666666666667</ele><time>2026-04-12T17:14:50Z</time></trkpt><trkpt lat="43.56025429602551" lon="11.296733845953444"><ele>500.0</ele><time>2026-04-12T17:14:52Z</time></trkpt><trkpt lat="43.56029490590307" lon="11.296806077325089"><ele>500.33333333333337</ele><time>2026-04-12T17:14:53Z</time></trkpt><trkpt lat="43.5603170188182" lon="11.296893429980283"><ele>500.6666666666667</ele><time>2026-04-12T17:14:54Z</time></trkpt><trkpt lat="43.560360251986225" lon="11.296957939510119"><ele>501.0</ele><time>2026-04-12T17:15:01Z</time></trkpt><trkpt lat="43.560420300805795" lon="11.297014916281894"><ele>501.6666666666667</ele><time>2026-04-12T17:15:03Z</time></trkpt><trkpt lat="43.560454445612535" lon="11.297092572221306"><ele>502.33333333333337</ele><time>2026-04-12T17:15:04Z</time></trkpt><trkpt lat="43.56051689845545" lon="11.297179839512161"><ele>503.0</ele><time>2026-04-12T17:15:05Z</time></trkpt><trkpt lat="43.56059033943244" lon="11.297262533702117"><ele>503.6666666666667</ele><time>2026-04-12T17:15:06Z</time></trkpt><trkpt lat="43.56065682505971" lon="11.29732828368072"><ele>504.33333333333337</ele><time>2026-04-12T17:15:07Z</time></trkpt><trkpt lat="43.560735639670234" lon="11.297392285734254"><ele>505.0</ele><time>2026-04-12T17:15:08Z</time></trkpt><trkpt lat="43.560828739201874" lon="11.297460334052452"><ele>504.8</ele><time>2026-04-12T17:15:09Z</time></trkpt><trkpt lat="43.560906039131154" lon="11.297501373676212"><ele>504.6</ele><time>2026-04-12T17:15:10Z</time></trkpt><trkpt lat="43.56101546144672" lon="11.297553227870537"><ele>504.4</ele><time>2026-04-12T17:15:12Z</time></trkpt><trkpt lat="43.56107726148727" lon="11.297582514394753"><ele>504.2</ele><time>2026-04-12T17:15:13Z</time></trkpt><trkpt lat="43.561209150170576" lon="11.297642960308005"><ele>504.0</ele><time>2026-04-12T17:15:15Z</time></trkpt><trkpt lat="43.56131585478708" lon="11.297689865754997"><ele>504.0</ele><time>2026-04-12T17:15:17Z</time></trkpt><trkpt lat="43.561377094779374" lon="11.297716785714108"><ele>504.0</ele><time>2026-04-12T17:15:18Z</time></trkpt><trkpt lat="43.56143835827814" lon="11.297743716128467"><ele>504.0</ele><time>2026-04-12T17:15:19Z</time></trkpt><trkpt lat="43.56150874407191" lon="11.29777465652236"><ele>504.0</ele><time>2026-04-12T17:15:20Z</time></trkpt><trkpt lat="43.56158179696709" lon="11.297806769310858"><ele>504.0</ele><time>2026-04-12T17:15:21Z</time></trkpt><trkpt lat="43.56165357943248" lon="11.297835836457653"><ele>504.0</ele><time>2026-04-12T17:15:22Z</time></trkpt><trkpt lat="43.56173010393565" lon="11.297874033752986"><ele>504.0</ele><time>2026-04-12T17:15:23Z</time></trkpt><trkpt lat="43.56179200037449" lon="11.29790254500544"><ele>504.0</ele><time>2026-04-12T17:15:24Z</time></trkpt><trkpt lat="43.56185268926939" lon="11.297940519754713"><ele>504.0</ele><time>2026-04-12T17:15:25Z</time></trkpt><trkpt lat="43.561916611322005" lon="11.297989196784672"><ele>504.0</ele><time>2026-04-12T17:15:26Z</time></trkpt><trkpt lat="43.561996809802245" lon="11.298064949089603"><ele>504.0</ele><time>2026-04-12T17:15:27.999Z</time></trkpt><trkpt lat="43.56206951020173" lon="11.298142066132444"><ele>504.0</ele><time>2026-04-12T17:15:29.999Z</time></trkpt><trkpt lat="43.56214772769238" lon="11.29822518155486"><ele>504.0</ele><time>2026-04-12T17:15:31.999Z</time></trkpt><trkpt lat="43.56222975504576" lon="11.298312344624568"><ele>500.0</ele><time>2026-04-12T17:15:33.999Z</time></trkpt><trkpt lat="43.5622988600186" lon="11.298390869071579"><ele>496.0</ele><time>2026-04-12T17:15:35.999Z</time></trkpt><trkpt lat="43.56235048042497" lon="11.298448451304198"><ele>492.0</ele><time>2026-04-12T17:15:37.999Z</time></trkpt><trkpt lat="43.562543505026945" lon="11.2981475980771"><ele>488.0</ele><time>2026-04-12T17:15:39.999Z</time></trkpt><trkpt lat="43.562508186502406" lon="11.298250494277648"><ele>488.0</ele><time>2026-04-12T17:15:41.999Z</time></trkpt><trkpt lat="43.56255936272454" lon="11.29837822514248"><ele>487.99999999999994</ele><time>2026-04-12T17:15:43.999Z</time></trkpt><trkpt lat="43.56259903939888" lon="11.29845613069323"><ele>487.99999999999994</ele><time>2026-04-12T17:15:44.999Z</time></trkpt><trkpt lat="43.562653729897065" lon="11.298544672784812"><ele>488.0</ele><time>2026-04-12T17:15:45.999Z</time></trkpt><trkpt lat="43.56259987805886" lon="11.29872616269516"><ele>488.0</ele><time>2026-04-12T17:15:46.999Z</time></trkpt><trkpt lat="43.56266239210872" lon="11.298867821847992"><ele>488.0</ele><time>2026-04-12T17:15:48.999Z</time></trkpt><trkpt lat="43.56269004272354" lon="11.298963144092486"><ele>487.99999999999994</ele><time>2026-04-12T17:15:49.999Z</time></trkpt><trkpt lat="43.562716636093526" lon="11.299074505643855"><ele>487.99999999999994</ele><time>2026-04-12T17:15:50.999Z</time></trkpt><trkpt lat="43.56273791739479" lon="11.29916862360993"><ele>488.0</ele><time>2026-04-12T17:15:51.999Z</time></trkpt><trkpt lat="43.56276706937998" lon="11.299297550218487"><ele>488.0</ele><time>2026-04-12T17:15:53.999Z</time></trkpt><trkpt lat="43.563045930816266" lon="11.29924483059371"><ele>488.0</ele><time>2026-04-12T17:15:54.999Z</time></trkpt><trkpt lat="43.56314732948028" lon="11.299295189467525"><ele>487.99999999999994</ele><time>2026-04-12T17:15:55.999Z</time></trkpt><trkpt lat="43.563234490854946" lon="11.29934475068415"><ele>487.99999999999994</ele><time>2026-04-12T17:15:56.999Z</time></trkpt><trkpt lat="43.563306882516954" lon="11.29938606125831"><ele>488.0</ele><time>2026-04-12T17:15:57.999Z</time></trkpt><trkpt lat="43.563404824679296" lon="11.299422578034843"><ele>488.0</ele><time>2026-04-12T17:15:59.999Z</time></trkpt><trkpt lat="43.56348539867673" lon="11.299408956957707"><ele>487.99999999999994</ele><time>2026-04-12T17:16:00.999Z</time></trkpt><trkpt lat="43.56356410454783" lon="11.299415339422195"><ele>488.0</ele><time>2026-04-12T17:16:01.999Z</time></trkpt><trkpt lat="43.563641435067" lon="11.299432424668542"><ele>488.0</ele><time>2026-04-12T17:16:02.999Z</time></trkpt><trkpt lat="43.56370723474247" lon="11.299478628720463"><ele>488.0</ele><time>2026-04-12T17:16:03.999Z</time></trkpt><trkpt lat="43.56377669827628" lon="11.29954929749606"><ele>487.99999999999994</ele><time>2026-04-12T17:16:04.999Z</time></trkpt><trkpt lat="43.5638291494849" lon="11.299598014578669"><ele>488.0</ele><time>2026-04-12T17:16:05.999Z</time></trkpt><trkpt lat="43.56391196612577" lon="11.29967563237064"><ele>486.66666666666663</ele><time>2026-04-12T17:16:07.999Z</time></trkpt><trkpt lat="43.56393119903244" lon="11.29980893200055"><ele>485.3333333333333</ele><time>2026-04-12T17:16:10.999Z</time></trkpt><trkpt lat="43.56393468938771" lon="11.299938900891314"><ele>484.0</ele><time>2026-04-12T17:16:12.999Z</time></trkpt><trkpt lat="43.56394354718666" lon="11.29980466609012"><ele>482.66666666666663</ele><time>2026-04-12T17:16:28.999Z</time></trkpt><trkpt lat="43.564009846357536" lon="11.29974999605325"><ele>481.3333333333333</ele><time>2026-04-12T17:16:34.999Z</time></trkpt><trkpt lat="43.564065414136714" lon="11.299794152000068"><ele>480.0</ele><time>2026-04-12T17:16:35.999Z</time></trkpt><trkpt lat="43.56414568360677" lon="11.299853007930215"><ele>480.0</ele><time>2026-04-12T17:16:37.999Z</time></trkpt><trkpt lat="43.56421908921121" lon="11.299898976910496"><ele>480.0</ele><time>2026-04-12T17:16:40Z</time></trkpt><trkpt lat="43.56429552022813" lon="11.299915730150733"><ele>480.0</ele><time>2026-04-12T17:16:42Z</time></trkpt><trkpt lat="43.564399202255586" lon="11.29993190159541"><ele>480.0</ele><time>2026-04-12T17:16:44Z</time></trkpt><trkpt lat="43.56449334043407" lon="11.299957591086581"><ele>480.0</ele><time>2026-04-12T17:16:46Z</time></trkpt><trkpt lat="43.564578756147924" lon="11.300002786311614"><ele>480.0</ele><time>2026-04-12T17:16:48Z</time></trkpt><trkpt lat="43.564653711711166" lon="11.300012748029332"><ele>480.0</ele><time>2026-04-12T17:16:50Z</time></trkpt><trkpt lat="43.56473351237542" lon="11.300056131758529"><ele>480.0</ele><time>2026-04-12T17:16:52Z</time></trkpt><trkpt lat="43.564801740369965" lon="11.300121940795991"><ele>480.0</ele><time>2026-04-12T17:16:54Z</time></trkpt><trkpt lat="43.564875690821836" lon="11.300171317765576"><ele>480.0</ele><time>2026-04-12T17:16:56Z</time></trkpt><trkpt lat="43.5649685410754" lon="11.300212882504844"><ele>480.0</ele><time>2026-04-12T17:16:58Z</time></trkpt><trkpt lat="43.56505485416846" lon="11.30023596597793"><ele>480.0</ele><time>2026-04-12T17:17:00Z</time></trkpt><trkpt lat="43.565113416018" lon="11.300202971986844"><ele>480.0</ele><time>2026-04-12T17:17:07Z</time></trkpt><trkpt lat="43.565038817351144" lon="11.30025371886268"><ele>480.0</ele><time>2026-04-12T17:17:21Z</time></trkpt><trkpt lat="43.564965052275966" lon="11.300215334211213"><ele>480.0</ele><time>2026-04-12T17:17:24Z</time></trkpt><trkpt lat="43.56490283978439" lon="11.300186732717034"><ele>480.0</ele><time>2026-04-12T17:17:25Z</time></trkpt><trkpt lat="43.56479505151057" lon="11.300115711400773"><ele>480.0</ele><time>2026-04-12T17:17:27Z</time></trkpt><trkpt lat="43.564740504472184" lon="11.300069674421765"><ele>480.0</ele><time>2026-04-12T17:17:28Z</time></trkpt><trkpt lat="43.56467975196187" lon="11.300027622286528"><ele>480.0</ele><time>2026-04-12T17:17:29Z</time></trkpt><trkpt lat="43.56460121208765" lon="11.300023685455209"><ele>480.0</ele><time>2026-04-12T17:17:30.999Z</time></trkpt><trkpt lat="43.56453018146673" lon="11.29999961230619"><ele>480.0</ele><time>2026-04-12T17:17:31.999Z</time></trkpt><trkpt lat="43.564462388441484" lon="11.299968360757555"><ele>480.0</ele><time>2026-04-12T17:17:32.999Z</time></trkpt><trkpt lat="43.564367718511384" lon="11.299952070858083"><ele>480.0</ele><time>2026-04-12T17:17:34.999Z</time></trkpt><trkpt lat="43.564264907191074" lon="11.299925518526475"><ele>482.42857142857144</ele><time>2026-04-12T17:17:36.999Z</time></trkpt><trkpt lat="43.56419309228621" lon="11.299887682037234"><ele>484.85714285714283</ele><time>2026-04-12T17:17:38.999Z</time></trkpt><trkpt lat="43.56413084933037" lon="11.299849389221917"><ele>487.2857142857143</ele><time>2026-04-12T17:17:39.999Z</time></trkpt><trkpt lat="43.56407124217257" lon="11.29980565806718"><ele>489.7142857142857</ele><time>2026-04-12T17:17:41.999Z</time></trkpt><trkpt lat="43.56401836683121" lon="11.29975795437949"><ele>492.1428571428571</ele><time>2026-04-12T17:17:42.999Z</time></trkpt><trkpt lat="43.563948318469464" lon="11.299757431892393"><ele>494.57142857142856</ele><time>2026-04-12T17:17:45.999Z</time></trkpt><trkpt lat="43.56396421097907" lon="11.299889972883554"><ele>497.0</ele><time>2026-04-12T17:17:48.999Z</time></trkpt><trkpt lat="43.56395940548639" lon="11.299996242325522"><ele>497.0</ele><time>2026-04-12T17:17:50.999Z</time></trkpt><trkpt lat="43.56400991056729" lon="11.300119371264149"><ele>497.00000000000006</ele><time>2026-04-12T17:17:52.999Z</time></trkpt><trkpt lat="43.56405594776651" lon="11.300187979239023"><ele>497.00000000000006</ele><time>2026-04-12T17:17:53.999Z</time></trkpt><trkpt lat="43.56408735824724" lon="11.300298739675751"><ele>497.0</ele><time>2026-04-12T17:17:54.999Z</time></trkpt><trkpt lat="43.5641303863053" lon="11.300437236664148"><ele>497.0</ele><time>2026-04-12T17:17:55.999Z</time></trkpt><trkpt lat="43.564167372964214" lon="11.30054821790684"><ele>498.99999999999994</ele><time>2026-04-12T17:17:56.999Z</time></trkpt><trkpt lat="43.564231508398414" lon="11.300673437329003"><ele>501.0</ele><time>2026-04-12T17:17:57.999Z</time></trkpt><trkpt lat="43.564257291848364" lon="11.30078061939856"><ele>503.0</ele><time>2026-04-12T17:17:58.999Z</time></trkpt><trkpt lat="43.56429087051652" lon="11.300902675677515"><ele>505.0</ele><time>2026-04-12T17:17:59.999Z</time></trkpt><trkpt lat="43.56433152520033" lon="11.30100595481875"><ele>506.99999999999994</ele><time>2026-04-12T17:18:00.999Z</time></trkpt><trkpt lat="43.56435982561227" lon="11.301097574009468"><ele>509.0</ele><time>2026-04-12T17:18:01.999Z</time></trkpt><trkpt lat="43.56438007614584" lon="11.30118127572796"><ele>509.0</ele><time>2026-04-12T17:18:02.999Z</time></trkpt><trkpt lat="43.564413769588924" lon="11.301260612539972"><ele>509.0</ele><time>2026-04-12T17:18:03.999Z</time></trkpt><trkpt lat="43.5645089236723" lon="11.301382004391275"><ele>509.0</ele><time>2026-04-12T17:18:05.999Z</time></trkpt><trkpt lat="43.564546315183904" lon="11.301470134866177"><ele>509.0</ele><time>2026-04-12T17:18:06.999Z</time></trkpt><trkpt lat="43.564600469942796" lon="11.301581349100744"><ele>509.0</ele><time>2026-04-12T17:18:07.999Z</time></trkpt><trkpt lat="43.56465572853059" lon="11.301685055390193"><ele>506.2</ele><time>2026-04-12T17:18:08.999Z</time></trkpt><trkpt lat="43.56470758020812" lon="11.301798657141532"><ele>503.4</ele><time>2026-04-12T17:18:09.999Z</time></trkpt><trkpt lat="43.56475802990374" lon="11.301917841984707"><ele>500.6</ele><time>2026-04-12T17:18:10.999Z</time></trkpt><trkpt lat="43.56481253740102" lon="11.302016283623816"><ele>497.8</ele><time>2026-04-12T17:18:11.999Z</time></trkpt><trkpt lat="43.56484274618394" lon="11.30210404997713"><ele>495.0</ele><time>2026-04-12T17:18:12.999Z</time></trkpt><trkpt lat="43.56493219279225" lon="11.302217164495952"><ele>496.3333333333333</ele><time>2026-04-12T17:18:14.999Z</time></trkpt><trkpt lat="43.56499515577822" lon="11.302262804307798"><ele>497.66666666666663</ele><time>2026-04-12T17:18:15.999Z</time></trkpt><trkpt lat="43.565076850815956" lon="11.30232983198185"><ele>499.0</ele><time>2026-04-12T17:18:16.999Z</time></trkpt><trkpt lat="43.56514692714656" lon="11.302402536169293"><ele>500.3333333333333</ele><time>2026-04-12T17:18:17.999Z</time></trkpt><trkpt lat="43.56520662639798" lon="11.302463315108701"><ele>501.66666666666663</ele><time>2026-04-12T17:18:18.999Z</time></trkpt><trkpt lat="43.56526748753683" lon="11.302543960486702"><ele>503.0</ele><time>2026-04-12T17:18:19.999Z</time></trkpt><trkpt lat="43.56532715352159" lon="11.302596915471478"><ele>500.8333333333333</ele><time>2026-04-12T17:18:20.999Z</time></trkpt><trkpt lat="43.56539624883844" lon="11.302648494625808"><ele>498.66666666666663</ele><time>2026-04-12T17:18:21.999Z</time></trkpt><trkpt lat="43.56546176749651" lon="11.302705030166026"><ele>496.5</ele><time>2026-04-12T17:18:22.999Z</time></trkpt><trkpt lat="43.56555488949018" lon="11.302805063105806"><ele>494.33333333333337</ele><time>2026-04-12T17:18:24.999Z</time></trkpt><trkpt lat="43.565603659150206" lon="11.302860315602848"><ele>492.1666666666667</ele><time>2026-04-12T17:18:25.999Z</time></trkpt><trkpt lat="43.56564862018036" lon="11.302935295759855"><ele>490.0</ele><time>2026-04-12T17:18:26.999Z</time></trkpt><trkpt lat="43.565687478033674" lon="11.303026627618507"><ele>490.00000000000006</ele><time>2026-04-12T17:18:27.999Z</time></trkpt><trkpt lat="43.565732925181536" lon="11.30311758335034"><ele>490.0</ele><time>2026-04-12T17:18:28.999Z</time></trkpt><trkpt lat="43.565763274692465" lon="11.303198175576009"><ele>490.0</ele><time>2026-04-12T17:18:29.999Z</time></trkpt><trkpt lat="43.5658004446549" lon="11.303280052695357"><ele>490.0</ele><time>2026-04-12T17:18:30.999Z</time></trkpt><trkpt lat="43.56584336131955" lon="11.303360271285449"><ele>490.00000000000006</ele><time>2026-04-12T17:18:31.999Z</time></trkpt><trkpt lat="43.56588797040994" lon="11.303428660763764"><ele>490.0</ele><time>2026-04-12T17:18:32.999Z</time></trkpt><trkpt lat="43.56594918285484" lon="11.303541819531524"><ele>490.00000000000006</ele><time>2026-04-12T17:18:34.999Z</time></trkpt><trkpt lat="43.56602863250807" lon="11.303639255678567"><ele>490.0</ele><time>2026-04-12T17:18:36.999Z</time></trkpt><trkpt lat="43.56609313368418" lon="11.303688829265107"><ele>490.0</ele><time>2026-04-12T17:18:37.999Z</time></trkpt><trkpt lat="43.566148170659964" lon="11.303744389854536"><ele>490.0</ele><time>2026-04-12T17:18:38.999Z</time></trkpt><trkpt lat="43.56623221554021" lon="11.303819307251976"><ele>490.00000000000006</ele><time>2026-04-12T17:18:40.999Z</time></trkpt><trkpt lat="43.56629734247461" lon="11.303851576609171"><ele>490.0</ele><time>2026-04-12T17:18:41.999Z</time></trkpt><trkpt lat="43.56636551566147" lon="11.303893454769987"><ele>488.00000000000006</ele><time>2026-04-12T17:18:42.999Z</time></trkpt><trkpt lat="43.566425987397814" lon="11.303944120470254"><ele>486.0</ele><time>2026-04-12T17:18:44Z</time></trkpt><trkpt lat="43.56650059336769" lon="11.304001105318733"><ele>484.0</ele><time>2026-04-12T17:18:45Z</time></trkpt><trkpt lat="43.56655045964449" lon="11.304058514834372"><ele>482.0</ele><time>2026-04-12T17:18:47Z</time></trkpt><trkpt lat="43.566615409815896" lon="11.304057585982783"><ele>480.00000000000006</ele><time>2026-04-12T17:18:53Z</time></trkpt><trkpt lat="43.56668194097573" lon="11.304051759420478"><ele>478.0</ele><time>2026-04-12T17:19:02Z</time></trkpt><trkpt lat="43.5667930260751" lon="11.304076444827468"><ele>478.00000000000006</ele><time>2026-04-12T17:19:04Z</time></trkpt><trkpt lat="43.56691984421082" lon="11.304081257557488"><ele>478.0</ele><time>2026-04-12T17:19:06Z</time></trkpt><trkpt lat="43.56699622451618" lon="11.304086505814832"><ele>478.0</ele><time>2026-04-12T17:19:07Z</time></trkpt><trkpt lat="43.567060480976885" lon="11.304100552257246"><ele>478.0</ele><time>2026-04-12T17:19:08Z</time></trkpt><trkpt lat="43.56714067259569" lon="11.304082327662174"><ele>478.00000000000006</ele><time>2026-04-12T17:19:09Z</time></trkpt><trkpt lat="43.56721390234628" lon="11.304079213824178"><ele>478.0</ele><time>2026-04-12T17:19:10Z</time></trkpt><trkpt lat="43.5673209143098" lon="11.30407262419475"><ele>477.4</ele><time>2026-04-12T17:19:13Z</time></trkpt><trkpt lat="43.567409315793896" lon="11.304061195251982"><ele>476.79999999999995</ele><time>2026-04-12T17:19:15Z</time></trkpt><trkpt lat="43.56751496905003" lon="11.304063293083042"><ele>476.2</ele><time>2026-04-12T17:19:17Z</time></trkpt><trkpt lat="43.5676223323559" lon="11.304110839517321"><ele>475.6</ele><time>2026-04-12T17:19:19Z</time></trkpt><trkpt lat="43.56773689237596" lon="11.304178615366089"><ele>475.0</ele><time>2026-04-12T17:19:21Z</time></trkpt><trkpt lat="43.56777734434734" lon="11.304258584488318"><ele>475.00000000000006</ele><time>2026-04-12T17:19:22Z</time></trkpt><trkpt lat="43.56782529687715" lon="11.304376049038048"><ele>475.0</ele><time>2026-04-12T17:19:24Z</time></trkpt><trkpt lat="43.56787825749467" lon="11.30442306366541"><ele>475.0</ele><time>2026-04-12T17:19:26Z</time></trkpt><trkpt lat="43.567955396214" lon="11.304474098370639"><ele>475.0</ele><time>2026-04-12T17:19:28.999Z</time></trkpt><trkpt lat="43.56803309889208" lon="11.304524332769548"><ele>475.00000000000006</ele><time>2026-04-12T17:19:30.999Z</time></trkpt><trkpt lat="43.56811722976014" lon="11.30454886058319"><ele>475.0</ele><time>2026-04-12T17:19:55.999Z</time></trkpt><trkpt lat="43.56820569607612" lon="11.30457768342522"><ele>472.6666666666667</ele><time>2026-04-12T17:19:57.999Z</time></trkpt><trkpt lat="43.568268840374515" lon="11.304581359476376"><ele>470.33333333333337</ele><time>2026-04-12T17:19:58.999Z</time></trkpt><trkpt lat="43.568343969808964" lon="11.304595594042633"><ele>468.0</ele><time>2026-04-12T17:19:59.999Z</time></trkpt><trkpt lat="43.56842679199308" lon="11.304613771948713"><ele>465.66666666666663</ele><time>2026-04-12T17:20:00.999Z</time></trkpt><trkpt lat="43.56850660650835" lon="11.304634400480385"><ele>463.3333333333333</ele><time>2026-04-12T17:20:01.999Z</time></trkpt><trkpt lat="43.568594424277286" lon="11.304667579637744"><ele>461.0</ele><time>2026-04-12T17:20:03.999Z</time></trkpt><trkpt lat="43.56866213245995" lon="11.30469686284553"><ele>459.49999999999994</ele><time>2026-04-12T17:20:06.999Z</time></trkpt><trkpt lat="43.56872174389619" lon="11.30475294931755"><ele>458.0</ele><time>2026-04-12T17:20:09.999Z</time></trkpt><trkpt lat="43.56880067124501" lon="11.304788069016482"><ele>456.5</ele><time>2026-04-12T17:20:11.999Z</time></trkpt><trkpt lat="43.56887160109321" lon="11.304885834624825"><ele>455.0</ele><time>2026-04-12T17:20:13.999Z</time></trkpt><trkpt lat="43.56892182054563" lon="11.305043808156196"><ele>453.49999999999994</ele><time>2026-04-12T17:20:15.999Z</time></trkpt><trkpt lat="43.568966029419194" lon="11.30511093800807"><ele>452.0</ele><time>2026-04-12T17:20:16.999Z</time></trkpt><trkpt lat="43.56904479854668" lon="11.30522267547079"><ele>452.0</ele><time>2026-04-12T17:20:18.999Z</time></trkpt><trkpt lat="43.56912612952397" lon="11.30532936922847"><ele>452.00000000000006</ele><time>2026-04-12T17:20:20.999Z</time></trkpt><trkpt lat="43.56916415907256" lon="11.305399680023534"><ele>452.00000000000006</ele><time>2026-04-12T17:20:21.999Z</time></trkpt><trkpt lat="43.56922927501907" lon="11.305516904234892"><ele>452.0</ele><time>2026-04-12T17:20:23.999Z</time></trkpt><trkpt lat="43.56924206479718" lon="11.305630329466942"><ele>452.0</ele><time>2026-04-12T17:20:25.999Z</time></trkpt><trkpt lat="43.56935600051356" lon="11.305670821805949"><ele>453.49999999999994</ele><time>2026-04-12T17:20:27.999Z</time></trkpt><trkpt lat="43.569454886484586" lon="11.305684760240347"><ele>455.0</ele><time>2026-04-12T17:20:28.999Z</time></trkpt><trkpt lat="43.56951978419235" lon="11.30569547091642"><ele>456.5</ele><time>2026-04-12T17:20:29.999Z</time></trkpt><trkpt lat="43.569624643812666" lon="11.30568948129814"><ele>458.0</ele><time>2026-04-12T17:20:31.999Z</time></trkpt><trkpt lat="43.56969980690861" lon="11.305667543123828"><ele>459.49999999999994</ele><time>2026-04-12T17:20:32.999Z</time></trkpt><trkpt lat="43.56978121428288" lon="11.305638067687392"><ele>461.0</ele><time>2026-04-12T17:20:34.999Z</time></trkpt><trkpt lat="43.56984875014976" lon="11.305587323869927"><ele>456.3333333333333</ele><time>2026-04-12T17:20:41.999Z</time></trkpt><trkpt lat="43.569942546997524" lon="11.30551521601184"><ele>451.66666666666663</ele><time>2026-04-12T17:20:43.999Z</time></trkpt><trkpt lat="43.5700061190723" lon="11.305467523298649"><ele>447.0</ele><time>2026-04-12T17:20:45.999Z</time></trkpt><trkpt lat="43.570027715100096" lon="11.305385793977655"><ele>442.33333333333337</ele><time>2026-04-12T17:20:47.999Z</time></trkpt><trkpt lat="43.5700334624196" lon="11.305267698777614"><ele>437.6666666666667</ele><time>2026-04-12T17:20:50Z</time></trkpt><trkpt lat="43.57003311078895" lon="11.305148465811257"><ele>433.0</ele><time>2026-04-12T17:20:52Z</time></trkpt><trkpt lat="43.57011807210095" lon="11.305057198512834"><ele>433.0</ele><time>2026-04-12T17:20:54Z</time></trkpt><trkpt lat="43.57022891178161" lon="11.305011052699726"><ele>432.99999999999994</ele><time>2026-04-12T17:20:56Z</time></trkpt><trkpt lat="43.57029279607399" lon="11.305008754908787"><ele>432.99999999999994</ele><time>2026-04-12T17:20:57Z</time></trkpt><trkpt lat="43.57040494625521" lon="11.305049793360634"><ele>433.0</ele><time>2026-04-12T17:20:59Z</time></trkpt><trkpt lat="43.570474316730056" lon="11.305072899351693"><ele>433.0</ele><time>2026-04-12T17:21:00Z</time></trkpt><trkpt lat="43.57057225947711" lon="11.3051169784499"><ele>428.2</ele><time>2026-04-12T17:21:02Z</time></trkpt><trkpt lat="43.570662455656965" lon="11.305167843053676"><ele>423.4</ele><time>2026-04-12T17:21:04Z</time></trkpt><trkpt lat="43.57076255795453" lon="11.305223548911094"><ele>418.59999999999997</ele><time>2026-04-12T17:21:06Z</time></trkpt><trkpt lat="43.57087662817489" lon="11.305258903325374"><ele>413.79999999999995</ele><time>2026-04-12T17:21:08Z</time></trkpt><trkpt lat="43.57096481575854" lon="11.305285875138884"><ele>409.0</ele><time>2026-04-12T17:21:10Z</time></trkpt><trkpt lat="43.57106107496177" lon="11.30531232845246"><ele>409.00000000000006</ele><time>2026-04-12T17:21:12Z</time></trkpt><trkpt lat="43.57113375359746" lon="11.305352462103492"><ele>409.0</ele><time>2026-04-12T17:21:13Z</time></trkpt><trkpt lat="43.57120306443604" lon="11.30543864341032"><ele>409.0</ele><time>2026-04-12T17:21:15Z</time></trkpt><trkpt lat="43.57121158315606" lon="11.305549665804532"><ele>409.0</ele><time>2026-04-12T17:21:17Z</time></trkpt><trkpt lat="43.57118470146161" lon="11.30563827282223"><ele>409.00000000000006</ele><time>2026-04-12T17:21:19Z</time></trkpt><trkpt lat="43.57123456854899" lon="11.305717441447634"><ele>409.0</ele><time>2026-04-12T17:21:22Z</time></trkpt><trkpt lat="43.57129674672176" lon="11.30569984033723"><ele>405.79999999999995</ele><time>2026-04-12T17:21:24Z</time></trkpt><trkpt lat="43.571353845858255" lon="11.305610119732131"><ele>402.59999999999997</ele><time>2026-04-12T17:21:26Z</time></trkpt><trkpt lat="43.57142356458562" lon="11.305524222033196"><ele>399.4</ele><time>2026-04-12T17:21:28Z</time></trkpt><trkpt lat="43.57147296536616" lon="11.305407081682878"><ele>396.2</ele><time>2026-04-12T17:21:29.999Z</time></trkpt><trkpt lat="43.57155500794159" lon="11.305372778320791"><ele>393.0</ele><time>2026-04-12T17:21:31.999Z</time></trkpt><trkpt lat="43.571587707218725" lon="11.305513594451835"><ele>393.0</ele><time>2026-04-12T17:21:33.999Z</time></trkpt><trkpt lat="43.57162420756787" lon="11.305631124749878"><ele>393.0</ele><time>2026-04-12T17:21:35.999Z</time></trkpt><trkpt lat="43.57167498906168" lon="11.305729144694446"><ele>393.0</ele><time>2026-04-12T17:21:37.999Z</time></trkpt><trkpt lat="43.57173214072376" lon="11.305777911100805"><ele>393.0</ele><time>2026-04-12T17:21:40.999Z</time></trkpt><trkpt lat="43.571835983773944" lon="11.305771187915836"><ele>393.0</ele><time>2026-04-12T17:21:42.999Z</time></trkpt><trkpt lat="43.57190450639495" lon="11.305776595971839"><ele>393.0</ele><time>2026-04-12T17:21:43.999Z</time></trkpt><trkpt lat="43.571991264866504" lon="11.305812471514923"><ele>393.00000000000006</ele><time>2026-04-12T17:21:45.999Z</time></trkpt><trkpt lat="43.57201155195814" lon="11.305916954301205"><ele>393.0</ele><time>2026-04-12T17:21:47.999Z</time></trkpt><trkpt lat="43.572075913021514" lon="11.30595257081298"><ele>393.0</ele><time>2026-04-12T17:21:50.999Z</time></trkpt><trkpt lat="43.5720196078871" lon="11.305907114016923"><ele>393.0</ele><time>2026-04-12T17:22:18.999Z</time></trkpt><trkpt lat="43.571950510158175" lon="11.305881351453458"><ele>393.0</ele><time>2026-04-12T17:22:20.999Z</time></trkpt><trkpt lat="43.57187568979436" lon="11.305864178150689"><ele>393.00000000000006</ele><time>2026-04-12T17:22:22.999Z</time></trkpt><trkpt lat="43.57179449726514" lon="11.305900998352117"><ele>393.0</ele><time>2026-04-12T17:22:24.999Z</time></trkpt><trkpt lat="43.57168864291642" lon="11.305951403619943"><ele>393.0</ele><time>2026-04-12T17:22:26.999Z</time></trkpt><trkpt lat="43.571603058070686" lon="11.306079329490705"><ele>393.0</ele><time>2026-04-12T17:22:28.999Z</time></trkpt><trkpt lat="43.571541593678084" lon="11.306133477113894"><ele>393.0</ele><time>2026-04-12T17:22:29.999Z</time></trkpt><trkpt lat="43.5714752298329" lon="11.306177450580217"><ele>393.0</ele><time>2026-04-12T17:22:30.999Z</time></trkpt><trkpt lat="43.571403736518" lon="11.306218076710424"><ele>393.0</ele><time>2026-04-12T17:22:31.999Z</time></trkpt><trkpt lat="43.571275805139486" lon="11.306281874087754"><ele>393.0</ele><time>2026-04-12T17:22:33.999Z</time></trkpt><trkpt lat="43.571193614767274" lon="11.306310049613177"><ele>393.0</ele><time>2026-04-12T17:22:34.999Z</time></trkpt><trkpt lat="43.57112294552224" lon="11.306328106072044"><ele>393.0</ele><time>2026-04-12T17:22:35.999Z</time></trkpt><trkpt lat="43.571038935224934" lon="11.30634957124442"><ele>393.0</ele><time>2026-04-12T17:22:36.999Z</time></trkpt><trkpt lat="43.5709761350077" lon="11.306365617104346"><ele>393.0</ele><time>2026-04-12T17:22:37.999Z</time></trkpt><trkpt lat="43.570899288985984" lon="11.306423277157453"><ele>393.0</ele><time>2026-04-12T17:22:39.999Z</time></trkpt><trkpt lat="43.57043739860576" lon="11.305774329517016"><ele>396.8333333333333</ele><time>2026-04-12T17:22:44.999Z</time></trkpt><trkpt lat="43.57036039477957" lon="11.305790618011727"><ele>400.66666666666663</ele><time>2026-04-12T17:22:46.999Z</time></trkpt><trkpt lat="43.57025782150431" lon="11.305743976114208"><ele>404.5</ele><time>2026-04-12T17:22:48.999Z</time></trkpt><trkpt lat="43.57017558384057" lon="11.305740907331998"><ele>408.3333333333333</ele><time>2026-04-12T17:22:50.999Z</time></trkpt><trkpt lat="43.570091017001836" lon="11.305737966557773"><ele>412.16666666666663</ele><time>2026-04-12T17:22:52.999Z</time></trkpt><trkpt lat="43.57000452310025" lon="11.305733345667722"><ele>416.0</ele><time>2026-04-12T17:22:55Z</time></trkpt><trkpt lat="43.569936929431975" lon="11.305740475714941"><ele>421.20000000000005</ele><time>2026-04-12T17:22:56Z</time></trkpt><trkpt lat="43.56986539028616" lon="11.305723506770065"><ele>426.40000000000003</ele><time>2026-04-12T17:22:57Z</time></trkpt><trkpt lat="43.569768768564074" lon="11.305680044288295"><ele>431.6</ele><time>2026-04-12T17:22:59Z</time></trkpt><trkpt lat="43.56965558293164" lon="11.30570120868472"><ele>436.8</ele><time>2026-04-12T17:23:01Z</time></trkpt><trkpt lat="43.56956370954643" lon="11.305712354817391"><ele>442.0</ele><time>2026-04-12T17:23:02Z</time></trkpt><trkpt lat="43.569480636087356" lon="11.305723317496238"><ele>444.0</ele><time>2026-04-12T17:23:03Z</time></trkpt><trkpt lat="43.56941468632306" lon="11.305720482480256"><ele>446.00000000000006</ele><time>2026-04-12T17:23:04Z</time></trkpt><trkpt lat="43.56935190960789" lon="11.30568976095479"><ele>448.00000000000006</ele><time>2026-04-12T17:23:05Z</time></trkpt><trkpt lat="43.56925781550413" lon="11.305641351539066"><ele>450.0</ele><time>2026-04-12T17:23:07Z</time></trkpt><trkpt lat="43.5692312147763" lon="11.305496375638041"><ele>452.0</ele><time>2026-04-12T17:23:09Z</time></trkpt><trkpt lat="43.569157121840774" lon="11.305346248546533"><ele>452.0</ele><time>2026-04-12T17:23:11Z</time></trkpt><trkpt lat="43.5690979008961" lon="11.305279351719594"><ele>452.00000000000006</ele><time>2026-04-12T17:23:12Z</time></trkpt><trkpt lat="43.56903730567685" lon="11.305214222742467"><ele>452.00000000000006</ele><time>2026-04-12T17:23:13Z</time></trkpt><trkpt lat="43.56895024734797" lon="11.305087408335927"><ele>452.0</ele><time>2026-04-12T17:23:15Z</time></trkpt><trkpt lat="43.568907819265654" lon="11.305018951551501"><ele>452.0</ele><time>2026-04-12T17:23:16Z</time></trkpt><trkpt lat="43.56886954092486" lon="11.304859165798531"><ele>452.0</ele><time>2026-04-12T17:23:18Z</time></trkpt><trkpt lat="43.56880549838434" lon="11.304811044425552"><ele>452.00000000000006</ele><time>2026-04-12T17:23:20Z</time></trkpt><trkpt lat="43.56872998537009" lon="11.304796021310066"><ele>452.00000000000006</ele><time>2026-04-12T17:23:22Z</time></trkpt><trkpt lat="43.56866827968628" lon="11.30473468100843"><ele>452.0</ele><time>2026-04-12T17:23:24Z</time></trkpt><trkpt lat="43.56857224221358" lon="11.30469324598912"><ele>452.0</ele><time>2026-04-12T17:23:26Z</time></trkpt><trkpt lat="43.56844287324514" lon="11.304650321170529"><ele>453.8</ele><time>2026-04-12T17:23:28Z</time></trkpt><trkpt lat="43.568363951223475" lon="11.304625140198356"><ele>455.6</ele><time>2026-04-12T17:23:29Z</time></trkpt><trkpt lat="43.56827088112666" lon="11.30461464016875"><ele>457.40000000000003</ele><time>2026-04-12T17:23:30Z</time></trkpt><trkpt lat="43.568160594808305" lon="11.304608629743887"><ele>459.20000000000005</ele><time>2026-04-12T17:23:32Z</time></trkpt><trkpt lat="43.56805382639375" lon="11.304550549754058"><ele>461.0</ele><time>2026-04-12T17:23:33.999Z</time></trkpt><trkpt lat="43.567950806413954" lon="11.304465364582299"><ele>460.99999999999994</ele><time>2026-04-12T17:23:35.999Z</time></trkpt><trkpt lat="43.56789371589819" lon="11.304418714037267"><ele>461.0</ele><time>2026-04-12T17:23:36.999Z</time></trkpt><trkpt lat="43.567828988979855" lon="11.304298695390042"><ele>461.0</ele><time>2026-04-12T17:23:38.999Z</time></trkpt><trkpt lat="43.567800951734654" lon="11.304219875487734"><ele>461.0</ele><time>2026-04-12T17:23:39.999Z</time></trkpt><trkpt lat="43.56770833609123" lon="11.304119618334086"><ele>460.99999999999994</ele><time>2026-04-12T17:23:41.999Z</time></trkpt><trkpt lat="43.567626324126955" lon="11.30409107400856"><ele>461.0</ele><time>2026-04-12T17:23:43.999Z</time></trkpt><trkpt lat="43.567526587350706" lon="11.304076391110032"><ele>463.8</ele><time>2026-04-12T17:23:45.999Z</time></trkpt><trkpt lat="43.567425692134606" lon="11.30405694745339"><ele>466.6</ele><time>2026-04-12T17:23:47.999Z</time></trkpt><trkpt lat="43.56735049833002" lon="11.304114342896382"><ele>469.4</ele><time>2026-04-12T17:23:49.999Z</time></trkpt><trkpt lat="43.56726730461253" lon="11.304102480542523"><ele>472.2</ele><time>2026-04-12T17:23:51.999Z</time></trkpt><trkpt lat="43.56715499960173" lon="11.304092665804598"><ele>475.0</ele><time>2026-04-12T17:23:53.999Z</time></trkpt><trkpt lat="43.56707453020013" lon="11.304101191930565"><ele>475.00000000000006</ele><time>2026-04-12T17:23:54.999Z</time></trkpt><trkpt lat="43.56699768745527" lon="11.304110509696871"><ele>475.0</ele><time>2026-04-12T17:23:55.999Z</time></trkpt><trkpt lat="43.566934360010706" lon="11.3041061668589"><ele>475.0</ele><time>2026-04-12T17:23:56.999Z</time></trkpt><trkpt lat="43.56680158176861" lon="11.304100078753729"><ele>475.0</ele><time>2026-04-12T17:23:58.999Z</time></trkpt><trkpt lat="43.566735586682704" lon="11.304085227683977"><ele>475.00000000000006</ele><time>2026-04-12T17:23:59.999Z</time></trkpt><trkpt lat="43.5667087472606" lon="11.303961749820047"><ele>475.0</ele><time>2026-04-12T17:24:03.999Z</time></trkpt><trkpt lat="43.56669460851228" lon="11.30378371721814"><ele>475.0</ele><time>2026-04-12T17:24:05.999Z</time></trkpt><trkpt lat="43.56665873998113" lon="11.303700294104736"><ele>475.00000000000006</ele><time>2026-04-12T17:24:06.999Z</time></trkpt><trkpt lat="43.56663216967817" lon="11.303619957617746"><ele>475.0</ele><time>2026-04-12T17:24:07.999Z</time></trkpt><trkpt lat="43.566645318303216" lon="11.303504154938418"><ele>475.0</ele><time>2026-04-12T17:24:09.999Z</time></trkpt><trkpt lat="43.566644731836156" lon="11.303410765836585"><ele>475.00000000000006</ele><time>2026-04-12T17:24:11.999Z</time></trkpt><trkpt lat="43.56667098559351" lon="11.303318657567615"><ele>475.0</ele><time>2026-04-12T17:24:13.999Z</time></trkpt><trkpt lat="43.56668450431689" lon="11.303226293694301"><ele>475.0</ele><time>2026-04-12T17:24:15.999Z</time></trkpt><trkpt lat="43.56670978535707" lon="11.303118246711463"><ele>474.33333333333337</ele><time>2026-04-12T17:24:17.999Z</time></trkpt><trkpt lat="43.56670547133909" lon="11.303018685989484"><ele>473.6666666666667</ele><time>2026-04-12T17:24:19.999Z</time></trkpt><trkpt lat="43.566720574408656" lon="11.302888016181594"><ele>473.0</ele><time>2026-04-12T17:24:21.999Z</time></trkpt><trkpt lat="43.56674567211985" lon="11.30280343839587"><ele>472.33333333333337</ele><time>2026-04-12T17:24:22.999Z</time></trkpt><trkpt lat="43.56678711904762" lon="11.30270794341628"><ele>471.6666666666667</ele><time>2026-04-12T17:24:23.999Z</time></trkpt><trkpt lat="43.56683082532571" lon="11.302620811263413"><ele>471.0</ele><time>2026-04-12T17:24:24.999Z</time></trkpt><trkpt lat="43.56689829322545" lon="11.302487143481681"><ele>471.0</ele><time>2026-04-12T17:24:26.999Z</time></trkpt><trkpt lat="43.56696798452572" lon="11.302335546880016"><ele>471.0</ele><time>2026-04-12T17:24:28.999Z</time></trkpt><trkpt lat="43.56700033260393" lon="11.302252535100278"><ele>471.0</ele><time>2026-04-12T17:24:29.999Z</time></trkpt><trkpt lat="43.567076395661715" lon="11.302127574322235"><ele>471.0</ele><time>2026-04-12T17:24:31.999Z</time></trkpt><trkpt lat="43.56711897421708" lon="11.302060008533616"><ele>471.0</ele><time>2026-04-12T17:24:32.999Z</time></trkpt><trkpt lat="43.56714585330727" lon="11.301927359594297"><ele>466.4</ele><time>2026-04-12T17:24:34.999Z</time></trkpt><trkpt lat="43.567198740117746" lon="11.30177116409831"><ele>461.8</ele><time>2026-04-12T17:24:36.999Z</time></trkpt><trkpt lat="43.56724441825417" lon="11.301629229834427"><ele>457.19999999999993</ele><time>2026-04-12T17:24:38.999Z</time></trkpt><trkpt lat="43.567251676838566" lon="11.301540556229266"><ele>452.59999999999997</ele><time>2026-04-12T17:24:39.999Z</time></trkpt><trkpt lat="43.56727650757111" lon="11.30137324170079"><ele>448.0</ele><time>2026-04-12T17:24:41.999Z</time></trkpt><trkpt lat="43.56727702450524" lon="11.30123739410909"><ele>447.2</ele><time>2026-04-12T17:24:43.999Z</time></trkpt><trkpt lat="43.56734711803933" lon="11.301130323572146"><ele>446.4</ele><time>2026-04-12T17:24:45.999Z</time></trkpt><trkpt lat="43.56738768901266" lon="11.301052928284074"><ele>445.59999999999997</ele><time>2026-04-12T17:24:46.999Z</time></trkpt><trkpt lat="43.56738953935742" lon="11.300879917858406"><ele>444.79999999999995</ele><time>2026-04-12T17:24:48.999Z</time></trkpt><trkpt lat="43.56740853071697" lon="11.300790704242278"><ele>444.0</ele><time>2026-04-12T17:24:49.999Z</time></trkpt><trkpt lat="43.56744184212381" lon="11.300655260640227"><ele>441.4</ele><time>2026-04-12T17:24:51.999Z</time></trkpt><trkpt lat="43.56746079722324" lon="11.300534251607123"><ele>438.79999999999995</ele><time>2026-04-12T17:24:53.999Z</time></trkpt><trkpt lat="43.56752739132225" lon="11.300426179219544"><ele>436.20000000000005</ele><time>2026-04-12T17:24:55.999Z</time></trkpt><trkpt lat="43.56760534766186" lon="11.300321101674244"><ele>433.6</ele><time>2026-04-12T17:24:57.999Z</time></trkpt><trkpt lat="43.56766612812727" lon="11.300252274020119"><ele>431.0</ele><time>2026-04-12T17:25:01Z</time></trkpt><trkpt lat="43.56774338161573" lon="11.300204759497749"><ele>430.99999999999994</ele><time>2026-04-12T17:25:03Z</time></trkpt><trkpt lat="43.56782971748725" lon="11.300193092362065"><ele>431.0</ele><time>2026-04-12T17:25:05Z</time></trkpt><trkpt lat="43.56789418490937" lon="11.300210084009468"><ele>431.0</ele><time>2026-04-12T17:25:07Z</time></trkpt><trkpt lat="43.56798948937493" lon="11.30021050530189"><ele>431.0</ele><time>2026-04-12T17:25:09Z</time></trkpt><trkpt lat="43.568058495906634" lon="11.30020774376464"><ele>430.99999999999994</ele><time>2026-04-12T17:25:11Z</time></trkpt><trkpt lat="43.5681485566642" lon="11.300226754916263"><ele>431.0</ele><time>2026-04-12T17:25:13Z</time></trkpt><trkpt lat="43.568233712893125" lon="11.300266495974713"><ele>429.8</ele><time>2026-04-12T17:25:15Z</time></trkpt><trkpt lat="43.568319960219824" lon="11.300294406728698"><ele>428.6</ele><time>2026-04-12T17:25:17Z</time></trkpt><trkpt lat="43.56840365019392" lon="11.30025968223424"><ele>427.4</ele><time>2026-04-12T17:25:19Z</time></trkpt><trkpt lat="43.568475922842005" lon="11.30027290598934"><ele>426.2</ele><time>2026-04-12T17:25:21Z</time></trkpt><trkpt lat="43.5685677338395" lon="11.300351183597927"><ele>425.0</ele><time>2026-04-12T17:25:23Z</time></trkpt><trkpt lat="43.5686643958712" lon="11.300398005544054"><ele>422.3333333333333</ele><time>2026-04-12T17:25:25Z</time></trkpt><trkpt lat="43.5687082015453" lon="11.300492068307994"><ele>419.66666666666663</ele><time>2026-04-12T17:25:27Z</time></trkpt><trkpt lat="43.568715475947634" lon="11.300614275877393"><ele>417.0</ele><time>2026-04-12T17:25:30Z</time></trkpt><trkpt lat="43.56875301431421" lon="11.300708362614799"><ele>414.33333333333337</ele><time>2026-04-12T17:25:32Z</time></trkpt><trkpt lat="43.56882260215056" lon="11.300700304657523"><ele>411.6666666666667</ele><time>2026-04-12T17:25:34Z</time></trkpt><trkpt lat="43.568887293850864" lon="11.300670474957943"><ele>409.0</ele><time>2026-04-12T17:25:36Z</time></trkpt><trkpt lat="43.568959391440444" lon="11.300559254469443"><ele>408.4</ele><time>2026-04-12T17:25:37.999Z</time></trkpt><trkpt lat="43.56899366205856" lon="11.30043061621832"><ele>407.79999999999995</ele><time>2026-04-12T17:25:39.999Z</time></trkpt><trkpt lat="43.56902591969058" lon="11.300288710490555"><ele>407.20000000000005</ele><time>2026-04-12T17:25:41.999Z</time></trkpt><trkpt lat="43.56907862956218" lon="11.300142290063231"><ele>406.6</ele><time>2026-04-12T17:25:43.999Z</time></trkpt><trkpt lat="43.56909116839949" lon="11.300030887612511"><ele>406.0</ele><time>2026-04-12T17:25:45.999Z</time></trkpt><trkpt lat="43.569113395777556" lon="11.299920393025848"><ele>406.0</ele><time>2026-04-12T17:25:47.999Z</time></trkpt><trkpt lat="43.56914992732356" lon="11.299833956179794"><ele>406.0</ele><time>2026-04-12T17:25:56.999Z</time></trkpt><trkpt lat="43.56924788005945" lon="11.29991828559319"><ele>406.0</ele><time>2026-04-12T17:25:58.999Z</time></trkpt><trkpt lat="43.56932067011694" lon="11.299969222545936"><ele>406.0</ele><time>2026-04-12T17:25:59.999Z</time></trkpt><trkpt lat="43.56940765034378" lon="11.300014620574323"><ele>406.0</ele><time>2026-04-12T17:26:00.999Z</time></trkpt><trkpt lat="43.56948955685175" lon="11.30006397242837"><ele>403.14285714285717</ele><time>2026-04-12T17:26:01.999Z</time></trkpt><trkpt lat="43.56956679655923" lon="11.300113194669336"><ele>400.2857142857143</ele><time>2026-04-12T17:26:02.999Z</time></trkpt><trkpt lat="43.569633654701555" lon="11.300163577461896"><ele>397.42857142857144</ele><time>2026-04-12T17:26:03.999Z</time></trkpt><trkpt lat="43.569709389413035" lon="11.300209811602645"><ele>394.57142857142856</ele><time>2026-04-12T17:26:04.999Z</time></trkpt><trkpt lat="43.569770888897594" lon="11.300253507076718"><ele>391.7142857142857</ele><time>2026-04-12T17:26:05.999Z</time></trkpt><trkpt lat="43.569827856278145" lon="11.30029662947158"><ele>388.8571428571429</ele><time>2026-04-12T17:26:06.999Z</time></trkpt><trkpt lat="43.56989123522686" lon="11.300330980676838"><ele>386.0</ele><time>2026-04-12T17:26:07.999Z</time></trkpt><trkpt lat="43.570005417350366" lon="11.300369912831348"><ele>385.99999999999994</ele><time>2026-04-12T17:26:09.999Z</time></trkpt><trkpt lat="43.57010308745379" lon="11.300437799775231"><ele>386.0</ele><time>2026-04-12T17:26:11.999Z</time></trkpt><trkpt lat="43.57016125856378" lon="11.300584887289325"><ele>386.0</ele><time>2026-04-12T17:26:13.999Z</time></trkpt><trkpt lat="43.570180683392856" lon="11.300668270462827"><ele>386.0</ele><time>2026-04-12T17:26:14.999Z</time></trkpt><trkpt lat="43.57020445252861" lon="11.300768788319148"><ele>385.99999999999994</ele><time>2026-04-12T17:26:15.999Z</time></trkpt><trkpt lat="43.57022571729566" lon="11.300851453319794"><ele>386.0</ele><time>2026-04-12T17:26:16.999Z</time></trkpt><trkpt lat="43.570241108364186" lon="11.30094213122047"><ele>386.00000000000006</ele><time>2026-04-12T17:26:17.999Z</time></trkpt><trkpt lat="43.570235573298056" lon="11.301034520851518"><ele>386.0</ele><time>2026-04-12T17:26:18.999Z</time></trkpt><trkpt lat="43.57020162229596" lon="11.301134025219321"><ele>386.0</ele><time>2026-04-12T17:26:19.999Z</time></trkpt><trkpt lat="43.570150760947314" lon="11.30123498114939"><ele>386.0</ele><time>2026-04-12T17:26:20.999Z</time></trkpt><trkpt lat="43.570102556849314" lon="11.301322161146372"><ele>386.0</ele><time>2026-04-12T17:26:21.999Z</time></trkpt><trkpt lat="43.570059165411465" lon="11.30139238781195"><ele>386.00000000000006</ele><time>2026-04-12T17:26:22.999Z</time></trkpt><trkpt lat="43.570003407810795" lon="11.301443489021759"><ele>386.0</ele><time>2026-04-12T17:26:23.999Z</time></trkpt><trkpt lat="43.56997023198223" lon="11.30152651678616"><ele>384.8</ele><time>2026-04-12T17:26:24.999Z</time></trkpt><trkpt lat="43.56991966253802" lon="11.301585863964803"><ele>383.6</ele><time>2026-04-12T17:26:25.999Z</time></trkpt><trkpt lat="43.569850047915864" lon="11.301718163474478"><ele>382.4</ele><time>2026-04-12T17:26:27.999Z</time></trkpt><trkpt lat="43.56982047491563" lon="11.301882149194045"><ele>381.2</ele><time>2026-04-12T17:26:29.999Z</time></trkpt><trkpt lat="43.56985803375052" lon="11.301973896937323"><ele>380.0</ele><time>2026-04-12T17:26:30.999Z</time></trkpt><trkpt lat="43.56991613927069" lon="11.302062004675031"><ele>380.0</ele><time>2026-04-12T17:26:31.999Z</time></trkpt><trkpt lat="43.56999933485211" lon="11.30211210775668"><ele>380.0</ele><time>2026-04-12T17:26:32.999Z</time></trkpt><trkpt lat="43.57008078940588" lon="11.302160261266215"><ele>380.0</ele><time>2026-04-12T17:26:33.999Z</time></trkpt><trkpt lat="43.570165188935114" lon="11.302214744527982"><ele>380.0</ele><time>2026-04-12T17:26:34.999Z</time></trkpt><trkpt lat="43.570262669570525" lon="11.302277672171115"><ele>380.0</ele><time>2026-04-12T17:26:35.999Z</time></trkpt><trkpt lat="43.57034949415967" lon="11.302335041159125"><ele>378.4</ele><time>2026-04-12T17:26:36.999Z</time></trkpt><trkpt lat="43.570440813018074" lon="11.302375574288156"><ele>376.8</ele><time>2026-04-12T17:26:37.999Z</time></trkpt><trkpt lat="43.570528627013005" lon="11.302450366931517"><ele>375.20000000000005</ele><time>2026-04-12T17:26:38.999Z</time></trkpt><trkpt lat="43.57062061101908" lon="11.302513155046503"><ele>373.6</ele><time>2026-04-12T17:26:39.999Z</time></trkpt><trkpt lat="43.57071224219953" lon="11.30255179958546"><ele>372.0</ele><time>2026-04-12T17:26:40.999Z</time></trkpt><trkpt lat="43.57079449609373" lon="11.30255764187592"><ele>372.0</ele><time>2026-04-12T17:26:41.999Z</time></trkpt><trkpt lat="43.57089170790932" lon="11.302611227412738"><ele>372.0</ele><time>2026-04-12T17:26:43.999Z</time></trkpt><trkpt lat="43.57086990133095" lon="11.302431308263074"><ele>372.0</ele><time>2026-04-12T17:26:47.999Z</time></trkpt><trkpt lat="43.57075231406629" lon="11.302344837415955"><ele>372.0</ele><time>2026-04-12T17:26:49.999Z</time></trkpt><trkpt lat="43.57070540140489" lon="11.30226108073423"><ele>372.0</ele><time>2026-04-12T17:26:50.999Z</time></trkpt><trkpt lat="43.57064509767142" lon="11.302173013399559"><ele>370.6666666666667</ele><time>2026-04-12T17:26:51.999Z</time></trkpt><trkpt lat="43.570602943063115" lon="11.302078706054472"><ele>369.3333333333333</ele><time>2026-04-12T17:26:52.999Z</time></trkpt><trkpt lat="43.570562670787346" lon="11.301964683713841"><ele>368.0</ele><time>2026-04-12T17:26:53.999Z</time></trkpt><trkpt lat="43.570531373197994" lon="11.301888781951389"><ele>366.66666666666663</ele><time>2026-04-12T17:26:54.999Z</time></trkpt><trkpt lat="43.57058667051198" lon="11.301752164210667"><ele>365.3333333333333</ele><time>2026-04-12T17:26:56.999Z</time></trkpt><trkpt lat="43.57065445460188" lon="11.301728206405944"><ele>364.0</ele><time>2026-04-12T17:26:57.999Z</time></trkpt><trkpt lat="43.570744758176744" lon="11.301714653397841"><ele>364.0</ele><time>2026-04-12T17:26:58.999Z</time></trkpt><trkpt lat="43.570832545455076" lon="11.301662531739"><ele>364.0</ele><time>2026-04-12T17:26:59.999Z</time></trkpt><trkpt lat="43.570932993680785" lon="11.301598293297342"><ele>364.0</ele><time>2026-04-12T17:27:00.999Z</time></trkpt><trkpt lat="43.57100355148346" lon="11.301567545292771"><ele>364.0</ele><time>2026-04-12T17:27:01.999Z</time></trkpt><trkpt lat="43.57107150728647" lon="11.301519989601584"><ele>364.0</ele><time>2026-04-12T17:27:02.999Z</time></trkpt><trkpt lat="43.57113764493299" lon="11.301471405508574"><ele>364.0</ele><time>2026-04-12T17:27:03.999Z</time></trkpt><trkpt lat="43.57120694243524" lon="11.301440174145554"><ele>361.79999999999995</ele><time>2026-04-12T17:27:04.999Z</time></trkpt><trkpt lat="43.571290770768506" lon="11.301324043982335"><ele>359.59999999999997</ele><time>2026-04-12T17:27:05.999Z</time></trkpt><trkpt lat="43.57137373144997" lon="11.30126161361175"><ele>357.4</ele><time>2026-04-12T17:27:07Z</time></trkpt><trkpt lat="43.57145139939393" lon="11.301206089390947"><ele>355.2</ele><time>2026-04-12T17:27:08Z</time></trkpt><trkpt lat="43.57153042669258" lon="11.301148348343851"><ele>353.0</ele><time>2026-04-12T17:27:09Z</time></trkpt><trkpt lat="43.57160903830135" lon="11.301095834492216"><ele>353.0</ele><time>2026-04-12T17:27:10Z</time></trkpt><trkpt lat="43.57168328266811" lon="11.301046750595189"><ele>353.0</ele><time>2026-04-12T17:27:11Z</time></trkpt><trkpt lat="43.571760094358055" lon="11.300999706133425"><ele>353.0</ele><time>2026-04-12T17:27:12Z</time></trkpt><trkpt lat="43.57183668831187" lon="11.300952320854076"><ele>353.0</ele><time>2026-04-12T17:27:13Z</time></trkpt><trkpt lat="43.57190861906042" lon="11.300912932399912"><ele>353.0</ele><time>2026-04-12T17:27:14Z</time></trkpt><trkpt lat="43.571986382836535" lon="11.30086983731612"><ele>353.0</ele><time>2026-04-12T17:27:15Z</time></trkpt><trkpt lat="43.57204806003239" lon="11.30082733161497"><ele>350.83333333333337</ele><time>2026-04-12T17:27:16Z</time></trkpt><trkpt lat="43.57209638291827" lon="11.300770385709255"><ele>348.6666666666667</ele><time>2026-04-12T17:27:17Z</time></trkpt><trkpt lat="43.57213330804913" lon="11.300697991560508"><ele>346.5</ele><time>2026-04-12T17:27:18Z</time></trkpt><trkpt lat="43.57220659425922" lon="11.300543130695267"><ele>344.3333333333333</ele><time>2026-04-12T17:27:20Z</time></trkpt><trkpt lat="43.572263056185555" lon="11.300480261169023"><ele>342.16666666666663</ele><time>2026-04-12T17:27:21Z</time></trkpt><trkpt lat="43.5723091452559" lon="11.300412010081228"><ele>340.0</ele><time>2026-04-12T17:27:22Z</time></trkpt><trkpt lat="43.57236803046297" lon="11.30034776286983"><ele>339.3333333333333</ele><time>2026-04-12T17:27:23Z</time></trkpt><trkpt lat="43.57245359650944" lon="11.30022872189019"><ele>338.66666666666663</ele><time>2026-04-12T17:27:25Z</time></trkpt><trkpt lat="43.57249153407595" lon="11.30015448424681"><ele>338.0</ele><time>2026-04-12T17:27:26Z</time></trkpt><trkpt lat="43.57251733611891" lon="11.300070100581305"><ele>337.3333333333333</ele><time>2026-04-12T17:27:27Z</time></trkpt><trkpt lat="43.572538987655086" lon="11.299975542676917"><ele>336.6666666666667</ele><time>2026-04-12T17:27:28Z</time></trkpt><trkpt lat="43.57257672860324" lon="11.299896766827159"><ele>336.0</ele><time>2026-04-12T17:27:29Z</time></trkpt><trkpt lat="43.572627103444596" lon="11.299815491195865"><ele>334.0</ele><time>2026-04-12T17:27:30Z</time></trkpt><trkpt lat="43.57268449750938" lon="11.299749952852494"><ele>332.0</ele><time>2026-04-12T17:27:31Z</time></trkpt><trkpt lat="43.572746003971886" lon="11.299706505120536"><ele>330.0</ele><time>2026-04-12T17:27:32Z</time></trkpt><trkpt lat="43.57286129920152" lon="11.299701326373437"><ele>328.0</ele><time>2026-04-12T17:27:33.999Z</time></trkpt><trkpt lat="43.5729703921073" lon="11.299729813795283"><ele>326.0</ele><time>2026-04-12T17:27:35.999Z</time></trkpt><trkpt lat="43.57308511934217" lon="11.299706247819172"><ele>324.0</ele><time>2026-04-12T17:27:37.999Z</time></trkpt><trkpt lat="43.57316854193085" lon="11.299810677081455"><ele>322.0</ele><time>2026-04-12T17:27:39.999Z</time></trkpt><trkpt lat="43.573175493410695" lon="11.299898004131657"><ele>320.0</ele><time>2026-04-12T17:27:40.999Z</time></trkpt><trkpt lat="43.57313388906875" lon="11.300013212713027"><ele>318.0</ele><time>2026-04-12T17:27:42.999Z</time></trkpt><trkpt lat="43.57316970293907" lon="11.300124146051587"><ele>316.0</ele><time>2026-04-12T17:27:44.999Z</time></trkpt><trkpt lat="43.573290656477624" lon="11.300118032234915"><ele>316.0</ele><time>2026-04-12T17:27:46.999Z</time></trkpt><trkpt lat="43.57341726542568" lon="11.300019741868121"><ele>316.0</ele><time>2026-04-12T17:27:48.999Z</time></trkpt><trkpt lat="43.57352682534017" lon="11.299931567739218"><ele>316.0</ele><time>2026-04-12T17:27:49.999Z</time></trkpt><trkpt lat="43.57360229797786" lon="11.299868682016433"><ele>316.0</ele><time>2026-04-12T17:27:50.999Z</time></trkpt><trkpt lat="43.573674968367" lon="11.299843303842966"><ele>316.0</ele><time>2026-04-12T17:27:51.999Z</time></trkpt><trkpt lat="43.57377161986842" lon="11.29982638479459"><ele>315.2</ele><time>2026-04-12T17:27:53.999Z</time></trkpt><trkpt lat="43.57385092368807" lon="11.299828121603793"><ele>314.40000000000003</ele><time>2026-04-12T17:27:56.999Z</time></trkpt><trkpt lat="43.57399614453399" lon="11.29975712244387"><ele>313.6</ele><time>2026-04-12T17:27:58.999Z</time></trkpt><trkpt lat="43.57409011632854" lon="11.299754171509655"><ele>312.8</ele><time>2026-04-12T17:27:59.999Z</time></trkpt><trkpt lat="43.57419189149081" lon="11.299752959956232"><ele>312.0</ele><time>2026-04-12T17:28:00.999Z</time></trkpt><trkpt lat="43.57429603613569" lon="11.29973892070959"><ele>312.0</ele><time>2026-04-12T17:28:01.999Z</time></trkpt><trkpt lat="43.57437975063105" lon="11.29974630430473"><ele>312.0</ele><time>2026-04-12T17:28:02.999Z</time></trkpt><trkpt lat="43.57446803519704" lon="11.299790339775837"><ele>312.0</ele><time>2026-04-12T17:28:03.999Z</time></trkpt><trkpt lat="43.57459869910912" lon="11.29986957525849"><ele>312.0</ele><time>2026-04-12T17:28:04.999Z</time></trkpt><trkpt lat="43.57473001302884" lon="11.299919580004518"><ele>312.5</ele><time>2026-04-12T17:28:05.999Z</time></trkpt><trkpt lat="43.57483700718934" lon="11.299964540183957"><ele>313.0</ele><time>2026-04-12T17:28:06.999Z</time></trkpt><trkpt lat="43.57494924590766" lon="11.300018776624148"><ele>313.5</ele><time>2026-04-12T17:28:07.999Z</time></trkpt><trkpt lat="43.575032153816316" lon="11.300083196330222"><ele>314.0</ele><time>2026-04-12T17:28:08.999Z</time></trkpt><trkpt lat="43.57517454875377" lon="11.300031930916278"><ele>314.0</ele><time>2026-04-12T17:28:09.999Z</time></trkpt><trkpt lat="43.57523337201249" lon="11.300092148621157"><ele>314.0</ele><time>2026-04-12T17:28:10.999Z</time></trkpt><trkpt lat="43.575286910632876" lon="11.300144557122135"><ele>314.0</ele><time>2026-04-12T17:28:11.999Z</time></trkpt><trkpt lat="43.57535020883205" lon="11.300206988523842"><ele>314.0</ele><time>2026-04-12T17:28:12.999Z</time></trkpt><trkpt lat="43.57540583193326" lon="11.300248533784664"><ele>314.0</ele><time>2026-04-12T17:28:13.999Z</time></trkpt><trkpt lat="43.57550584318612" lon="11.300279993055499"><ele>314.0</ele><time>2026-04-12T17:28:15.999Z</time></trkpt><trkpt lat="43.575580327397745" lon="11.300283776954785"><ele>313.8</ele><time>2026-04-12T17:28:16.999Z</time></trkpt><trkpt lat="43.57569054338048" lon="11.300265331096364"><ele>313.59999999999997</ele><time>2026-04-12T17:28:17.999Z</time></trkpt><trkpt lat="43.57577784561268" lon="11.300219296546528"><ele>313.4</ele><time>2026-04-12T17:28:18.999Z</time></trkpt><trkpt lat="43.575857673746825" lon="11.300152591517493"><ele>313.2</ele><time>2026-04-12T17:28:19.999Z</time></trkpt><trkpt lat="43.575940067061566" lon="11.300107804660026"><ele>313.0</ele><time>2026-04-12T17:28:20.999Z</time></trkpt><trkpt lat="43.576019402555985" lon="11.300055630584676"><ele>313.0</ele><time>2026-04-12T17:28:21.999Z</time></trkpt><trkpt lat="43.576104907930755" lon="11.300016258368979"><ele>313.0</ele><time>2026-04-12T17:28:22.999Z</time></trkpt><trkpt lat="43.57618038841398" lon="11.299957697097533"><ele>313.0</ele><time>2026-04-12T17:28:23.999Z</time></trkpt><trkpt lat="43.576253228764855" lon="11.299897242646649"><ele>313.0</ele><time>2026-04-12T17:28:24.999Z</time></trkpt><trkpt lat="43.576341235097836" lon="11.299844408103901"><ele>313.0</ele><time>2026-04-12T17:28:25.999Z</time></trkpt><trkpt lat="43.576425329083534" lon="11.29983570327542"><ele>313.0</ele><time>2026-04-12T17:28:26.999Z</time></trkpt><trkpt lat="43.57652728602632" lon="11.299894569532828"><ele>312.8</ele><time>2026-04-12T17:28:28.999Z</time></trkpt><trkpt lat="43.57656611688835" lon="11.300001923189994"><ele>312.6</ele><time>2026-04-12T17:28:29.999Z</time></trkpt><trkpt lat="43.57661716503352" lon="11.300122030478475"><ele>312.4</ele><time>2026-04-12T17:28:30.999Z</time></trkpt><trkpt lat="43.57668405737505" lon="11.300226817864866"><ele>312.2</ele><time>2026-04-12T17:28:31.999Z</time></trkpt><trkpt lat="43.57674900991083" lon="11.300336332460224"><ele>312.0</ele><time>2026-04-12T17:28:32.999Z</time></trkpt><trkpt lat="43.576805204601456" lon="11.30045231461243"><ele>312.0</ele><time>2026-04-12T17:28:33.999Z</time></trkpt><trkpt lat="43.57686571650608" lon="11.300571320357669"><ele>312.0</ele><time>2026-04-12T17:28:34.999Z</time></trkpt><trkpt lat="43.57690542138282" lon="11.300654384671086"><ele>312.0</ele><time>2026-04-12T17:28:35.999Z</time></trkpt><trkpt lat="43.57700120191651" lon="11.300795654226741"><ele>312.0</ele><time>2026-04-12T17:28:37.999Z</time></trkpt><trkpt lat="43.577070419928496" lon="11.300860731994883"><ele>312.0</ele><time>2026-04-12T17:28:38.999Z</time></trkpt><trkpt lat="43.57714501089202" lon="11.300945139815497"><ele>314.8</ele><time>2026-04-12T17:28:39.999Z</time></trkpt><trkpt lat="43.577224275223415" lon="11.301023221790949"><ele>317.6</ele><time>2026-04-12T17:28:40.999Z</time></trkpt><trkpt lat="43.577309403762115" lon="11.301101212891982"><ele>320.40000000000003</ele><time>2026-04-12T17:28:41.999Z</time></trkpt><trkpt lat="43.577390065747274" lon="11.301175586660758"><ele>323.2</ele><time>2026-04-12T17:28:42.999Z</time></trkpt><trkpt lat="43.57745736301809" lon="11.30123450289778"><ele>326.0</ele><time>2026-04-12T17:28:43.999Z</time></trkpt><trkpt lat="43.57754304407164" lon="11.301290495006896"><ele>326.0</ele><time>2026-04-12T17:28:44.999Z</time></trkpt><trkpt lat="43.57762653018977" lon="11.30131986004531"><ele>326.0</ele><time>2026-04-12T17:28:45.999Z</time></trkpt><trkpt lat="43.57772459842803" lon="11.301338895245626"><ele>326.0</ele><time>2026-04-12T17:28:46.999Z</time></trkpt><trkpt lat="43.57783171195541" lon="11.301375001142498"><ele>326.0</ele><time>2026-04-12T17:28:47.999Z</time></trkpt><trkpt lat="43.57793845825252" lon="11.30136649052449"><ele>326.0</ele><time>2026-04-12T17:28:48.999Z</time></trkpt><trkpt lat="43.57805923769421" lon="11.301338542801787"><ele>328.0</ele><time>2026-04-12T17:28:49.999Z</time></trkpt><trkpt lat="43.57818370682449" lon="11.301361390680492"><ele>330.0</ele><time>2026-04-12T17:28:50.999Z</time></trkpt><trkpt lat="43.57830510490742" lon="11.30137125685569"><ele>332.0</ele><time>2026-04-12T17:28:51.999Z</time></trkpt><trkpt lat="43.57842323461199" lon="11.301383339969096"><ele>334.0</ele><time>2026-04-12T17:28:52.999Z</time></trkpt><trkpt lat="43.578536179113854" lon="11.301393408614892"><ele>334.0</ele><time>2026-04-12T17:28:53.999Z</time></trkpt><trkpt lat="43.57865254647077" lon="11.301404121663328"><ele>334.0</ele><time>2026-04-12T17:28:54.999Z</time></trkpt><trkpt lat="43.57877503930732" lon="11.30142038943488"><ele>334.0</ele><time>2026-04-12T17:28:55.999Z</time></trkpt><trkpt lat="43.57892008126696" lon="11.301455768031992"><ele>334.0</ele><time>2026-04-12T17:28:56.999Z</time></trkpt><trkpt lat="43.57902220649171" lon="11.301454580053463"><ele>332.4</ele><time>2026-04-12T17:28:57.999Z</time></trkpt><trkpt lat="43.579120378869796" lon="11.301499299601039"><ele>330.79999999999995</ele><time>2026-04-12T17:28:58.999Z</time></trkpt><trkpt lat="43.57921918037927" lon="11.301529379154218"><ele>329.20000000000005</ele><time>2026-04-12T17:28:59.999Z</time></trkpt><trkpt lat="43.579315703631174" lon="11.301578035643171"><ele>327.6</ele><time>2026-04-12T17:29:00.999Z</time></trkpt><trkpt lat="43.57940986171853" lon="11.301647869613198"><ele>326.0</ele><time>2026-04-12T17:29:01.999Z</time></trkpt><trkpt lat="43.57949765460968" lon="11.30170695987825"><ele>327.0</ele><time>2026-04-12T17:29:02.999Z</time></trkpt><trkpt lat="43.579577543412235" lon="11.30172825689148"><ele>328.0</ele><time>2026-04-12T17:29:03.999Z</time></trkpt><trkpt lat="43.57965094790867" lon="11.30174563846867"><ele>329.0</ele><time>2026-04-12T17:29:04.999Z</time></trkpt><trkpt lat="43.57973664799644" lon="11.301733494785646"><ele>330.0</ele><time>2026-04-12T17:29:05.999Z</time></trkpt><trkpt lat="43.579833658927214" lon="11.301704184690742"><ele>331.0</ele><time>2026-04-12T17:29:06.999Z</time></trkpt><trkpt lat="43.57992482108034" lon="11.301691035877273"><ele>332.0</ele><time>2026-04-12T17:29:07.999Z</time></trkpt><trkpt lat="43.58001809797788" lon="11.301728430695297"><ele>332.0</ele><time>2026-04-12T17:29:08.998Z</time></trkpt><trkpt lat="43.58010880591854" lon="11.301732768633405"><ele>332.0</ele><time>2026-04-12T17:29:09.998Z</time></trkpt><trkpt lat="43.58018854125446" lon="11.301759974774967"><ele>332.0</ele><time>2026-04-12T17:29:10.998Z</time></trkpt><trkpt lat="43.58025369332789" lon="11.301784590197936"><ele>332.0</ele><time>2026-04-12T17:29:11.998Z</time></trkpt><trkpt lat="43.580355101140015" lon="11.30180952794754"><ele>332.0</ele><time>2026-04-12T17:29:14Z</time></trkpt><trkpt lat="43.58044485872859" lon="11.301826174551037"><ele>332.0</ele><time>2026-04-12T17:29:16Z</time></trkpt><trkpt lat="43.58051789647805" lon="11.301852039016655"><ele>333.0</ele><time>2026-04-12T17:29:20Z</time></trkpt><trkpt lat="43.58056949021531" lon="11.301782364363644"><ele>334.0</ele><time>2026-04-12T17:29:21Z</time></trkpt><trkpt lat="43.58066791652678" lon="11.301784090229747"><ele>335.0</ele><time>2026-04-12T17:29:23Z</time></trkpt><trkpt lat="43.58073992452632" lon="11.301789065682009"><ele>336.0</ele><time>2026-04-12T17:29:25Z</time></trkpt><trkpt lat="43.580774318477324" lon="11.301927620465067"><ele>337.0</ele><time>2026-04-12T17:29:27Z</time></trkpt><trkpt lat="43.58083798222404" lon="11.302056403582855"><ele>337.0</ele><time>2026-04-12T17:29:29Z</time></trkpt><trkpt lat="43.580938599189246" lon="11.302123690470385"><ele>337.0</ele><time>2026-04-12T17:29:31Z</time></trkpt><trkpt lat="43.58105908474394" lon="11.302212988437299"><ele>337.0</ele><time>2026-04-12T17:29:33Z</time></trkpt><trkpt lat="43.581126535252444" lon="11.302254916544683"><ele>337.0</ele><time>2026-04-12T17:29:34Z</time></trkpt><trkpt lat="43.58119716661823" lon="11.302273065398904"><ele>337.0</ele><time>2026-04-12T17:29:35Z</time></trkpt><trkpt lat="43.58125027419125" lon="11.302333633372733"><ele>338.0</ele><time>2026-04-12T17:29:36Z</time></trkpt><trkpt lat="43.58129348746395" lon="11.302401390664818"><ele>339.0</ele><time>2026-04-12T17:29:37Z</time></trkpt><trkpt lat="43.58134006218848" lon="11.302461730902893"><ele>340.0</ele><time>2026-04-12T17:29:38Z</time></trkpt><trkpt lat="43.581430778742295" lon="11.302581859798167"><ele>341.0</ele><time>2026-04-12T17:29:39.999Z</time></trkpt><trkpt lat="43.581480712466" lon="11.302722568336371"><ele>342.0</ele><time>2026-04-12T17:29:41.999Z</time></trkpt><trkpt lat="43.58144679841465" lon="11.302861449388239"><ele>342.0</ele><time>2026-04-12T17:29:43.999Z</time></trkpt><trkpt lat="43.58144338116333" lon="11.302983975454977"><ele>342.0</ele><time>2026-04-12T17:29:45.999Z</time></trkpt><trkpt lat="43.58139761723045" lon="11.303130919497935"><ele>342.0</ele><time>2026-04-12T17:29:47.999Z</time></trkpt><trkpt lat="43.58137179337372" lon="11.303214867272542"><ele>342.0</ele><time>2026-04-12T17:29:48.999Z</time></trkpt><trkpt lat="43.58132784440171" lon="11.303284270405918"><ele>342.0</ele><time>2026-04-12T17:29:49.999Z</time></trkpt><trkpt lat="43.58129205433278" lon="11.303360855255375"><ele>342.0</ele><time>2026-04-12T17:29:50.999Z</time></trkpt><trkpt lat="43.58123013030117" lon="11.30341444242763"><ele>341.5</ele><time>2026-04-12T17:29:51.999Z</time></trkpt><trkpt lat="43.581205755232666" lon="11.30350676071197"><ele>341.0</ele><time>2026-04-12T17:29:52.999Z</time></trkpt><trkpt lat="43.58118160834888" lon="11.30359454855087"><ele>340.5</ele><time>2026-04-12T17:29:53.999Z</time></trkpt><trkpt lat="43.581158559313" lon="11.303687975369318"><ele>340.0</ele><time>2026-04-12T17:29:54.999Z</time></trkpt><trkpt lat="43.581136904865325" lon="11.303778359161736"><ele>339.5</ele><time>2026-04-12T17:29:55.999Z</time></trkpt><trkpt lat="43.58109755086434" lon="11.303940499104344"><ele>339.0</ele><time>2026-04-12T17:29:57.999Z</time></trkpt><trkpt lat="43.58107569071825" lon="11.304104477505287"><ele>338.3333333333333</ele><time>2026-04-12T17:29:59.999Z</time></trkpt><trkpt lat="43.581069051054705" lon="11.304266132000686"><ele>337.6666666666667</ele><time>2026-04-12T17:30:01.999Z</time></trkpt><trkpt lat="43.58108242676329" lon="11.304355434507368"><ele>337.0</ele><time>2026-04-12T17:30:02.999Z</time></trkpt><trkpt lat="43.58110925473875" lon="11.304441466254987"><ele>336.33333333333337</ele><time>2026-04-12T17:30:03.999Z</time></trkpt><trkpt lat="43.58115370560526" lon="11.304508565330632"><ele>335.6666666666667</ele><time>2026-04-12T17:30:04.999Z</time></trkpt><trkpt lat="43.58120983623457" lon="11.304622526617397"><ele>335.0</ele><time>2026-04-12T17:30:06.999Z</time></trkpt><trkpt lat="43.58123550493356" lon="11.304713895386062"><ele>337.2</ele><time>2026-04-12T17:30:10.999Z</time></trkpt><trkpt lat="43.581314906328195" lon="11.304785314056774"><ele>339.4</ele><time>2026-04-12T17:30:13.999Z</time></trkpt><trkpt lat="43.58139096992501" lon="11.304839353178581"><ele>341.6</ele><time>2026-04-12T17:30:16.999Z</time></trkpt><trkpt lat="43.58128393149703" lon="11.304860568999452"><ele>343.8</ele><time>2026-04-12T17:33:26.001Z</time></trkpt><trkpt lat="43.58142162770538" lon="11.30486909152951"><ele>346.0</ele><time>2026-04-12T17:33:51Z</time></trkpt><trkpt lat="43.58148833097909" lon="11.304888270343959"><ele>346.0</ele><time>2026-04-12T17:34:48Z</time></trkpt><trkpt lat="43.58158420781036" lon="11.304919482408923"><ele>346.0</ele><time>2026-04-12T17:34:50Z</time></trkpt><trkpt lat="43.581690692785784" lon="11.304958653443233"><ele>346.0</ele><time>2026-04-12T17:34:51Z</time></trkpt><trkpt lat="43.58181305649158" lon="11.305009225459417"><ele>346.0</ele><time>2026-04-12T17:34:52Z</time></trkpt><trkpt lat="43.581948098811466" lon="11.305070711987762"><ele>341.0</ele><time>2026-04-12T17:34:53Z</time></trkpt><trkpt lat="43.58206989600382" lon="11.305134107472503"><ele>336.0</ele><time>2026-04-12T17:34:54Z</time></trkpt><trkpt lat="43.58217694133445" lon="11.30520829904547"><ele>331.0</ele><time>2026-04-12T17:34:55Z</time></trkpt><trkpt lat="43.582252550806054" lon="11.305375615663772"><ele>326.0</ele><time>2026-04-12T17:34:57Z</time></trkpt><trkpt lat="43.58225510145318" lon="11.30551573582887"><ele>327.5</ele><time>2026-04-12T17:34:58Z</time></trkpt><trkpt lat="43.58227608699767" lon="11.30568634323439"><ele>329.0</ele><time>2026-04-12T17:34:59Z</time></trkpt><trkpt lat="43.58229655100221" lon="11.305860583607982"><ele>330.5</ele><time>2026-04-12T17:35:00Z</time></trkpt><trkpt lat="43.58231614508753" lon="11.306037228356013"><ele>332.0</ele><time>2026-04-12T17:35:01Z</time></trkpt><trkpt lat="43.582336439913405" lon="11.30621540504099"><ele>332.0</ele><time>2026-04-12T17:35:02Z</time></trkpt><trkpt lat="43.582358524259995" lon="11.306395551435285"><ele>332.0</ele><time>2026-04-12T17:35:03Z</time></trkpt><trkpt lat="43.58237949834733" lon="11.306565603217757"><ele>332.0</ele><time>2026-04-12T17:35:04Z</time></trkpt><trkpt lat="43.58240041209329" lon="11.306735166702147"><ele>332.0</ele><time>2026-04-12T17:35:05Z</time></trkpt><trkpt lat="43.582422080400306" lon="11.306902235834135"><ele>332.0</ele><time>2026-04-12T17:35:06Z</time></trkpt><trkpt lat="43.58244465638165" lon="11.307072748856072"><ele>332.0</ele><time>2026-04-12T17:35:07Z</time></trkpt><trkpt lat="43.58248294415207" lon="11.307248426695294"><ele>332.0</ele><time>2026-04-12T17:35:08Z</time></trkpt><trkpt lat="43.58250173994308" lon="11.307432646648005"><ele>332.0</ele><time>2026-04-12T17:35:09Z</time></trkpt><trkpt lat="43.5825194437261" lon="11.30760721938204"><ele>331.0</ele><time>2026-04-12T17:35:10Z</time></trkpt><trkpt lat="43.58253932331206" lon="11.307780276029854"><ele>330.0</ele><time>2026-04-12T17:35:11Z</time></trkpt><trkpt lat="43.582560488171616" lon="11.307939879747975"><ele>329.0</ele><time>2026-04-12T17:35:12Z</time></trkpt><trkpt lat="43.58259592391056" lon="11.308096618268696"><ele>328.0</ele><time>2026-04-12T17:35:13Z</time></trkpt><trkpt lat="43.58264241938302" lon="11.308248211103983"><ele>326.0</ele><time>2026-04-12T17:35:14Z</time></trkpt><trkpt lat="43.58269500080896" lon="11.308403065523823"><ele>324.0</ele><time>2026-04-12T17:35:15Z</time></trkpt><trkpt lat="43.58274343224332" lon="11.308552690523248"><ele>322.0</ele><time>2026-04-12T17:35:16Z</time></trkpt><trkpt lat="43.582787298343625" lon="11.308709884010048"><ele>320.0</ele><time>2026-04-12T17:35:17Z</time></trkpt><trkpt lat="43.58282345364975" lon="11.308876926643379"><ele>316.0</ele><time>2026-04-12T17:35:17.999Z</time></trkpt><trkpt lat="43.582876942096505" lon="11.309031779088416"><ele>312.0</ele><time>2026-04-12T17:35:18.999Z</time></trkpt><trkpt lat="43.58292503065553" lon="11.309193816493789"><ele>308.0</ele><time>2026-04-12T17:35:19.999Z</time></trkpt><trkpt lat="43.58296738777627" lon="11.309353569658393"><ele>304.0</ele><time>2026-04-12T17:35:20.999Z</time></trkpt><trkpt lat="43.583009994127096" lon="11.309519359924497"><ele>304.0</ele><time>2026-04-12T17:35:21.999Z</time></trkpt><trkpt lat="43.58305297456827" lon="11.309680439326616"><ele>304.0</ele><time>2026-04-12T17:35:22.999Z</time></trkpt><trkpt lat="43.58308947132094" lon="11.309841049166367"><ele>304.0</ele><time>2026-04-12T17:35:23.999Z</time></trkpt><trkpt lat="43.583134304033926" lon="11.30999658992737"><ele>304.0</ele><time>2026-04-12T17:35:24.999Z</time></trkpt><trkpt lat="43.58317702223337" lon="11.310145114900015"><ele>303.8</ele><time>2026-04-12T17:35:25.999Z</time></trkpt><trkpt lat="43.58321901740389" lon="11.310288114223264"><ele>303.59999999999997</ele><time>2026-04-12T17:35:26.999Z</time></trkpt><trkpt lat="43.58325448280585" lon="11.310424276323864"><ele>303.4</ele><time>2026-04-12T17:35:27.999Z</time></trkpt><trkpt lat="43.583292184144725" lon="11.310552168406353"><ele>303.2</ele><time>2026-04-12T17:35:28.999Z</time></trkpt><trkpt lat="43.58332370586656" lon="11.310676515579168"><ele>303.0</ele><time>2026-04-12T17:35:30Z</time></trkpt><trkpt lat="43.58335221465627" lon="11.310795731969357"><ele>302.6666666666667</ele><time>2026-04-12T17:35:31Z</time></trkpt><trkpt lat="43.58338786311665" lon="11.31090985598527"><ele>302.3333333333333</ele><time>2026-04-12T17:35:32Z</time></trkpt><trkpt lat="43.58342433450762" lon="11.311022874318146"><ele>302.0</ele><time>2026-04-12T17:35:33Z</time></trkpt><trkpt lat="43.583472101684755" lon="11.311125304737088"><ele>301.66666666666663</ele><time>2026-04-12T17:35:34Z</time></trkpt><trkpt lat="43.583537789243735" lon="11.311207867573211"><ele>301.3333333333333</ele><time>2026-04-12T17:35:35Z</time></trkpt><trkpt lat="43.58360868729896" lon="11.311279800203291"><ele>301.0</ele><time>2026-04-12T17:35:36Z</time></trkpt><trkpt lat="43.58366478035907" lon="11.311374880714792"><ele>298.8333333333333</ele><time>2026-04-12T17:35:37Z</time></trkpt><trkpt lat="43.583722320902794" lon="11.311459379795764"><ele>296.66666666666663</ele><time>2026-04-12T17:35:38Z</time></trkpt><trkpt lat="43.583770996449914" lon="11.311561122775903"><ele>294.5</ele><time>2026-04-12T17:35:39Z</time></trkpt><trkpt lat="43.583825641362615" lon="11.311658977151135"><ele>292.3333333333333</ele><time>2026-04-12T17:35:40Z</time></trkpt><trkpt lat="43.58389078460207" lon="11.311731478560944"><ele>290.1666666666667</ele><time>2026-04-12T17:35:41Z</time></trkpt><trkpt lat="43.58394260968766" lon="11.311812228053588"><ele>288.0</ele><time>2026-04-12T17:35:42Z</time></trkpt><trkpt lat="43.58400108496305" lon="11.311874692891465"><ele>288.0</ele><time>2026-04-12T17:35:43Z</time></trkpt><trkpt lat="43.584067872609076" lon="11.31192818196797"><ele>288.0</ele><time>2026-04-12T17:35:44Z</time></trkpt><trkpt lat="43.58416302972142" lon="11.311875086950005"><ele>288.0</ele><time>2026-04-12T17:35:45Z</time></trkpt><trkpt lat="43.58423828125046" lon="11.311841361244719"><ele>288.0</ele><time>2026-04-12T17:35:46Z</time></trkpt><trkpt lat="43.58431342222235" lon="11.311834733804275"><ele>288.0</ele><time>2026-04-12T17:35:47Z</time></trkpt><trkpt lat="43.58437956725366" lon="11.31191723706839"><ele>288.0</ele><time>2026-04-12T17:35:48Z</time></trkpt><trkpt lat="43.58443794649445" lon="11.311988857268245"><ele>288.00000000000006</ele><time>2026-04-12T17:35:49Z</time></trkpt><trkpt lat="43.58449482483643" lon="11.312054523742804"><ele>288.0</ele><time>2026-04-12T17:35:50Z</time></trkpt><trkpt lat="43.58455592993403" lon="11.312110411258946"><ele>288.0</ele><time>2026-04-12T17:35:51Z</time></trkpt><trkpt lat="43.58459232340571" lon="11.312191375744405"><ele>288.0</ele><time>2026-04-12T17:35:52Z</time></trkpt><trkpt lat="43.58460495328071" lon="11.312293011233606"><ele>288.0</ele><time>2026-04-12T17:35:53Z</time></trkpt><trkpt lat="43.584594016159606" lon="11.312394731773162"><ele>288.00000000000006</ele><time>2026-04-12T17:35:54Z</time></trkpt><trkpt lat="43.584533651782586" lon="11.312473819261175"><ele>288.0</ele><time>2026-04-12T17:35:55Z</time></trkpt><trkpt lat="43.58450490511908" lon="11.312577406591464"><ele>286.8333333333333</ele><time>2026-04-12T17:35:56Z</time></trkpt><trkpt lat="43.58446216347483" lon="11.312666977979159"><ele>285.6666666666667</ele><time>2026-04-12T17:35:57Z</time></trkpt><trkpt lat="43.58442264039509" lon="11.312764635178326"><ele>284.5</ele><time>2026-04-12T17:35:58Z</time></trkpt><trkpt lat="43.584384296961304" lon="11.312864893372168"><ele>283.33333333333337</ele><time>2026-04-12T17:35:59Z</time></trkpt><trkpt lat="43.58434009139843" lon="11.312965471341704"><ele>282.1666666666667</ele><time>2026-04-12T17:36:00Z</time></trkpt><trkpt lat="43.58430242806056" lon="11.313062431468724"><ele>281.0</ele><time>2026-04-12T17:36:01Z</time></trkpt><trkpt lat="43.58426784203964" lon="11.31315026629649"><ele>278.83333333333337</ele><time>2026-04-12T17:36:02Z</time></trkpt><trkpt lat="43.58422556790422" lon="11.313233926978478"><ele>276.6666666666667</ele><time>2026-04-12T17:36:03Z</time></trkpt><trkpt lat="43.584191033534225" lon="11.313323722502448"><ele>274.5</ele><time>2026-04-12T17:36:04Z</time></trkpt><trkpt lat="43.58415759112657" lon="11.313407245623981"><ele>272.3333333333333</ele><time>2026-04-12T17:36:05Z</time></trkpt><trkpt lat="43.58415527068349" lon="11.31355378409231"><ele>270.16666666666663</ele><time>2026-04-12T17:36:07Z</time></trkpt><trkpt lat="43.58426686074174" lon="11.313582255031012"><ele>268.0</ele><time>2026-04-12T17:36:09Z</time></trkpt><trkpt lat="43.58434009709662" lon="11.313534395376669"><ele>268.0</ele><time>2026-04-12T17:36:10Z</time></trkpt><trkpt lat="43.584442237782696" lon="11.31346207212472"><ele>268.0</ele><time>2026-04-12T17:36:11Z</time></trkpt><trkpt lat="43.58458228627478" lon="11.31341866624496"><ele>268.0</ele><time>2026-04-12T17:36:12Z</time></trkpt><trkpt lat="43.584734764042416" lon="11.313350963275685"><ele>268.0</ele><time>2026-04-12T17:36:13Z</time></trkpt><trkpt lat="43.58489120884449" lon="11.313282127572762"><ele>263.25</ele><time>2026-04-12T17:36:14Z</time></trkpt><trkpt lat="43.58502390541787" lon="11.313212811334067"><ele>258.5</ele><time>2026-04-12T17:36:15Z</time></trkpt><trkpt lat="43.585144280612035" lon="11.313153014804113"><ele>253.75</ele><time>2026-04-12T17:36:16Z</time></trkpt><trkpt lat="43.58526309431344" lon="11.313104538483467"><ele>249.0</ele><time>2026-04-12T17:36:17Z</time></trkpt><trkpt lat="43.585371194266436" lon="11.31305298131406"><ele>247.0</ele><time>2026-04-12T17:36:18Z</time></trkpt><trkpt lat="43.585474285249" lon="11.313005859131893"><ele>244.99999999999997</ele><time>2026-04-12T17:36:19Z</time></trkpt><trkpt lat="43.58557171507412" lon="11.312962439518678"><ele>242.99999999999997</ele><time>2026-04-12T17:36:20Z</time></trkpt><trkpt lat="43.585669316695814" lon="11.31291541164933"><ele>241.0</ele><time>2026-04-12T17:36:21Z</time></trkpt><trkpt lat="43.58576220533002" lon="11.312862941268472"><ele>239.0</ele><time>2026-04-12T17:36:22Z</time></trkpt><trkpt lat="43.585849974997565" lon="11.312825839585193"><ele>239.00000000000003</ele><time>2026-04-12T17:36:23Z</time></trkpt><trkpt lat="43.585924173379546" lon="11.312786710317765"><ele>239.0</ele><time>2026-04-12T17:36:24Z</time></trkpt><trkpt lat="43.585999875861056" lon="11.312776757304633"><ele>239.0</ele><time>2026-04-12T17:36:25Z</time></trkpt><trkpt lat="43.58607238246131" lon="11.312814254368389"><ele>239.0</ele><time>2026-04-12T17:36:26Z</time></trkpt><trkpt lat="43.5861075978982" lon="11.312938103316506"><ele>239.00000000000003</ele><time>2026-04-12T17:36:27Z</time></trkpt><trkpt lat="43.586162258077685" lon="11.313046452110367"><ele>239.0</ele><time>2026-04-12T17:36:28Z</time></trkpt><trkpt lat="43.58620391380348" lon="11.313179650233925"><ele>237.33333333333334</ele><time>2026-04-12T17:36:29Z</time></trkpt><trkpt lat="43.58624811265944" lon="11.313277028736854"><ele>235.66666666666669</ele><time>2026-04-12T17:36:30Z</time></trkpt><trkpt lat="43.58628344776156" lon="11.313362720881573"><ele>234.0</ele><time>2026-04-12T17:36:31Z</time></trkpt><trkpt lat="43.58631595338415" lon="11.313448272619647"><ele>232.33333333333331</ele><time>2026-04-12T17:36:32Z</time></trkpt><trkpt lat="43.58636813112051" lon="11.313587123319724"><ele>230.66666666666666</ele><time>2026-04-12T17:36:34Z</time></trkpt><trkpt lat="43.586414463524974" lon="11.313715049709547"><ele>229.0</ele><time>2026-04-12T17:36:36Z</time></trkpt><trkpt lat="43.586542130257286" lon="11.31383180221348"><ele>228.99999999999997</ele><time>2026-04-12T17:36:38Z</time></trkpt><trkpt lat="43.58660777376257" lon="11.313881969012982"><ele>229.0</ele><time>2026-04-12T17:36:39Z</time></trkpt><trkpt lat="43.586673484060796" lon="11.313938497633206"><ele>229.0</ele><time>2026-04-12T17:36:40Z</time></trkpt><trkpt lat="43.586741102145396" lon="11.314055557320627"><ele>229.0</ele><time>2026-04-12T17:36:42Z</time></trkpt><trkpt lat="43.58671281807113" lon="11.31415859398553"><ele>228.99999999999997</ele><time>2026-04-12T17:36:43Z</time></trkpt><trkpt lat="43.58666895915456" lon="11.314231971163045"><ele>229.0</ele><time>2026-04-12T17:36:44Z</time></trkpt><trkpt lat="43.58661704614181" lon="11.314289794620988"><ele>228.83333333333331</ele><time>2026-04-12T17:36:45Z</time></trkpt><trkpt lat="43.58657569084968" lon="11.314361794133161"><ele>228.66666666666666</ele><time>2026-04-12T17:36:46Z</time></trkpt><trkpt lat="43.58653557244696" lon="11.314429039821778"><ele>228.5</ele><time>2026-04-12T17:36:47Z</time></trkpt><trkpt lat="43.5864619423316" lon="11.314572674814766"><ele>228.33333333333331</ele><time>2026-04-12T17:36:49Z</time></trkpt><trkpt lat="43.58642029772331" lon="11.314651882977019"><ele>228.16666666666666</ele><time>2026-04-12T17:36:50Z</time></trkpt><trkpt lat="43.58636129120583" lon="11.314770668476628"><ele>228.0</ele><time>2026-04-12T17:36:52Z</time></trkpt><trkpt lat="43.58630379929239" lon="11.31486309817919"><ele>228.0</ele><time>2026-04-12T17:36:54Z</time></trkpt><trkpt lat="43.58626452998503" lon="11.31493666773617"><ele>228.0</ele><time>2026-04-12T17:36:56Z</time></trkpt><trkpt lat="43.586220222798836" lon="11.315031599342337"><ele>228.0</ele><time>2026-04-12T17:37:00Z</time></trkpt><trkpt lat="43.58624532191251" lon="11.315219093826496"><ele>228.0</ele><time>2026-04-12T17:37:03Z</time></trkpt><trkpt lat="43.58625362698009" lon="11.315366487946351"><ele>228.0</ele><time>2026-04-12T17:37:04Z</time></trkpt><trkpt lat="43.586280957306286" lon="11.315539544697074"><ele>229.5</ele><time>2026-04-12T17:37:05Z</time></trkpt><trkpt lat="43.58632448498008" lon="11.31571656200136"><ele>231.0</ele><time>2026-04-12T17:37:06Z</time></trkpt><trkpt lat="43.58634768453226" lon="11.315898317176709"><ele>232.5</ele><time>2026-04-12T17:37:07Z</time></trkpt><trkpt lat="43.58637297274474" lon="11.316074274747502"><ele>234.0</ele><time>2026-04-12T17:37:08Z</time></trkpt><trkpt lat="43.586396140809384" lon="11.316245627777896"><ele>235.79999999999998</ele><time>2026-04-12T17:37:09Z</time></trkpt><trkpt lat="43.58641175823668" lon="11.316408418929212"><ele>237.59999999999997</ele><time>2026-04-12T17:37:10Z</time></trkpt><trkpt lat="43.58642611178611" lon="11.316561711936238"><ele>239.4</ele><time>2026-04-12T17:37:11Z</time></trkpt><trkpt lat="43.586444954365206" lon="11.316699041771926"><ele>241.2</ele><time>2026-04-12T17:37:12Z</time></trkpt><trkpt lat="43.58646242465796" lon="11.316830118809248"><ele>243.0</ele><time>2026-04-12T17:37:13Z</time></trkpt><trkpt lat="43.586476932970164" lon="11.316950398300701"><ele>243.0</ele><time>2026-04-12T17:37:14Z</time></trkpt><trkpt lat="43.586493735733185" lon="11.31706471318191"><ele>243.0</ele><time>2026-04-12T17:37:15Z</time></trkpt><trkpt lat="43.58650882537166" lon="11.31717053545192"><ele>243.0</ele><time>2026-04-12T17:37:16Z</time></trkpt><trkpt lat="43.586517333169404" lon="11.317282674324373"><ele>243.0</ele><time>2026-04-12T17:37:17Z</time></trkpt><trkpt lat="43.58653728166565" lon="11.317400537301507"><ele>243.0</ele><time>2026-04-12T17:37:17.999Z</time></trkpt><trkpt lat="43.58654763165973" lon="11.317521298226033"><ele>243.0</ele><time>2026-04-12T17:37:18.999Z</time></trkpt><trkpt lat="43.586562343940564" lon="11.317627268368446"><ele>244.25</ele><time>2026-04-12T17:37:19.999Z</time></trkpt><trkpt lat="43.58652484852585" lon="11.317752754050298"><ele>245.5</ele><time>2026-04-12T17:37:21.999Z</time></trkpt><trkpt lat="43.5863905647776" lon="11.317715698390154"><ele>246.75</ele><time>2026-04-12T17:37:24.999Z</time></trkpt><trkpt lat="43.58652233229312" lon="11.31790116153025"><ele>248.0</ele><time>2026-04-12T17:37:25.999Z</time></trkpt><trkpt lat="43.58643071026298" lon="11.317954726492625"><ele>248.00000000000003</ele><time>2026-04-12T17:37:26.999Z</time></trkpt><trkpt lat="43.58648369407347" lon="11.318012538224643"><ele>248.0</ele><time>2026-04-12T17:37:27.999Z</time></trkpt><trkpt lat="43.586552988348515" lon="11.318078852935379"><ele>248.0</ele><time>2026-04-12T17:37:28.999Z</time></trkpt><trkpt lat="43.586628060318475" lon="11.318153812424114"><ele>248.0</ele><time>2026-04-12T17:37:29.999Z</time></trkpt><trkpt lat="43.586666713655404" lon="11.318235400205733"><ele>248.00000000000003</ele><time>2026-04-12T17:37:30.999Z</time></trkpt><trkpt lat="43.58663924224819" lon="11.31840990293525"><ele>248.0</ele><time>2026-04-12T17:37:32.999Z</time></trkpt><trkpt lat="43.58658362963383" lon="11.318496352490003"><ele>249.2</ele><time>2026-04-12T17:37:33.999Z</time></trkpt><trkpt lat="43.586514423646115" lon="11.3185881030552"><ele>250.4</ele><time>2026-04-12T17:37:34.999Z</time></trkpt><trkpt lat="43.5864483210692" lon="11.318689845786125"><ele>251.59999999999997</ele><time>2026-04-12T17:37:36Z</time></trkpt><trkpt lat="43.586393008807725" lon="11.31879973107272"><ele>252.79999999999998</ele><time>2026-04-12T17:37:37Z</time></trkpt><trkpt lat="43.58636139198896" lon="11.318928207218768"><ele>254.0</ele><time>2026-04-12T17:37:38Z</time></trkpt><trkpt lat="43.586308431918184" lon="11.319052542478298"><ele>255.39999999999998</ele><time>2026-04-12T17:37:39Z</time></trkpt><trkpt lat="43.58626268671216" lon="11.31918775059439"><ele>256.79999999999995</ele><time>2026-04-12T17:37:40Z</time></trkpt><trkpt lat="43.58621832312023" lon="11.319317061178225"><ele>258.20000000000005</ele><time>2026-04-12T17:37:41Z</time></trkpt><trkpt lat="43.58614216644117" lon="11.319413709447314"><ele>259.6</ele><time>2026-04-12T17:37:42Z</time></trkpt><trkpt lat="43.58609578243723" lon="11.319541716342444"><ele>261.0</ele><time>2026-04-12T17:37:43Z</time></trkpt><trkpt lat="43.58605624247742" lon="11.319633944009315"><ele>261.5</ele><time>2026-04-12T17:37:44Z</time></trkpt><trkpt lat="43.58603505439003" lon="11.319755187602649"><ele>262.0</ele><time>2026-04-12T17:37:46Z</time></trkpt><trkpt lat="43.58606419068744" lon="11.319848395429123"><ele>262.5</ele><time>2026-04-12T17:37:47Z</time></trkpt><trkpt lat="43.58610626046981" lon="11.31992598122959"><ele>263.0</ele><time>2026-04-12T17:37:48Z</time></trkpt><trkpt lat="43.58615106728992" lon="11.32001364625854"><ele>263.5</ele><time>2026-04-12T17:37:49Z</time></trkpt><trkpt lat="43.58618930394706" lon="11.32011782569203"><ele>264.0</ele><time>2026-04-12T17:37:50Z</time></trkpt><trkpt lat="43.586232809475064" lon="11.320265094117667"><ele>264.0</ele><time>2026-04-12T17:37:51Z</time></trkpt><trkpt lat="43.58626696253196" lon="11.320414209863985"><ele>264.0</ele><time>2026-04-12T17:37:52Z</time></trkpt><trkpt lat="43.586302356235755" lon="11.320550993725746"><ele>264.0</ele><time>2026-04-12T17:37:53Z</time></trkpt><trkpt lat="43.58634131374411" lon="11.320677140225984"><ele>264.0</ele><time>2026-04-12T17:37:54Z</time></trkpt><trkpt lat="43.58638760512978" lon="11.32079784661118"><ele>264.0</ele><time>2026-04-12T17:37:55Z</time></trkpt><trkpt lat="43.58642875074234" lon="11.320932926272535"><ele>264.3333333333333</ele><time>2026-04-12T17:37:56Z</time></trkpt><trkpt lat="43.586480186046586" lon="11.321065277537546"><ele>264.6666666666667</ele><time>2026-04-12T17:37:57Z</time></trkpt><trkpt lat="43.58651080584117" lon="11.32117039053163"><ele>265.0</ele><time>2026-04-12T17:37:58Z</time></trkpt><trkpt lat="43.586545261631066" lon="11.321275763660465"><ele>265.33333333333337</ele><time>2026-04-12T17:37:59Z</time></trkpt><trkpt lat="43.58657004696148" lon="11.321363194061238"><ele>265.6666666666667</ele><time>2026-04-12T17:38:00Z</time></trkpt><trkpt lat="43.58658218801756" lon="11.321451564225965"><ele>266.0</ele><time>2026-04-12T17:38:01Z</time></trkpt><trkpt lat="43.58658603838069" lon="11.321539485962527"><ele>267.1666666666667</ele><time>2026-04-12T17:38:02Z</time></trkpt><trkpt lat="43.58657776578466" lon="11.321629190635308"><ele>268.33333333333337</ele><time>2026-04-12T17:38:03Z</time></trkpt><trkpt lat="43.586576679098364" lon="11.32174943200084"><ele>269.5</ele><time>2026-04-12T17:38:04Z</time></trkpt><trkpt lat="43.58658776291409" lon="11.32187771219352"><ele>270.6666666666667</ele><time>2026-04-12T17:38:05Z</time></trkpt><trkpt lat="43.58660178224402" lon="11.32200203294032"><ele>271.8333333333333</ele><time>2026-04-12T17:38:06Z</time></trkpt><trkpt lat="43.58661737314743" lon="11.322121463643889"><ele>273.0</ele><time>2026-04-12T17:38:07Z</time></trkpt><trkpt lat="43.58662948472693" lon="11.32222235174764"><ele>274.0</ele><time>2026-04-12T17:38:08Z</time></trkpt><trkpt lat="43.58664567202962" lon="11.32232262271209"><ele>275.0</ele><time>2026-04-12T17:38:09Z</time></trkpt><trkpt lat="43.586659738006" lon="11.322421313235184"><ele>276.0</ele><time>2026-04-12T17:38:10Z</time></trkpt><trkpt lat="43.58667361276215" lon="11.322510218854006"><ele>277.0</ele><time>2026-04-12T17:38:11Z</time></trkpt><trkpt lat="43.58676668023532" lon="11.322570809188633"><ele>278.0</ele><time>2026-04-12T17:38:13Z</time></trkpt><trkpt lat="43.586850459412354" lon="11.322580072000244"><ele>279.0</ele><time>2026-04-12T17:38:14Z</time></trkpt><trkpt lat="43.586942421052676" lon="11.322553741641155"><ele>279.8</ele><time>2026-04-12T17:38:15Z</time></trkpt><trkpt lat="43.58701348935517" lon="11.322569884609601"><ele>280.59999999999997</ele><time>2026-04-12T17:38:16Z</time></trkpt><trkpt lat="43.587067083269794" lon="11.32271811588433"><ele>281.4</ele><time>2026-04-12T17:38:18Z</time></trkpt><trkpt lat="43.58708648597633" lon="11.322839944999451"><ele>282.2</ele><time>2026-04-12T17:38:19Z</time></trkpt><trkpt lat="43.587103155832935" lon="11.322940192975686"><ele>283.0</ele><time>2026-04-12T17:38:20Z</time></trkpt><trkpt lat="43.58711941117336" lon="11.32313777598499"><ele>283.0</ele><time>2026-04-12T17:38:22Z</time></trkpt><trkpt lat="43.58711582949844" lon="11.323227662326328"><ele>283.0</ele><time>2026-04-12T17:38:23Z</time></trkpt><trkpt lat="43.587113386121324" lon="11.323390513382334"><ele>283.0</ele><time>2026-04-12T17:38:25Z</time></trkpt><trkpt lat="43.58710775091729" lon="11.323491194769204"><ele>283.0</ele><time>2026-04-12T17:38:26Z</time></trkpt><trkpt lat="43.587113950722085" lon="11.323615750669374"><ele>283.0</ele><time>2026-04-12T17:38:27Z</time></trkpt><trkpt lat="43.58713247287319" lon="11.323737391895547"><ele>283.0</ele><time>2026-04-12T17:38:28Z</time></trkpt><trkpt lat="43.58714252911507" lon="11.323843924650001"><ele>284.5</ele><time>2026-04-12T17:38:29Z</time></trkpt><trkpt lat="43.58714625539478" lon="11.323932202443517"><ele>286.0</ele><time>2026-04-12T17:38:30Z</time></trkpt><trkpt lat="43.58712949506769" lon="11.324017254523719"><ele>287.5</ele><time>2026-04-12T17:38:31Z</time></trkpt><trkpt lat="43.58710930622863" lon="11.324139016773117"><ele>289.0</ele><time>2026-04-12T17:38:32Z</time></trkpt><trkpt lat="43.587103600333684" lon="11.324265481243208"><ele>290.5</ele><time>2026-04-12T17:38:33Z</time></trkpt><trkpt lat="43.58709923849758" lon="11.324402243737318"><ele>292.0</ele><time>2026-04-12T17:38:34Z</time></trkpt><trkpt lat="43.58709139064877" lon="11.32452194712717"><ele>292.0</ele><time>2026-04-12T17:38:35Z</time></trkpt><trkpt lat="43.587112888415874" lon="11.324690190394731"><ele>292.0</ele><time>2026-04-12T17:38:37Z</time></trkpt><trkpt lat="43.58713813704307" lon="11.324791962446321"><ele>292.0</ele><time>2026-04-12T17:38:38Z</time></trkpt><trkpt lat="43.587140722370876" lon="11.324888941405904"><ele>292.0</ele><time>2026-04-12T17:38:39Z</time></trkpt><trkpt lat="43.58713325672399" lon="11.325001619690532"><ele>292.0</ele><time>2026-04-12T17:38:40Z</time></trkpt><trkpt lat="43.5871096542078" lon="11.325099575372363"><ele>292.0</ele><time>2026-04-12T17:38:41Z</time></trkpt><trkpt lat="43.58705010657886" lon="11.32526051761516"><ele>296.3333333333333</ele><time>2026-04-12T17:38:43Z</time></trkpt><trkpt lat="43.587001786592346" lon="11.32531952255566"><ele>300.66666666666663</ele><time>2026-04-12T17:38:44Z</time></trkpt><trkpt lat="43.58691793230869" lon="11.325483427495776"><ele>305.0</ele><time>2026-04-12T17:38:46Z</time></trkpt><trkpt lat="43.5868641961691" lon="11.325561271984974"><ele>309.3333333333333</ele><time>2026-04-12T17:38:47Z</time></trkpt><trkpt lat="43.586809230956035" lon="11.325640003462162"><ele>313.6666666666667</ele><time>2026-04-12T17:38:48Z</time></trkpt><trkpt lat="43.586750664012776" lon="11.325688535226124"><ele>318.0</ele><time>2026-04-12T17:38:49Z</time></trkpt><trkpt lat="43.586681716213285" lon="11.325707855491746"><ele>318.0</ele><time>2026-04-12T17:38:51Z</time></trkpt><trkpt lat="43.586707910664835" lon="11.325837197240874"><ele>318.0</ele><time>2026-04-12T17:38:53Z</time></trkpt><trkpt lat="43.586739270550154" lon="11.325938778387005"><ele>318.0</ele><time>2026-04-12T17:38:54Z</time></trkpt><trkpt lat="43.5867699083666" lon="11.32603048393587"><ele>318.0</ele><time>2026-04-12T17:38:55Z</time></trkpt><trkpt lat="43.58676388099904" lon="11.326163439383897"><ele>318.0</ele><time>2026-04-12T17:38:57Z</time></trkpt><trkpt lat="43.58668005776376" lon="11.326244632832317"><ele>318.0</ele><time>2026-04-12T17:38:59Z</time></trkpt><trkpt lat="43.58659615713654" lon="11.326275023040377"><ele>318.0</ele><time>2026-04-12T17:39:00Z</time></trkpt><trkpt lat="43.586515267605506" lon="11.326292746021611"><ele>318.0</ele><time>2026-04-12T17:39:01Z</time></trkpt><trkpt lat="43.586439181352134" lon="11.326305451849434"><ele>318.0</ele><time>2026-04-12T17:39:02Z</time></trkpt><trkpt lat="43.58637144878857" lon="11.326317082067566"><ele>318.0</ele><time>2026-04-12T17:39:03Z</time></trkpt><trkpt lat="43.58626284884116" lon="11.326332793700303"><ele>318.0</ele><time>2026-04-12T17:39:05Z</time></trkpt><trkpt lat="43.5861988951295" lon="11.32641510225366"><ele>318.0</ele><time>2026-04-12T17:39:07Z</time></trkpt><trkpt lat="43.5861468225668" lon="11.326568345271744"><ele>317.5</ele><time>2026-04-12T17:39:09Z</time></trkpt><trkpt lat="43.58610336408914" lon="11.32668965879516"><ele>317.0</ele><time>2026-04-12T17:39:10.999Z</time></trkpt><trkpt lat="43.586141764614624" lon="11.326771996711187"><ele>316.5</ele><time>2026-04-12T17:39:13.999Z</time></trkpt><trkpt lat="43.586249957052786" lon="11.32673249833762"><ele>316.0</ele><time>2026-04-12T17:39:15.999Z</time></trkpt><trkpt lat="43.586328781045765" lon="11.326769481777847"><ele>315.5</ele><time>2026-04-12T17:39:16.999Z</time></trkpt><trkpt lat="43.58638636666167" lon="11.326847956020377"><ele>315.0</ele><time>2026-04-12T17:39:17.999Z</time></trkpt><trkpt lat="43.5863751572248" lon="11.326994237970345"><ele>315.0</ele><time>2026-04-12T17:39:18.999Z</time></trkpt><trkpt lat="43.58640826582318" lon="11.327100643648063"><ele>315.0</ele><time>2026-04-12T17:39:19.999Z</time></trkpt><trkpt lat="43.58648834671231" lon="11.3272488984586"><ele>315.0</ele><time>2026-04-12T17:39:21.999Z</time></trkpt><trkpt lat="43.58660256860881" lon="11.327279545388462"><ele>315.0</ele><time>2026-04-12T17:39:22.999Z</time></trkpt><trkpt lat="43.586689379884476" lon="11.327319199218396"><ele>315.0</ele><time>2026-04-12T17:39:23.999Z</time></trkpt><trkpt lat="43.58676334895542" lon="11.327399250671487"><ele>316.4</ele><time>2026-04-12T17:39:24.999Z</time></trkpt><trkpt lat="43.58680106798695" lon="11.327506849710636"><ele>317.8</ele><time>2026-04-12T17:39:25.999Z</time></trkpt><trkpt lat="43.5868642271651" lon="11.327603506727984"><ele>319.20000000000005</ele><time>2026-04-12T17:39:26.999Z</time></trkpt><trkpt lat="43.58689937917597" lon="11.327744509889587"><ele>320.6</ele><time>2026-04-12T17:39:27.999Z</time></trkpt><trkpt lat="43.586943888100244" lon="11.327874268577268"><ele>322.0</ele><time>2026-04-12T17:39:28.999Z</time></trkpt><trkpt lat="43.58702198888245" lon="11.328024327345323"><ele>322.0</ele><time>2026-04-12T17:39:29.999Z</time></trkpt><trkpt lat="43.5870938148913" lon="11.328144033972633"><ele>322.0</ele><time>2026-04-12T17:39:30.999Z</time></trkpt><trkpt lat="43.58718463393928" lon="11.328236243269997"><ele>322.0</ele><time>2026-04-12T17:39:31.999Z</time></trkpt><trkpt lat="43.58726020293373" lon="11.328328262747736"><ele>322.0</ele><time>2026-04-12T17:39:32.999Z</time></trkpt><trkpt lat="43.5873035407122" lon="11.328429827020098"><ele>322.0</ele><time>2026-04-12T17:39:33.999Z</time></trkpt><trkpt lat="43.58733228844178" lon="11.328547057041341"><ele>322.0</ele><time>2026-04-12T17:39:34.999Z</time></trkpt><trkpt lat="43.58734529966545" lon="11.328686066340234"><ele>322.0</ele><time>2026-04-12T17:39:35.999Z</time></trkpt><trkpt lat="43.58734725852205" lon="11.328833358655148"><ele>322.0</ele><time>2026-04-12T17:39:36.999Z</time></trkpt><trkpt lat="43.5873567268327" lon="11.328991752012524"><ele>322.0</ele><time>2026-04-12T17:39:37.999Z</time></trkpt><trkpt lat="43.58736548266817" lon="11.329149091225245"><ele>322.0</ele><time>2026-04-12T17:39:38.999Z</time></trkpt><trkpt lat="43.58736942583834" lon="11.329304231973321"><ele>322.0</ele><time>2026-04-12T17:39:39.999Z</time></trkpt><trkpt lat="43.58737921515008" lon="11.3294582066583"><ele>322.0</ele><time>2026-04-12T17:39:40.999Z</time></trkpt><trkpt lat="43.5873996316464" lon="11.329599573359879"><ele>322.0</ele><time>2026-04-12T17:39:42Z</time></trkpt><trkpt lat="43.58741495018747" lon="11.329722170919625"><ele>322.0</ele><time>2026-04-12T17:39:43Z</time></trkpt><trkpt lat="43.587425244850635" lon="11.329836123586144"><ele>322.0</ele><time>2026-04-12T17:39:44Z</time></trkpt><trkpt lat="43.58743731998562" lon="11.32992431280203"><ele>322.0</ele><time>2026-04-12T17:39:45Z</time></trkpt><trkpt lat="43.58746720668108" lon="11.330082565619064"><ele>322.0</ele><time>2026-04-12T17:39:47Z</time></trkpt><trkpt lat="43.58748382498031" lon="11.330172101567761"><ele>322.0</ele><time>2026-04-12T17:39:48Z</time></trkpt><trkpt lat="43.587506570577254" lon="11.330258393455749"><ele>322.0</ele><time>2026-04-12T17:39:49Z</time></trkpt><trkpt lat="43.58749123347799" lon="11.330345733391948"><ele>322.0</ele><time>2026-04-12T17:39:50Z</time></trkpt><trkpt lat="43.58740392853221" lon="11.330440076311215"><ele>322.0</ele><time>2026-04-12T17:39:52Z</time></trkpt><trkpt lat="43.58732639676882" lon="11.330402086107926"><ele>322.0</ele><time>2026-04-12T17:39:53Z</time></trkpt><trkpt lat="43.58726313595201" lon="11.330376481986821"><ele>322.0</ele><time>2026-04-12T17:39:54Z</time></trkpt><trkpt lat="43.58719642466336" lon="11.330380633110595"><ele>322.0</ele><time>2026-04-12T17:39:55Z</time></trkpt><trkpt lat="43.58707735452756" lon="11.33035722699239"><ele>322.0</ele><time>2026-04-12T17:39:57Z</time></trkpt><trkpt lat="43.586973104076776" lon="11.330332922359624"><ele>322.0</ele><time>2026-04-12T17:39:59Z</time></trkpt><trkpt lat="43.586849176669396" lon="11.330397016529174"><ele>321.3333333333333</ele><time>2026-04-12T17:40:01Z</time></trkpt><trkpt lat="43.58675388681818" lon="11.330492188240349"><ele>320.66666666666663</ele><time>2026-04-12T17:40:03Z</time></trkpt><trkpt lat="43.58668908438852" lon="11.330516586819654"><ele>320.0</ele><time>2026-04-12T17:40:04Z</time></trkpt><trkpt lat="43.58662781562173" lon="11.330551918723197"><ele>319.3333333333333</ele><time>2026-04-12T17:40:05Z</time></trkpt><trkpt lat="43.58656894833519" lon="11.33059752497515"><ele>318.6666666666667</ele><time>2026-04-12T17:40:06Z</time></trkpt><trkpt lat="43.586521408334534" lon="11.33065603911468"><ele>318.0</ele><time>2026-04-12T17:40:07Z</time></trkpt><trkpt lat="43.586493396873365" lon="11.330802548370029"><ele>319.8333333333333</ele><time>2026-04-12T17:40:09Z</time></trkpt><trkpt lat="43.58650760837835" lon="11.330901974061902"><ele>321.6666666666667</ele><time>2026-04-12T17:40:10Z</time></trkpt><trkpt lat="43.586538046531665" lon="11.33100771205002"><ele>323.5</ele><time>2026-04-12T17:40:11Z</time></trkpt><trkpt lat="43.58656059758788" lon="11.331102134492477"><ele>325.33333333333337</ele><time>2026-04-12T17:40:12Z</time></trkpt><trkpt lat="43.58658404724488" lon="11.33120875947343"><ele>327.1666666666667</ele><time>2026-04-12T17:40:13Z</time></trkpt><trkpt lat="43.58662114737203" lon="11.331295820789753"><ele>329.0</ele><time>2026-04-12T17:40:14Z</time></trkpt><trkpt lat="43.58666656743879" lon="11.331397166396902"><ele>329.0</ele><time>2026-04-12T17:40:15Z</time></trkpt><trkpt lat="43.58672439195572" lon="11.331495465719899"><ele>329.0</ele><time>2026-04-12T17:40:16Z</time></trkpt><trkpt lat="43.5868044160876" lon="11.33156544152508"><ele>329.0</ele><time>2026-04-12T17:40:17Z</time></trkpt><trkpt lat="43.58688836119451" lon="11.331629708110693"><ele>329.0</ele><time>2026-04-12T17:40:18Z</time></trkpt><trkpt lat="43.586969205542054" lon="11.331687229496872"><ele>329.0</ele><time>2026-04-12T17:40:19Z</time></trkpt><trkpt lat="43.587033359176274" lon="11.331727043727716"><ele>329.0</ele><time>2026-04-12T17:40:20Z</time></trkpt><trkpt lat="43.58713647713564" lon="11.331821633780992"><ele>331.4</ele><time>2026-04-12T17:40:22Z</time></trkpt><trkpt lat="43.58723641699284" lon="11.331875221486428"><ele>333.79999999999995</ele><time>2026-04-12T17:40:24Z</time></trkpt><trkpt lat="43.587358533887986" lon="11.331933856355377"><ele>336.20000000000005</ele><time>2026-04-12T17:40:26Z</time></trkpt><trkpt lat="43.5874452295906" lon="11.331979135948943"><ele>338.6</ele><time>2026-04-12T17:40:27Z</time></trkpt><trkpt lat="43.58753983327396" lon="11.332041654744216"><ele>341.0</ele><time>2026-04-12T17:40:28Z</time></trkpt><trkpt lat="43.587630167211024" lon="11.332109695863586"><ele>341.0</ele><time>2026-04-12T17:40:29Z</time></trkpt><trkpt lat="43.58772143522367" lon="11.332158358812178"><ele>341.0</ele><time>2026-04-12T17:40:30Z</time></trkpt><trkpt lat="43.58783231565656" lon="11.332219036941618"><ele>341.0</ele><time>2026-04-12T17:40:31Z</time></trkpt><trkpt lat="43.58793732584786" lon="11.33230096742675"><ele>341.0</ele><time>2026-04-12T17:40:32Z</time></trkpt><trkpt lat="43.58802086682451" lon="11.332379664753233"><ele>341.0</ele><time>2026-04-12T17:40:33Z</time></trkpt><trkpt lat="43.58810630183509" lon="11.332446804777984"><ele>341.6666666666667</ele><time>2026-04-12T17:40:34Z</time></trkpt><trkpt lat="43.58818463890752" lon="11.332537298608905"><ele>342.33333333333337</ele><time>2026-04-12T17:40:35Z</time></trkpt><trkpt lat="43.588252819002214" lon="11.332608784174317"><ele>343.0</ele><time>2026-04-12T17:40:36Z</time></trkpt><trkpt lat="43.588326560789525" lon="11.332684890608043"><ele>343.6666666666667</ele><time>2026-04-12T17:40:37Z</time></trkpt><trkpt lat="43.58839200492216" lon="11.332759489731329"><ele>344.3333333333333</ele><time>2026-04-12T17:40:38Z</time></trkpt><trkpt lat="43.58844656113509" lon="11.332830330729555"><ele>345.0</ele><time>2026-04-12T17:40:39Z</time></trkpt><trkpt lat="43.58851825448678" lon="11.33295273190536"><ele>345.0</ele><time>2026-04-12T17:40:41Z</time></trkpt><trkpt lat="43.588600773292725" lon="11.333043461236299"><ele>345.0</ele><time>2026-04-12T17:40:43Z</time></trkpt><trkpt lat="43.58864002577512" lon="11.333112198622802"><ele>345.0</ele><time>2026-04-12T17:40:44Z</time></trkpt><trkpt lat="43.58869735295215" lon="11.333201875945086"><ele>345.0</ele><time>2026-04-12T17:40:46Z</time></trkpt><trkpt lat="43.58864691397239" lon="11.333110031772714"><ele>345.0</ele><time>2026-04-12T17:40:53Z</time></trkpt><trkpt lat="43.588598670054495" lon="11.333050787914447"><ele>345.0</ele><time>2026-04-12T17:40:54Z</time></trkpt><trkpt lat="43.58853559570634" lon="11.332914765460814"><ele>345.0</ele><time>2026-04-12T17:40:56Z</time></trkpt><trkpt lat="43.58844924398372" lon="11.332821076081624"><ele>345.0</ele><time>2026-04-12T17:40:58Z</time></trkpt><trkpt lat="43.588586832893476" lon="11.332603929302232"><ele>345.0</ele><time>2026-04-12T17:41:02Z</time></trkpt><trkpt lat="43.588677566283614" lon="11.332523669061429"><ele>345.0</ele><time>2026-04-12T17:41:03Z</time></trkpt><trkpt lat="43.588752336598226" lon="11.332455453174456"><ele>344.8333333333333</ele><time>2026-04-12T17:41:04Z</time></trkpt><trkpt lat="43.58883087619222" lon="11.332398939312318"><ele>344.6666666666667</ele><time>2026-04-12T17:41:05Z</time></trkpt><trkpt lat="43.588910525475285" lon="11.332373854639581"><ele>344.5</ele><time>2026-04-12T17:41:06Z</time></trkpt><trkpt lat="43.58900128191968" lon="11.332358102536125"><ele>344.33333333333337</ele><time>2026-04-12T17:41:07Z</time></trkpt><trkpt lat="43.58910208863583" lon="11.332342398555275"><ele>344.1666666666667</ele><time>2026-04-12T17:41:08Z</time></trkpt><trkpt lat="43.58917629449542" lon="11.332318107509526"><ele>344.0</ele><time>2026-04-12T17:41:09Z</time></trkpt><trkpt lat="43.589263094349796" lon="11.332270431064924"><ele>344.0</ele><time>2026-04-12T17:41:10Z</time></trkpt><trkpt lat="43.58934293774796" lon="11.332236420916606"><ele>344.0</ele><time>2026-04-12T17:41:11Z</time></trkpt><trkpt lat="43.58940675932052" lon="11.33221602219437"><ele>344.0</ele><time>2026-04-12T17:41:12Z</time></trkpt><trkpt lat="43.58949119020482" lon="11.332144720892922"><ele>344.0</ele><time>2026-04-12T17:41:14Z</time></trkpt><trkpt lat="43.58956964357892" lon="11.332181944912255"><ele>344.0</ele><time>2026-04-12T17:41:15.999Z</time></trkpt><trkpt lat="43.58960844268096" lon="11.33226761155312"><ele>344.0</ele><time>2026-04-12T17:41:16.999Z</time></trkpt><trkpt lat="43.58965037896983" lon="11.33238479933485"><ele>341.2</ele><time>2026-04-12T17:41:17.999Z</time></trkpt><trkpt lat="43.589692904422435" lon="11.332516026332238"><ele>338.4</ele><time>2026-04-12T17:41:18.999Z</time></trkpt><trkpt lat="43.589736774438784" lon="11.332644129360482"><ele>335.6</ele><time>2026-04-12T17:41:19.999Z</time></trkpt><trkpt lat="43.58977168253178" lon="11.332746808805298"><ele>332.8</ele><time>2026-04-12T17:41:20.999Z</time></trkpt><trkpt lat="43.58979961114436" lon="11.332847328883696"><ele>330.0</ele><time>2026-04-12T17:41:21.999Z</time></trkpt><trkpt lat="43.589866482810834" lon="11.333010751300703"><ele>332.8333333333333</ele><time>2026-04-12T17:41:23.999Z</time></trkpt><trkpt lat="43.589904357806724" lon="11.33311199329438"><ele>335.6666666666667</ele><time>2026-04-12T17:41:24.999Z</time></trkpt><trkpt lat="43.5899519428666" lon="11.333204729939528"><ele>338.5</ele><time>2026-04-12T17:41:25.999Z</time></trkpt><trkpt lat="43.58998636722737" lon="11.333295037980587"><ele>341.33333333333337</ele><time>2026-04-12T17:41:26.999Z</time></trkpt><trkpt lat="43.590030873194536" lon="11.333391666380422"><ele>344.1666666666667</ele><time>2026-04-12T17:41:27.999Z</time></trkpt><trkpt lat="43.59005903957864" lon="11.333481796066806"><ele>347.0</ele><time>2026-04-12T17:41:28.999Z</time></trkpt><trkpt lat="43.59008896689825" lon="11.333575870625587"><ele>347.0</ele><time>2026-04-12T17:41:29.999Z</time></trkpt><trkpt lat="43.590141225777344" lon="11.33371624719117"><ele>347.0</ele><time>2026-04-12T17:41:31.999Z</time></trkpt><trkpt lat="43.59005978448102" lon="11.333700245189911"><ele>347.0</ele><time>2026-04-12T17:41:34.999Z</time></trkpt><trkpt lat="43.58996208184821" lon="11.333633331578364"><ele>347.0</ele><time>2026-04-12T17:41:36.999Z</time></trkpt><trkpt lat="43.58993332634148" lon="11.333541082646539"><ele>347.0</ele><time>2026-04-12T17:41:39.999Z</time></trkpt><trkpt lat="43.58992385061052" lon="11.333446987052687"><ele>347.0</ele><time>2026-04-12T17:41:45.999Z</time></trkpt><trkpt lat="43.58990280140183" lon="11.3333618715536"><ele>347.0</ele><time>2026-04-12T17:41:53Z</time></trkpt></trkseg></trk></gpx>